
Distance (Route):
Temperature : 5.4°C
Humidity : 0%
Pressure : 723.9hPa| Receiver | Frames | First received | Last received |
|---|---|---|---|
| DO3MHA-11 | 396 | 2026-09-04 22:48:17 | 2026-09-05 01:19:24 |
| OE5MMP-10 | 377 | 2026-09-04 23:17:42 | 2026-09-05 01:19:22 |
| OE3MUC-15 | 235 | 2026-09-04 23:29:58 | 2026-09-05 01:04:48 |
| OE5DRO-10 | 186 | 2026-09-04 23:03:03 | 2026-09-05 01:15:46 |
| PG1ADW-2 | 184 | 2026-09-04 23:13:15 | 2026-09-05 01:13:02 |
| DL6DJ-15 | 153 | 2026-09-04 22:48:43 | 2026-09-05 01:03:51 |
| PETON7-10 | 147 | 2026-09-04 23:31:23 | 2026-09-05 01:05:33 |
| AA1-15 | 125 | 2026-09-05 00:29:18 | 2026-09-05 00:53:49 |
| SONDE2-11 | 115 | 2026-09-04 23:14:00 | 2026-09-05 01:07:26 |
| EDDB2-11 | 112 | 2026-09-04 23:13:56 | 2026-09-05 01:06:13 |
| DF8AY | 111 | 2026-09-04 23:45:26 | 2026-09-05 00:57:11 |
| DL1XH-west | 111 | 2026-09-05 00:32:12 | 2026-09-05 00:53:32 |
| EDDB2-12 | 100 | 2026-09-04 23:14:18 | 2026-09-05 01:08:08 |
| DL1XH1-15 | 68 | 2026-09-05 00:36:36 | 2026-09-05 00:52:56 |
| BAUMI2-15 | 65 | 2026-09-05 00:16:42 | 2026-09-05 00:46:31 |
| DO8TBO-1 | 57 | 2026-09-04 22:56:23 | 2026-09-05 01:06:26 |
| NBG1-10 | 56 | 2026-09-04 22:48:48 | 2026-09-05 01:18:56 |
| OE5WHR-10 | 56 | 2026-09-04 23:08:38 | 2026-09-05 01:06:49 |
| HSKMA3-T | 50 | 2026-09-05 00:39:31 | 2026-09-05 00:51:28 |
| SP3BTT-10 | 48 | 2026-09-04 23:24:07 | 2026-09-05 01:04:38 |
| OE5DXL-15 | 43 | 2026-09-04 23:00:53 | 2026-09-05 01:13:09 |
| DO9HM | 41 | 2026-09-04 22:51:39 | 2026-09-04 23:12:08 |
| S52SK | 37 | 2026-09-04 23:29:02 | 2026-09-05 01:03:46 |
| AM1SDL-15 | 35 | 2026-09-04 23:09:23 | 2026-09-05 01:05:43 |
| SONCRA | 24 | 2026-09-04 23:03:08 | 2026-09-05 01:01:09 |
| DL1JEZ-13 | 24 | 2026-09-04 23:06:04 | 2026-09-05 00:24:32 |
| DB0NH | 20 | 2026-09-04 22:48:20 | 2026-09-05 01:13:11 |
| DM0DOS-11 | 20 | 2026-09-04 23:32:51 | 2026-09-05 01:00:42 |
| DF2AP-13 | 17 | 2026-09-04 23:00:37 | 2026-09-05 00:59:41 |
| DL1XH-15 | 17 | 2026-09-05 00:43:23 | 2026-09-05 00:50:01 |
| DF3TZ-5 | 12 | 2026-09-04 23:44:52 | 2026-09-05 01:05:05 |
| DJ2DS-15 | 11 | 2026-09-05 00:36:00 | 2026-09-05 00:48:49 |
| DG1MFX-10 | 10 | 2026-09-04 23:34:14 | 2026-09-05 00:07:42 |
| DL2RXE-15 | 9 | 2026-09-05 00:14:44 | 2026-09-05 00:23:35 |
| OM5KV | 8 | 2026-09-04 23:34:07 | 2026-09-05 01:03:03 |
| ANDY1245 | 7 | 2026-09-04 23:17:09 | 2026-09-04 23:22:52 |
| DH8WE-5 | 5 | 2026-09-04 23:12:04 | 2026-09-04 23:15:12 |
| OE3JTB-15 | 4 | 2026-09-04 23:44:41 | 2026-09-05 01:18:08 |
| OE5REO-15 | 3 | 2026-09-05 00:23:32 | 2026-09-05 00:25:29 |
| DB0UT-7 | 2 | 2026-09-05 01:02:40 | 2026-09-05 01:03:21 |
| DB0UT-9 | 1 | 2026-09-05 01:03:16 | 2026-09-05 01:03:16 |
| Receiver | Date | Latitude | Longitude | Direction | Speed | Altitude | Climb | Temperature | Humidity | Pressure | Voltage | Killtimer | Uptime | BKT | XDATA |
|---|---|---|---|---|---|---|---|---|---|---|---|---|---|---|---|
| DO3MHA-11 | 2026-09-05 01:19:24 | 49.50441 | 14.13810 | 87° | 86km/h | 2878m | -6.6m/s | 5.4°C | 0% | 723.9hPa | 2.6V | 00:00:00 | 03:16:48 | 00:00:00 | |
| OE5MMP-10 | 2026-09-05 01:19:22 | 49.50439 | 14.13743 | 89° | 89km/h | 2892m | -7.2m/s | 5.1°C | 97.4% | 722.6hPa | 2.6V | 00:00:00 | 03:16:46 | 00:00:00 | |
| OE5MMP-10 | 2026-09-05 01:19:09 | 49.50434 | 14.13297 | 91° | 91km/h | 2972m | -6.6m/s | 4.7°C | 97.2% | 715.5hPa | 2.6V | 02:48:00 | 03:16:33 | 00:00:00 | |
| DO3MHA-11 | 2026-09-05 01:19:07 | 49.50434 | 14.13226 | 90° | 91km/h | 2984m | -5.8m/s | 4.8°C | 93.5% | 714.5hPa | 2.6V | 02:48:00 | 03:16:31 | 00:00:00 | |
| NBG1-10 | 2026-09-05 01:18:56 | 49.50433 | 14.12834 | 89° | 104km/h | 3047m | -5.6m/s | 4.0°C | 0% | 709.0hPa | 2.6V | 00:00:00 | 03:16:20 | 00:00:00 | |
| DO3MHA-11 | 2026-09-05 01:18:47 | 49.50437 | 14.12515 | 93° | 91km/h | 3105m | -6.8m/s | 3.8°C | 97.6% | 704.2hPa | 2.6V | 00:00:00 | 03:16:11 | 00:00:00 | |
| DO3MHA-11 | 2026-09-05 01:18:42 | 49.50437 | 14.12337 | 88° | 89km/h | 3138m | -6.5m/s | 3.8°C | 0% | 701.2hPa | 2.6V | 00:00:00 | 03:16:06 | 00:00:00 | |
| OE5MMP-10 | 2026-09-05 01:18:37 | 49.50433 | 14.12163 | 90° | 93km/h | 3168m | -5.7m/s | 3.3°C | 0% | 698.5hPa | 2.6V | 00:00:00 | 03:16:01 | 00:00:00 | |
| DO3MHA-11 | 2026-09-05 01:18:32 | 49.50433 | 14.11985 | 91° | 95km/h | 3203m | -7.2m/s | 3.2°C | 0% | 695.5hPa | 2.6V | 00:00:00 | 03:15:56 | 00:00:00 | |
| OE5MMP-10 | 2026-09-05 01:18:27 | 49.50432 | 14.11802 | 89° | 95km/h | 3239m | -7.3m/s | 3.1°C | 97.9% | 692.6hPa | 2.6V | 02:48:00 | 03:15:51 | 00:00:00 | |
| DO3MHA-11 | 2026-09-05 01:18:22 | 49.50429 | 14.11621 | 88° | 95km/h | 3275m | -6.6m/s | 2.9°C | 97.7% | 689.5hPa | 2.6V | 02:49:00 | 03:15:46 | 00:00:00 | |
| DO3MHA-11 | 2026-09-05 01:18:17 | 49.50426 | 14.11435 | 90° | 99km/h | 3310m | -7.4m/s | 2.7°C | 96.9% | 686.6hPa | 2.6V | 00:00:00 | 03:15:41 | 00:00:00 | |
| OE5MMP-10 | 2026-09-05 01:18:15 | 49.50426 | 14.11359 | 91° | 99km/h | 3325m | -7.5m/s | 3.0°C | 91.4% | 685.2hPa | 2.6V | 00:00:00 | 03:15:39 | 00:00:00 | |
| DO3MHA-11 | 2026-09-05 01:18:12 | 49.50426 | 14.11243 | 90° | 99km/h | 3346m | -6.8m/s | 2.7°C | 93.6% | 683.3hPa | 2.6V | 00:00:00 | 03:15:36 | 00:00:00 | |
| OE3JTB-15 | 2026-09-05 01:18:08 | 49.50426 | 14.11090 | 90° | 100km/h | 3374m | -7.5m/s | 2.5°C | 93.1% | 681.1hPa | 2.6V | 00:00:00 | 03:15:32 | 00:00:00 | |
| DO3MHA-11 | 2026-09-05 01:18:07 | 49.50426 | 14.11051 | 90° | 99km/h | 3381m | -7.5m/s | 2.4°C | 94.4% | 680.6hPa | 2.6V | 02:49:00 | 03:15:31 | 00:00:00 | |
| OE5MMP-10 | 2026-09-05 01:18:05 | 49.50426 | 14.10975 | 90° | 99km/h | 3397m | -7.3m/s | 2.3°C | 94.7% | 679.1hPa | 2.6V | 00:00:00 | 03:15:29 | 00:00:00 | |
| DO3MHA-11 | 2026-09-05 01:18:02 | 49.50424 | 14.10860 | 89° | 100km/h | 3418m | -7.3m/s | 2.1°C | 94.8% | 677.4hPa | 2.6V | 00:00:00 | 03:15:26 | 00:00:00 | |
| DO3MHA-11 | 2026-09-05 01:17:57 | 49.50422 | 14.10666 | 90° | 99km/h | 3455m | -7.4m/s | 1.6°C | 95.6% | 674.3hPa | 2.6V | 00:00:00 | 03:15:21 | 00:00:00 | |
| OE5MMP-10 | 2026-09-05 01:17:55 | 49.50422 | 14.10589 | 90° | 102km/h | 3470m | -7.0m/s | 1.6°C | 0% | 673.1hPa | 2.6V | 02:49:00 | 03:15:19 | 00:00:00 | |
| DO3MHA-11 | 2026-09-05 01:17:52 | 49.50420 | 14.10472 | 88° | 104km/h | 3493m | -7.4m/s | 1.0°C | 0% | 671.2hPa | 2.5V | 02:49:00 | 03:15:16 | 00:00:00 | |
| DO3MHA-11 | 2026-09-05 01:17:47 | 49.50415 | 14.10270 | 88° | 104km/h | 3529m | -8.2m/s | 0.8°C | 0% | 668.2hPa | 2.6V | 00:00:00 | 03:15:11 | 00:00:00 | |
| OE5MMP-10 | 2026-09-05 01:17:45 | 49.50414 | 14.10189 | 89° | 106km/h | 3546m | -9.4m/s | 0.3°C | 0% | 666.9hPa | 2.6V | 00:00:00 | 03:15:09 | 00:00:00 | |
| DO3MHA-11 | 2026-09-05 01:17:42 | 49.50410 | 14.10069 | 88° | 106km/h | 3572m | -7.7m/s | 0.3°C | 0% | 664.5hPa | 2.6V | 00:00:00 | 03:15:06 | 00:00:00 | |
| DO3MHA-11 | 2026-09-05 01:17:37 | 49.50406 | 14.09864 | 89° | 108km/h | 3612m | -7.6m/s | 0.2°C | 0% | 661.2hPa | 2.6V | 02:49:00 | 03:15:01 | 00:00:00 | |
| OE5MMP-10 | 2026-09-05 01:17:35 | 49.50405 | 14.09780 | 89° | 110km/h | 3626m | -7.7m/s | 0.0°C | 0% | 660.1hPa | 2.6V | 00:00:00 | 03:14:59 | 00:00:00 | |
| DO3MHA-11 | 2026-09-05 01:17:32 | 49.50402 | 14.09653 | 88° | 110km/h | 3647m | -6.3m/s | -0.0°C | 0% | 658.3hPa | 2.6V | 00:00:00 | 03:14:56 | 00:00:00 | |
| DO3MHA-11 | 2026-09-05 01:17:27 | 49.50398 | 14.09438 | 89° | 110km/h | 3680m | -6.6m/s | -0.3°C | 0% | 655.5hPa | 2.6V | 00:00:00 | 03:14:51 | 00:00:00 | |
| OE5MMP-10 | 2026-09-05 01:17:25 | 49.50396 | 14.09353 | 88° | 108km/h | 3694m | -7.4m/s | -0.3°C | 0% | 654.6hPa | 2.6V | 02:49:00 | 03:14:49 | 00:00:00 | |
| DO3MHA-11 | 2026-09-05 01:17:22 | 49.50392 | 14.09226 | 87° | 108km/h | 3716m | -6.6m/s | -0.5°C | 0% | 652.7hPa | 2.5V | 02:50:00 | 03:14:46 | 00:00:00 | |
| DO3MHA-11 | 2026-09-05 01:17:18 | 49.50386 | 14.09017 | 88° | 110km/h | 3753m | -8.4m/s | -0.7°C | 0% | 650.0hPa | 2.6V | 00:00:00 | 03:14:41 | 00:00:00 | |
| OE5MMP-10 | 2026-09-05 01:17:15 | 49.50383 | 14.08933 | 87° | 108km/h | 3769m | -7.3m/s | -0.7°C | 0% | 648.6hPa | 2.6V | 00:00:00 | 03:14:39 | 00:00:00 | |
| DO3MHA-11 | 2026-09-05 01:17:12 | 49.50377 | 14.08806 | 87° | 108km/h | 3792m | -7.8m/s | -0.8°C | 0% | 646.6hPa | 2.6V | 00:00:00 | 03:14:36 | 00:00:00 | |
| DO3MHA-11 | 2026-09-05 01:17:07 | 49.50369 | 14.08597 | 87° | 108km/h | 3828m | -6.9m/s | -1.1°C | 0% | 643.9hPa | 2.6V | 02:50:00 | 03:14:31 | 00:00:00 | |
| OE5MMP-10 | 2026-09-05 01:17:05 | 49.50366 | 14.08514 | 88° | 108km/h | 3842m | -6.3m/s | -1.2°C | 0% | 642.8hPa | 2.6V | 00:00:00 | 03:14:29 | 00:00:00 | |
| DO3MHA-11 | 2026-09-05 01:17:02 | 49.50362 | 14.08387 | 88° | 108km/h | 3860m | -6.4m/s | -1.4°C | 0% | 641.1hPa | 2.6V | 00:00:00 | 03:14:26 | 00:00:00 | |
| DO3MHA-11 | 2026-09-05 01:16:57 | 49.50355 | 14.08178 | 86° | 104km/h | 3892m | -5.8m/s | -1.6°C | 0% | 638.6hPa | 2.6V | 00:00:00 | 03:14:21 | 00:00:00 | |
| OE5MMP-10 | 2026-09-05 01:16:55 | 49.50350 | 14.08097 | 85° | 104km/h | 3907m | -8.0m/s | -1.7°C | 0% | 637.5hPa | 2.6V | 02:50:00 | 03:14:19 | 00:00:00 | |
| NBG1-10 | 2026-09-05 01:16:54 | 49.50347 | 14.08057 | 85° | 102km/h | 3915m | -9.2m/s | -1.7°C | 0% | 637.1hPa | 2.5V | 02:50:00 | 03:14:18 | 00:00:00 | |
| DO3MHA-11 | 2026-09-05 01:16:52 | 49.50342 | 14.07976 | 85° | 106km/h | 3935m | -9.3m/s | -1.9°C | 0% | 635.5hPa | 2.6V | 02:50:00 | 03:14:16 | 00:00:00 | |
| DO3MHA-11 | 2026-09-05 01:16:47 | 49.50332 | 14.07769 | 88° | 110km/h | 3973m | -6.8m/s | -2.1°C | 0% | 632.2hPa | 2.5V | 00:00:00 | 03:14:11 | 00:00:00 | |
| OE5MMP-10 | 2026-09-05 01:16:45 | 49.50330 | 14.07682 | 89° | 108km/h | 3986m | -6.3m/s | -2.1°C | 0% | 631.1hPa | 2.5V | 00:00:00 | 03:14:09 | 00:00:00 | |
| DO3MHA-11 | 2026-09-05 01:16:42 | 49.50328 | 14.07555 | 88° | 106km/h | 4005m | -6.2m/s | -2.3°C | 0% | 629.6hPa | 2.5V | 00:00:00 | 03:14:06 | 00:00:00 | |
| DO3MHA-11 | 2026-09-05 01:16:37 | 49.50320 | 14.07349 | 86° | 108km/h | 4040m | -7.0m/s | -2.6°C | 0% | 626.8hPa | 2.5V | 02:50:00 | 03:14:01 | 00:00:00 | |
| OE5MMP-10 | 2026-09-05 01:16:35 | 49.50315 | 14.07265 | 86° | 106km/h | 4056m | -9.0m/s | -2.7°C | 0% | 625.6hPa | 2.5V | 00:00:00 | 03:13:59 | 00:00:00 | |
| DO3MHA-11 | 2026-09-05 01:16:32 | 49.50309 | 14.07140 | 86° | 106km/h | 4080m | -8.5m/s | -2.8°C | 0% | 623.8hPa | 2.5V | 00:00:00 | 03:13:56 | 00:00:00 | |
| DO3MHA-11 | 2026-09-05 01:16:27 | 49.50296 | 14.06934 | 85° | 104km/h | 4121m | -7.6m/s | -3.1°C | 0% | 620.4hPa | 2.5V | 00:00:00 | 03:13:51 | 00:00:00 | |
| OE5MMP-10 | 2026-09-05 01:16:25 | 49.50291 | 14.06853 | 86° | 100km/h | 4136m | -6.8m/s | -3.1°C | 0% | 619.2hPa | 2.5V | 02:50:00 | 03:13:49 | 00:00:00 | |
| DO3MHA-11 | 2026-09-05 01:16:22 | 49.50285 | 14.06734 | 85° | 100km/h | 4158m | -6.7m/s | -3.2°C | 0% | 617.5hPa | 2.6V | 02:51:00 | 03:13:46 | 00:00:00 | |
| NBG1-10 | 2026-09-05 01:16:19 | 49.50276 | 14.06619 | 84° | 102km/h | 4179m | -7.5m/s | -3.4°C | 0% | 615.9hPa | 2.6V | 00:00:00 | 03:13:43 | 00:00:00 | |
| DO3MHA-11 | 2026-09-05 01:16:17 | 49.50271 | 14.06542 | 86° | 102km/h | 4191m | -5.2m/s | -3.6°C | 0% | 614.9hPa | 2.6V | 00:00:00 | 03:13:41 | 00:00:00 | |
| OE5MMP-10 | 2026-09-05 01:16:15 | 49.50267 | 14.06464 | 85° | 102km/h | 4203m | -6.8m/s | -3.6°C | 0% | 614.1hPa | 2.6V | 00:00:00 | 03:13:39 | 00:00:00 | |
| DO3MHA-11 | 2026-09-05 01:16:12 | 49.50260 | 14.06344 | 86° | 102km/h | 4223m | -7.3m/s | -3.7°C | 0% | 612.5hPa | 2.6V | 00:00:00 | 03:13:36 | 00:00:00 | |
| DO3MHA-11 | 2026-09-05 01:16:07 | 49.50248 | 14.06146 | 84° | 100km/h | 4258m | -7.6m/s | -3.9°C | 0% | 609.9hPa | 2.6V | 02:51:00 | 03:13:31 | 00:00:00 | |
| OE5MMP-10 | 2026-09-05 01:16:05 | 49.50243 | 14.06069 | 84° | 100km/h | 4274m | -7.6m/s | -3.9°C | 0% | 608.6hPa | 2.6V | 00:00:00 | 03:13:29 | 00:00:00 | |
| DO3MHA-11 | 2026-09-05 01:16:02 | 49.50235 | 14.05953 | 85° | 100km/h | 4296m | -6.8m/s | -4.0°C | 0% | 607.0hPa | 2.6V | 00:00:00 | 03:13:26 | 00:00:00 | |
| DO3MHA-11 | 2026-09-05 01:15:57 | 49.50225 | 14.05758 | 87° | 102km/h | 4330m | -6.7m/s | -4.4°C | 0% | 604.2hPa | 2.6V | 00:00:00 | 03:13:21 | 00:00:00 | |
| OE5MMP-10 | 2026-09-05 01:15:55 | 49.50223 | 14.05679 | 88° | 104km/h | 4343m | -6.6m/s | -4.4°C | 0% | 603.4hPa | 2.6V | 02:51:00 | 03:13:19 | 00:00:00 | |
| DO3MHA-11 | 2026-09-05 01:15:52 | 49.50219 | 14.05559 | 88° | 102km/h | 4364m | -6.5m/s | -4.6°C | 0% | 601.9hPa | 2.5V | 02:51:00 | 03:13:16 | 00:00:00 | |
| DO3MHA-11 | 2026-09-05 01:15:47 | 49.50213 | 14.05358 | 88° | 108km/h | 4393m | -5.9m/s | -4.9°C | 0% | 599.6hPa | 2.6V | 00:00:00 | 03:13:11 | 00:00:00 | |
| OE5DRO-10 | 2026-09-05 01:15:46 | 49.50212 | 14.05317 | 88° | 110km/h | 4399m | -5.9m/s | -4.9°C | 0% | 599.2hPa | 2.6V | 00:00:00 | 00:00:00 | 00:00:00 | |
| OE5MMP-10 | 2026-09-05 01:15:45 | 49.50210 | 14.05275 | 87° | 108km/h | 4404m | -5.4m/s | -4.8°C | 0% | 598.8hPa | 2.6V | 00:00:00 | 03:13:09 | 00:00:00 | |
| DO3MHA-11 | 2026-09-05 01:15:42 | 49.50205 | 14.05148 | 87° | 108km/h | 4424m | -5.3m/s | -4.9°C | 0% | 597.4hPa | 2.6V | 00:00:00 | 03:13:06 | 00:00:00 | |
| DO3MHA-11 | 2026-09-05 01:15:37 | 49.50196 | 14.04939 | 87° | 110km/h | 4454m | -6.2m/s | -5.1°C | 0% | 594.9hPa | 2.6V | 02:51:00 | 03:13:01 | 00:00:00 | |
| OE5MMP-10 | 2026-09-05 01:15:34 | 49.50191 | 14.04813 | 86° | 111km/h | 4471m | -4.7m/s | -5.1°C | 0% | 593.7hPa | 2.6V | 00:00:00 | 03:12:58 | 00:00:00 | |
| DO3MHA-11 | 2026-09-05 01:15:32 | 49.50187 | 14.04727 | 87° | 111km/h | 4480m | -4.7m/s | -5.1°C | 0% | 592.8hPa | 2.6V | 00:00:00 | 03:12:56 | 00:00:00 | |
| OE5DRO-10 | 2026-09-05 01:15:29 | 49.50182 | 14.04597 | 88° | 110km/h | 4495m | -4.7m/s | -5.2°C | 0% | 591.7hPa | 2.6V | 02:51:00 | 00:00:00 | 00:00:00 | |
| DO3MHA-11 | 2026-09-05 01:15:27 | 49.50181 | 14.04509 | 89° | 111km/h | 4504m | -4.7m/s | -5.2°C | 0% | 591.1hPa | 2.5V | 00:00:00 | 03:12:51 | 00:00:00 | |
| OE5MMP-10 | 2026-09-05 01:15:24 | 49.50179 | 14.04380 | 89° | 110km/h | 4517m | -4.9m/s | -5.2°C | 0% | 590.1hPa | 2.5V | 02:51:00 | 03:12:48 | 00:00:00 | |
| DO3MHA-11 | 2026-09-05 01:15:22 | 49.50176 | 14.04292 | 87° | 110km/h | 4525m | -3.7m/s | -5.3°C | 0% | 589.5hPa | 2.6V | 02:52:00 | 03:12:46 | 00:00:00 | |
| DO3MHA-11 | 2026-09-05 01:15:17 | 49.50167 | 14.04079 | 87° | 110km/h | 4549m | -5.8m/s | -5.5°C | 0% | 587.8hPa | 2.5V | 00:00:00 | 03:12:41 | 00:00:00 | |
| OE5MMP-10 | 2026-09-05 01:15:14 | 49.50162 | 14.03951 | 88° | 110km/h | 4566m | -5.8m/s | -5.6°C | 0% | 586.6hPa | 2.5V | 00:00:00 | 03:12:38 | 00:00:00 | |
| DO3MHA-11 | 2026-09-05 01:15:12 | 49.50160 | 14.03866 | 88° | 110km/h | 4578m | -5.6m/s | -5.8°C | 0% | 585.7hPa | 2.5V | 00:00:00 | 03:12:36 | 00:00:00 | |
| OE5DRO-10 | 2026-09-05 01:15:08 | 49.50155 | 14.03697 | 87° | 110km/h | 4599m | -4.8m/s | -5.7°C | 0% | 584.2hPa | 2.5V | 00:00:00 | 00:00:00 | 00:00:00 | |
| DO3MHA-11 | 2026-09-05 01:15:07 | 49.50153 | 14.03654 | 86° | 110km/h | 4604m | -5.1m/s | -5.8°C | 0% | 583.8hPa | 2.5V | 02:52:00 | 03:12:31 | 00:00:00 | |
| NBG1-10 | 2026-09-05 01:15:06 | 49.50150 | 14.03612 | 86° | 110km/h | 4609m | -4.7m/s | -5.8°C | 0% | 583.4hPa | 2.6V | 02:52:00 | 03:12:30 | 00:00:00 | |
| OE5MMP-10 | 2026-09-05 01:15:04 | 49.50145 | 14.03527 | 84° | 110km/h | 4619m | -5.3m/s | -5.8°C | 0% | 582.6hPa | 2.6V | 00:00:00 | 03:12:28 | 00:00:00 | |
| DO3MHA-11 | 2026-09-05 01:14:57 | 49.50124 | 14.03230 | 85° | 108km/h | 4655m | -6.1m/s | -5.8°C | 0% | 579.9hPa | 2.6V | 00:00:00 | 03:12:21 | 00:00:00 | |
| OE5MMP-10 | 2026-09-05 01:14:54 | 49.50116 | 14.03104 | 84° | 106km/h | 4673m | -6.0m/s | -5.9°C | 0% | 578.5hPa | 2.6V | 02:52:00 | 03:12:18 | 00:00:00 | |
| DO3MHA-11 | 2026-09-05 01:14:52 | 49.50110 | 14.03021 | 84° | 104km/h | 4684m | -5.4m/s | -6.0°C | 0% | 577.6hPa | 2.5V | 02:52:00 | 03:12:16 | 00:00:00 | |
| DO3MHA-11 | 2026-09-05 01:14:47 | 49.50097 | 14.02819 | 85° | 106km/h | 4713m | -5.8m/s | -6.3°C | 0% | 575.5hPa | 2.6V | 00:00:00 | 03:12:11 | 00:00:00 | |
| OE5MMP-10 | 2026-09-05 01:14:44 | 49.50088 | 14.02697 | 84° | 108km/h | 4731m | -6.2m/s | -6.2°C | 0% | 574.2hPa | 2.6V | 00:00:00 | 03:12:08 | 00:00:00 | |
| DO3MHA-11 | 2026-09-05 01:14:42 | 49.50082 | 14.02614 | 83° | 108km/h | 4743m | -5.9m/s | -6.2°C | 0% | 573.3hPa | 2.6V | 00:00:00 | 03:12:06 | 00:00:00 | |
| OE5MMP-10 | 2026-09-05 01:14:34 | 49.50053 | 14.02279 | 83° | 108km/h | 4798m | -6.5m/s | -6.6°C | 0% | 569.4hPa | 2.6V | 00:00:00 | 03:11:58 | 00:00:00 | |
| DO3MHA-11 | 2026-09-05 01:14:32 | 49.50046 | 14.02196 | 82° | 106km/h | 4811m | -7.0m/s | -6.7°C | 0% | 568.5hPa | 2.6V | 00:00:00 | 03:11:56 | 00:00:00 | |
| DO3MHA-11 | 2026-09-05 01:14:27 | 49.50022 | 14.01992 | 80° | 110km/h | 4837m | -4.2m/s | -7.0°C | 0% | 566.4hPa | 2.6V | 00:00:00 | 03:11:51 | 00:00:00 | |
| OE5MMP-10 | 2026-09-05 01:14:24 | 49.50007 | 14.01866 | 81° | 111km/h | 4852m | -5.9m/s | -7.1°C | 0% | 565.3hPa | 2.6V | 02:52:00 | 03:11:48 | 00:00:00 | |
| DO3MHA-11 | 2026-09-05 01:14:22 | 49.49998 | 14.01782 | 83° | 111km/h | 4863m | -5.7m/s | -7.2°C | 0% | 564.5hPa | 2.5V | 02:53:00 | 03:11:46 | 00:00:00 | |
| OE5DRO-10 | 2026-09-05 01:14:18 | 49.49983 | 14.01610 | 82° | 110km/h | 4888m | -6.0m/s | -7.4°C | 0% | 562.9hPa | 2.6V | 00:00:00 | 00:00:00 | 00:00:00 | |
| DO3MHA-11 | 2026-09-05 01:14:17 | 49.49979 | 14.01567 | 82° | 111km/h | 4893m | -5.0m/s | -7.6°C | 0% | 562.3hPa | 2.6V | 00:00:00 | 03:11:41 | 00:00:00 | |
| OE5MMP-10 | 2026-09-05 01:14:14 | 49.49968 | 14.01438 | 83° | 110km/h | 4907m | -4.8m/s | -7.3°C | 0% | 561.4hPa | 2.6V | 00:00:00 | 03:11:38 | 00:00:00 | |
| DO3MHA-11 | 2026-09-05 01:14:12 | 49.49960 | 14.01352 | 83° | 110km/h | 4919m | -6.3m/s | -7.7°C | 0% | 560.7hPa | 2.6V | 00:00:00 | 03:11:36 | 00:00:00 | |
| NBG1-10 | 2026-09-05 01:14:11 | 49.49957 | 14.01309 | 83° | 117km/h | 4925m | -6.0m/s | -7.7°C | 0% | 560.2hPa | 2.6V | 00:00:00 | 03:11:35 | 00:00:00 | |
| DO3MHA-11 | 2026-09-05 01:14:07 | 49.49942 | 14.01142 | 82° | 110km/h | 4951m | -6.8m/s | -8.0°C | 0% | 558.5hPa | 2.6V | 02:53:00 | 03:11:31 | 00:00:00 | |
| OE5MMP-10 | 2026-09-05 01:14:04 | 49.49931 | 14.01016 | 84° | 110km/h | 4971m | -6.8m/s | -8.2°C | 0% | 556.9hPa | 2.5V | 00:00:00 | 03:11:28 | 00:00:00 | |
| DO3MHA-11 | 2026-09-05 01:14:02 | 49.49925 | 14.00930 | 85° | 111km/h | 4984m | -6.4m/s | -8.3°C | 0% | 555.9hPa | 2.5V | 00:00:00 | 03:11:26 | 00:00:00 | |
| DO3MHA-11 | 2026-09-05 01:13:57 | 49.49914 | 14.00716 | 85° | 111km/h | 5016m | -5.3m/s | -8.4°C | 0% | 553.6hPa | 2.5V | 00:00:00 | 03:11:21 | 00:00:00 | |
| OE5MMP-10 | 2026-09-05 01:13:54 | 49.49904 | 14.00590 | 83° | 113km/h | 5036m | -6.7m/s | -8.7°C | 0% | 552.4hPa | 2.5V | 02:53:00 | 03:11:18 | 00:00:00 | |
| DO3MHA-11 | 2026-09-05 01:13:47 | 49.49881 | 14.00284 | 84° | 113km/h | 5092m | -8.9m/s | -9.9°C | 0% | 548.4hPa | 2.5V | 02:53:00 | 03:11:11 | 00:00:00 | |
| OE5DRO-10 | 2026-09-05 01:13:46 | 49.49878 | 14.00240 | 82° | 119km/h | 5101m | -9.3m/s | -9.9°C | 0% | 547.9hPa | 2.6V | 02:53:00 | 00:00:00 | 00:00:00 | |
| OE5MMP-10 | 2026-09-05 01:13:44 | 49.49869 | 14.00153 | 82° | 115km/h | 5118m | -7.6m/s | -9.7°C | 0% | 546.5hPa | 2.6V | 00:00:00 | 03:11:08 | 00:00:00 | |
| DO3MHA-11 | 2026-09-05 01:13:37 | 49.49844 | 13.99846 | 84° | 120km/h | 5169m | -6.9m/s | -11.0°C | 90.2% | 543.0hPa | 2.6V | 00:00:00 | 03:11:01 | 00:00:00 | |
| OE5MMP-10 | 2026-09-05 01:13:34 | 49.49835 | 13.99711 | 84° | 124km/h | 5191m | -7.0m/s | -11.0°C | 87.9% | 541.5hPa | 2.6V | 00:00:00 | 03:10:58 | 00:00:00 | |
| OE5DRO-10 | 2026-09-05 01:13:28 | 49.49814 | 13.99426 | 84° | 128km/h | 5235m | -7.8m/s | -10.9°C | 74.7% | 538.5hPa | 2.6V | 00:00:00 | 00:00:00 | 00:00:00 | |
| DO3MHA-11 | 2026-09-05 01:13:27 | 49.49810 | 13.99378 | 83° | 128km/h | 5243m | -7.9m/s | -10.7°C | 65.5% | 537.9hPa | 2.6V | 00:00:00 | 03:10:51 | 00:00:00 | |
| OE5MMP-10 | 2026-09-05 01:13:24 | 49.49797 | 13.99230 | 83° | 128km/h | 5266m | -7.6m/s | -10.2°C | 46.0% | 536.2hPa | 2.6V | 02:53:00 | 03:10:48 | 00:00:00 | |
| DO3MHA-11 | 2026-09-05 01:13:17 | 49.49771 | 13.98883 | 85° | 130km/h | 5318m | -7.8m/s | -10.7°C | 44.3% | 532.5hPa | 2.6V | 02:54:00 | 03:10:41 | 00:00:00 | |
| NBG1-10 | 2026-09-05 01:13:15 | 49.49765 | 13.98784 | 85° | 130km/h | 5334m | -8.4m/s | -10.6°C | 38.5% | 531.4hPa | 2.6V | 00:00:00 | 03:10:39 | 00:00:00 | |
| OE5MMP-10 | 2026-09-05 01:13:14 | 49.49762 | 13.98735 | 85° | 131km/h | 5343m | -8.4m/s | -10.7°C | 37.6% | 530.9hPa | 2.6V | 00:00:00 | 03:10:38 | 00:00:00 | |
| OE5DRO-10 | 2026-09-05 01:13:12 | 49.49754 | 13.98634 | 83° | 131km/h | 5360m | -7.8m/s | -11.0°C | 40.0% | 529.8hPa | 2.6V | 00:00:00 | 00:00:00 | 00:00:00 | |
| DB0NH | 2026-09-05 01:13:11 | 49.49750 | 13.98584 | 83° | 131km/h | 5367m | -7.5m/s | -10.9°C | 38.6% | 529.2hPa | 2.6V | 02:54:00 | 03:10:35 | 00:00:00 | |
| OE5DXL-15 | 2026-09-05 01:13:09 | 49.49740 | 13.98482 | 82° | 130km/h | 5382m | -7.3m/s | -10.8°C | 34.6% | 528.2hPa | 2.5V | 00:00:00 | 03:10:33 | 00:00:00 | |
| DO3MHA-11 | 2026-09-05 01:13:07 | 49.49730 | 13.98380 | 82° | 130km/h | 5397m | -7.4m/s | -10.9°C | 35.4% | 527.2hPa | 2.5V | 00:00:00 | 03:10:31 | 00:00:00 | |
| OE5MMP-10 | 2026-09-05 01:13:04 | 49.49717 | 13.98228 | 83° | 130km/h | 5419m | -7.3m/s | -11.1°C | 36.5% | 525.6hPa | 2.5V | 00:00:00 | 03:10:28 | 00:00:00 | |
| PG1ADW-2 | 2026-09-05 01:13:02 | 49.49709 | 13.98128 | 84° | 128km/h | 5434m | -7.6m/s | -11.1°C | 36.3% | 524.6hPa | 2.5V | 00:00:00 | 03:10:26 | 00:00:00 | |
| DO3MHA-11 | 2026-09-05 01:12:57 | 49.49690 | 13.97878 | 84° | 130km/h | 5471m | -6.5m/s | -11.5°C | 36.9% | 522.2hPa | 2.5V | 00:00:00 | 03:10:21 | 00:00:00 | |
| OE5DRO-10 | 2026-09-05 01:12:56 | 49.49686 | 13.97828 | 84° | 128km/h | 5478m | -6.8m/s | -11.7°C | 37.7% | 521.8hPa | 2.5V | 02:54:00 | 00:00:00 | 00:00:00 | |
| OE5MMP-10 | 2026-09-05 01:12:54 | 49.49680 | 13.97728 | 85° | 128km/h | 5492m | -7.7m/s | -11.4°C | 34.3% | 520.8hPa | 2.5V | 02:54:00 | 03:10:18 | 00:00:00 | |
| DO3MHA-11 | 2026-09-05 01:12:47 | 49.49658 | 13.97380 | 84° | 128km/h | 5541m | -6.4m/s | -11.4°C | 32.9% | 517.4hPa | 2.6V | 02:54:00 | 03:10:11 | 00:00:00 | |
| OE5MMP-10 | 2026-09-05 01:12:44 | 49.49647 | 13.97231 | 84° | 126km/h | 5561m | -7.3m/s | -11.4°C | 31.9% | 515.9hPa | 2.5V | 00:00:00 | 03:10:08 | 00:00:00 | |
| DB0NH | 2026-09-05 01:12:41 | 49.49638 | 13.97083 | 86° | 131km/h | 5582m | -6.7m/s | -11.5°C | 31.0% | 514.6hPa | 2.5V | 00:00:00 | 03:10:05 | 00:00:00 | |
| OE5DRO-10 | 2026-09-05 01:12:40 | 49.49636 | 13.97034 | 87° | 126km/h | 5589m | -7.1m/s | -11.5°C | 30.1% | 514.2hPa | 2.5V | 00:00:00 | 00:00:00 | 00:00:00 | |
| PG1ADW-2 | 2026-09-05 01:12:39 | 49.49633 | 13.96985 | 87° | 126km/h | 5596m | -7.1m/s | -11.4°C | 28.9% | 513.6hPa | 2.5V | 00:00:00 | 00:00:00 | 00:00:00 | |
| NBG1-10 | 2026-09-05 01:12:38 | 49.49631 | 13.96936 | 87° | 128km/h | 5603m | -6.7m/s | -11.5°C | 29.0% | 513.3hPa | 2.5V | 02:54:00 | 03:10:02 | 00:00:00 | |
| DO3MHA-11 | 2026-09-05 01:12:37 | 49.49629 | 13.96888 | 86° | 126km/h | 5610m | -7.0m/s | -11.5°C | 29.1% | 512.8hPa | 2.6V | 00:00:00 | 03:10:01 | 00:00:00 | |
| OE5MMP-10 | 2026-09-05 01:12:34 | 49.49622 | 13.96741 | 86° | 128km/h | 5630m | -6.9m/s | -11.7°C | 29.4% | 511.4hPa | 2.6V | 00:00:00 | 03:09:58 | 00:00:00 | |
| DO3MHA-11 | 2026-09-05 01:12:27 | 49.49604 | 13.96396 | 86° | 128km/h | 5679m | -6.9m/s | -10.8°C | 21.6% | 508.2hPa | 2.6V | 00:00:00 | 03:09:51 | 00:00:00 | |
| OE5MMP-10 | 2026-09-05 01:12:24 | 49.49597 | 13.96248 | 86° | 128km/h | 5699m | -6.6m/s | -10.9°C | 21.1% | 506.9hPa | 2.6V | 02:54:00 | 03:09:48 | 00:00:00 | |
| OE5DRO-10 | 2026-09-05 01:12:21 | 49.49589 | 13.96101 | 86° | 126km/h | 5719m | -6.8m/s | -11.0°C | 20.9% | 505.5hPa | 2.6V | 00:00:00 | 00:00:00 | 00:00:00 | |
| PG1ADW-2 | 2026-09-05 01:12:19 | 49.49583 | 13.96002 | 86° | 126km/h | 5733m | -6.8m/s | -11.1°C | 20.6% | 504.7hPa | 2.6V | 02:55:00 | 00:00:00 | 00:00:00 | |
| DO3MHA-11 | 2026-09-05 01:12:17 | 49.49578 | 13.95903 | 86° | 128km/h | 5746m | -6.7m/s | -11.1°C | 20.4% | 503.7hPa | 2.5V | 02:55:00 | 03:09:41 | 00:00:00 | |
| OE5MMP-10 | 2026-09-05 01:12:14 | 49.49571 | 13.95753 | 86° | 126km/h | 5767m | -6.9m/s | -11.2°C | 20.6% | 502.4hPa | 2.5V | 00:00:00 | 03:09:38 | 00:00:00 | |
| OE5DXL-15 | 2026-09-05 01:12:08 | 49.49554 | 13.95459 | 85° | 124km/h | 5808m | -7.1m/s | -11.5°C | 20.8% | 499.6hPa | 2.5V | 00:00:00 | 00:00:00 | 00:00:00 | |
| DO3MHA-11 | 2026-09-05 01:12:07 | 49.49551 | 13.95410 | 85° | 124km/h | 5816m | -7.1m/s | -11.6°C | 20.7% | 499.2hPa | 2.5V | 00:00:00 | 03:09:31 | 00:00:00 | |
| NBG1-10 | 2026-09-05 01:12:05 | 49.49545 | 13.95312 | 85° | 124km/h | 5830m | -7.0m/s | -11.7°C | 20.7% | 498.4hPa | 2.5V | 00:00:00 | 03:09:29 | 00:00:00 | |
| OE5MMP-10 | 2026-09-05 01:12:04 | 49.49542 | 13.95264 | 85° | 124km/h | 5837m | -6.8m/s | -11.7°C | 20.7% | 497.9hPa | 2.5V | 00:00:00 | 03:09:28 | 00:00:00 | |
| OE5DRO-10 | 2026-09-05 01:12:02 | 49.49537 | 13.95167 | 86° | 126km/h | 5850m | -6.8m/s | -11.8°C | 20.6% | 496.9hPa | 2.5V | 02:55:00 | 00:00:00 | 00:00:00 | |
| PG1ADW-2 | 2026-09-05 01:11:59 | 49.49530 | 13.95023 | 86° | 126km/h | 5871m | -7.0m/s | -11.9°C | 20.9% | 495.5hPa | 2.6V | 00:00:00 | 00:00:00 | 00:00:00 | |
| DO3MHA-11 | 2026-09-05 01:11:57 | 49.49525 | 13.94926 | 86° | 126km/h | 5885m | -6.9m/s | -11.8°C | 24.5% | 494.7hPa | 2.6V | 00:00:00 | 03:09:21 | 00:00:00 | |
| OE5MMP-10 | 2026-09-05 01:11:54 | 49.49518 | 13.94781 | 86° | 126km/h | 5906m | -7.2m/s | -12.0°C | 25.5% | 493.3hPa | 2.6V | 02:55:00 | 03:09:18 | 00:00:00 | |
| DO3MHA-11 | 2026-09-05 01:11:47 | 49.49501 | 13.94437 | 86° | 124km/h | 5955m | -7.2m/s | -12.2°C | 23.5% | 490.2hPa | 2.5V | 02:55:00 | 03:09:11 | 00:00:00 | |
| OE5MMP-10 | 2026-09-05 01:11:44 | 49.49495 | 13.94290 | 87° | 122km/h | 5975m | -6.8m/s | -12.2°C | 29.3% | 488.8hPa | 2.6V | 00:00:00 | 03:09:08 | 00:00:00 | |
| OE5DRO-10 | 2026-09-05 01:11:43 | 49.49493 | 13.94241 | 87° | 122km/h | 5982m | -7.0m/s | -12.3°C | 28.9% | 488.4hPa | 2.6V | 00:00:00 | 00:00:00 | 00:00:00 | |
| PG1ADW-2 | 2026-09-05 01:11:39 | 49.49486 | 13.94049 | 88° | 122km/h | 6010m | -7.2m/s | -12.5°C | 28.8% | 486.7hPa | 2.6V | 00:00:00 | 03:09:03 | 00:00:00 | |
| OE5DXL-15 | 2026-09-05 01:11:38 | 49.49484 | 13.93954 | 88° | 122km/h | 6024m | -7.1m/s | -12.6°C | 28.9% | 485.8hPa | 2.6V | 00:00:00 | 00:00:00 | 00:00:00 | |
| DO3MHA-11 | 2026-09-05 01:11:37 | 49.49484 | 13.93954 | 88° | 120km/h | 6024m | -7.1m/s | -12.6°C | 28.9% | 485.8hPa | 2.6V | 00:00:00 | 03:09:01 | 00:00:00 | |
| OE5MMP-10 | 2026-09-05 01:11:34 | 49.49480 | 13.93812 | 88° | 120km/h | 6045m | -6.8m/s | -12.6°C | 27.1% | 484.4hPa | 2.6V | 00:00:00 | 03:08:58 | 00:00:00 | |
| NBG1-10 | 2026-09-05 01:11:32 | 49.49477 | 13.93719 | 88° | 124km/h | 6058m | -7.1m/s | -12.5°C | 22.9% | 483.6hPa | 2.6V | 00:00:00 | 03:08:56 | 00:00:00 | |
| DO3MHA-11 | 2026-09-05 01:11:27 | 49.49470 | 13.93483 | 87° | 122km/h | 6092m | -6.7m/s | -12.5°C | 19.6% | 481.5hPa | 2.6V | 00:00:00 | 03:08:51 | 00:00:00 | |
| OE5MMP-10 | 2026-09-05 01:11:24 | 49.49465 | 13.93341 | 87° | 124km/h | 6112m | -6.7m/s | -12.5°C | 18.7% | 480.2hPa | 2.6V | 02:55:00 | 03:08:48 | 00:00:00 | |
| PG1ADW-2 | 2026-09-05 01:11:19 | 49.49456 | 13.93103 | 87° | 128km/h | 6145m | -6.4m/s | -12.7°C | 20.1% | 478.2hPa | 2.6V | 02:56:00 | 00:00:00 | 00:00:00 | |
| DO3MHA-11 | 2026-09-05 01:11:17 | 49.49453 | 13.93007 | 88° | 126km/h | 6158m | -6.6m/s | -12.7°C | 16.8% | 477.3hPa | 2.5V | 02:56:00 | 03:08:41 | 00:00:00 | |
| OE5MMP-10 | 2026-09-05 01:11:14 | 49.49449 | 13.92861 | 88° | 128km/h | 6178m | -7.0m/s | -12.8°C | 15.4% | 476.0hPa | 2.5V | 00:00:00 | 03:08:38 | 00:00:00 | |
| OE3JTB-15 | 2026-09-05 01:11:09 | 49.49442 | 13.92615 | 88° | 130km/h | 6210m | -6.6m/s | -13.0°C | 15.0% | 474.0hPa | 2.5V | 00:00:00 | 00:00:00 | 00:00:00 | |
| DO3MHA-11 | 2026-09-05 01:11:07 | 49.49438 | 13.92516 | 87° | 130km/h | 6223m | -6.3m/s | -13.2°C | 15.4% | 473.2hPa | 2.5V | 00:00:00 | 03:08:31 | 00:00:00 | |
| OE5DRO-10 | 2026-09-05 01:11:05 | 49.49434 | 13.92417 | 87° | 130km/h | 6235m | -6.4m/s | -13.2°C | 15.7% | 472.4hPa | 2.5V | 02:56:00 | 00:00:00 | 00:00:00 | |
| OE5MMP-10 | 2026-09-05 01:11:04 | 49.49432 | 13.92367 | 87° | 130km/h | 6241m | -6.4m/s | -13.3°C | 15.5% | 472.0hPa | 2.5V | 00:00:00 | 03:08:28 | 00:00:00 | |
| PG1ADW-2 | 2026-09-05 01:10:59 | 49.49421 | 13.92116 | 87° | 131km/h | 6274m | -6.3m/s | -13.4°C | 14.3% | 470.1hPa | 2.5V | 00:00:00 | 00:00:00 | 00:00:00 | |
| DO3MHA-11 | 2026-09-05 01:10:57 | 49.49417 | 13.92016 | 87° | 131km/h | 6287m | -6.3m/s | -13.4°C | 15.5% | 469.3hPa | 2.5V | 00:00:00 | 03:08:21 | 00:00:00 | |
| OE5MMP-10 | 2026-09-05 01:10:54 | 49.49411 | 13.91865 | 87° | 131km/h | 6305m | -6.2m/s | -13.4°C | 19.7% | 468.2hPa | 2.5V | 02:56:00 | 03:08:18 | 00:00:00 | |
| DO3MHA-11 | 2026-09-05 01:10:47 | 49.49397 | 13.91507 | 87° | 131km/h | 6347m | -6.1m/s | -13.8°C | 21.1% | 465.5hPa | 2.5V | 02:56:00 | 03:08:11 | 00:00:00 | |
| OE5DRO-10 | 2026-09-05 01:10:46 | 49.49394 | 13.91456 | 87° | 131km/h | 6354m | -6.0m/s | -13.8°C | 21.5% | 465.1hPa | 2.4V | 00:00:00 | 00:00:00 | 00:00:00 | |
| OE5MMP-10 | 2026-09-05 01:10:44 | 49.49390 | 13.91354 | 86° | 131km/h | 6365m | -6.3m/s | -13.8°C | 21.6% | 464.4hPa | 2.4V | 00:00:00 | 03:08:08 | 00:00:00 | |
| PG1ADW-2 | 2026-09-05 01:10:39 | 49.49376 | 13.91100 | 86° | 133km/h | 6395m | -6.0m/s | -13.7°C | 20.1% | 462.5hPa | 2.4V | 00:00:00 | 00:00:00 | 00:00:00 | |
| DO3MHA-11 | 2026-09-05 01:10:37 | 49.49371 | 13.90999 | 86° | 133km/h | 6407m | -5.5m/s | -13.8°C | 20.3% | 461.8hPa | 2.4V | 00:00:00 | 03:08:01 | 00:00:00 | |
| OE5MMP-10 | 2026-09-05 01:10:34 | 49.49362 | 13.90845 | 85° | 133km/h | 6428m | -7.6m/s | -14.0°C | 20.5% | 460.6hPa | 2.4V | 00:00:00 | 03:07:58 | 00:00:00 | |
| DO3MHA-11 | 2026-09-05 01:10:27 | 49.49338 | 13.90482 | 85° | 133km/h | 6478m | -7.8m/s | -14.3°C | 21.1% | 457.6hPa | 2.4V | 00:00:00 | 03:07:51 | 00:00:00 | |
| NBG1-10 | 2026-09-05 01:10:26 | 49.49336 | 13.90432 | 85° | 133km/h | 6485m | -7.3m/s | -14.4°C | 21.2% | 457.1hPa | 2.4V | 00:00:00 | 03:07:50 | 00:00:00 | |
| OE5MMP-10 | 2026-09-05 01:10:24 | 49.49329 | 13.90330 | 85° | 133km/h | 6499m | -7.1m/s | -14.5°C | 21.1% | 456.2hPa | 2.4V | 02:56:00 | 03:07:48 | 00:00:00 | |
| DO3MHA-11 | 2026-09-05 01:10:17 | 49.49307 | 13.89969 | 85° | 133km/h | 6547m | -6.9m/s | -14.9°C | 21.4% | 453.4hPa | 2.4V | 02:57:00 | 03:07:41 | 00:00:00 | |
| OE5MMP-10 | 2026-09-05 01:10:14 | 49.49298 | 13.89812 | 86° | 131km/h | 6567m | -6.7m/s | -15.0°C | 21.7% | 451.8hPa | 2.5V | 00:00:00 | 03:07:38 | 00:00:00 | |
| DB0NH | 2026-09-05 01:10:10 | 49.49286 | 13.89608 | 85° | 130km/h | 6594m | -6.8m/s | 0°C | 0% | 0hPa | 2.5V | 00:00:00 | 03:07:34 | 00:00:00 | |
| OE5DRO-10 | 2026-09-05 01:10:08 | 49.49280 | 13.89507 | 85° | 133km/h | 6607m | -6.7m/s | -15.4°C | 21.9% | 449.8hPa | 2.5V | 02:57:00 | 00:00:00 | 00:00:00 | |
| DO3MHA-11 | 2026-09-05 01:10:07 | 49.49277 | 13.89456 | 85° | 133km/h | 6614m | -7.1m/s | -15.4°C | 21.8% | 449.4hPa | 2.5V | 00:00:00 | 03:07:31 | 00:00:00 | |
| OE5MMP-10 | 2026-09-05 01:10:04 | 49.49266 | 13.89303 | 84° | 135km/h | 6635m | -7.8m/s | -15.6°C | 21.8% | 448.2hPa | 2.5V | 00:00:00 | 03:07:28 | 00:00:00 | |
| DO3MHA-11 | 2026-09-05 01:09:57 | 49.49238 | 13.88939 | 83° | 135km/h | 6686m | -7.9m/s | -15.9°C | 20.7% | 445.2hPa | 2.5V | 00:00:00 | 03:07:21 | 00:00:00 | |
| OE5MMP-10 | 2026-09-05 01:09:54 | 49.49225 | 13.88783 | 83° | 133km/h | 6708m | -7.1m/s | -16.0°C | 20.5% | 443.8hPa | 2.5V | 02:57:00 | 03:07:18 | 00:00:00 | |
| NBG1-10 | 2026-09-05 01:09:53 | 49.49221 | 13.88731 | 83° | 131km/h | 6715m | -6.3m/s | -16.0°C | 20.2% | 443.5hPa | 2.5V | 00:00:00 | 03:07:17 | 00:00:00 | |
| OE5DRO-10 | 2026-09-05 01:09:49 | 49.49205 | 13.88523 | 83° | 131km/h | 6741m | -7.7m/s | -16.1°C | 19.1% | 441.9hPa | 2.5V | 00:00:00 | 00:00:00 | 00:00:00 | |
| DO3MHA-11 | 2026-09-05 01:09:47 | 49.49196 | 13.88420 | 83° | 131km/h | 6756m | -7.6m/s | -16.2°C | 19.2% | 441.1hPa | 2.5V | 02:57:00 | 03:07:11 | 00:00:00 | |
| OE5MMP-10 | 2026-09-05 01:09:44 | 49.49182 | 13.88266 | 83° | 131km/h | 6776m | -6.9m/s | -16.3°C | 18.5% | 439.9hPa | 2.4V | 00:00:00 | 03:07:08 | 00:00:00 | |
| PG1ADW-2 | 2026-09-05 01:09:39 | 49.49160 | 13.88013 | 83° | 128km/h | 6809m | -6.9m/s | -16.5°C | 16.8% | 438.0hPa | 2.4V | 00:00:00 | 00:00:00 | 00:00:00 | |
| DO3MHA-11 | 2026-09-05 01:09:37 | 49.49151 | 13.87912 | 82° | 128km/h | 6822m | -7.1m/s | -16.5°C | 16.3% | 437.2hPa | 2.4V | 00:00:00 | 03:07:01 | 00:00:00 | |
| OE5MMP-10 | 2026-09-05 01:09:34 | 49.49137 | 13.87763 | 82° | 128km/h | 6842m | -7.2m/s | -16.7°C | 16.1% | 436.0hPa | 2.4V | 00:00:00 | 03:06:58 | 00:00:00 | |
| OE5DRO-10 | 2026-09-05 01:09:30 | 49.49116 | 13.87567 | 81° | 128km/h | 6867m | -6.6m/s | -16.9°C | 16.2% | 434.6hPa | 2.4V | 00:00:00 | 00:00:00 | 00:00:00 | |
| DO3MHA-11 | 2026-09-05 01:09:27 | 49.49101 | 13.87420 | 81° | 128km/h | 6887m | -6.4m/s | -17.1°C | 16.4% | 433.4hPa | 2.4V | 00:00:00 | 03:06:51 | 00:00:00 | |
| OE5MMP-10 | 2026-09-05 01:09:24 | 49.49085 | 13.87272 | 82° | 128km/h | 6906m | -6.2m/s | -17.2°C | 16.4% | 432.3hPa | 2.4V | 02:57:00 | 03:06:48 | 00:00:00 | |
| NBG1-10 | 2026-09-05 01:09:20 | 49.49066 | 13.87075 | 82° | 128km/h | 6932m | -7.1m/s | -17.3°C | 16.9% | 430.9hPa | 2.4V | 02:58:00 | 03:06:44 | 00:00:00 | |
| PG1ADW-2 | 2026-09-05 01:09:19 | 49.49061 | 13.87026 | 82° | 128km/h | 6939m | -7.0m/s | -17.3°C | 17.0% | 430.5hPa | 2.4V | 02:58:00 | 00:00:00 | 00:00:00 | |
| DO3MHA-11 | 2026-09-05 01:09:18 | 49.49051 | 13.86927 | 81° | 128km/h | 6952m | -7.1m/s | -17.4°C | 17.0% | 429.7hPa | 2.5V | 02:58:00 | 03:06:41 | 00:00:00 | |
| OE5MMP-10 | 2026-09-05 01:09:14 | 49.49035 | 13.86780 | 81° | 128km/h | 6973m | -6.8m/s | -17.5°C | 17.1% | 428.4hPa | 2.4V | 00:00:00 | 03:06:38 | 00:00:00 | |
| OE5DRO-10 | 2026-09-05 01:09:11 | 49.49020 | 13.86634 | 82° | 128km/h | 6994m | -7.0m/s | -17.6°C | 16.8% | 427.4hPa | 2.4V | 02:58:00 | 00:00:00 | 00:00:00 | |
| DO3MHA-11 | 2026-09-05 01:09:07 | 49.49001 | 13.86438 | 82° | 128km/h | 7020m | -6.6m/s | -17.8°C | 16.4% | 425.8hPa | 2.4V | 00:00:00 | 03:06:31 | 00:00:00 | |
| OE5MMP-10 | 2026-09-05 01:09:04 | 49.48987 | 13.86291 | 83° | 128km/h | 7040m | -6.8m/s | -18.0°C | 17.1% | 424.7hPa | 2.4V | 00:00:00 | 03:06:28 | 00:00:00 | |
| PG1ADW-2 | 2026-09-05 01:08:59 | 49.48965 | 13.86044 | 83° | 128km/h | 7074m | -7.3m/s | -18.3°C | 19.9% | 422.7hPa | 2.4V | 00:00:00 | 03:06:23 | 00:00:00 | |
| DO3MHA-11 | 2026-09-05 01:08:57 | 49.48956 | 13.85945 | 83° | 128km/h | 7088m | -6.4m/s | -18.4°C | 20.1% | 421.9hPa | 2.4V | 00:00:00 | 03:06:21 | 00:00:00 | |
| OE5MMP-10 | 2026-09-05 01:08:54 | 49.48943 | 13.85797 | 83° | 128km/h | 7107m | -7.0m/s | -18.5°C | 19.0% | 420.9hPa | 2.4V | 02:58:00 | 03:06:18 | 00:00:00 | |
| OE5DRO-10 | 2026-09-05 01:08:52 | 49.48935 | 13.85698 | 83° | 128km/h | 7120m | -5.7m/s | -18.5°C | 17.3% | 420.1hPa | 2.5V | 00:00:00 | 00:00:00 | 00:00:00 | |
| NBG1-10 | 2026-09-05 01:08:47 | 49.48917 | 13.85450 | 84° | 128km/h | 7152m | -7.4m/s | -18.7°C | 21.7% | 418.3hPa | 2.5V | 00:00:00 | 03:06:11 | 00:00:00 | |
| OE5MMP-10 | 2026-09-05 01:08:44 | 49.48906 | 13.85301 | 83° | 128km/h | 7170m | -6.4m/s | -18.7°C | 24.7% | 417.3hPa | 2.5V | 00:00:00 | 03:06:08 | 00:00:00 | |
| PG1ADW-2 | 2026-09-05 01:08:39 | 49.48884 | 13.85056 | 82° | 126km/h | 7202m | -6.2m/s | -19.0°C | 25.7% | 415.5hPa | 2.5V | 00:00:00 | 00:00:00 | 00:00:00 | |
| DO3MHA-11 | 2026-09-05 01:08:37 | 49.48875 | 13.84958 | 82° | 128km/h | 7213m | -5.7m/s | -19.1°C | 25.6% | 414.9hPa | 2.5V | 00:00:00 | 03:06:01 | 00:00:00 | |
| OE5MMP-10 | 2026-09-05 01:08:34 | 49.48860 | 13.84809 | 81° | 126km/h | 7233m | -6.8m/s | -19.2°C | 24.7% | 413.8hPa | 2.5V | 00:00:00 | 03:05:58 | 00:00:00 | |
| OE5DRO-10 | 2026-09-05 01:08:33 | 49.48855 | 13.84759 | 81° | 126km/h | 7239m | -6.3m/s | -19.2°C | 23.1% | 413.5hPa | 2.5V | 00:00:00 | 00:00:00 | 00:00:00 | |
| DO3MHA-11 | 2026-09-05 01:08:27 | 49.48823 | 13.84468 | 81° | 126km/h | 7278m | -6.3m/s | -19.4°C | 19.4% | 411.3hPa | 2.5V | 00:00:00 | 03:05:51 | 00:00:00 | |
| OE5MMP-10 | 2026-09-05 01:08:24 | 49.48808 | 13.84326 | 82° | 126km/h | 7297m | -6.3m/s | -19.5°C | 17.7% | 410.2hPa | 2.5V | 02:58:00 | 03:05:48 | 00:00:00 | |
| PG1ADW-2 | 2026-09-05 01:08:19 | 49.48782 | 13.84084 | 82° | 128km/h | 7328m | -6.0m/s | -19.8°C | 16.9% | 408.5hPa | 2.5V | 02:59:00 | 00:00:00 | 00:00:00 | |
| DO3MHA-11 | 2026-09-05 01:08:17 | 49.48773 | 13.83987 | 82° | 126km/h | 7340m | -6.2m/s | -19.9°C | 17.1% | 407.8hPa | 2.5V | 02:59:00 | 03:05:41 | 00:00:00 | |
| NBG1-10 | 2026-09-05 01:08:14 | 49.48760 | 13.83842 | 83° | 128km/h | 7360m | -6.3m/s | -20.0°C | 16.9% | 406.8hPa | 2.4V | 00:00:00 | 03:05:38 | 00:00:00 | |
| EDDB2-12 | 2026-09-05 01:08:08 | 49.48733 | 13.83503 | 83° | 128km/h | 7404m | -6.1m/s | -20.5°C | 15.5% | 404.4hPa | 2.4V | 00:00:00 | 00:00:00 | 00:00:00 | |
| DO3MHA-11 | 2026-09-05 01:08:07 | 49.48733 | 13.83503 | 84° | 130km/h | 7404m | -6.1m/s | -20.4°C | 16.9% | 404.3hPa | 2.4V | 00:00:00 | 03:05:31 | 00:00:00 | |
| OE5MMP-10 | 2026-09-05 01:08:04 | 49.48721 | 13.83353 | 83° | 128km/h | 7423m | -6.1m/s | -20.6°C | 17.0% | 403.2hPa | 2.4V | 00:00:00 | 03:05:28 | 00:00:00 | |
| PG1ADW-2 | 2026-09-05 01:07:59 | 49.48702 | 13.83103 | 85° | 128km/h | 7455m | -8.3m/s | -20.8°C | 16.7% | 401.5hPa | 2.4V | 00:00:00 | 00:00:00 | 00:00:00 | |
| DO3MHA-11 | 2026-09-05 01:07:57 | 49.48695 | 13.83005 | 85° | 128km/h | 7469m | -6.5m/s | -21.0°C | 16.9% | 400.8hPa | 2.4V | 00:00:00 | 03:05:21 | 00:00:00 | |
| OE5DRO-10 | 2026-09-05 01:07:55 | 49.48690 | 13.82907 | 85° | 128km/h | 7483m | -6.7m/s | -21.1°C | 16.8% | 400.0hPa | 2.4V | 00:00:00 | 00:00:00 | 00:00:00 | |
| OE5MMP-10 | 2026-09-05 01:07:54 | 49.48686 | 13.82858 | 85° | 128km/h | 7489m | -7.2m/s | -21.1°C | 16.9% | 399.6hPa | 2.4V | 02:59:00 | 03:05:18 | 00:00:00 | |
| DO3MHA-11 | 2026-09-05 01:07:47 | 49.48667 | 13.82514 | 86° | 128km/h | 7549m | -13.2m/s | -21.7°C | 17.5% | 396.6hPa | 2.5V | 02:59:00 | 03:05:11 | 00:00:00 | |
| OE5MMP-10 | 2026-09-05 01:07:44 | 49.48660 | 13.82367 | 85° | 128km/h | 7596m | -16.6m/s | -22.1°C | 17.5% | 394.3hPa | 2.4V | 00:00:00 | 03:05:08 | 00:00:00 | |
| NBG1-10 | 2026-09-05 01:07:41 | 49.48653 | 13.82220 | 87° | 128km/h | 7644m | -17.1m/s | -22.5°C | 17.7% | 391.8hPa | 2.4V | 02:59:00 | 03:05:05 | 00:00:00 | |
| PG1ADW-2 | 2026-09-05 01:07:39 | 49.48651 | 13.82121 | 88° | 128km/h | 7677m | -17.0m/s | -22.8°C | 17.0% | 390.1hPa | 2.4V | 00:00:00 | 03:05:03 | 00:00:00 | |
| DO3MHA-11 | 2026-09-05 01:07:37 | 49.48649 | 13.82022 | 89° | 128km/h | 7709m | -17.1m/s | -23.0°C | 15.9% | 388.4hPa | 2.4V | 00:00:00 | 03:05:01 | 00:00:00 | |
| OE5DRO-10 | 2026-09-05 01:07:36 | 49.48648 | 13.81973 | 88° | 128km/h | 7726m | -17.3m/s | -23.2°C | 15.8% | 387.6hPa | 2.4V | 00:00:00 | 00:00:00 | 00:00:00 | |
| OE5MMP-10 | 2026-09-05 01:07:34 | 49.48647 | 13.81874 | 88° | 128km/h | 7759m | -18.0m/s | -23.5°C | 15.9% | 385.8hPa | 2.4V | 00:00:00 | 03:04:58 | 00:00:00 | |
| DO3MHA-11 | 2026-09-05 01:07:27 | 49.48645 | 13.81525 | 90° | 128km/h | 7877m | -16.9m/s | -24.4°C | 18.0% | 379.6hPa | 2.4V | 00:00:00 | 03:04:51 | 00:00:00 | |
| SONDE2-11 | 2026-09-05 01:07:26 | 49.48645 | 13.81425 | 90° | 130km/h | 7910m | -16.2m/s | -24.7°C | 16.7% | 378.0hPa | 2.4V | 00:00:00 | 00:00:00 | 00:00:00 | |
| OE5MMP-10 | 2026-09-05 01:07:24 | 49.48645 | 13.81375 | 90° | 128km/h | 7926m | -17.6m/s | -24.8°C | 18.6% | 377.1hPa | 2.4V | 02:59:00 | 03:04:48 | 00:00:00 | |
| PG1ADW-2 | 2026-09-05 01:07:19 | 49.48642 | 13.81125 | 90° | 126km/h | 8006m | -15.7m/s | -25.6°C | 19.4% | 372.8hPa | 2.4V | 00:00:00 | 00:00:00 | 00:00:00 | |
| DO3MHA-11 | 2026-09-05 01:07:17 | 49.48641 | 13.81028 | 89° | 128km/h | 8036m | -15.6m/s | -25.9°C | 19.7% | 371.3hPa | 2.4V | 00:00:00 | 03:04:41 | 00:00:00 | |
| OE5MMP-10 | 2026-09-05 01:07:14 | 49.48639 | 13.80879 | 88° | 126km/h | 8081m | -16.6m/s | -26.3°C | 20.1% | 368.8hPa | 2.5V | 00:00:00 | 03:04:38 | 00:00:00 | |
| NBG1-10 | 2026-09-05 01:07:08 | 49.48632 | 13.80584 | 88° | 126km/h | 8172m | -15.2m/s | -27.1°C | 18.9% | 364.1hPa | 2.5V | 00:00:00 | 03:04:32 | 00:00:00 | |
| DO3MHA-11 | 2026-09-05 01:07:07 | 49.48631 | 13.80536 | 86° | 126km/h | 8186m | -16.0m/s | -27.2°C | 17.6% | 363.2hPa | 2.5V | 03:00:00 | 03:04:31 | 00:00:00 | |
| EDDB2-12 | 2026-09-05 01:07:06 | 49.48628 | 13.80489 | 84° | 124km/h | 8201m | -16.4m/s | -27.2°C | 14.8% | 362.6hPa | 2.5V | 00:00:00 | 00:00:00 | 00:00:00 | |
| OE5MMP-10 | 2026-09-05 01:07:04 | 49.48623 | 13.80390 | 86° | 124km/h | 8232m | -16.1m/s | -27.4°C | 16.5% | 361.1hPa | 2.5V | 03:00:00 | 03:04:28 | 00:00:00 | |
| SONDE2-11 | 2026-09-05 01:06:55 | 49.48598 | 13.79959 | 81° | 122km/h | 8378m | -18.0m/s | -28.7°C | 13.9% | 354.1hPa | 2.5V | 00:00:00 | 00:00:00 | 00:00:00 | |
| OE5MMP-10 | 2026-09-05 01:06:54 | 49.48593 | 13.79912 | 82° | 124km/h | 8396m | -18.2m/s | -28.8°C | 15.6% | 353.2hPa | 2.5V | 00:00:00 | 03:04:18 | 00:00:00 | |
| OE5WHR-10 | 2026-09-05 01:06:49 | 49.48567 | 13.79674 | 81° | 128km/h | 8481m | -17.2m/s | -29.3°C | 13.5% | 348.8hPa | 2.5V | 00:00:00 | 00:00:00 | 00:00:00 | |
| DO3MHA-11 | 2026-09-05 01:06:47 | 49.48556 | 13.79578 | 81° | 128km/h | 8512m | -17.5m/s | -29.6°C | 13.8% | 347.2hPa | 2.4V | 00:00:00 | 03:04:11 | 00:00:00 | |
| OE5MMP-10 | 2026-09-05 01:06:44 | 49.48541 | 13.79432 | 81° | 130km/h | 8562m | -17.9m/s | -30.0°C | 14.1% | 344.9hPa | 2.4V | 00:00:00 | 03:04:08 | 00:00:00 | |
| PG1ADW-2 | 2026-09-05 01:06:39 | 49.48518 | 13.79186 | 82° | 128km/h | 8644m | -17.5m/s | -30.8°C | 14.4% | 340.9hPa | 2.4V | 00:00:00 | 00:00:00 | 00:00:00 | |
| DB0NH | 2026-09-05 01:06:35 | 49.48500 | 13.78987 | 83° | 126km/h | 8709m | -16.4m/s | 0°C | 0% | 0hPa | 2.4V | 00:00:00 | 03:03:59 | 00:00:00 | |
| OE5MMP-10 | 2026-09-05 01:06:34 | 49.48496 | 13.78937 | 84° | 128km/h | 8726m | -16.6m/s | -31.4°C | 13.9% | 337.0hPa | 2.4V | 00:00:00 | 03:03:58 | 00:00:00 | |
| DO3MHA-11 | 2026-09-05 01:06:27 | 49.48470 | 13.78587 | 83° | 126km/h | 8838m | -17.8m/s | -32.1°C | 13.6% | 331.8hPa | 2.4V | 03:00:00 | 03:03:51 | 00:00:00 | |
| DO8TBO-1 | 2026-09-05 01:06:26 | 49.48466 | 13.78538 | 83° | 126km/h | 8855m | -17.7m/s | -32.2°C | 13.5% | 331.1hPa | 2.4V | 03:00:00 | 03:03:50 | 00:00:00 | |
| OE5MMP-10 | 2026-09-05 01:06:24 | 49.48458 | 13.78441 | 83° | 124km/h | 8887m | -16.0m/s | -32.3°C | 13.6% | 329.6hPa | 2.4V | 03:00:00 | 03:03:48 | 00:00:00 | |
| OE5DRO-10 | 2026-09-05 01:06:20 | 49.48442 | 13.78249 | 83° | 124km/h | 8950m | -16.4m/s | -32.8°C | 15.3% | 326.7hPa | 2.5V | 03:01:00 | 00:00:00 | 00:00:00 | |
| PG1ADW-2 | 2026-09-05 01:06:19 | 49.48438 | 13.78201 | 83° | 126km/h | 8966m | -15.9m/s | -32.9°C | 16.0% | 326.0hPa | 2.4V | 00:00:00 | 03:03:43 | 00:00:00 | |
| DO3MHA-11 | 2026-09-05 01:06:17 | 49.48430 | 13.78106 | 84° | 124km/h | 8997m | -16.2m/s | -33.2°C | 17.5% | 324.5hPa | 2.4V | 00:00:00 | 03:03:41 | 00:00:00 | |
| OE5MMP-10 | 2026-09-05 01:06:14 | 49.48420 | 13.77964 | 84° | 126km/h | 9043m | -16.0m/s | -33.4°C | 20.6% | 322.3hPa | 2.4V | 00:00:00 | 03:03:38 | 00:00:00 | |
| EDDB2-11 | 2026-09-05 01:06:13 | 49.48414 | 13.77868 | 84° | 120km/h | 9074m | -16.5m/s | -33.6°C | 18.6% | 321.0hPa | 2.4V | 00:00:00 | 00:00:00 | 00:00:00 | |
| DO3MHA-11 | 2026-09-05 01:06:07 | 49.48399 | 13.77628 | 84° | 128km/h | 9155m | -16.1m/s | -34.2°C | 23.5% | 317.3hPa | 2.4V | 00:00:00 | 03:03:31 | 00:00:00 | |
| DB0NH | 2026-09-05 01:06:05 | 49.48393 | 13.77529 | 86° | 122km/h | 9184m | -14.7m/s | 0°C | 0% | 0hPa | 2.4V | 00:00:00 | 03:03:29 | 00:00:00 | |
| OE5MMP-10 | 2026-09-05 01:06:04 | 49.48390 | 13.77479 | 87° | 128km/h | 9198m | -15.1m/s | -34.5°C | 24.8% | 315.3hPa | 2.4V | 00:00:00 | 03:03:28 | 00:00:00 | |
| NBG1-10 | 2026-09-05 01:06:02 | 49.48385 | 13.77380 | 85° | 128km/h | 9228m | -16.4m/s | -34.8°C | 25.4% | 314.0hPa | 2.4V | 00:00:00 | 03:03:26 | 00:00:00 | |
| SONDE2-11 | 2026-09-05 01:05:53 | 49.48359 | 13.76935 | 83° | 130km/h | 9372m | -16.2m/s | -36.1°C | 18.5% | 307.6hPa | 2.5V | 00:00:00 | 00:00:00 | 00:00:00 | |
| DO3MHA-11 | 2026-09-05 01:05:47 | 49.48338 | 13.76634 | 85° | 128km/h | 9443m | -11.0m/s | -36.6°C | 22.9% | 304.3hPa | 2.5V | 03:01:00 | 03:03:11 | 00:00:00 | |
| OE5MMP-10 | 2026-09-05 01:05:44 | 49.48331 | 13.76485 | 86° | 128km/h | 9476m | -11.0m/s | -36.8°C | 24.8% | 302.9hPa | 2.4V | 03:01:00 | 03:03:08 | 00:00:00 | |
| AM1SDL-15 | 2026-09-05 01:05:43 | 49.48329 | 13.76435 | 87° | 126km/h | 9487m | -11.6m/s | 0°C | 0% | 0hPa | 2.4V | 03:01:00 | 03:03:07 | 00:00:00 | |
| EDDB2-11 | 2026-09-05 01:05:42 | 49.48325 | 13.76335 | 87° | 128km/h | 9509m | -11.6m/s | -37.2°C | 22.6% | 301.5hPa | 2.4V | 00:00:00 | 00:00:00 | 00:00:00 | |
| PG1ADW-2 | 2026-09-05 01:05:39 | 49.48322 | 13.76236 | 88° | 128km/h | 9531m | -11.4m/s | -37.3°C | 26.1% | 300.5hPa | 2.4V | 03:01:00 | 00:00:00 | 00:00:00 | |
| DO3MHA-11 | 2026-09-05 01:05:37 | 49.48319 | 13.76137 | 87° | 126km/h | 9553m | -11.5m/s | -37.5°C | 25.5% | 299.6hPa | 2.4V | 00:00:00 | 03:03:01 | 00:00:00 | |
| OE5MMP-10 | 2026-09-05 01:05:34 | 49.48316 | 13.75989 | 88° | 128km/h | 9587m | -11.6m/s | -37.7°C | 25.8% | 298.1hPa | 2.4V | 00:00:00 | 03:02:58 | 00:00:00 | |
| PETON7-10 | 2026-09-05 01:05:33 | 49.48314 | 13.75940 | 89° | 128km/h | 9598m | -11.2m/s | -37.7°C | 26.7% | 297.6hPa | 2.4V | 00:00:00 | 00:00:00 | 00:00:00 | |
| NBG1-10 | 2026-09-05 01:05:29 | 49.48311 | 13.75743 | 89° | 128km/h | 9643m | -11.8m/s | -37.7°C | 28.5% | 295.7hPa | 2.5V | 00:00:00 | 03:02:53 | 00:00:00 | |
| DO3MHA-11 | 2026-09-05 01:05:27 | 49.48310 | 13.75644 | 88° | 130km/h | 9666m | -12.1m/s | -37.9°C | 26.3% | 294.7hPa | 2.5V | 00:00:00 | 03:02:51 | 00:00:00 | |
| OE5MMP-10 | 2026-09-05 01:05:24 | 49.48306 | 13.75494 | 88° | 130km/h | 9701m | -11.1m/s | -38.1°C | 22.3% | 293.2hPa | 2.5V | 00:00:00 | 03:02:48 | 00:00:00 | |
| OE5DRO-10 | 2026-09-05 01:05:23 | 49.48305 | 13.75444 | 89° | 130km/h | 9712m | -11.5m/s | -38.1°C | 21.3% | 292.8hPa | 2.5V | 00:00:00 | 00:00:00 | 00:00:00 | |
| OE5WHR-10 | 2026-09-05 01:05:22 | 49.48303 | 13.75394 | 88° | 130km/h | 9723m | -11.8m/s | -38.2°C | 20.4% | 292.3hPa | 2.4V | 03:02:00 | 00:00:00 | 00:00:00 | |
| PG1ADW-2 | 2026-09-05 01:05:19 | 49.48300 | 13.75243 | 89° | 130km/h | 9757m | -10.8m/s | -38.5°C | 19.1% | 291.0hPa | 2.4V | 00:00:00 | 00:00:00 | 00:00:00 | |
| DO3MHA-11 | 2026-09-05 01:05:17 | 49.48298 | 13.75143 | 89° | 130km/h | 9779m | -11.0m/s | -38.6°C | 18.9% | 290.0hPa | 2.5V | 00:00:00 | 03:02:41 | 00:00:00 | |
| OE5MMP-10 | 2026-09-05 01:05:14 | 49.48295 | 13.74992 | 89° | 130km/h | 9812m | -11.6m/s | -38.9°C | 18.8% | 288.6hPa | 2.5V | 00:00:00 | 03:02:38 | 00:00:00 | |
| DO8TBO-1 | 2026-09-05 01:05:10 | 49.48291 | 13.74792 | 89° | 124km/h | 9857m | -11.5m/s | -38.9°C | 19.8% | 286.6hPa | 2.5V | 00:00:00 | 03:02:34 | 00:00:00 | |
| PETON7-10 | 2026-09-05 01:05:08 | 49.48288 | 13.74692 | 89° | 128km/h | 9879m | -11.5m/s | -39.0°C | 21.1% | 285.8hPa | 2.5V | 00:00:00 | 00:00:00 | 00:00:00 | |
| DO3MHA-11 | 2026-09-05 01:05:07 | 49.48287 | 13.74642 | 87° | 128km/h | 9891m | -12.2m/s | -39.0°C | 21.6% | 285.2hPa | 2.5V | 03:02:00 | 03:02:31 | 00:00:00 | |
| DF3TZ-5 | 2026-09-05 01:05:05 | 49.48284 | 13.74542 | 86° | 128km/h | 9914m | -12.2m/s | -39.3°C | 20.0% | 284.4hPa | 2.5V | 00:00:00 | 00:00:00 | 00:00:00 | |
| OE5MMP-10 | 2026-09-05 01:05:04 | 49.48282 | 13.74492 | 87° | 128km/h | 9925m | -11.6m/s | -39.3°C | 24.4% | 283.8hPa | 2.5V | 03:02:00 | 03:02:28 | 00:00:00 | |
| EDDB2-12 | 2026-09-05 01:05:02 | 49.48276 | 13.74343 | 85° | 124km/h | 9958m | -11.9m/s | -39.7°C | 25.5% | 282.6hPa | 2.5V | 00:00:00 | 00:00:00 | 00:00:00 | |
| SONDE2-11 | 2026-09-05 01:04:51 | 49.48244 | 13.73810 | 82° | 122km/h | 10089m | -13.3m/s | -40.9°C | 53.8% | 277.2hPa | 2.5V | 00:00:00 | 00:00:00 | 00:00:00 | |
| OE3MUC-15 | 2026-09-05 01:04:48 | 49.48237 | 13.73714 | 84° | 122km/h | 10114m | -12.4m/s | -41.2°C | 65.3% | 276.2hPa | 2.5V | 03:02:00 | 00:00:00 | 00:00:00 | |
| DO3MHA-11 | 2026-09-05 01:04:47 | 49.48234 | 13.73666 | 84° | 120km/h | 10125m | -12.5m/s | -41.3°C | 67.7% | 275.7hPa | 2.5V | 00:00:00 | 03:02:11 | 00:00:00 | |
| OE5DRO-10 | 2026-09-05 01:04:45 | 49.48227 | 13.73571 | 85° | 120km/h | 10149m | -12.2m/s | -41.4°C | 71.3% | 274.7hPa | 2.4V | 00:00:00 | 00:00:00 | 00:00:00 | |
| OE5MMP-10 | 2026-09-05 01:04:44 | 49.48224 | 13.73525 | 84° | 120km/h | 10161m | -12.6m/s | -41.4°C | 72.5% | 274.3hPa | 2.4V | 00:00:00 | 03:02:08 | 00:00:00 | |
| OE3MUC-15 | 2026-09-05 01:04:43 | 49.48221 | 13.73480 | 84° | 120km/h | 10173m | -12.9m/s | -41.5°C | 73.2% | 273.8hPa | 2.4V | 00:00:00 | 00:00:00 | 00:00:00 | |
| OE5WHR-10 | 2026-09-05 01:04:40 | 49.48210 | 13.73340 | 84° | 119km/h | 10210m | -12.4m/s | -41.8°C | 75.2% | 272.3hPa | 2.4V | 00:00:00 | 00:00:00 | 00:00:00 | |
| PG1ADW-2 | 2026-09-05 01:04:39 | 49.48207 | 13.73293 | 84° | 119km/h | 10221m | -12.3m/s | -41.9°C | 75.7% | 271.8hPa | 2.4V | 00:00:00 | 00:00:00 | 00:00:00 | |
| SP3BTT-10 | 2026-09-05 01:04:38 | 49.48201 | 13.73199 | 85° | 119km/h | 10245m | -12.5m/s | -42.0°C | 76.0% | 270.9hPa | 2.4V | 00:00:00 | 00:00:00 | 00:00:00 | |
| DO3MHA-11 | 2026-09-05 01:04:37 | 49.48201 | 13.73199 | 85° | 119km/h | 10245m | -12.5m/s | -42.0°C | 76.0% | 270.9hPa | 2.4V | 00:00:00 | 03:02:01 | 00:00:00 | |
| OE3MUC-15 | 2026-09-05 01:04:34 | 49.48193 | 13.73060 | 84° | 117km/h | 10282m | -13.3m/s | -42.3°C | 76.3% | 269.3hPa | 2.4V | 00:00:00 | 00:00:00 | 00:00:00 | |
| AM1SDL-15 | 2026-09-05 01:04:32 | 49.48187 | 13.72970 | 84° | 119km/h | 10307m | -13.5m/s | 0°C | 0% | 0hPa | 2.4V | 00:00:00 | 03:01:56 | 00:00:00 | |
| EDDB2-12 | 2026-09-05 01:04:31 | 49.48181 | 13.72878 | 84° | 120km/h | 10333m | -13.4m/s | -42.8°C | 67.5% | 267.4hPa | 2.4V | 00:00:00 | 00:00:00 | 00:00:00 | |
| OE3MUC-15 | 2026-09-05 01:04:30 | 49.48181 | 13.72878 | 85° | 119km/h | 10333m | -13.3m/s | -42.8°C | 75.4% | 267.4hPa | 2.4V | 03:02:00 | 00:00:00 | 00:00:00 | |
| DO3MHA-11 | 2026-09-05 01:04:27 | 49.48174 | 13.72739 | 87° | 117km/h | 10372m | -12.8m/s | -43.0°C | 75.7% | 265.8hPa | 2.4V | 03:02:00 | 03:01:51 | 00:00:00 | |
| OE3MUC-15 | 2026-09-05 01:04:26 | 49.48172 | 13.72693 | 86° | 117km/h | 10385m | -13.3m/s | -43.1°C | 75.6% | 265.3hPa | 2.4V | 00:00:00 | 00:00:00 | 00:00:00 | |
| OE5MMP-10 | 2026-09-05 01:04:24 | 49.48168 | 13.72604 | 86° | 119km/h | 10410m | -13.0m/s | -43.3°C | 75.5% | 264.3hPa | 2.5V | 03:02:00 | 03:01:48 | 00:00:00 | |
| NBG1-10 | 2026-09-05 01:04:23 | 49.48166 | 13.72558 | 86° | 119km/h | 10423m | -12.9m/s | -43.4°C | 75.6% | 263.9hPa | 2.5V | 03:02:00 | 03:01:47 | 00:00:00 | |
| OE3MUC-15 | 2026-09-05 01:04:22 | 49.48164 | 13.72512 | 87° | 119km/h | 10435m | -12.5m/s | -43.5°C | 75.4% | 263.4hPa | 2.4V | 00:00:00 | 00:00:00 | 00:00:00 | |
| SONDE2-11 | 2026-09-05 01:04:20 | 49.48159 | 13.72375 | 87° | 113km/h | 10472m | -12.6m/s | -43.8°C | 67.1% | 262.0hPa | 2.4V | 00:00:00 | 00:00:00 | 00:00:00 | |
| PG1ADW-2 | 2026-09-05 01:04:19 | 49.48159 | 13.72375 | 88° | 119km/h | 10472m | -12.5m/s | -43.7°C | 75.2% | 261.9hPa | 2.4V | 03:03:00 | 00:00:00 | 00:00:00 | |
| OE3MUC-15 | 2026-09-05 01:04:18 | 49.48158 | 13.72330 | 87° | 119km/h | 10485m | -12.6m/s | -43.8°C | 75.1% | 261.5hPa | 2.5V | 00:00:00 | 00:00:00 | 00:00:00 | |
| DO3MHA-11 | 2026-09-05 01:04:17 | 49.48156 | 13.72285 | 87° | 119km/h | 10497m | -12.9m/s | -43.9°C | 75.0% | 261.0hPa | 2.5V | 00:00:00 | 03:01:41 | 00:00:00 | |
| OE5MMP-10 | 2026-09-05 01:04:14 | 49.48153 | 13.72146 | 88° | 119km/h | 10535m | -12.3m/s | -44.2°C | 75.1% | 259.6hPa | 2.4V | 00:00:00 | 03:01:38 | 00:00:00 | |
| PETON7-10 | 2026-09-05 01:04:13 | 49.48152 | 13.72101 | 88° | 120km/h | 10547m | -12.9m/s | -44.3°C | 75.2% | 259.1hPa | 2.4V | 00:00:00 | 00:00:00 | 00:00:00 | |
| OE3MUC-15 | 2026-09-05 01:04:10 | 49.48148 | 13.71962 | 89° | 120km/h | 10583m | -12.3m/s | -44.6°C | 74.9% | 257.6hPa | 2.4V | 00:00:00 | 00:00:00 | 00:00:00 | |
| EDDB2-11 | 2026-09-05 01:04:08 | 49.48146 | 13.71870 | 87° | 117km/h | 10607m | -12.9m/s | -44.9°C | 66.5% | 256.8hPa | 2.4V | 00:00:00 | 00:00:00 | 00:00:00 | |
| OE5WHR-10 | 2026-09-05 01:04:07 | 49.48145 | 13.71824 | 88° | 119km/h | 10620m | -13.4m/s | -45.0°C | 74.8% | 256.2hPa | 2.4V | 00:00:00 | 00:00:00 | 00:00:00 | |
| OE3MUC-15 | 2026-09-05 01:04:05 | 49.48142 | 13.71732 | 88° | 120km/h | 10646m | -12.9m/s | -45.2°C | 74.6% | 255.3hPa | 2.4V | 00:00:00 | 00:00:00 | 00:00:00 | |
| OE5MMP-10 | 2026-09-05 01:04:04 | 49.48141 | 13.71685 | 88° | 119km/h | 10659m | -13.1m/s | -45.3°C | 74.5% | 254.8hPa | 2.4V | 00:00:00 | 03:01:28 | 00:00:00 | |
| DF3TZ-5 | 2026-09-05 01:04:03 | 49.48140 | 13.71591 | 88° | 120km/h | 10684m | -12.8m/s | -45.6°C | 65.7% | 253.9hPa | 2.4V | 00:00:00 | 00:00:00 | 00:00:00 | |
| EDDB2-12 | 2026-09-05 01:04:00 | 49.48138 | 13.71452 | 88° | 117km/h | 10723m | -13.9m/s | -46.0°C | 65.1% | 252.4hPa | 2.4V | 00:00:00 | 00:00:00 | 00:00:00 | |
| DL6DJ-15 | 2026-09-05 01:03:51 | 49.48130 | 13.71079 | 89° | 120km/h | 10835m | -13.6m/s | -47.0°C | 65.1% | 248.3hPa | 2.4V | 00:00:00 | 00:00:00 | 00:00:00 | |
| SONDE2-11 | 2026-09-05 01:03:49 | 49.48129 | 13.70941 | 88° | 117km/h | 10873m | -14.6m/s | -47.4°C | 65.1% | 246.7hPa | 2.4V | 00:00:00 | 00:00:00 | 00:00:00 | |
| OE3MUC-15 | 2026-09-05 01:03:48 | 49.48129 | 13.70941 | 89° | 120km/h | 10874m | -14.5m/s | -47.3°C | 73.9% | 246.7hPa | 2.4V | 00:00:00 | 00:00:00 | 00:00:00 | |
| DO3MHA-11 | 2026-09-05 01:03:47 | 49.48129 | 13.70895 | 88° | 120km/h | 10887m | -14.4m/s | -47.5°C | 73.8% | 246.2hPa | 2.5V | 03:03:00 | 03:01:11 | 00:00:00 | |
| S52SK | 2026-09-05 01:03:46 | 49.48129 | 13.70895 | 89° | 120km/h | 10887m | -14.5m/s | -47.5°C | 65.0% | 246.2hPa | 2.5V | 00:00:00 | 00:00:00 | 00:00:00 | |
| OE5WHR-10 | 2026-09-05 01:03:45 | 49.48126 | 13.70801 | 88° | 115km/h | 10915m | -14.4m/s | -47.7°C | 73.7% | 245.1hPa | 2.5V | 03:03:00 | 03:01:09 | 00:00:00 | |
| OE5MMP-10 | 2026-09-05 01:03:44 | 49.48125 | 13.70753 | 89° | 120km/h | 10929m | -13.4m/s | -47.9°C | 73.5% | 244.6hPa | 2.5V | 03:03:00 | 03:01:08 | 00:00:00 | |
| PG1ADW-2 | 2026-09-05 01:03:39 | 49.48121 | 13.70517 | 89° | 122km/h | 11001m | -14.4m/s | -48.5°C | 71.5% | 242.0hPa | 2.5V | 00:00:00 | 03:01:03 | 00:00:00 | |
| DO3MHA-11 | 2026-09-05 01:03:37 | 49.48119 | 13.70425 | 88° | 122km/h | 11030m | -15.6m/s | -48.8°C | 70.3% | 241.0hPa | 2.5V | 00:00:00 | 03:01:01 | 00:00:00 | |
| OE5DXL-15 | 2026-09-05 01:03:35 | 49.48116 | 13.70283 | 88° | 122km/h | 11076m | -14.4m/s | -49.3°C | 69.0% | 239.3hPa | 2.5V | 00:00:00 | 00:00:00 | 00:00:00 | |
| OE5MMP-10 | 2026-09-05 01:03:34 | 49.48116 | 13.70283 | 88° | 122km/h | 11076m | -14.4m/s | -49.3°C | 69.0% | 239.3hPa | 2.4V | 00:00:00 | 03:00:58 | 00:00:00 | |
| DF3TZ-5 | 2026-09-05 01:03:32 | 49.48112 | 13.70139 | 88° | 122km/h | 11118m | -14.4m/s | -49.7°C | 59.5% | 237.8hPa | 2.4V | 00:00:00 | 00:00:00 | 00:00:00 | |
| EDDB2-12 | 2026-09-05 01:03:29 | 49.48108 | 13.69998 | 86° | 122km/h | 11161m | -15.2m/s | -50.2°C | 58.9% | 236.2hPa | 2.4V | 00:00:00 | 00:00:00 | 00:00:00 | |
| DO3MHA-11 | 2026-09-05 01:03:27 | 49.48106 | 13.69950 | 87° | 120km/h | 11175m | -14.8m/s | -50.2°C | 67.8% | 235.6hPa | 2.4V | 00:00:00 | 03:00:51 | 00:00:00 | |
| OE5MMP-10 | 2026-09-05 01:03:24 | 49.48099 | 13.69809 | 85° | 120km/h | 11219m | -15.4m/s | -50.6°C | 67.0% | 234.0hPa | 2.4V | 00:00:00 | 03:00:48 | 00:00:00 | |
| DB0UT-7 | 2026-09-05 01:03:21 | 49.48092 | 13.69670 | 85° | 119km/h | 11263m | -14.4m/s | 0°C | 0% | 0hPa | 2.4V | 00:00:00 | 00:00:00 | 00:00:00 | |
| DL6DJ-15 | 2026-09-05 01:03:20 | 49.48089 | 13.69623 | 83° | 122km/h | 11277m | -14.6m/s | -51.2°C | 57.1% | 231.9hPa | 2.4V | 00:00:00 | 00:00:00 | 00:00:00 | |
| PG1ADW-2 | 2026-09-05 01:03:19 | 49.48085 | 13.69577 | 84° | 120km/h | 11292m | -14.3m/s | -51.3°C | 65.8% | 231.4hPa | 2.4V | 00:00:00 | 00:00:00 | 00:00:00 | |
| SONDE2-11 | 2026-09-05 01:03:18 | 49.48078 | 13.69484 | 82° | 119km/h | 11319m | -14.4m/s | -51.6°C | 56.0% | 230.4hPa | 2.4V | 00:00:00 | 00:00:00 | 00:00:00 | |
| NBG1-10 | 2026-09-05 01:03:17 | 49.48078 | 13.69484 | 83° | 120km/h | 11319m | -14.3m/s | -51.5°C | 65.1% | 230.4hPa | 2.4V | 00:00:00 | 03:00:41 | 00:00:00 | |
| DB0UT-9 | 2026-09-05 01:03:16 | 49.48078 | 13.69484 | 84° | 120km/h | 11319m | -14.4m/s | 0°C | 0% | 0hPa | 2.4V | 03:04:00 | 00:00:00 | 00:00:00 | |
| OE3MUC-15 | 2026-09-05 01:03:14 | 49.48068 | 13.69344 | 84° | 122km/h | 11362m | -14.4m/s | -51.9°C | 63.6% | 229.0hPa | 2.4V | 00:00:00 | 00:00:00 | 00:00:00 | |
| OE5DRO-10 | 2026-09-05 01:03:10 | 49.48053 | 13.69157 | 85° | 120km/h | 11421m | -14.1m/s | -52.4°C | 61.6% | 227.0hPa | 2.4V | 00:00:00 | 00:00:00 | 00:00:00 | |
| DO3MHA-11 | 2026-09-05 01:03:07 | 49.48045 | 13.69018 | 85° | 120km/h | 11463m | -14.3m/s | -52.7°C | 59.8% | 225.5hPa | 2.4V | 03:04:00 | 03:00:31 | 00:00:00 | |
| EDDB2-11 | 2026-09-05 01:03:06 | 49.48042 | 13.68970 | 85° | 124km/h | 11477m | -14.2m/s | -52.9°C | 50.5% | 225.1hPa | 2.4V | 00:00:00 | 00:00:00 | 00:00:00 | |
| OE3MUC-15 | 2026-09-05 01:03:05 | 49.48040 | 13.68923 | 86° | 120km/h | 11491m | -14.6m/s | -53.0°C | 58.9% | 224.5hPa | 2.4V | 03:04:00 | 00:00:00 | 00:00:00 | |
| OE5MMP-10 | 2026-09-05 01:03:04 | 49.48037 | 13.68876 | 85° | 120km/h | 11506m | -14.7m/s | -53.1°C | 58.9% | 224.1hPa | 2.4V | 03:04:00 | 03:00:28 | 00:00:00 | |
| OM5KV | 2026-09-05 01:03:03 | 49.48037 | 13.68876 | 86° | 120km/h | 11506m | -14.8m/s | -53.2°C | 0% | 224.1hPa | 2.4V | 03:04:00 | 00:00:00 | 00:00:00 | |
| DF3TZ-5 | 2026-09-05 01:03:01 | 49.48026 | 13.68689 | 84° | 119km/h | 11561m | -13.9m/s | -53.7°C | 49.5% | 222.2hPa | 2.4V | 00:00:00 | 00:00:00 | 00:00:00 | |
| EDDB2-12 | 2026-09-05 01:02:57 | 49.48017 | 13.68551 | 84° | 119km/h | 11602m | -13.6m/s | -54.1°C | 49.0% | 220.8hPa | 2.4V | 00:00:00 | 00:00:00 | 00:00:00 | |
| DL6DJ-15 | 2026-09-05 01:02:49 | 49.47988 | 13.68185 | 82° | 119km/h | 11714m | -14.4m/s | -54.9°C | 47.7% | 216.9hPa | 2.4V | 00:00:00 | 00:00:00 | 00:00:00 | |
| SONDE2-11 | 2026-09-05 01:02:47 | 49.47978 | 13.68049 | 82° | 119km/h | 11756m | -14.6m/s | -55.3°C | 47.3% | 215.5hPa | 2.4V | 00:00:00 | 00:00:00 | 00:00:00 | |
| OM5KV | 2026-09-05 01:02:45 | 49.47978 | 13.68049 | 84° | 120km/h | 11756m | -14.6m/s | 0°C | 0% | 215.5hPa | 2.4V | 00:00:00 | 00:00:00 | 00:00:00 | |
| PETON7-10 | 2026-09-05 01:02:44 | 49.47970 | 13.67958 | 84° | 117km/h | 11785m | -13.7m/s | -55.5°C | 56.7% | 214.5hPa | 2.4V | 03:04:00 | 00:00:00 | 00:00:00 | |
| OE3MUC-15 | 2026-09-05 01:02:43 | 49.47967 | 13.67913 | 84° | 119km/h | 11799m | -14.3m/s | -55.6°C | 56.5% | 214.0hPa | 2.4V | 00:00:00 | 00:00:00 | 00:00:00 | |
| DB0UT-7 | 2026-09-05 01:02:40 | 49.47957 | 13.67775 | 84° | 119km/h | 11842m | -14.1m/s | 0°C | 0% | 0hPa | 2.4V | 00:00:00 | 03:00:04 | 00:00:00 | |
| PG1ADW-2 | 2026-09-05 01:02:39 | 49.47954 | 13.67729 | 84° | 119km/h | 11856m | -14.3m/s | -55.9°C | 55.1% | 212.1hPa | 2.4V | 00:00:00 | 00:00:00 | 00:00:00 | |
| DO3MHA-11 | 2026-09-05 01:02:37 | 49.47948 | 13.67639 | 86° | 119km/h | 11884m | -14.2m/s | -56.2°C | 54.5% | 211.2hPa | 2.4V | 00:00:00 | 03:00:01 | 00:00:00 | |
| OE3MUC-15 | 2026-09-05 01:02:36 | 49.47945 | 13.67593 | 85° | 120km/h | 11898m | -14.2m/s | -56.3°C | 54.1% | 210.7hPa | 2.4V | 00:00:00 | 00:00:00 | 00:00:00 | |
| OE5MMP-10 | 2026-09-05 01:02:34 | 49.47940 | 13.67501 | 85° | 117km/h | 11927m | -14.4m/s | -56.5°C | 53.3% | 209.8hPa | 2.4V | 00:00:00 | 02:59:58 | 00:00:00 | |
| OE5DRO-10 | 2026-09-05 01:02:32 | 49.47934 | 13.67410 | 85° | 119km/h | 11956m | -14.6m/s | -56.7°C | 52.3% | 208.8hPa | 2.4V | 03:04:00 | 00:00:00 | 00:00:00 | |
| DF3TZ-5 | 2026-09-05 01:02:30 | 49.47925 | 13.67275 | 84° | 115km/h | 12000m | -14.4m/s | -57.2°C | 41.9% | 207.4hPa | 2.4V | 00:00:00 | 00:00:00 | 00:00:00 | |
| PETON7-10 | 2026-09-05 01:02:27 | 49.47919 | 13.67184 | 83° | 119km/h | 12029m | -14.6m/s | -57.4°C | 51.3% | 206.4hPa | 2.4V | 00:00:00 | 00:00:00 | 00:00:00 | |
| EDDB2-12 | 2026-09-05 01:02:26 | 49.47915 | 13.67139 | 82° | 115km/h | 12044m | -14.8m/s | -57.5°C | 41.6% | 206.0hPa | 2.4V | 00:00:00 | 00:00:00 | 00:00:00 | |
| OE5MMP-10 | 2026-09-05 01:02:24 | 49.47908 | 13.67048 | 83° | 119km/h | 12073m | -14.9m/s | -57.7°C | 49.9% | 205.0hPa | 2.4V | 03:04:00 | 02:59:48 | 00:00:00 | |
| OE3MUC-15 | 2026-09-05 01:02:23 | 49.47904 | 13.67003 | 84° | 119km/h | 12088m | -15.2m/s | -57.8°C | 49.4% | 204.6hPa | 2.4V | 03:04:00 | 00:00:00 | 00:00:00 | |
| DO8TBO-1 | 2026-09-05 01:02:21 | 49.47896 | 13.66912 | 82° | 124km/h | 12117m | -15.3m/s | -58.0°C | 49.2% | 203.5hPa | 2.4V | 00:00:00 | 02:59:45 | 00:00:00 | |
| OE3MUC-15 | 2026-09-05 01:02:19 | 49.47887 | 13.66822 | 82° | 120km/h | 12147m | -14.2m/s | -58.2°C | 48.9% | 202.6hPa | 2.4V | 00:00:00 | 00:00:00 | 00:00:00 | |
| DL6DJ-15 | 2026-09-05 01:02:18 | 49.47883 | 13.66777 | 81° | 120km/h | 12161m | -14.7m/s | -58.3°C | 39.6% | 202.1hPa | 2.4V | 00:00:00 | 00:00:00 | 00:00:00 | |
| DO3MHA-11 | 2026-09-05 01:02:17 | 49.47878 | 13.66730 | 81° | 122km/h | 12176m | -14.6m/s | -58.4°C | 48.4% | 201.6hPa | 2.4V | 00:00:00 | 02:59:41 | 00:00:00 | |
| OE3MUC-15 | 2026-09-05 01:02:14 | 49.47863 | 13.66592 | 80° | 122km/h | 12220m | -15.5m/s | -58.6°C | 47.3% | 200.2hPa | 2.5V | 00:00:00 | 00:00:00 | 00:00:00 | |
| OE5DRO-10 | 2026-09-05 01:02:13 | 49.47858 | 13.66545 | 81° | 126km/h | 12235m | -15.0m/s | -58.7°C | 46.9% | 199.7hPa | 2.5V | 00:00:00 | 00:00:00 | 00:00:00 | |
| PETON7-10 | 2026-09-05 01:02:12 | 49.47853 | 13.66499 | 80° | 126km/h | 12250m | -15.9m/s | -58.7°C | 46.1% | 199.3hPa | 2.5V | 00:00:00 | 02:59:36 | 00:00:00 | |
| NBG1-10 | 2026-09-05 01:02:11 | 49.47848 | 13.66453 | 81° | 89km/h | 12265m | -15.5m/s | -58.8°C | 45.6% | 198.8hPa | 2.5V | 03:05:00 | 02:59:35 | 00:00:00 | |
| OE3MUC-15 | 2026-09-05 01:02:10 | 49.47843 | 13.66406 | 81° | 126km/h | 12281m | -15.1m/s | -58.9°C | 44.7% | 198.2hPa | 2.5V | 00:00:00 | 00:00:00 | 00:00:00 | |
| DO3MHA-11 | 2026-09-05 01:02:07 | 49.47828 | 13.66261 | 81° | 128km/h | 12326m | -15.0m/s | -59.1°C | 42.0% | 196.8hPa | 2.5V | 00:00:00 | 02:59:31 | 00:00:00 | |
| S52SK | 2026-09-05 01:02:05 | 49.47823 | 13.66213 | 83° | 124km/h | 12340m | -15.4m/s | -59.3°C | 32.5% | 196.4hPa | 2.5V | 00:00:00 | 00:00:00 | 00:00:00 | |
| OE3MUC-15 | 2026-09-05 01:02:04 | 49.47814 | 13.66116 | 82° | 126km/h | 12370m | -15.1m/s | -59.5°C | 39.5% | 195.4hPa | 2.5V | 03:05:00 | 00:00:00 | 00:00:00 | |
| DF3TZ-5 | 2026-09-05 01:01:59 | 49.47784 | 13.65772 | 80° | 126km/h | 12473m | -14.8m/s | -59.8°C | 25.7% | 192.3hPa | 2.4V | 00:00:00 | 00:00:00 | 00:00:00 | |
| EDDB2-12 | 2026-09-05 01:01:55 | 49.47774 | 13.65673 | 81° | 130km/h | 12502m | -15.3m/s | -59.9°C | 24.7% | 191.4hPa | 2.4V | 00:00:00 | 00:00:00 | 00:00:00 | |
| OE5MMP-10 | 2026-09-05 01:01:54 | 49.47769 | 13.65623 | 81° | 128km/h | 12518m | -15.0m/s | -59.9°C | 32.0% | 190.9hPa | 2.4V | 00:00:00 | 02:59:18 | 00:00:00 | |
| OE3MUC-15 | 2026-09-05 01:01:52 | 49.47758 | 13.65526 | 81° | 128km/h | 12547m | -14.3m/s | -60.0°C | 31.3% | 190.1hPa | 2.5V | 00:00:00 | 00:00:00 | 00:00:00 | |
| DO8TBO-1 | 2026-09-05 01:01:51 | 49.47752 | 13.65477 | 80° | 128km/h | 12561m | -14.4m/s | -59.8°C | 30.7% | 189.6hPa | 2.5V | 00:00:00 | 02:59:15 | 00:00:00 | |
| DO3MHA-11 | 2026-09-05 01:01:47 | 49.47724 | 13.65283 | 76° | 128km/h | 12618m | -15.2m/s | -59.4°C | 27.7% | 187.9hPa | 2.4V | 03:05:00 | 02:59:11 | 00:00:00 | |
| OE5MMP-10 | 2026-09-05 01:01:44 | 49.47700 | 13.65139 | 75° | 128km/h | 12663m | -15.0m/s | -59.8°C | 27.6% | 186.5hPa | 2.4V | 03:05:00 | 02:59:08 | 00:00:00 | |
| PETON7-10 | 2026-09-05 01:01:42 | 49.47683 | 13.65042 | 75° | 128km/h | 12692m | -14.9m/s | -59.8°C | 27.2% | 185.7hPa | 2.4V | 03:05:00 | 00:00:00 | 00:00:00 | |
| PG1ADW-2 | 2026-09-05 01:01:39 | 49.47658 | 13.64899 | 75° | 128km/h | 12736m | -14.9m/s | -60.0°C | 26.8% | 184.4hPa | 2.4V | 03:05:00 | 00:00:00 | 00:00:00 | |
| DO3MHA-11 | 2026-09-05 01:01:37 | 49.47642 | 13.64803 | 76° | 128km/h | 12765m | -14.9m/s | -60.2°C | 26.7% | 183.6hPa | 2.4V | 00:00:00 | 02:59:01 | 00:00:00 | |
| OE5DRO-10 | 2026-09-05 01:01:35 | 49.47626 | 13.64708 | 76° | 130km/h | 12795m | -14.9m/s | -60.4°C | 26.5% | 182.7hPa | 2.4V | 00:00:00 | 00:00:00 | 00:00:00 | |
| EDDB2-11 | 2026-09-05 01:01:34 | 49.47610 | 13.64612 | 74° | 130km/h | 12824m | -14.9m/s | -60.5°C | 19.1% | 181.9hPa | 2.4V | 00:00:00 | 00:00:00 | 00:00:00 | |
| DO3MHA-11 | 2026-09-05 01:01:27 | 49.47560 | 13.64326 | 76° | 130km/h | 12912m | -14.3m/s | -60.3°C | 24.6% | 179.4hPa | 2.4V | 00:00:00 | 02:58:51 | 00:00:00 | |
| PETON7-10 | 2026-09-05 01:01:26 | 49.47552 | 13.64277 | 76° | 130km/h | 12927m | -14.8m/s | -60.3°C | 24.3% | 178.9hPa | 2.4V | 00:00:00 | 02:58:50 | 00:00:00 | |
| OE5MMP-10 | 2026-09-05 01:01:24 | 49.47536 | 13.64180 | 76° | 131km/h | 12956m | -14.6m/s | -60.5°C | 24.4% | 178.0hPa | 2.4V | 00:00:00 | 02:58:48 | 00:00:00 | |
| SP3BTT-10 | 2026-09-05 01:01:21 | 49.47513 | 13.64033 | 78° | 128km/h | 12999m | -14.5m/s | -60.9°C | 24.6% | 176.8hPa | 2.4V | 00:00:00 | 00:00:00 | 00:00:00 | |
| PG1ADW-2 | 2026-09-05 01:01:19 | 49.47497 | 13.63933 | 78° | 130km/h | 13029m | -14.6m/s | -60.6°C | 23.8% | 176.0hPa | 2.4V | 00:00:00 | 00:00:00 | 00:00:00 | |
| DO3MHA-11 | 2026-09-05 01:01:17 | 49.47484 | 13.63833 | 78° | 130km/h | 13058m | -15.4m/s | -60.5°C | 23.1% | 175.2hPa | 2.4V | 00:00:00 | 02:58:41 | 00:00:00 | |
| OE5DRO-10 | 2026-09-05 01:01:16 | 49.47477 | 13.63784 | 80° | 128km/h | 13073m | -14.6m/s | -60.5°C | 22.8% | 174.7hPa | 2.4V | 03:06:00 | 00:00:00 | 00:00:00 | |
| OE3MUC-15 | 2026-09-05 01:01:15 | 49.47471 | 13.63734 | 79° | 130km/h | 13088m | -15.0m/s | -60.5°C | 22.7% | 174.3hPa | 2.4V | 03:06:00 | 00:00:00 | 00:00:00 | |
| OE5MMP-10 | 2026-09-05 01:01:14 | 49.47465 | 13.63684 | 80° | 128km/h | 13102m | -14.4m/s | -60.5°C | 22.5% | 173.9hPa | 2.4V | 00:00:00 | 02:58:38 | 00:00:00 | |
| SONDE2-11 | 2026-09-05 01:01:13 | 49.47459 | 13.63635 | 79° | 131km/h | 13117m | -14.9m/s | -60.6°C | 15.8% | 173.5hPa | 2.4V | 00:00:00 | 00:00:00 | 00:00:00 | |
| PETON7-10 | 2026-09-05 01:01:11 | 49.47448 | 13.63537 | 81° | 128km/h | 13146m | -15.1m/s | -60.6°C | 22.0% | 172.6hPa | 2.4V | 00:00:00 | 00:00:00 | 00:00:00 | |
| SONCRA | 2026-09-05 01:01:09 | 49.47437 | 13.63439 | 80° | 126km/h | 13176m | -14.8m/s | -60.9°C | 15.4% | 171.9hPa | 2.4V | 00:00:00 | 00:00:00 | 00:00:00 | |
| DO3MHA-11 | 2026-09-05 01:01:07 | 49.47427 | 13.63342 | 82° | 128km/h | 13206m | -14.6m/s | -61.0°C | 21.9% | 171.0hPa | 2.4V | 03:06:00 | 02:58:31 | 00:00:00 | |
| OE5MMP-10 | 2026-09-05 01:01:04 | 49.47412 | 13.63195 | 81° | 130km/h | 13251m | -15.0m/s | -60.8°C | 21.0% | 169.8hPa | 2.4V | 03:06:00 | 02:58:28 | 00:00:00 | |
| OE3MUC-15 | 2026-09-05 01:01:02 | 49.47402 | 13.63097 | 81° | 130km/h | 13281m | -14.9m/s | -60.3°C | 19.4% | 169.0hPa | 2.4V | 00:00:00 | 00:00:00 | 00:00:00 | |
| EDDB2-12 | 2026-09-05 01:00:53 | 49.47358 | 13.62648 | 81° | 131km/h | 13417m | -15.4m/s | -61.3°C | 11.9% | 165.4hPa | 2.4V | 00:00:00 | 00:00:00 | 00:00:00 | |
| DL6DJ-15 | 2026-09-05 01:00:46 | 49.47329 | 13.62243 | 85° | 131km/h | 13536m | -15.3m/s | -62.1°C | 11.2% | 162.2hPa | 2.4V | 00:00:00 | 00:00:00 | 00:00:00 | |
| OE3MUC-15 | 2026-09-05 01:00:45 | 49.47329 | 13.62242 | 86° | 128km/h | 13536m | -15.3m/s | -62.1°C | 17.4% | 162.1hPa | 2.4V | 00:00:00 | 00:00:00 | 00:00:00 | |
| OE5MMP-10 | 2026-09-05 01:00:44 | 49.47326 | 13.62192 | 86° | 124km/h | 13551m | -15.8m/s | -62.2°C | 17.3% | 161.8hPa | 2.4V | 00:00:00 | 02:58:08 | 00:00:00 | |
| DM0DOS-11 | 2026-09-05 01:00:42 | 49.47314 | 13.61901 | 85° | 124km/h | 13644m | -16.1m/s | -62.2°C | 0% | 159.4hPa | 2.4V | 03:06:44 | 02:58:02 | 00:00:00 | |
| PETON7-10 | 2026-09-05 01:00:41 | 49.47320 | 13.62045 | 87° | 119km/h | 13598m | -15.6m/s | -62.5°C | 16.6% | 160.6hPa | 2.4V | 03:06:00 | 02:58:05 | 00:00:00 | |
| PG1ADW-2 | 2026-09-05 01:00:39 | 49.47316 | 13.61949 | 88° | 119km/h | 13628m | -15.8m/s | -62.4°C | 15.8% | 159.7hPa | 2.4V | 00:00:00 | 00:00:00 | 00:00:00 | |
| OE5DRO-10 | 2026-09-05 01:00:38 | 49.47314 | 13.61901 | 86° | 119km/h | 13644m | -16.0m/s | -62.2°C | 15.3% | 159.4hPa | 2.4V | 00:00:00 | 00:00:00 | 00:00:00 | |
| SP3BTT-10 | 2026-09-05 01:00:36 | 49.47310 | 13.61809 | 87° | 120km/h | 13676m | -15.7m/s | -62.1°C | 14.7% | 158.5hPa | 2.4V | 00:00:00 | 00:00:00 | 00:00:00 | |
| OE5MMP-10 | 2026-09-05 01:00:34 | 49.47305 | 13.61716 | 85° | 117km/h | 13707m | -16.7m/s | -62.1°C | 14.3% | 157.7hPa | 2.4V | 00:00:00 | 02:57:58 | 00:00:00 | |
| OE3MUC-15 | 2026-09-05 01:00:33 | 49.47301 | 13.61670 | 84° | 115km/h | 13724m | -16.4m/s | -62.1°C | 14.0% | 157.3hPa | 2.4V | 03:06:00 | 00:00:00 | 00:00:00 | |
| DM0DOS-11 | 2026-09-05 01:00:32 | 49.47278 | 13.61404 | 81° | 117km/h | 13821m | -16.3m/s | -62°C | 0% | 155hPa | 2.4V | 03:06:55 | 02:57:51 | 00:00:00 | |
| EDDB2-11 | 2026-09-05 01:00:31 | 49.47294 | 13.61580 | 82° | 113km/h | 13757m | -16.1m/s | -62.1°C | 7.8% | 156.6hPa | 2.4V | 00:00:00 | 00:00:00 | 00:00:00 | |
| OE3MUC-15 | 2026-09-05 01:00:29 | 49.47286 | 13.61492 | 83° | 117km/h | 13789m | -15.8m/s | -62.2°C | 13.3% | 155.8hPa | 2.4V | 00:00:00 | 00:00:00 | 00:00:00 | |
| DO3MHA-11 | 2026-09-05 01:00:27 | 49.47278 | 13.61404 | 82° | 120km/h | 13821m | -16.2m/s | -62.0°C | 12.7% | 154.9hPa | 2.4V | 03:06:00 | 02:57:51 | 00:00:00 | |
| PETON7-10 | 2026-09-05 01:00:26 | 49.47273 | 13.61358 | 81° | 120km/h | 13838m | -16.5m/s | -61.9°C | 12.6% | 154.5hPa | 2.4V | 00:00:00 | 00:00:00 | 00:00:00 | |
| OE3MUC-15 | 2026-09-05 01:00:25 | 49.47268 | 13.61312 | 81° | 120km/h | 13855m | -16.5m/s | -61.8°C | 12.3% | 154.1hPa | 2.4V | 00:00:00 | 00:00:00 | 00:00:00 | |
| OE5MMP-10 | 2026-09-05 01:00:24 | 49.47264 | 13.61265 | 82° | 120km/h | 13871m | -16.5m/s | -61.8°C | 12.0% | 153.6hPa | 2.5V | 03:06:00 | 02:57:48 | 00:00:00 | |
| EDDB2-12 | 2026-09-05 01:00:22 | 49.47255 | 13.61174 | 83° | 117km/h | 13904m | -16.1m/s | -61.6°C | 6.3% | 152.9hPa | 2.4V | 00:00:00 | 00:00:00 | 00:00:00 | |
| DM0DOS-11 | 2026-09-05 01:00:22 | 49.47238 | 13.60939 | 85° | 122km/h | 13986m | -15.2m/s | 0°C | 0% | 0hPa | 2.5V | 03:07:05 | 02:57:41 | 00:00:00 | |
| OE3MUC-15 | 2026-09-05 01:00:21 | 49.47251 | 13.61127 | 83° | 122km/h | 13921m | -16.2m/s | -61.0°C | 10.9% | 152.4hPa | 2.4V | 00:00:00 | 00:00:00 | 00:00:00 | |
| PG1ADW-2 | 2026-09-05 01:00:19 | 49.47244 | 13.61033 | 84° | 120km/h | 13954m | -16.4m/s | -60.5°C | 10.0% | 151.7hPa | 2.4V | 03:07:00 | 00:00:00 | 00:00:00 | |
| OE3MUC-15 | 2026-09-05 01:00:18 | 49.47238 | 13.60939 | 86° | 122km/h | 13986m | -15.1m/s | -60.3°C | 9.6% | 150.8hPa | 2.4V | 03:07:00 | 00:00:00 | 00:00:00 | |
| OE5MMP-10 | 2026-09-05 01:00:14 | 49.47232 | 13.60797 | 88° | 122km/h | 14034m | -16.4m/s | -59.8°C | 9.0% | 149.7hPa | 2.4V | 00:00:00 | 02:57:38 | 00:00:00 | |
| OE3MUC-15 | 2026-09-05 01:00:13 | 49.47231 | 13.60749 | 87° | 122km/h | 14050m | -16.8m/s | -59.6°C | 8.8% | 149.3hPa | 2.4V | 00:00:00 | 00:00:00 | 00:00:00 | |
| DM0DOS-11 | 2026-09-05 01:00:12 | 49.47223 | 13.60467 | 86° | 120km/h | 14149m | -17.3m/s | 0°C | 0% | 0hPa | 2.4V | 03:07:15 | 02:57:31 | 00:00:00 | |
| SONDE2-11 | 2026-09-05 01:00:11 | 49.47228 | 13.60655 | 87° | 119km/h | 14083m | -16.8m/s | -59.4°C | 4.3% | 148.6hPa | 2.5V | 00:00:00 | 00:00:00 | 00:00:00 | |
| OE3MUC-15 | 2026-09-05 01:00:09 | 49.47225 | 13.60560 | 88° | 120km/h | 14116m | -16.5m/s | -59.3°C | 8.4% | 147.7hPa | 2.5V | 00:00:00 | 00:00:00 | 00:00:00 | |
| DO3MHA-11 | 2026-09-05 01:00:07 | 49.47223 | 13.60467 | 87° | 119km/h | 14149m | -17.3m/s | -59.1°C | 8.2% | 146.9hPa | 2.5V | 00:00:00 | 02:57:31 | 00:00:00 | |
| SP3BTT-10 | 2026-09-05 01:00:06 | 49.47221 | 13.60421 | 88° | 111km/h | 14166m | -16.4m/s | -59.1°C | 8.2% | 146.5hPa | 2.5V | 03:07:00 | 00:00:00 | 00:00:00 | |
| OE3MUC-15 | 2026-09-05 01:00:05 | 49.47220 | 13.60374 | 87° | 120km/h | 14182m | -17.5m/s | -59.1°C | 8.2% | 146.2hPa | 2.4V | 00:00:00 | 02:57:29 | 00:00:00 | |
| OE5MMP-10 | 2026-09-05 01:00:04 | 49.47218 | 13.60327 | 88° | 119km/h | 14200m | -17.3m/s | -59.2°C | 8.2% | 145.8hPa | 2.4V | 00:00:00 | 02:57:28 | 00:00:00 | |
| DM0DOS-11 | 2026-09-05 01:00:02 | 49.47211 | 13.60005 | 88° | 120km/h | 14324m | -17.9m/s | 0°C | 0% | 0hPa | 2.4V | 03:07:25 | 02:57:21 | 00:00:00 | |
| EDDB2-11 | 2026-09-05 01:00:00 | 49.47214 | 13.60143 | 87° | 119km/h | 14269m | -18.1m/s | -59.3°C | 4.0% | 144.3hPa | 2.4V | 00:00:00 | 00:00:00 | 00:00:00 | |
| EDDB2-12 | 2026-09-05 00:59:51 | 49.47208 | 13.59737 | 89° | 113km/h | 14426m | -17.1m/s | -58.7°C | 3.3% | 140.7hPa | 2.4V | 00:00:00 | 00:00:00 | 00:00:00 | |
| DM0DOS-11 | 2026-09-05 00:59:49 | 49.47210 | 13.59567 | 91° | 106km/h | 14495m | -18.2m/s | 0°C | 0% | 0hPa | 2.4V | 03:07:35 | 02:57:11 | 00:00:00 | |
| OE3MUC-15 | 2026-09-05 00:59:49 | 49.47209 | 13.59650 | 91° | 108km/h | 14459m | -17.4m/s | -58.9°C | 7.2% | 139.9hPa | 2.5V | 00:00:00 | 00:00:00 | 00:00:00 | |
| DO3MHA-11 | 2026-09-05 00:59:47 | 49.47210 | 13.59567 | 92° | 102km/h | 14495m | -18.1m/s | -59.1°C | 7.3% | 139.1hPa | 2.4V | 03:07:00 | 02:57:11 | 00:00:00 | |
| OE3MUC-15 | 2026-09-05 00:59:45 | 49.47211 | 13.59485 | 91° | 106km/h | 14531m | -18.8m/s | -58.5°C | 7.2% | 138.3hPa | 2.4V | 03:07:00 | 00:00:00 | 00:00:00 | |
| OE5MMP-10 | 2026-09-05 00:59:44 | 49.47211 | 13.59444 | 92° | 99km/h | 14550m | -18.1m/s | -57.6°C | 6.6% | 137.9hPa | 2.4V | 03:07:00 | 02:57:08 | 00:00:00 | |
| DL6DJ-15 | 2026-09-05 00:59:43 | 49.47212 | 13.59403 | 91° | 104km/h | 14568m | -17.8m/s | -57.1°C | 2.8% | 137.6hPa | 2.4V | 00:00:00 | 00:00:00 | 00:00:00 | |
| DF2AP-13 | 2026-09-05 00:59:41 | 49.47214 | 13.59323 | 92° | 97km/h | 14604m | -19.1m/s | -56.9°C | 6.0% | 136.7hPa | 2.4V | 00:00:00 | 02:57:05 | 00:00:00 | |
| SONDE2-11 | 2026-09-05 00:59:40 | 49.47215 | 13.59285 | 91° | 95km/h | 14623m | -19.0m/s | -57.1°C | 2.8% | 136.4hPa | 2.4V | 00:00:00 | 00:00:00 | 00:00:00 | |
| PG1ADW-2 | 2026-09-05 00:59:39 | 49.47216 | 13.59248 | 91° | 97km/h | 14642m | -19.1m/s | -57.2°C | 6.1% | 135.9hPa | 2.4V | 00:00:00 | 02:57:03 | 00:00:00 | |
| DO3MHA-11 | 2026-09-05 00:59:37 | 49.47216 | 13.59174 | 91° | 95km/h | 14681m | -18.6m/s | -57.4°C | 6.2% | 135.2hPa | 2.4V | 00:00:00 | 02:57:01 | 00:00:00 | |
| DM0DOS-11 | 2026-09-05 00:59:36 | 49.47218 | 13.59063 | 92° | 91km/h | 14735m | -18.1m/s | 0°C | 0% | 0hPa | 2.4V | 03:07:48 | 02:56:58 | 00:00:00 | |
| OE5MMP-10 | 2026-09-05 00:59:34 | 49.47218 | 13.59063 | 93° | 95km/h | 14735m | -18.0m/s | -57.9°C | 6.4% | 133.9hPa | 2.4V | 00:00:00 | 02:56:58 | 00:00:00 | |
| DO8TBO-1 | 2026-09-05 00:59:31 | 49.47219 | 13.58957 | 90° | 95km/h | 14791m | -19.5m/s | -57.8°C | 6.3% | 132.7hPa | 2.4V | 00:00:00 | 02:56:55 | 00:00:00 | |
| SP3BTT-10 | 2026-09-05 00:59:29 | 49.47219 | 13.58884 | 90° | 99km/h | 14829m | -19.1m/s | -57.8°C | 6.3% | 132.0hPa | 2.4V | 00:00:00 | 00:00:00 | 00:00:00 | |
| DO3MHA-11 | 2026-09-05 00:59:27 | 49.47219 | 13.58809 | 91° | 99km/h | 14866m | -18.3m/s | -58.0°C | 6.4% | 131.2hPa | 2.4V | 00:00:00 | 02:56:51 | 00:00:00 | |
| PETON7-10 | 2026-09-05 00:59:26 | 49.47219 | 13.58771 | 91° | 97km/h | 14884m | -19.1m/s | -58.0°C | 6.4% | 130.8hPa | 2.4V | 00:00:00 | 00:00:00 | 00:00:00 | |
| OE5MMP-10 | 2026-09-05 00:59:24 | 49.47220 | 13.58697 | 90° | 99km/h | 14921m | -18.7m/s | -58.0°C | 6.3% | 130.0hPa | 2.4V | 00:00:00 | 02:56:48 | 00:00:00 | |
| DF3TZ-5 | 2026-09-05 00:59:23 | 49.47220 | 13.58659 | 89° | 100km/h | 14940m | -18.5m/s | 0°C | -1.0% | 129.7hPa | 2.4V | 00:00:00 | 00:00:00 | 00:00:00 | |
| OE5DRO-10 | 2026-09-05 00:59:22 | 49.47220 | 13.58620 | 91° | 93km/h | 14958m | -17.5m/s | -58.1°C | 6.3% | 129.3hPa | 2.4V | 00:00:00 | 00:00:00 | 00:00:00 | |
| OE3MUC-15 | 2026-09-05 00:59:20 | 49.47221 | 13.58542 | 91° | 99km/h | 14993m | -18.7m/s | -58.3°C | 6.4% | 128.5hPa | 2.4V | 00:00:00 | 00:00:00 | 00:00:00 | |
| PG1ADW-2 | 2026-09-05 00:59:19 | 49.47221 | 13.58504 | 90° | 91km/h | 15010m | -19.1m/s | -58.4°C | 6.4% | 128.2hPa | 2.4V | 00:00:00 | 00:00:00 | 00:00:00 | |
| DO3MHA-11 | 2026-09-05 00:59:17 | 49.47221 | 13.58427 | 91° | 93km/h | 15047m | -17.9m/s | -58.4°C | 6.3% | 127.4hPa | 2.4V | 00:00:00 | 02:56:41 | 00:00:00 | |
| OE3MUC-15 | 2026-09-05 00:59:16 | 49.47222 | 13.58389 | 92° | 95km/h | 15065m | -18.3m/s | -58.5°C | 6.3% | 127.0hPa | 2.5V | 00:00:00 | 00:00:00 | 00:00:00 | |
| OE5MMP-10 | 2026-09-05 00:59:14 | 49.47222 | 13.58317 | 90° | 91km/h | 15101m | -17.8m/s | -58.6°C | 6.4% | 126.3hPa | 2.5V | 00:00:00 | 02:56:38 | 00:00:00 | |
| DL6DJ-15 | 2026-09-05 00:59:12 | 49.47222 | 13.58244 | 90° | 93km/h | 15136m | -18.2m/s | -58.6°C | 2.7% | 125.7hPa | 2.5V | 00:00:00 | 00:00:00 | 00:00:00 | |
| PETON7-10 | 2026-09-05 00:59:11 | 49.47222 | 13.58208 | 91° | 89km/h | 15154m | -18.2m/s | -58.5°C | 6.3% | 125.2hPa | 2.5V | 00:00:00 | 02:56:35 | 00:00:00 | |
| DF2AP-13 | 2026-09-05 00:59:10 | 49.47221 | 13.58174 | 89° | 88km/h | 15171m | -18.1m/s | -58.3°C | 6.2% | 124.9hPa | 2.5V | 00:00:00 | 02:56:34 | 00:00:00 | |
| SONDE2-11 | 2026-09-05 00:59:09 | 49.47221 | 13.58139 | 87° | 91km/h | 15189m | -18.6m/s | -58.1°C | 2.5% | 124.6hPa | 2.5V | 00:00:00 | 00:00:00 | 00:00:00 | |
| DO3MHA-11 | 2026-09-05 00:59:07 | 49.47219 | 13.58068 | 89° | 89km/h | 15226m | -17.9m/s | -58.1°C | 6.0% | 123.8hPa | 2.5V | 03:08:00 | 02:56:31 | 00:00:00 | |
| SONCRA | 2026-09-05 00:59:05 | 49.47217 | 13.57999 | 85° | 86km/h | 15261m | -18.2m/s | -58.4°C | 2.5% | 123.1hPa | 2.5V | 00:00:00 | 00:00:00 | 00:00:00 | |
| OE5DXL-15 | 2026-09-05 00:59:04 | 49.47215 | 13.57966 | 85° | 86km/h | 15279m | -18.4m/s | -58.3°C | 6.1% | 122.7hPa | 2.5V | 00:00:00 | 00:00:00 | 00:00:00 | |
| OE5DRO-10 | 2026-09-05 00:59:03 | 49.47213 | 13.57933 | 83° | 89km/h | 15297m | -18.8m/s | -58.4°C | 6.2% | 122.4hPa | 2.5V | 00:00:00 | 00:00:00 | 00:00:00 | |
| EDDB2-11 | 2026-09-05 00:58:59 | 49.47198 | 13.57757 | 84° | 91km/h | 15389m | -19.5m/s | -58.7°C | 2.6% | 120.7hPa | 2.5V | 00:00:00 | 00:00:00 | 00:00:00 | |
| DF3TZ-5 | 2026-09-05 00:58:53 | 49.47181 | 13.57549 | 82° | 89km/h | 15508m | -20.4m/s | 0°C | -1.0% | -1.0hPa | 2.5V | 00:00:00 | 00:00:00 | 00:00:00 | |
| EDDB2-12 | 2026-09-05 00:58:49 | 49.47174 | 13.57448 | 83° | 82km/h | 15566m | -19.7m/s | -59.1°C | 2.6% | 117.4hPa | 2.5V | 00:00:00 | 00:00:00 | 00:00:00 | |
| DO3MHA-11 | 2026-09-05 00:58:47 | 49.47170 | 13.57382 | 85° | 84km/h | 15606m | -20.3m/s | -59.1°C | 6.7% | 116.6hPa | 2.5V | 00:00:00 | 02:56:11 | 00:00:00 | |
| S52SK | 2026-09-05 00:58:45 | 49.47168 | 13.57348 | 86° | 88km/h | 15626m | -19.6m/s | -59.3°C | 2.6% | 116.3hPa | 2.4V | 00:00:00 | 00:00:00 | 00:00:00 | |
| OE5MMP-10 | 2026-09-05 00:58:44 | 49.47164 | 13.57283 | 85° | 82km/h | 15665m | -20.9m/s | -58.9°C | 6.7% | 115.4hPa | 2.4V | 00:00:00 | 02:56:08 | 00:00:00 | |
| PETON7-10 | 2026-09-05 00:58:41 | 49.47160 | 13.57186 | 88° | 84km/h | 15726m | -19.8m/s | -57.7°C | 6.2% | 114.4hPa | 2.4V | 03:08:00 | 00:00:00 | 00:00:00 | |
| DF2AP-13 | 2026-09-05 00:58:40 | 49.47159 | 13.57156 | 86° | 80km/h | 15746m | -20.2m/s | -57.1°C | 5.9% | 114.0hPa | 2.4V | 00:00:00 | 02:56:04 | 00:00:00 | |
| PG1ADW-2 | 2026-09-05 00:58:39 | 49.47158 | 13.57124 | 86° | 82km/h | 15765m | -19.2m/s | -56.8°C | 5.7% | 113.6hPa | 2.4V | 00:00:00 | 00:00:00 | 00:00:00 | |
| SONDE2-11 | 2026-09-05 00:58:38 | 49.47157 | 13.57093 | 86° | 84km/h | 15784m | -19.0m/s | -57.0°C | 2.2% | 113.3hPa | 2.4V | 00:00:00 | 00:00:00 | 00:00:00 | |
| DO3MHA-11 | 2026-09-05 00:58:37 | 49.47156 | 13.57060 | 89° | 84km/h | 15803m | -19.0m/s | -57.0°C | 5.7% | 113.0hPa | 2.4V | 00:00:00 | 02:56:01 | 00:00:00 | |
| OE5DXL-15 | 2026-09-05 00:58:34 | 49.47156 | 13.56929 | 94° | 77km/h | 15880m | -18.8m/s | -56.7°C | 5.6% | 111.6hPa | 2.4V | 03:08:00 | 00:00:00 | 00:00:00 | |
| DO8TBO-1 | 2026-09-05 00:58:31 | 49.47160 | 13.56864 | 95° | 77km/h | 15918m | -20.0m/s | -56.3°C | 5.4% | 111.0hPa | 2.4V | 00:00:00 | 02:55:55 | 00:00:00 | |
| DO3MHA-11 | 2026-09-05 00:58:27 | 49.47167 | 13.56750 | 97° | 78km/h | 15998m | -20.8m/s | -56.0°C | 5.2% | 109.6hPa | 2.4V | 03:08:00 | 02:55:51 | 00:00:00 | |
| PETON7-10 | 2026-09-05 00:58:26 | 49.47169 | 13.56701 | 98° | 77km/h | 16018m | -20.0m/s | -56.0°C | 5.2% | 109.2hPa | 2.4V | 00:00:00 | 02:55:50 | 00:00:00 | |
| OE5DRO-10 | 2026-09-05 00:58:25 | 49.47172 | 13.56670 | 96° | 75km/h | 16038m | -20.8m/s | -56.2°C | 5.2% | 108.9hPa | 2.4V | 00:00:00 | 00:00:00 | 00:00:00 | |
| OE5MMP-10 | 2026-09-05 00:58:24 | 49.47174 | 13.56639 | 96° | 77km/h | 16058m | -21.5m/s | -56.2°C | 5.3% | 108.6hPa | 2.4V | 03:08:00 | 02:55:48 | 00:00:00 | |
| EDDB2-12 | 2026-09-05 00:58:19 | 49.47180 | 13.56458 | 91° | 71km/h | 16181m | -21.0m/s | -56.1°C | 1.9% | 106.5hPa | 2.4V | 00:00:00 | 00:00:00 | 00:00:00 | |
| DO3MHA-11 | 2026-09-05 00:58:17 | 49.47181 | 13.56430 | 91° | 71km/h | 16202m | -21.2m/s | -56.2°C | 5.3% | 106.1hPa | 2.4V | 00:00:00 | 02:55:41 | 00:00:00 | |
| OE5MMP-10 | 2026-09-05 00:58:14 | 49.47181 | 13.56344 | 92° | 73km/h | 16265m | -20.6m/s | -56.0°C | 5.2% | 105.1hPa | 2.4V | 00:00:00 | 02:55:38 | 00:00:00 | |
| PETON7-10 | 2026-09-05 00:58:11 | 49.47183 | 13.56260 | 91° | 75km/h | 16327m | -20.5m/s | -56.3°C | 5.3% | 104.1hPa | 2.4V | 00:00:00 | 00:00:00 | 00:00:00 | |
| DL6DJ-15 | 2026-09-05 00:58:10 | 49.47182 | 13.56207 | 87° | 69km/h | 16368m | -21.3m/s | -56.7°C | 1.9% | 103.4hPa | 2.4V | 00:00:00 | 00:00:00 | 00:00:00 | |
| DO3MHA-11 | 2026-09-05 00:58:07 | 49.47180 | 13.56151 | 86° | 75km/h | 16410m | -20.8m/s | -56.8°C | 5.4% | 102.7hPa | 2.4V | 00:00:00 | 02:55:31 | 00:00:00 | |
| OE5DRO-10 | 2026-09-05 00:58:06 | 49.47179 | 13.56122 | 86° | 75km/h | 16430m | -20.7m/s | -56.8°C | 5.6% | 102.4hPa | 2.4V | 00:00:00 | 00:00:00 | 00:00:00 | |
| OE5MMP-10 | 2026-09-05 00:58:04 | 49.47176 | 13.56063 | 86° | 75km/h | 16472m | -20.4m/s | -56.4°C | 5.4% | 101.7hPa | 2.4V | 00:00:00 | 02:55:28 | 00:00:00 | |
| SONCRA | 2026-09-05 00:58:03 | 49.47172 | 13.56007 | 83° | 75km/h | 16512m | -20.7m/s | -55.6°C | 1.8% | 101.1hPa | 2.4V | 00:00:00 | 00:00:00 | 00:00:00 | |
| PG1ADW-2 | 2026-09-05 00:57:59 | 49.47167 | 13.55917 | 86° | 68km/h | 16572m | -19.3m/s | -55.7°C | 5.0% | 100.1hPa | 2.4V | 00:00:00 | 00:00:00 | 00:00:00 | |
| DO3MHA-11 | 2026-09-05 00:57:57 | 49.47164 | 13.55859 | 85° | 66km/h | 16611m | -19.4m/s | -55.5°C | 4.9% | 99.5hPa | 2.4V | 00:00:00 | 02:55:21 | 00:00:00 | |
| PETON7-10 | 2026-09-05 00:57:56 | 49.47162 | 13.55830 | 86° | 69km/h | 16630m | -19.4m/s | -55.2°C | 4.8% | 99.2hPa | 2.4V | 00:00:00 | 00:00:00 | 00:00:00 | |
| OE5MMP-10 | 2026-09-05 00:57:54 | 49.47160 | 13.55771 | 89° | 69km/h | 16667m | -18.0m/s | -55.5°C | 4.9% | 98.6hPa | 2.4V | 00:00:00 | 02:55:18 | 00:00:00 | |
| SP3BTT-10 | 2026-09-05 00:57:50 | 49.47159 | 13.55658 | 90° | 44km/h | 16739m | -18.1m/s | -56.0°C | 5.0% | 97.5hPa | 2.4V | 00:00:00 | 00:00:00 | 00:00:00 | |
| OE5DRO-10 | 2026-09-05 00:57:48 | 49.47160 | 13.55580 | 91° | 57km/h | 16793m | -18.6m/s | -55.9°C | 5.0% | 96.7hPa | 2.5V | 00:00:00 | 00:00:00 | 00:00:00 | |
| OE5MMP-10 | 2026-09-05 00:57:44 | 49.47160 | 13.55505 | 88° | 58km/h | 16848m | -19.0m/s | -54.9°C | 4.6% | 95.8hPa | 2.4V | 03:09:00 | 02:55:08 | 00:00:00 | |
| PETON7-10 | 2026-09-05 00:57:41 | 49.47158 | 13.55434 | 87° | 53km/h | 16908m | -20.3m/s | -54.8°C | 4.5% | 95.0hPa | 2.4V | 03:09:00 | 02:55:05 | 00:00:00 | |
| DF2AP-13 | 2026-09-05 00:57:39 | 49.47156 | 13.55388 | 86° | 51km/h | 16950m | -20.9m/s | 0°C | 0% | 0hPa | 2.4V | 00:00:00 | 02:55:03 | 00:00:00 | |
| PG1ADW-2 | 2026-09-05 00:57:38 | 49.47155 | 13.55366 | 88° | 49km/h | 16971m | -20.7m/s | -55.0°C | 4.5% | 94.1hPa | 2.4V | 03:09:00 | 00:00:00 | 00:00:00 | |
| SONDE2-11 | 2026-09-05 00:57:36 | 49.47155 | 13.55322 | 91° | 53km/h | 17012m | -20.8m/s | -55.4°C | 1.6% | 93.5hPa | 2.4V | 00:00:00 | 00:00:00 | 00:00:00 | |
| OE5MMP-10 | 2026-09-05 00:57:34 | 49.47155 | 13.55282 | 90° | 47km/h | 17053m | -20.3m/s | -55.7°C | 4.7% | 92.8hPa | 2.4V | 00:00:00 | 02:54:58 | 00:00:00 | |
| SONCRA | 2026-09-05 00:57:32 | 49.47155 | 13.55226 | 89° | 47km/h | 17113m | -20.9m/s | -56.1°C | 1.6% | 92.0hPa | 2.4V | 00:00:00 | 00:00:00 | 00:00:00 | |
| DO3MHA-11 | 2026-09-05 00:57:31 | 49.47155 | 13.55226 | 90° | 47km/h | 17113m | -20.8m/s | -56.0°C | 4.8% | 92.0hPa | 2.4V | 00:00:00 | 02:54:55 | 00:00:00 | |
| DO8TBO-1 | 2026-09-05 00:57:29 | 49.47155 | 13.55190 | 91° | 47km/h | 17154m | -20.6m/s | -56.0°C | 4.8% | 91.4hPa | 2.4V | 00:00:00 | 02:54:53 | 00:00:00 | |
| OE5DRO-10 | 2026-09-05 00:57:28 | 49.47154 | 13.55172 | 89° | 51km/h | 17175m | -20.5m/s | -56.0°C | 4.8% | 91.1hPa | 2.5V | 03:09:00 | 00:00:00 | 00:00:00 | |
| DF8AY | 2026-09-05 00:57:11 | 49.47163 | 13.54796 | 103° | 53km/h | 17561m | -20.9m/s | -56°C | 1.2% | 85.8hPa | 2.5V | 03:11:22 | 02:54:33 | 00:00:00 | |
| PETON7-10 | 2026-09-05 00:57:11 | 49.47158 | 13.54836 | 101° | 42km/h | 17519m | -20.9m/s | -57.1°C | 5.4% | 86.4hPa | 2.5V | 00:00:00 | 00:00:00 | 00:00:00 | |
| OE5DRO-10 | 2026-09-05 00:57:09 | 49.47163 | 13.54796 | 104° | 35km/h | 17562m | -20.9m/s | -55.9°C | 4.8% | 85.8hPa | 2.5V | 00:00:00 | 00:00:00 | 00:00:00 | |
| DF2AP-13 | 2026-09-05 00:57:08 | 49.47166 | 13.54776 | 104° | 37km/h | 17582m | -21.1m/s | 0°C | 0% | 0hPa | 2.5V | 00:00:00 | 02:54:32 | 00:00:00 | |
| SONDE2-11 | 2026-09-05 00:57:05 | 49.47177 | 13.54720 | 110° | 44km/h | 17643m | -20.9m/s | -55.5°C | 1.5% | 84.6hPa | 2.5V | 00:00:00 | 00:00:00 | 00:00:00 | |
| OE5MMP-10 | 2026-09-05 00:57:04 | 49.47181 | 13.54704 | 110° | 31km/h | 17663m | -21.3m/s | -55.4°C | 4.5% | 84.3hPa | 2.5V | 03:10:00 | 02:54:28 | 00:00:00 | |
| SONCRA | 2026-09-05 00:57:01 | 49.47193 | 13.54651 | 109° | 29km/h | 17750m | -23.1m/s | -55.2°C | 1.4% | 83.3hPa | 2.5V | 00:00:00 | 00:00:00 | 00:00:00 | |
| DO8TBO-1 | 2026-09-05 00:56:59 | 49.47195 | 13.54640 | 109° | 29km/h | 17773m | -23.4m/s | -55.2°C | 4.4% | 82.9hPa | 2.5V | 00:00:00 | 02:54:23 | 00:00:00 | |
| PG1ADW-2 | 2026-09-05 00:56:58 | 49.47197 | 13.54629 | 109° | 31km/h | 17796m | -22.9m/s | -55.4°C | 4.4% | 82.6hPa | 2.5V | 00:00:00 | 02:54:22 | 00:00:00 | |
| OE5WHR-10 | 2026-09-05 00:56:57 | 49.47200 | 13.54619 | 106° | 26km/h | 17818m | -22.9m/s | -55.5°C | 4.5% | 82.3hPa | 2.5V | 00:00:00 | 00:00:00 | 00:00:00 | |
| PETON7-10 | 2026-09-05 00:56:56 | 49.47201 | 13.54609 | 103° | 29km/h | 17841m | -22.8m/s | -55.7°C | 4.6% | 82.1hPa | 2.5V | 00:00:00 | 02:54:20 | 00:00:00 | |
| DM0DOS-11 | 2026-09-05 00:56:54 | 49.47206 | 13.54544 | 83° | 24km/h | 17995m | -23.8m/s | 0°C | 0% | 0hPa | 2.5V | 03:10:33 | 02:54:13 | 00:00:00 | |
| EDDB2-12 | 2026-09-05 00:56:45 | 49.47200 | 13.54497 | 79° | 37km/h | 18089m | -23.6m/s | -57.4°C | 1.7% | 79.0hPa | 2.4V | 00:00:00 | 00:00:00 | 00:00:00 | |
| OE5MMP-10 | 2026-09-05 00:56:44 | 49.47198 | 13.54482 | 83° | 40km/h | 18112m | -23.8m/s | -57.6°C | 5.4% | 78.7hPa | 2.4V | 00:00:00 | 02:54:08 | 00:00:00 | |
| DM0DOS-11 | 2026-09-05 00:56:43 | 49.47190 | 13.54403 | 84° | 44km/h | 18227m | -22.8m/s | 0°C | 0% | 0hPa | 2.4V | 03:10:43 | 02:54:03 | 00:00:00 | |
| PETON7-10 | 2026-09-05 00:56:41 | 49.47193 | 13.54436 | 81° | 40km/h | 18181m | -23.8m/s | -57.7°C | 5.5% | 77.7hPa | 2.4V | 03:10:00 | 00:00:00 | 00:00:00 | |
| PG1ADW-2 | 2026-09-05 00:56:38 | 49.47188 | 13.54386 | 86° | 40km/h | 18250m | -23.1m/s | -57.6°C | 5.6% | 76.9hPa | 2.5V | 00:00:00 | 00:00:00 | 00:00:00 | |
| DL6DJ-15 | 2026-09-05 00:56:37 | 49.47187 | 13.54355 | 85° | 38km/h | 18295m | -23.4m/s | -57.2°C | 1.7% | 76.5hPa | 2.5V | 00:00:00 | 00:00:00 | 00:00:00 | |
| OE5MMP-10 | 2026-09-05 00:56:34 | 49.47185 | 13.54324 | 87° | 40km/h | 18343m | -23.3m/s | -57.0°C | 5.4% | 75.8hPa | 2.5V | 00:00:00 | 02:53:58 | 00:00:00 | |
| DM0DOS-11 | 2026-09-05 00:56:32 | 49.47189 | 13.54217 | 95° | 40km/h | 18505m | -23.7m/s | 0°C | 0% | 0hPa | 2.5V | 03:10:55 | 02:53:51 | 00:00:00 | |
| DF8AY | 2026-09-05 00:56:32 | 49.47185 | 13.54292 | 93° | 40km/h | 18388m | -23.5m/s | -57.1°C | 1.5% | 75.3hPa | 2.5V | 03:11:22 | 02:53:56 | 00:00:00 | |
| DF8AY | 2026-09-05 00:56:20 | 49.47200 | 13.54100 | 101° | 42km/h | 18669m | -23.7m/s | -56.6°C | 1.4% | 72hPa | 2.4V | 03:11:22 | 02:53:44 | 00:00:00 | |
| DF8AY | 2026-09-05 00:56:09 | 49.47195 | 13.53924 | 78° | 44km/h | 18946m | -27m/s | -53.3°C | 0.8% | 69.1hPa | 2.5V | 03:11:22 | 02:53:33 | 00:00:00 | |
| OE5WHR-10 | 2026-09-05 00:56:09 | 49.47195 | 13.53924 | 79° | 29km/h | 18946m | -27.0m/s | -53.3°C | 4.1% | 69.0hPa | 2.4V | 00:00:00 | 02:53:33 | 00:00:00 | |
| DF2AP-13 | 2026-09-05 00:56:08 | 49.47193 | 13.53908 | 77° | 58km/h | 18973m | -27.0m/s | 0°C | 0% | 0hPa | 2.4V | 00:00:00 | 02:53:32 | 00:00:00 | |
| DL6DJ-15 | 2026-09-05 00:56:06 | 49.47184 | 13.53860 | 72° | 44km/h | 19055m | -27.1m/s | -53.7°C | 1.3% | 67.8hPa | 2.4V | 00:00:00 | 00:00:00 | 00:00:00 | |
| OE5MMP-10 | 2026-09-05 00:56:04 | 49.47181 | 13.53844 | 72° | 31km/h | 19083m | -26.8m/s | -53.8°C | 4.2% | 67.6hPa | 2.4V | 00:00:00 | 02:53:28 | 00:00:00 | |
| SONDE2-11 | 2026-09-05 00:56:03 | 49.47175 | 13.53813 | 72° | 40km/h | 19137m | -26.9m/s | -54.0°C | 1.3% | 67.0hPa | 2.4V | 00:00:00 | 00:00:00 | 00:00:00 | |
| SONCRA | 2026-09-05 00:55:59 | 49.47169 | 13.53764 | 76° | 24km/h | 19244m | -26.8m/s | -54.0°C | 1.3% | 65.9hPa | 2.4V | 00:00:00 | 00:00:00 | 00:00:00 | |
| DM0DOS-11 | 2026-09-05 00:55:58 | 49.47164 | 13.53730 | 79° | 16km/h | 19349m | -27.1m/s | 0°C | 0% | 0hPa | 2.4V | 00:00:00 | 02:53:18 | 00:00:00 | |
| DF8AY | 2026-09-05 00:55:56 | 49.47166 | 13.53745 | 80° | 24km/h | 19297m | -26.5m/s | -54.1°C | 0.9% | 65.4hPa | 2.5V | 03:12:13 | 02:53:20 | 00:00:00 | |
| EDDB2-11 | 2026-09-05 00:55:52 | 49.47161 | 13.53719 | 45° | 9km/h | 19430m | -27.2m/s | -54.3°C | 1.3% | 64.0hPa | 2.5V | 00:00:00 | 00:00:00 | 00:00:00 | |
| DF8AY | 2026-09-05 00:55:34 | 49.47120 | 13.53598 | 86° | 37km/h | 19889m | -27.9m/s | -55.8°C | 1.2% | 59.6hPa | 2.5V | 03:12:13 | 02:52:58 | 00:00:00 | |
| DF8AY | 2026-09-05 00:55:24 | 49.47118 | 13.53480 | 70° | 22km/h | 20196m | -28m/s | -56.4°C | 1.4% | 56.8hPa | 2.5V | 03:12:13 | 02:52:47 | 00:00:00 | |
| EDDB2-11 | 2026-09-05 00:55:21 | 49.47110 | 13.53454 | 63° | 27km/h | 20279m | -28.8m/s | -55.5°C | 1.5% | 56.1hPa | 2.5V | 00:00:00 | 00:00:00 | 00:00:00 | |
| PG1ADW-2 | 2026-09-05 00:55:18 | 49.47104 | 13.53434 | 66° | 27km/h | 20337m | -30.2m/s | -55.1°C | 4.7% | 55.5hPa | 2.5V | 00:00:00 | 00:00:00 | 00:00:00 | |
| OE5DRO-10 | 2026-09-05 00:55:15 | 49.47096 | 13.53399 | 78° | 26km/h | 20429m | -29.8m/s | -55.4°C | 4.8% | 54.8hPa | 2.4V | 00:00:00 | 00:00:00 | 00:00:00 | |
| DM0DOS-11 | 2026-09-05 00:55:13 | 49.47092 | 13.53353 | 85° | 33km/h | 20548m | -30.2m/s | 0°C | 0% | 0hPa | 2.4V | 00:00:00 | 02:52:35 | 00:00:00 | |
| DF8AY | 2026-09-05 00:55:12 | 49.47092 | 13.53365 | 81° | 31km/h | 20518m | -30.5m/s | 0°C | 0% | 54hPa | 2.5V | 03:12:13 | 02:52:36 | 00:00:00 | |
| DF8AY | 2026-09-05 00:55:02 | 49.47131 | 13.53234 | 149° | 13km/h | 21010m | -32.1m/s | 0°C | 0% | 50hPa | 2.4V | 03:13:04 | 02:52:20 | 00:00:00 | |
| SONDE2-11 | 2026-09-05 00:55:01 | 49.47117 | 13.53251 | 128° | 20km/h | 20880m | -32.7m/s | -54.9°C | 1.4% | 51.1hPa | 2.5V | 00:00:00 | 00:00:00 | 00:00:00 | |
| DM0DOS-11 | 2026-09-05 00:54:59 | 49.47136 | 13.53227 | 140° | 15km/h | 21073m | -32m/s | 0°C | 0% | 0hPa | 2.5V | 00:00:00 | 02:52:18 | 00:00:00 | |
| DF8AY | 2026-09-05 00:54:51 | 49.47144 | 13.53218 | 132° | 9km/h | 21167m | -31.6m/s | 0°C | 0% | 0hPa | 2.4V | 03:13:04 | 02:52:15 | 00:00:00 | |
| EDDB2-11 | 2026-09-05 00:54:50 | 49.47146 | 13.53211 | 104° | 11km/h | 21229m | -31.0m/s | -52.8°C | 1.2% | 48.3hPa | 2.4V | 00:00:00 | 00:00:00 | 00:00:00 | |
| DF8AY | 2026-09-05 00:54:41 | 49.47147 | 13.53148 | 93° | 27km/h | 21469m | -29.2m/s | 0°C | 0% | 0hPa | 2.4V | 03:13:04 | 02:52:05 | 00:00:00 | |
| DF8AY | 2026-09-05 00:54:31 | 49.47188 | 13.53006 | 105° | 20km/h | 21914m | -31.5m/s | 0°C | 0% | 0hPa | 2.4V | 03:13:04 | 02:51:50 | 00:00:00 | |
| DF8AY | 2026-09-05 00:54:14 | 49.47202 | 13.52911 | 106° | 26km/h | 22277m | -30.5m/s | 0°C | 0% | 0hPa | 2.4V | 18:12:15 | 02:51:38 | 00:00:00 | |
| DF8AY | 2026-09-05 00:54:04 | 49.47234 | 13.52863 | 197° | 13km/h | 22585m | -33.1m/s | 0°C | 0% | 0hPa | 2.5V | 18:12:15 | 02:51:28 | 00:00:00 | |
| AA1-15 | 2026-09-05 00:53:49 | 49.47222 | 13.52877 | 69° | 11km/h | 23109m | -34m/s | -52.7°C | 1% | 36hPa | 2.5V | 03:13:55 | 02:51:13 | 00:00:00 | |
| EDDB2-11 | 2026-09-05 00:53:48 | 49.47222 | 13.52869 | 101° | 7km/h | 23176m | -32.2m/s | -52.7°C | 1.3% | 35.7hPa | 2.6V | 00:00:00 | 00:00:00 | 00:00:00 | |
| DL1XH-west | 2026-09-05 00:53:32 | 49.47220 | 13.52837 | 121° | 7km/h | 23666m | -35.3m/s | -52.2°C | 0.9% | 33.2hPa | 2.6V | 03:15:37 | 02:50:56 | 00:00:00 | |
| AA1-15 | 2026-09-05 00:53:31 | 49.47220 | 13.52834 | 90° | 7km/h | 23701m | -37.2m/s | -52°C | 0.9% | 32.9hPa | 2.6V | 03:13:55 | 02:50:55 | 00:00:00 | |
| AA1-15 | 2026-09-05 00:53:20 | 49.47195 | 13.52829 | 27° | 24km/h | 24088m | -34.9m/s | -51.4°C | 0.8% | 31.1hPa | 2.5V | 03:14:46 | 02:50:44 | 00:00:00 | |
| AA1-15 | 2026-09-05 00:53:09 | 49.47168 | 13.52756 | 134° | 15km/h | 24496m | -38.2m/s | -51.6°C | 0.9% | 29.2hPa | 2.6V | 03:14:46 | 02:50:33 | 00:00:00 | |
| AA1-15 | 2026-09-05 00:52:57 | 49.47185 | 13.52734 | 47° | 9km/h | 24961m | -38.7m/s | -50.4°C | 0.7% | 27.1hPa | 2.6V | 03:14:46 | 02:50:21 | 00:00:00 | |
| PG1ADW-2 | 2026-09-05 00:52:57 | 49.47185 | 13.52734 | 48° | 11km/h | 24961m | -38.7m/s | -50.3°C | 3.9% | 27.1hPa | 2.5V | 00:00:00 | 02:50:21 | 00:00:00 | |
| DL1XH1-15 | 2026-09-05 00:52:56 | 49.47178 | 13.52710 | 86° | 9km/h | 25205m | -42.8m/s | -50°C | 3.9% | 26.2hPa | 2.5V | 03:14:31 | 02:50:15 | 00:00:00 | |
| DL1XH-west | 2026-09-05 00:52:47 | 49.47181 | 13.52693 | 121° | 11km/h | 25379m | -44.5m/s | -49.7°C | 0.6% | 25.5hPa | 2.5V | 03:15:37 | 02:50:11 | 00:00:00 | |
| EDDB2-11 | 2026-09-05 00:52:45 | 49.47185 | 13.52684 | 112° | 15km/h | 25468m | -45.3m/s | -49.7°C | 1.1% | 25.1hPa | 2.4V | 00:00:00 | 00:00:00 | 00:00:00 | |
| AA1-15 | 2026-09-05 00:52:41 | 49.47192 | 13.52667 | 127° | 13km/h | 25650m | -46.1m/s | -49.2°C | 0.5% | 24.5hPa | 2.4V | 03:14:46 | 02:50:05 | 00:00:00 | |
| AA1-15 | 2026-09-05 00:52:30 | 49.47188 | 13.52671 | 276° | 11km/h | 26166m | -47.9m/s | -48.6°C | 0.4% | 22.6hPa | 2.5V | 03:15:37 | 02:49:54 | 00:00:00 | |
| DL1XH-west | 2026-09-05 00:52:24 | 49.47187 | 13.52682 | 307° | 4km/h | 26454m | -48.5m/s | -49.1°C | 0.5% | 21.7hPa | 2.4V | 03:15:37 | 02:49:48 | 00:00:00 | |
| AA1-15 | 2026-09-05 00:52:20 | 49.47188 | 13.52686 | 218° | 5km/h | 26647m | -47.8m/s | -49.6°C | 0.7% | 21.1hPa | 2.5V | 03:15:37 | 02:49:44 | 00:00:00 | |
| DL1XH-west | 2026-09-05 00:52:13 | 49.47195 | 13.52696 | 330° | 2km/h | 26989m | -50.3m/s | -49.4°C | 0.7% | 20hPa | 2.4V | 03:15:37 | 02:49:37 | 00:00:00 | |
| DF8AY | 2026-09-05 00:52:12 | 49.47195 | 13.52695 | 72° | 9km/h | 27294m | -52m/s | -48.2°C | 0.5% | 19.1hPa | 2.4V | 03:16:28 | 02:49:31 | 00:00:00 | |
| DL1XH1-15 | 2026-09-05 00:52:12 | 49.47195 | 13.52698 | 73° | 2km/h | 27192m | -51.3m/s | -48.3°C | 3.7% | 19.3hPa | 2.5V | 03:15:13 | 02:49:33 | 00:00:00 | |
| AA1-15 | 2026-09-05 00:52:09 | 49.47195 | 13.52698 | 74° | 2km/h | 27192m | -51.3m/s | -48.3°C | 0.6% | 19.3hPa | 2.5V | 03:15:37 | 02:49:33 | 00:00:00 | |
| S52SK | 2026-09-05 00:52:07 | 49.47195 | 13.52697 | 100° | 5km/h | 27244m | -51.5m/s | -48.2°C | 1.0% | 19.2hPa | 2.5V | 00:00:00 | 00:00:00 | 00:00:00 | |
| EDDB2-12 | 2026-09-05 00:52:06 | 49.47193 | 13.52687 | 65° | 11km/h | 27395m | -50.6m/s | -48.3°C | 1.0% | 18.8hPa | 2.5V | 00:00:00 | 00:00:00 | 00:00:00 | |
| OE5DRO-10 | 2026-09-05 00:52:05 | 49.47193 | 13.52687 | 66° | 9km/h | 27395m | -50.5m/s | -48.2°C | 3.8% | 18.7hPa | 2.5V | 00:00:00 | 00:00:00 | 00:00:00 | |
| DL1XH1-15 | 2026-09-05 00:52:04 | 49.47188 | 13.52660 | 79° | 9km/h | 27694m | -52.2m/s | -46.8°C | 3.4% | 17.9hPa | 2.5V | 03:15:23 | 02:49:23 | 00:00:00 | |
| DL1XH-west | 2026-09-05 00:52:03 | 49.47189 | 13.52669 | 87° | 11km/h | 27594m | -50.1m/s | -47.2°C | 0.4% | 18.2hPa | 2.5V | 03:15:37 | 02:49:25 | 00:00:00 | |
| DF8AY | 2026-09-05 00:52:02 | 49.47190 | 13.52673 | 75° | 13km/h | 27544m | -49.2m/s | -47.4°C | 0.4% | 18.4hPa | 2.4V | 03:16:28 | 02:49:26 | 00:00:00 | |
| AA1-15 | 2026-09-05 00:51:59 | 49.47188 | 13.52660 | 80° | 9km/h | 27694m | -52.2m/s | -46.8°C | 0.4% | 17.9hPa | 2.5V | 03:15:37 | 02:49:23 | 00:00:00 | |
| PG1ADW-2 | 2026-09-05 00:51:57 | 49.47187 | 13.52652 | 63° | 7km/h | 27799m | -53.5m/s | -46.4°C | 3.3% | 17.6hPa | 2.4V | 00:00:00 | 00:00:00 | 00:00:00 | |
| PETON7-10 | 2026-09-05 00:51:56 | 49.47186 | 13.52649 | 62° | 5km/h | 27853m | -54.0m/s | -46.2°C | 3.3% | 17.4hPa | 2.4V | 00:00:00 | 00:00:00 | 00:00:00 | |
| OE3MUC-15 | 2026-09-05 00:51:55 | 49.47185 | 13.52646 | 68° | 9km/h | 27906m | -53.2m/s | -46.2°C | 3.3% | 17.3hPa | 2.4V | 00:00:00 | 00:00:00 | 00:00:00 | |
| OE5MMP-10 | 2026-09-05 00:51:54 | 49.47185 | 13.52643 | 74° | 7km/h | 27958m | -52.0m/s | -46.3°C | 3.3% | 17.1hPa | 2.4V | 00:00:00 | 02:49:18 | 00:00:00 | |
| DL1XH1-15 | 2026-09-05 00:51:52 | 49.47187 | 13.52631 | 118° | 5km/h | 28209m | -51.4m/s | -46.8°C | 3.6% | 16.6hPa | 2.4V | 03:15:33 | 02:49:13 | 00:00:00 | |
| DL1XH-west | 2026-09-05 00:51:52 | 49.47184 | 13.52636 | 79° | 7km/h | 28059m | -50.6m/s | -46.6°C | 0.4% | 17hPa | 2.5V | 03:15:37 | 02:49:16 | 00:00:00 | |
| DF8AY | 2026-09-05 00:51:49 | 49.47187 | 13.52631 | 119° | 5km/h | 28209m | -51.4m/s | -46.8°C | 0.5% | 16.6hPa | 2.4V | 03:16:28 | 02:49:13 | 00:00:00 | |
| AA1-15 | 2026-09-05 00:51:48 | 49.47188 | 13.52630 | 173° | 7km/h | 28260m | -50.8m/s | -46.8°C | 0.5% | 16.4hPa | 2.5V | 03:15:37 | 02:49:12 | 00:00:00 | |
| OE3MUC-15 | 2026-09-05 00:51:47 | 49.47190 | 13.52630 | 169° | 5km/h | 28311m | -51.6m/s | -46.4°C | 3.6% | 16.3hPa | 2.5V | 00:00:00 | 00:00:00 | 00:00:00 | |
| OE5DRO-10 | 2026-09-05 00:51:46 | 49.47192 | 13.52629 | 142° | 5km/h | 28362m | -51.9m/s | -46.2°C | 3.5% | 16.1hPa | 2.5V | 00:00:00 | 00:00:00 | 00:00:00 | |
| DL1XH1-15 | 2026-09-05 00:51:44 | 49.47194 | 13.52631 | 341° | 5km/h | 28729m | -56.1m/s | -44.8°C | 3.3% | 15.4hPa | 2.5V | 03:15:43 | 02:49:03 | 00:00:00 | |
| DL1XH-west | 2026-09-05 00:51:41 | 49.47196 | 13.52630 | 311° | 4km/h | 28620m | -54.6m/s | -45.1°C | 0.2% | 15.6hPa | 2.5V | 03:16:28 | 02:49:05 | 00:00:00 | |
| AA1-15 | 2026-09-05 00:51:37 | 49.47191 | 13.52630 | 52° | 4km/h | 28844m | -59.6m/s | -44.2°C | 0.1% | 15.2hPa | 2.5V | 03:16:28 | 02:49:01 | 00:00:00 | |
| DF8AY | 2026-09-05 00:51:36 | 49.47190 | 13.52628 | 46° | 7km/h | 28904m | -61.5m/s | -43.9°C | 0.1% | 15hPa | 2.5V | 03:16:28 | 02:49:00 | 00:00:00 | |
| OE5MMP-10 | 2026-09-05 00:51:34 | 49.47188 | 13.52625 | 104° | 5km/h | 29026m | -63.4m/s | -43.6°C | 3.0% | 14.7hPa | 2.5V | 00:00:00 | 02:48:58 | 00:00:00 | |
| DL1XH1-15 | 2026-09-05 00:51:31 | 49.47191 | 13.52617 | 75° | 5km/h | 29353m | -67.8m/s | -43.4°C | 2.9% | 14.1hPa | 2.5V | 03:15:53 | 02:48:53 | 00:00:00 | |
| DL1XH-west | 2026-09-05 00:51:31 | 49.47190 | 13.52621 | 137° | 4km/h | 29221m | -66.2m/s | -43.5°C | 0% | 14.3hPa | 2.4V | 03:16:28 | 02:48:55 | 00:00:00 | |
| HSKMA3-T | 2026-09-05 00:51:28 | 49.47191 | 13.52614 | 86° | 4km/h | 29421m | -69m/s | -43.1°C | 0% | 14hPa | 2.6V | 03:16:28 | 02:48:52 | 00:00:00 | |
| AA1-15 | 2026-09-05 00:51:26 | 49.47191 | 13.52610 | 80° | 9km/h | 29558m | -68.3m/s | -42.9°C | 0% | 13.6hPa | 2.4V | 03:16:28 | 02:48:50 | 00:00:00 | |
| PETON7-10 | 2026-09-05 00:51:26 | 49.47191 | 13.52610 | 81° | 7km/h | 29558m | -68.2m/s | -42.8°C | 2.8% | 13.5hPa | 2.4V | 00:00:00 | 00:00:00 | 00:00:00 | |
| DL1XH1-15 | 2026-09-05 00:51:24 | 49.47193 | 13.52591 | 92° | 7km/h | 30008m | -64.3m/s | -42.5°C | 2.8% | 12.6hPa | 2.4V | 03:16:03 | 02:48:43 | 00:00:00 | |
| DL1XH-west | 2026-09-05 00:51:21 | 49.47192 | 13.52596 | 103° | 5km/h | 29882m | -63.7m/s | -42.6°C | 0% | 13hPa | 2.5V | 03:16:28 | 02:48:45 | 00:00:00 | |
| HSKMA3-T | 2026-09-05 00:51:17 | 49.47194 | 13.52587 | 116° | 7km/h | 30139m | -66.2m/s | -42.5°C | 0% | 12.5hPa | 2.5V | 03:16:28 | 02:48:41 | 00:00:00 | |
| AA1-15 | 2026-09-05 00:51:15 | 49.47195 | 13.52582 | 156° | 5km/h | 30271m | -67.8m/s | -42.6°C | 0% | 12.2hPa | 2.5V | 03:16:28 | 02:48:39 | 00:00:00 | |
| OE5MMP-10 | 2026-09-05 00:51:14 | 49.47197 | 13.52580 | 138° | 11km/h | 30339m | -68.7m/s | -42.5°C | 2.9% | 12.1hPa | 2.5V | 00:00:00 | 02:48:38 | 00:00:00 | |
| DL1XH1-15 | 2026-09-05 00:51:13 | 49.47205 | 13.52565 | 128° | 11km/h | 30697m | -75.1m/s | -42.2°C | 2.9% | 11.6hPa | 2.5V | 03:16:13 | 02:48:33 | 00:00:00 | |
| DL1XH-west | 2026-09-05 00:51:10 | 49.47204 | 13.52568 | 112° | 9km/h | 30623m | -73.9m/s | -42.3°C | 0% | 11.7hPa | 2.5V | 03:16:28 | 02:48:34 | 00:00:00 | |
| HSKMA3-T | 2026-09-05 00:51:07 | 49.47209 | 13.52557 | 125° | 11km/h | 30847m | -75.3m/s | -42.2°C | 0% | 11.2hPa | 2.4V | 03:16:28 | 02:48:31 | 00:00:00 | |
| AA1-15 | 2026-09-05 00:51:05 | 49.47210 | 13.52547 | 85° | 11km/h | 30999m | -77.8m/s | -41.7°C | 0% | 11.1hPa | 2.5V | 03:16:28 | 02:48:29 | 00:00:00 | |
| OE5MMP-10 | 2026-09-05 00:51:04 | 49.47210 | 13.52543 | 88° | 15km/h | 31077m | -78.9m/s | -41.4°C | 2.9% | 10.9hPa | 2.5V | 03:16:00 | 02:48:28 | 00:00:00 | |
| DL1XH1-15 | 2026-09-05 00:51:03 | 49.47206 | 13.52517 | 67° | 13km/h | 31467m | -78.8m/s | -40.7°C | 2.8% | 10.4hPa | 2.5V | 03:16:23 | 02:48:23 | 00:00:00 | |
| DL1XH-west | 2026-09-05 00:50:59 | 49.47207 | 13.52517 | 68° | 13km/h | 31467m | -78.8m/s | -40.7°C | 0% | 10.4hPa | 2.5V | 03:16:28 | 02:48:23 | 00:00:00 | |
| HSKMA3-T | 2026-09-05 00:50:57 | 49.47204 | 13.52506 | 71° | 13km/h | 31625m | -79.6m/s | -40.7°C | 0% | 10.1hPa | 2.5V | 03:16:28 | 02:48:21 | 00:00:00 | |
| AA1-15 | 2026-09-05 00:50:55 | 49.47201 | 13.52494 | 71° | 20km/h | 31784m | -81.3m/s | -40.5°C | 0% | 9.9hPa | 2.4V | 03:16:28 | 02:48:19 | 00:00:00 | |
| DL1XH-west | 2026-09-05 00:50:49 | 49.47200 | 13.52453 | 110° | 16km/h | 32294m | -86.1m/s | -38.4°C | 0% | 9.1hPa | 2.5V | 03:17:19 | 02:48:13 | 00:00:00 | |
| HSKMA3-T | 2026-09-05 00:50:46 | 49.47205 | 13.52438 | 124° | 15km/h | 32549m | -85.8m/s | -36.8°C | 0% | 8.8hPa | 2.6V | 03:17:19 | 02:48:10 | 00:00:00 | |
| AA1-15 | 2026-09-05 00:50:45 | 49.47207 | 13.52434 | 134° | 15km/h | 32635m | -86.1m/s | -36.2°C | 0% | 8.7hPa | 2.5V | 03:17:19 | 02:48:09 | 00:00:00 | |
| DL1XH-west | 2026-09-05 00:50:39 | 49.47222 | 13.52408 | 127° | 15km/h | 33163m | -89m/s | -35.9°C | 0% | 8hPa | 2.5V | 03:17:19 | 02:48:03 | 00:00:00 | |
| HSKMA3-T | 2026-09-05 00:50:36 | 49.47229 | 13.52394 | 111° | 15km/h | 33428m | -87.8m/s | -35.9°C | 0% | 7.7hPa | 2.5V | 03:17:19 | 02:48:00 | 00:00:00 | |
| AA1-15 | 2026-09-05 00:50:34 | 49.47233 | 13.52381 | 102° | 11km/h | 33691m | -88.7m/s | -36.3°C | 0% | 7.3hPa | 2.5V | 03:17:19 | 02:47:57 | 00:00:00 | |
| DF8AY | 2026-09-05 00:50:34 | 49.47232 | 13.52385 | 109° | 13km/h | 33603m | -89m/s | -36.2°C | 0% | 7.5hPa | 2.5V | 03:17:19 | 02:47:58 | 00:00:00 | |
| DL1XH-west | 2026-09-05 00:50:28 | 49.47234 | 13.52361 | 79° | 11km/h | 34121m | -82.1m/s | -35.9°C | 0% | 6.9hPa | 2.5V | 03:17:19 | 02:47:52 | 00:00:00 | |
| HSKMA3-T | 2026-09-05 00:50:26 | 49.47232 | 13.52354 | 42° | 13km/h | 34281m | -78.5m/s | -35.5°C | 0% | 6.7hPa | 2.5V | 03:17:19 | 02:47:50 | 00:00:00 | |
| AA1-15 | 2026-09-05 00:50:24 | 49.47227 | 13.52345 | 38° | 15km/h | 34432m | -73.5m/s | -34.8°C | 0% | 6.5hPa | 2.5V | 03:17:19 | 02:47:48 | 00:00:00 | |
| DF8AY | 2026-09-05 00:50:23 | 49.47223 | 13.52341 | 37° | 22km/h | 34505m | -72.7m/s | -34.7°C | 0% | 6.5hPa | 2.6V | 03:17:19 | 02:47:47 | 00:00:00 | |
| DM0DOS-11 | 2026-09-05 00:50:22 | 49.47214 | 13.52328 | 41° | 26km/h | 34646m | -69m/s | 0°C | 0% | 0hPa | 2.5V | 00:00:00 | 02:47:45 | 00:00:00 | |
| DF8AY | 2026-09-05 00:50:18 | 49.47188 | 13.52289 | 352° | 7km/h | 35254m | -68.9m/s | -32.5°C | 0% | 5.7hPa | 2.5V | 03:17:19 | 02:47:36 | 00:00:00 | |
| DL1XH-west | 2026-09-05 00:50:18 | 49.47200 | 13.52305 | 47° | 26km/h | 34844m | -64.6m/s | -33.5°C | 0% | 6.1hPa | 2.5V | 03:17:19 | 02:47:42 | 00:00:00 | |
| HSKMA3-T | 2026-09-05 00:50:15 | 49.47191 | 13.52291 | 50° | 5km/h | 35045m | -70.9m/s | -32.8°C | 0% | 5.9hPa | 2.6V | 03:17:19 | 02:47:39 | 00:00:00 | |
| AA1-15 | 2026-09-05 00:50:13 | 49.47189 | 13.52289 | 349° | 4km/h | 35185m | -69.4m/s | -32.7°C | 0% | 5.8hPa | 2.5V | 03:17:19 | 02:47:37 | 00:00:00 | |
| DL1XH1-15 | 2026-09-05 00:50:12 | 49.47181 | 13.52284 | 49° | 11km/h | 35455m | -64.8m/s | -32.3°C | 1.8% | 5.6hPa | 2.5V | 03:17:13 | 02:47:33 | 00:00:00 | |
| DL1XH-west | 2026-09-05 00:50:08 | 49.47179 | 13.52281 | 39° | 15km/h | 35519m | -62.9m/s | -32.1°C | 0% | 5.5hPa | 2.5V | 03:17:19 | 02:47:32 | 00:00:00 | |
| HSKMA3-T | 2026-09-05 00:50:04 | 49.47165 | 13.52249 | 59° | 26km/h | 35762m | -60.7m/s | -31.3°C | 0% | 5.3hPa | 2.5V | 03:17:19 | 02:47:28 | 00:00:00 | |
| AA1-15 | 2026-09-05 00:50:03 | 49.47162 | 13.52241 | 65° | 24km/h | 35821m | -57.7m/s | -31.1°C | 0% | 5.2hPa | 2.5V | 03:17:19 | 02:47:27 | 00:00:00 | |
| DF8AY | 2026-09-05 00:50:01 | 49.47156 | 13.52226 | 61° | 18km/h | 35934m | -53.8m/s | -30.6°C | 0% | 5.1hPa | 2.5V | 03:18:10 | 02:47:25 | 00:00:00 | |
| DL1XH-15 | 2026-09-05 00:50:01 | 49.47152 | 13.52217 | 42° | 13km/h | 36033m | -46.2m/s | -30.2°C | 1.5% | 5hPa | 2.6V | 03:17:23 | 02:47:23 | 00:00:00 | |
| DL1XH-west | 2026-09-05 00:49:57 | 49.47148 | 13.52217 | 335° | 9km/h | 36121m | -42.4m/s | -29.5°C | 0% | 5hPa | 2.5V | 03:18:10 | 02:47:21 | 00:00:00 | |
| HSKMA3-T | 2026-09-05 00:49:54 | 49.47141 | 13.52217 | 43° | 13km/h | 36242m | -38.8m/s | -29.7°C | 0% | 4.8hPa | 2.6V | 03:18:10 | 02:47:18 | 00:00:00 | |
| AA1-15 | 2026-09-05 00:49:52 | 49.47131 | 13.52186 | 73° | 33km/h | 36365m | -19m/s | -30.6°C | 0% | 4.7hPa | 2.5V | 03:18:10 | 02:47:14 | 00:00:00 | |
| DF8AY | 2026-09-05 00:49:51 | 49.47134 | 13.52197 | 66° | 26km/h | 36343m | -24.6m/s | -30.5°C | 0% | 0hPa | 2.5V | 03:18:10 | 02:47:15 | 00:00:00 | |
| DL1XH-west | 2026-09-05 00:49:46 | 49.47124 | 13.52099 | 94° | 86km/h | 36431m | -29.9m/s | -30.3°C | 0% | 4.7hPa | 2.6V | 03:18:10 | 02:47:10 | 00:00:00 | |
| HSKMA3-T | 2026-09-05 00:49:44 | 49.47132 | 13.52047 | 119° | 49km/h | 36510m | -44.5m/s | -30.1°C | 0% | 4.6hPa | 2.5V | 03:18:10 | 02:47:08 | 00:00:00 | |
| AA1-15 | 2026-09-05 00:49:42 | 49.47151 | 13.52016 | 147° | 31km/h | 36625m | -29.7m/s | -30.2°C | 0% | 4.6hPa | 2.6V | 03:18:10 | 02:47:05 | 00:00:00 | |
| DF8AY | 2026-09-05 00:49:40 | 49.47157 | 13.52011 | 159° | 26km/h | 36650m | -21.9m/s | -30.1°C | 0% | 0hPa | 2.5V | 03:18:10 | 02:47:04 | 00:00:00 | |
| DL1XH-west | 2026-09-05 00:49:36 | 49.47158 | 13.52047 | 302° | 66km/h | 36686m | -5.1m/s | -29.9°C | 0% | 4.5hPa | 2.6V | 03:18:10 | 02:47:00 | 00:00:00 | |
| DL1XH1-15 | 2026-09-05 00:49:33 | 49.47121 | 13.52000 | 108° | 57km/h | 36890m | -2.2m/s | -31.1°C | 1.6% | 4.4hPa | 2.5V | 03:17:54 | 02:46:52 | 00:00:00 | |
| HSKMA3-T | 2026-09-05 00:49:33 | 49.47126 | 13.52073 | 35° | 33km/h | 36776m | -41.5m/s | -30.4°C | 0% | 4.5hPa | 2.5V | 03:18:10 | 02:46:57 | 00:00:00 | |
| AA1-15 | 2026-09-05 00:49:28 | 49.47122 | 13.52000 | 109° | 57km/h | 36890m | -2.2m/s | -31.1°C | 0% | 4.4hPa | 2.5V | 03:18:10 | 02:46:52 | 00:00:00 | |
| DL1XH-west | 2026-09-05 00:49:25 | 49.47141 | 13.51944 | 136° | 49km/h | 36877m | 3.2m/s | -30.9°C | 0% | 4.4hPa | 2.6V | 03:18:10 | 02:46:49 | 00:00:00 | |
| HSKMA3-T | 2026-09-05 00:49:23 | 49.47157 | 13.51929 | 169° | 27km/h | 36871m | 3.9m/s | -30.9°C | 0% | 4.4hPa | 2.5V | 03:18:10 | 02:46:47 | 00:00:00 | |
| PETON7-10 | 2026-09-05 00:49:23 | 49.47157 | 13.51929 | 169° | 35km/h | 36871m | 3.8m/s | -30.8°C | 1.6% | 4.4hPa | 2.6V | 00:00:00 | 02:46:47 | 00:00:00 | |
| DL1XH1-15 | 2026-09-05 00:49:22 | 49.47146 | 13.51958 | 3° | 29km/h | 36842m | 2.7m/s | -30.8°C | 1.6% | 4.4hPa | 2.6V | 03:18:05 | 02:46:41 | 00:00:00 | |
| AA1-15 | 2026-09-05 00:49:16 | 49.47139 | 13.51955 | 35° | 29km/h | 36839m | 3.5m/s | -30.7°C | 0% | 4.4hPa | 2.5V | 03:18:10 | 02:46:40 | 00:00:00 | |
| DF8AY | 2026-09-05 00:49:15 | 49.47134 | 13.51946 | 65° | 33km/h | 36834m | 5.1m/s | 0°C | 0% | 0hPa | 2.5V | 03:18:10 | 02:46:39 | 00:00:00 | |
| DL1XH-west | 2026-09-05 00:49:14 | 49.47132 | 13.51932 | 88° | 40km/h | 36829m | 6.3m/s | -30.7°C | 0% | 4.4hPa | 2.5V | 03:18:10 | 02:46:38 | 00:00:00 | |
| OE5DRO-10 | 2026-09-05 00:49:14 | 49.47132 | 13.51932 | 89° | 38km/h | 36829m | 6.3m/s | -30.6°C | 1.6% | 4.4hPa | 2.5V | 00:00:00 | 00:00:00 | 00:00:00 | |
| DL1XH1-15 | 2026-09-05 00:49:12 | 49.47175 | 13.51863 | 236° | 20km/h | 36796m | 7m/s | -30.4°C | 1.6% | 4.5hPa | 2.6V | 03:18:15 | 02:46:31 | 00:00:00 | |
| HSKMA3-T | 2026-09-05 00:49:10 | 49.47155 | 13.51867 | 145° | 44km/h | 36810m | 2.4m/s | -30.5°C | 0% | 4.5hPa | 2.5V | 03:19:52 | 02:46:34 | 00:00:00 | |
| DF8AY | 2026-09-05 00:49:05 | 49.47174 | 13.51883 | 295° | 35km/h | 36782m | 5.7m/s | 0°C | 0% | 0hPa | 2.5V | 03:19:01 | 02:46:29 | 00:00:00 | |
| DL1XH-west | 2026-09-05 00:49:04 | 49.47169 | 13.51894 | 311° | 35km/h | 36778m | 3.4m/s | -30.3°C | 0% | 4.5hPa | 2.5V | 03:19:01 | 02:46:28 | 00:00:00 | |
| DL1XH1-15 | 2026-09-05 00:49:02 | 49.47162 | 13.51839 | 121° | 60km/h | 36745m | 4.2m/s | -30.1°C | 1.5% | 4.5hPa | 2.5V | 03:18:25 | 02:46:21 | 00:00:00 | |
| HSKMA3-T | 2026-09-05 00:49:00 | 49.47151 | 13.51891 | 84° | 31km/h | 36764m | 6.4m/s | -30.2°C | 0% | 4.5hPa | 2.6V | 03:19:52 | 02:46:24 | 00:00:00 | |
| AA1-15 | 2026-09-05 00:48:55 | 49.47179 | 13.51807 | 139° | 42km/h | 36739m | 1.8m/s | -30.1°C | 0% | 4.5hPa | 2.6V | 03:19:01 | 02:46:19 | 00:00:00 | |
| DF8AY | 2026-09-05 00:48:54 | 49.47186 | 13.51800 | 154° | 27km/h | 36737m | 3.3m/s | 0°C | 0% | 0hPa | 2.5V | 03:19:01 | 02:46:18 | 00:00:00 | |
| DL1XH-west | 2026-09-05 00:48:53 | 49.47191 | 13.51798 | 188° | 16km/h | 36732m | 5.6m/s | -30.1°C | 0% | 4.5hPa | 2.5V | 03:19:01 | 02:46:17 | 00:00:00 | |
| HSKMA3-T | 2026-09-05 00:48:49 | 49.47186 | 13.51830 | 315° | 31km/h | 36710m | 2.2m/s | -30.1°C | 0% | 4.5hPa | 2.5V | 03:19:52 | 02:46:13 | 00:00:00 | |
| DJ2DS-15 | 2026-09-05 00:48:49 | 49.47186 | 13.51830 | 315° | 31km/h | 36710m | 2.1m/s | -30.1°C | 1.5% | 4.4hPa | 2.5V | 00:00:00 | 02:46:13 | 00:00:00 | |
| OE3MUC-15 | 2026-09-05 00:48:48 | 49.47180 | 13.51836 | 336° | 46km/h | 36708m | 1.2m/s | -30.1°C | 1.5% | 4.5hPa | 2.5V | 00:00:00 | 00:00:00 | 00:00:00 | |
| DL1XH-15 | 2026-09-05 00:48:47 | 49.47186 | 13.51763 | 120° | 62km/h | 36676m | 3m/s | -30.2°C | 1.5% | 4.5hPa | 2.5V | 03:18:40 | 02:46:06 | 00:00:00 | |
| AA1-15 | 2026-09-05 00:48:45 | 49.47172 | 13.51821 | 94° | 35km/h | 36695m | 7.4m/s | -30.2°C | 0% | 4.5hPa | 2.6V | 03:19:01 | 02:46:09 | 00:00:00 | |
| DF8AY | 2026-09-05 00:48:43 | 49.47186 | 13.51763 | 120° | 62km/h | 36676m | 3m/s | 0°C | 0% | 0hPa | 2.5V | 03:19:01 | 02:46:06 | 00:00:00 | |
| DL1XH-west | 2026-09-05 00:48:43 | 49.47179 | 13.51785 | 114° | 62km/h | 36681m | 6m/s | -30.2°C | 0% | 4.5hPa | 2.5V | 03:19:01 | 02:46:07 | 00:00:00 | |
| DL1XH1-15 | 2026-09-05 00:48:42 | 49.47211 | 13.51722 | 277° | 15km/h | 36656m | 8m/s | -30.3°C | 1.6% | 4.5hPa | 2.5V | 03:18:45 | 02:46:01 | 00:00:00 | |
| HSKMA3-T | 2026-09-05 00:48:38 | 49.47210 | 13.51719 | 185° | 9km/h | 36664m | 6.8m/s | -30.2°C | 0% | 4.5hPa | 2.6V | 03:19:52 | 02:46:02 | 00:00:00 | |
| AA1-15 | 2026-09-05 00:48:35 | 49.47201 | 13.51749 | 316° | 27km/h | 36642m | 0.8m/s | -30.4°C | 0% | 4.5hPa | 2.6V | 03:19:01 | 02:45:58 | 00:00:00 | |
| DL1XH-west | 2026-09-05 00:48:32 | 49.47194 | 13.51752 | 57° | 13km/h | 36639m | 3.1m/s | -30.4°C | 0% | 4.5hPa | 2.5V | 03:19:01 | 02:45:56 | 00:00:00 | |
| DF8AY | 2026-09-05 00:48:32 | 49.47193 | 13.51745 | 93° | 26km/h | 36634m | 6.2m/s | 0°C | 0% | 0hPa | 2.5V | 03:19:01 | 02:45:55 | 00:00:00 | |
| HSKMA3-T | 2026-09-05 00:48:28 | 49.47206 | 13.51690 | 116° | 69km/h | 36612m | 5.5m/s | -30.3°C | 0% | 4.6hPa | 2.6V | 03:19:52 | 02:45:52 | 00:00:00 | |
| AA1-15 | 2026-09-05 00:48:24 | 49.47233 | 13.51622 | 134° | 22km/h | 36602m | 4.4m/s | -30.4°C | 0% | 4.6hPa | 2.6V | 03:19:01 | 02:45:48 | 00:00:00 | |
| DL1XH-west | 2026-09-05 00:48:22 | 49.47236 | 13.51621 | 276° | 16km/h | 36588m | 8.3m/s | -30.4°C | 0% | 4.6hPa | 2.5V | 03:19:01 | 02:45:46 | 00:00:00 | |
| DF8AY | 2026-09-05 00:48:21 | 49.47232 | 13.51641 | 293° | 33km/h | 36576m | 3.4m/s | 0°C | 0% | 0hPa | 2.5V | 18:12:15 | 02:45:44 | 00:00:00 | |
| HSKMA3-T | 2026-09-05 00:48:17 | 49.47226 | 13.51658 | 94° | 9km/h | 36571m | 3m/s | -30.7°C | 0% | 4.6hPa | 2.5V | 03:19:52 | 02:45:41 | 00:00:00 | |
| AA1-15 | 2026-09-05 00:48:14 | 49.47235 | 13.51620 | 113° | 60km/h | 36550m | 8.3m/s | -30.8°C | 0% | 4.6hPa | 2.6V | 03:19:52 | 02:45:38 | 00:00:00 | |
| SONCRA | 2026-09-05 00:48:13 | 49.47249 | 13.51571 | 115° | 71km/h | 36539m | 2.6m/s | -30.8°C | 0.4% | 4.6hPa | 2.5V | 00:00:00 | 00:00:00 | 00:00:00 | |
| OE3MUC-15 | 2026-09-05 00:48:12 | 49.47249 | 13.51571 | 116° | 71km/h | 36539m | 2.6m/s | -30.7°C | 1.6% | 4.6hPa | 2.5V | 03:19:00 | 00:00:00 | 00:00:00 | |
| DL1XH-15 | 2026-09-05 00:48:11 | 49.47263 | 13.51530 | 121° | 44km/h | 36535m | 1.7m/s | -30.8°C | 0% | 4.6hPa | 2.5V | 03:19:12 | 02:45:34 | 00:00:00 | |
| DL1XH-west | 2026-09-05 00:48:11 | 49.47257 | 13.51548 | 118° | 60km/h | 36537m | 1m/s | -30.8°C | 0% | 4.6hPa | 2.5V | 03:19:52 | 02:45:35 | 00:00:00 | |
| DF8AY | 2026-09-05 00:48:10 | 49.47263 | 13.51530 | 121° | 46km/h | 36535m | 1.7m/s | 0°C | 0% | 0hPa | 2.5V | 18:12:15 | 02:45:34 | 00:00:00 | |
| DJ2DS-15 | 2026-09-05 00:48:09 | 49.47268 | 13.51519 | 128° | 29km/h | 36533m | 4.2m/s | -30.7°C | 1.6% | 4.6hPa | 2.5V | 03:19:00 | 02:45:33 | 00:00:00 | |
| DL1XH1-15 | 2026-09-05 00:48:07 | 49.47274 | 13.51513 | 235° | 9km/h | 36519m | 8.1m/s | -30.8°C | 1.6% | 4.6hPa | 2.6V | 03:19:15 | 02:45:31 | 00:00:00 | |
| HSKMA3-T | 2026-09-05 00:48:06 | 49.47275 | 13.51518 | 272° | 20km/h | 36512m | 7m/s | -30.9°C | 0% | 4.7hPa | 2.6V | 03:19:52 | 02:45:30 | 00:00:00 | |
| AA1-15 | 2026-09-05 00:48:03 | 49.47273 | 13.51539 | 287° | 4km/h | 36501m | 1.4m/s | -31°C | 0% | 4.7hPa | 2.5V | 03:19:52 | 02:45:27 | 00:00:00 | |
| DL1XH-west | 2026-09-05 00:48:01 | 49.47274 | 13.51530 | 103° | 27km/h | 36494m | 5.6m/s | -31°C | 0% | 4.7hPa | 2.6V | 03:19:52 | 02:45:25 | 00:00:00 | |
| DL1XH-15 | 2026-09-05 00:47:58 | 49.47292 | 13.51423 | 105° | 58km/h | 36466m | 2m/s | -31°C | 0% | 4.7hPa | 2.6V | 03:19:26 | 02:45:20 | 00:00:00 | |
| DF8AY | 2026-09-05 00:47:57 | 49.47288 | 13.51447 | 105° | 68km/h | 36469m | 3.3m/s | 0°C | 0% | 0hPa | 2.6V | 18:12:15 | 02:45:21 | 00:00:00 | |
| HSKMA3-T | 2026-09-05 00:47:55 | 49.47296 | 13.51404 | 107° | 46km/h | 36464m | 2.6m/s | -31°C | 0% | 4.7hPa | 2.5V | 03:19:52 | 02:45:19 | 00:00:00 | |
| AA1-15 | 2026-09-05 00:47:52 | 49.47302 | 13.51380 | 210° | 4km/h | 36447m | 7.9m/s | -30.9°C | 0% | 4.7hPa | 2.6V | 03:19:52 | 02:45:16 | 00:00:00 | |
| DL1XH-west | 2026-09-05 00:47:50 | 49.47301 | 13.51388 | 282° | 16km/h | 36434m | 4.7m/s | -30.9°C | 0% | 4.7hPa | 2.5V | 03:19:52 | 02:45:14 | 00:00:00 | |
| DF8AY | 2026-09-05 00:47:47 | 49.47295 | 13.51382 | 79° | 33km/h | 36419m | 6m/s | 0°C | 0% | 0hPa | 2.6V | 18:12:15 | 02:45:10 | 00:00:00 | |
| HSKMA3-T | 2026-09-05 00:47:45 | 49.47294 | 13.51366 | 83° | 49km/h | 36412m | 7.7m/s | -30.8°C | 0% | 4.7hPa | 2.5V | 03:19:52 | 02:45:09 | 00:00:00 | |
| OE5MMP-10 | 2026-09-05 00:47:43 | 49.47291 | 13.51319 | 87° | 37km/h | 36398m | 6.2m/s | -30.7°C | 1.6% | 4.7hPa | 2.6V | 00:00:00 | 02:45:07 | 00:00:00 | |
| DL1XH1-15 | 2026-09-05 00:47:42 | 49.47289 | 13.51209 | 113° | 4km/h | 36374m | 7.8m/s | -30.6°C | 1.6% | 4.7hPa | 2.6V | 03:19:45 | 02:45:01 | 00:00:00 | |
| AA1-15 | 2026-09-05 00:47:41 | 49.47290 | 13.51264 | 88° | 66km/h | 36390m | 1.7m/s | -30.7°C | 0% | 4.7hPa | 2.6V | 03:19:52 | 02:45:05 | 00:00:00 | |
| DL1XH-west | 2026-09-05 00:47:39 | 49.47289 | 13.51224 | 90° | 37km/h | 36386m | 3.6m/s | -30.7°C | 0% | 4.7hPa | 2.5V | 03:19:52 | 02:45:03 | 00:00:00 | |
| HSKMA3-T | 2026-09-05 00:47:35 | 49.47290 | 13.51216 | 264° | 20km/h | 36359m | 5.6m/s | -30.5°C | 0% | 4.7hPa | 2.5V | 03:19:52 | 02:44:59 | 00:00:00 | |
| AA1-15 | 2026-09-05 00:47:31 | 49.47288 | 13.51226 | 68° | 20km/h | 36347m | 4.4m/s | -30.4°C | 0% | 4.8hPa | 2.6V | 03:19:52 | 02:44:55 | 00:00:00 | |
| DL1XH-west | 2026-09-05 00:47:28 | 49.47278 | 13.51178 | 73° | 66km/h | 36326m | 7.7m/s | -30.3°C | 0% | 4.8hPa | 2.5V | 03:20:43 | 02:44:52 | 00:00:00 | |
| HSKMA3-T | 2026-09-05 00:47:24 | 49.47256 | 13.51080 | 67° | 49km/h | 36312m | 1.8m/s | -30.3°C | 0% | 4.8hPa | 2.5V | 03:20:43 | 02:44:48 | 00:00:00 | |
| OE3JTB-15 | 2026-09-05 00:47:24 | 49.47256 | 13.51080 | 68° | 26km/h | 36313m | 1.8m/s | 0°C | 0% | 0hPa | 2.5V | 00:00:00 | 02:44:48 | 00:00:00 | |
| DL1XH-15 | 2026-09-05 00:47:23 | 49.47248 | 13.51067 | 248° | 15km/h | 36280m | 2.5m/s | -30.3°C | 0% | 4.8hPa | 2.5V | 03:20:04 | 02:44:42 | 00:00:00 | |
| PETON7-10 | 2026-09-05 00:47:23 | 49.47252 | 13.51065 | 64° | 31km/h | 36310m | 4.0m/s | -30.2°C | 1.5% | 4.7hPa | 2.6V | 00:00:00 | 00:00:00 | 00:00:00 | |
| DL1XH1-15 | 2026-09-05 00:47:22 | 49.47248 | 13.51070 | 222° | 4km/h | 36278m | 1.6m/s | -30.3°C | 1.5% | 4.8hPa | 2.6V | 03:20:05 | 02:44:41 | 00:00:00 | |
| AA1-15 | 2026-09-05 00:47:20 | 49.47246 | 13.51056 | 270° | 11km/h | 36290m | 6.9m/s | -30.2°C | 0% | 4.8hPa | 2.5V | 03:20:43 | 02:44:44 | 00:00:00 | |
| DL1XH-west | 2026-09-05 00:47:17 | 49.47249 | 13.51070 | 223° | 4km/h | 36278m | 1.6m/s | -30.3°C | 0% | 4.8hPa | 2.6V | 03:20:43 | 02:44:41 | 00:00:00 | |
| HSKMA3-T | 2026-09-05 00:47:11 | 49.47225 | 13.50987 | 59° | 69km/h | 36248m | 4.1m/s | -30.6°C | 0% | 4.8hPa | 2.6V | 03:20:43 | 02:44:35 | 00:00:00 | |
| SONCRA | 2026-09-05 00:47:11 | 49.47216 | 13.50965 | 53° | 64km/h | 36245m | 2.8m/s | -30.6°C | 0.4% | 4.8hPa | 2.6V | 00:00:00 | 00:00:00 | 00:00:00 | |
| DL1XH1-15 | 2026-09-05 00:47:10 | 49.47190 | 13.50927 | 28° | 29km/h | 36233m | 5.5m/s | -30.8°C | 1.5% | 4.8hPa | 2.6V | 03:20:15 | 02:44:31 | 00:00:00 | |
| AA1-15 | 2026-09-05 00:47:10 | 49.47216 | 13.50965 | 53° | 64km/h | 36245m | 2.8m/s | -30.6°C | 0% | 4.8hPa | 2.5V | 03:20:43 | 02:44:34 | 00:00:00 | |
| DL1XH-west | 2026-09-05 00:47:07 | 49.47191 | 13.50927 | 29° | 29km/h | 36233m | 5.5m/s | -30.8°C | 0% | 4.8hPa | 2.6V | 03:20:43 | 02:44:31 | 00:00:00 | |
| DL1XH-15 | 2026-09-05 00:47:05 | 49.47184 | 13.50922 | 122° | 16km/h | 36208m | 3.4m/s | -31°C | 0% | 4.8hPa | 2.6V | 03:20:20 | 02:44:26 | 00:00:00 | |
| DF8AY | 2026-09-05 00:47:04 | 49.47182 | 13.50926 | 160° | 7km/h | 36212m | 3.5m/s | 0°C | 0% | 0hPa | 2.5V | 18:12:15 | 02:44:27 | 00:00:00 | |
| AA1-15 | 2026-09-05 00:47:00 | 49.47187 | 13.50901 | 94° | 40km/h | 36200m | 5.6m/s | -31.3°C | 0% | 4.9hPa | 2.5V | 03:20:43 | 02:44:24 | 00:00:00 | |
| DL1XH1-15 | 2026-09-05 00:46:59 | 49.47181 | 13.50837 | 70° | 66km/h | 36183m | 4m/s | -31.8°C | 1.6% | 4.9hPa | 2.6V | 03:20:25 | 02:44:21 | 00:00:00 | |
| DL1XH-west | 2026-09-05 00:46:56 | 49.47174 | 13.50814 | 62° | 62km/h | 36179m | 2.7m/s | -31.9°C | 0% | 4.9hPa | 2.6V | 03:20:43 | 02:44:20 | 00:00:00 | |
| DL1XH-15 | 2026-09-05 00:46:55 | 49.47134 | 13.50779 | 298° | 18km/h | 36150m | 4.5m/s | -32.5°C | 0% | 4.9hPa | 2.5V | 03:20:32 | 02:44:14 | 00:00:00 | |
| HSKMA3-T | 2026-09-05 00:46:50 | 49.47134 | 13.50779 | 299° | 18km/h | 36150m | 4.5m/s | -32.5°C | 0% | 4.9hPa | 2.5V | 03:20:43 | 02:44:14 | 00:00:00 | |
| DL1XH1-15 | 2026-09-05 00:46:49 | 49.47132 | 13.50783 | 82° | 15km/h | 36140m | 4.1m/s | -32.2°C | 1.6% | 4.9hPa | 2.6V | 03:20:35 | 02:44:11 | 00:00:00 | |
| AA1-15 | 2026-09-05 00:46:49 | 49.47133 | 13.50784 | 284° | 11km/h | 36146m | 2.7m/s | -32.4°C | 0% | 4.9hPa | 2.5V | 03:20:43 | 02:44:13 | 00:00:00 | |
| DL1XH-west | 2026-09-05 00:46:46 | 49.47129 | 13.50761 | 75° | 46km/h | 36128m | 7.4m/s | -32.3°C | 0% | 4.9hPa | 2.5V | 03:20:43 | 02:44:09 | 00:00:00 | |
| SONDE2-11 | 2026-09-05 00:46:44 | 49.47119 | 13.50720 | 63° | 64km/h | 36116m | 3.8m/s | -32.4°C | 0.4% | 4.9hPa | 2.6V | 00:00:00 | 00:00:00 | 00:00:00 | |
| OE5DRO-10 | 2026-09-05 00:46:42 | 49.47110 | 13.50699 | 54° | 40km/h | 36114m | 1.3m/s | -32.4°C | 1.7% | 4.9hPa | 2.6V | 00:00:00 | 00:00:00 | 00:00:00 | |
| OE5MMP-10 | 2026-09-05 00:46:41 | 49.47101 | 13.50683 | 42° | 37km/h | 36113m | 1.2m/s | -32.3°C | 1.7% | 4.9hPa | 2.6V | 03:20:00 | 02:44:05 | 00:00:00 | |
| SONCRA | 2026-09-05 00:46:40 | 49.47082 | 13.50670 | 359° | 37km/h | 36105m | 7.0m/s | -32.5°C | 0.4% | 4.9hPa | 2.6V | 00:00:00 | 00:00:00 | 00:00:00 | |
| DL1XH1-15 | 2026-09-05 00:46:39 | 49.47066 | 13.50684 | 305° | 44km/h | 36087m | 8.8m/s | -32.6°C | 1.7% | 4.9hPa | 2.6V | 03:20:45 | 02:44:01 | 00:00:00 | |
| AA1-15 | 2026-09-05 00:46:39 | 49.47082 | 13.50670 | 360° | 37km/h | 36104m | 7m/s | -32.5°C | 0% | 4.9hPa | 2.5V | 03:20:43 | 02:44:03 | 00:00:00 | |
| DL1XH-west | 2026-09-05 00:46:35 | 49.47056 | 13.50717 | 288° | 44km/h | 36076m | 2.2m/s | -32.5°C | 0% | 5hPa | 2.5V | 03:21:34 | 02:43:59 | 00:00:00 | |
| EDDB2-11 | 2026-09-05 00:46:33 | 49.47046 | 13.50741 | 14° | 15km/h | 36069m | 5.8m/s | -32.6°C | 0.4% | 5.0hPa | 2.6V | 00:00:00 | 00:00:00 | 00:00:00 | |
| BAUMI2-15 | 2026-09-05 00:46:31 | 49.47042 | 13.50736 | 50° | 47km/h | 36062m | 8.3m/s | -32.6°C | 1.7% | 4.9hPa | 2.6V | 00:00:00 | 02:43:55 | 00:00:00 | |
| DL1XH-15 | 2026-09-05 00:46:29 | 49.47007 | 13.50657 | 37° | 38km/h | 36037m | 1.9m/s | -32.6°C | 0% | 5hPa | 2.6V | 03:20:56 | 02:43:50 | 00:00:00 | |
| DL1XH1-15 | 2026-09-05 00:46:29 | 49.47015 | 13.50669 | 51° | 51km/h | 36039m | 0.8m/s | -32.6°C | 1.7% | 5hPa | 2.6V | 03:20:55 | 02:43:51 | 00:00:00 | |
| HSKMA3-T | 2026-09-05 00:46:28 | 49.47023 | 13.50687 | 59° | 60km/h | 36041m | 2.7m/s | -32.6°C | 0% | 5hPa | 2.5V | 03:25:49 | 02:43:52 | 00:00:00 | |
| AA1-15 | 2026-09-05 00:46:27 | 49.47015 | 13.50669 | 52° | 51km/h | 36039m | 0.9m/s | -32.7°C | 0% | 5hPa | 2.6V | 03:21:34 | 02:43:51 | 00:00:00 | |
| DL1XH-west | 2026-09-05 00:46:24 | 49.46993 | 13.50652 | 334° | 27km/h | 36028m | 8.1m/s | -32.6°C | 0% | 5hPa | 2.5V | 03:21:34 | 02:43:48 | 00:00:00 | |
| PETON7-10 | 2026-09-05 00:46:23 | 49.46988 | 13.50660 | 304° | 40km/h | 36019m | 9.5m/s | -32.6°C | 1.7% | 4.9hPa | 2.5V | 00:00:00 | 02:43:47 | 00:00:00 | |
| OE5MMP-10 | 2026-09-05 00:46:21 | 49.46980 | 13.50694 | 284° | 38km/h | 36003m | 5.1m/s | -32.7°C | 1.7% | 4.9hPa | 2.5V | 00:00:00 | 02:43:45 | 00:00:00 | |
| BAUMI2-15 | 2026-09-05 00:46:20 | 49.46977 | 13.50713 | 283° | 27km/h | 36000m | 2.4m/s | -32.7°C | 1.7% | 5.0hPa | 2.5V | 03:21:00 | 02:43:44 | 00:00:00 | |
| DL1XH1-15 | 2026-09-05 00:46:19 | 49.46968 | 13.50738 | 11° | 13km/h | 35989m | 6.4m/s | -33°C | 1.7% | 5hPa | 2.6V | 03:21:05 | 02:43:41 | 00:00:00 | |
| AA1-15 | 2026-09-05 00:46:17 | 49.46968 | 13.50738 | 12° | 13km/h | 35989m | 6.4m/s | -33°C | 0% | 5hPa | 2.6V | 03:21:34 | 02:43:41 | 00:00:00 | |
| DL1XH-15 | 2026-09-05 00:46:14 | 49.46954 | 13.50708 | 61° | 51km/h | 35965m | 7.1m/s | -33.2°C | 0% | 5hPa | 2.5V | 03:21:08 | 02:43:38 | 00:00:00 | |
| DL1XH-west | 2026-09-05 00:46:14 | 49.46955 | 13.50708 | 62° | 51km/h | 35965m | 7.1m/s | -33.2°C | 0% | 5hPa | 2.5V | 03:21:34 | 02:43:38 | 00:00:00 | |
| DO8TBO-1 | 2026-09-05 00:46:14 | 49.46955 | 13.50708 | 62° | 66km/h | 35965m | 7.1m/s | 0°C | 0% | 0hPa | 2.6V | 00:00:00 | 02:43:38 | 00:00:00 | |
| SONDE2-11 | 2026-09-05 00:46:13 | 49.46941 | 13.50675 | 48° | 46km/h | 35956m | 2.3m/s | -33.3°C | 0.4% | 5.0hPa | 2.6V | 00:00:00 | 00:00:00 | 00:00:00 | |
| OE5MMP-10 | 2026-09-05 00:46:11 | 49.46933 | 13.50664 | 34° | 33km/h | 35954m | 2.8m/s | -33.3°C | 1.8% | 5.0hPa | 2.6V | 00:00:00 | 02:43:35 | 00:00:00 | |
| DL1XH1-15 | 2026-09-05 00:46:09 | 49.46907 | 13.50683 | 294° | 46km/h | 35927m | 8.1m/s | -33.4°C | 1.7% | 5hPa | 2.6V | 03:21:15 | 02:43:31 | 00:00:00 | |
| DJ2DS-15 | 2026-09-05 00:46:09 | 49.46918 | 13.50662 | 335° | 31km/h | 35944m | 7.3m/s | -33.3°C | 1.8% | 5.0hPa | 2.5V | 00:00:00 | 02:43:33 | 00:00:00 | |
| DL1XH-15 | 2026-09-05 00:46:08 | 49.46896 | 13.50743 | 289° | 20km/h | 35908m | 4.1m/s | -33.5°C | 0% | 5.1hPa | 2.5V | 03:21:19 | 02:43:27 | 00:00:00 | |
| AA1-15 | 2026-09-05 00:46:06 | 49.46903 | 13.50701 | 287° | 49km/h | 35920m | 6m/s | -33.4°C | 0% | 5.1hPa | 2.6V | 03:21:34 | 02:43:30 | 00:00:00 | |
| DL1XH-west | 2026-09-05 00:46:03 | 49.46895 | 13.50743 | 290° | 20km/h | 35908m | 4.1m/s | -33.5°C | 0% | 5.1hPa | 2.5V | 03:21:34 | 02:43:27 | 00:00:00 | |
| BAUMI2-15 | 2026-09-05 00:46:02 | 49.46894 | 13.50747 | 335° | 24km/h | 35903m | 6.0m/s | -33.4°C | 1.8% | 5.0hPa | 2.6V | 00:00:00 | 02:43:26 | 00:00:00 | |
| OE5MMP-10 | 2026-09-05 00:46:01 | 49.46892 | 13.50745 | 60° | 27km/h | 35896m | 7.8m/s | -33.4°C | 1.8% | 5.0hPa | 2.6V | 03:21:00 | 02:43:25 | 00:00:00 | |
| DL1XH1-15 | 2026-09-05 00:45:58 | 49.46881 | 13.50701 | 59° | 33km/h | 35870m | 3.7m/s | -33.5°C | 1.8% | 5.1hPa | 2.6V | 03:21:25 | 02:43:21 | 00:00:00 | |
| AA1-15 | 2026-09-05 00:45:56 | 49.46876 | 13.50693 | 43° | 24km/h | 35866m | 3.8m/s | -33.6°C | 0% | 5.1hPa | 2.6V | 03:21:34 | 02:43:20 | 00:00:00 | |
| HSKMA3-T | 2026-09-05 00:45:55 | 49.46872 | 13.50689 | 7° | 18km/h | 35862m | 4.9m/s | -33.5°C | 0% | 5.1hPa | 2.5V | 03:25:49 | 02:43:19 | 00:00:00 | |
| DL1XH-west | 2026-09-05 00:45:52 | 49.46859 | 13.50708 | 291° | 35km/h | 35841m | 7.3m/s | -33.5°C | 0% | 5.1hPa | 2.6V | 03:21:34 | 02:43:16 | 00:00:00 | |
| AA1-15 | 2026-09-05 00:45:45 | 49.46862 | 13.50749 | 103° | 22km/h | 35801m | 6.6m/s | -33.6°C | 0% | 5.2hPa | 2.5V | 03:22:25 | 02:43:09 | 00:00:00 | |
| DL6DJ-15 | 2026-09-05 00:45:44 | 49.46863 | 13.50739 | 91° | 26km/h | 35794m | 5.7m/s | -33.7°C | 0.4% | 5.2hPa | 2.5V | 00:00:00 | 00:00:00 | 00:00:00 | |
| HSKMA3-T | 2026-09-05 00:45:43 | 49.46862 | 13.50729 | 80° | 27km/h | 35789m | 4.8m/s | -33.7°C | 0% | 5.2hPa | 2.5V | 03:25:49 | 02:43:07 | 00:00:00 | |
| DL1XH-west | 2026-09-05 00:45:42 | 49.46860 | 13.50719 | 64° | 24km/h | 35784m | 4.5m/s | -33.7°C | 0% | 5.2hPa | 2.6V | 03:22:25 | 02:43:06 | 00:00:00 | |
| SONDE2-11 | 2026-09-05 00:45:42 | 49.46857 | 13.50713 | 38° | 18km/h | 35780m | 5.0m/s | -33.8°C | 0.4% | 5.2hPa | 2.6V | 00:00:00 | 00:00:00 | 00:00:00 | |
| OE5MMP-10 | 2026-09-05 00:45:41 | 49.46857 | 13.50713 | 39° | 26km/h | 35780m | 4.9m/s | -33.7°C | 1.8% | 5.1hPa | 2.6V | 00:00:00 | 02:43:05 | 00:00:00 | |
| DL1XH1-15 | 2026-09-05 00:45:40 | 49.46843 | 13.50729 | 282° | 27km/h | 35756m | 4.7m/s | -34°C | 1.8% | 5.2hPa | 2.6V | 03:21:45 | 02:43:01 | 00:00:00 | |
| AA1-15 | 2026-09-05 00:45:35 | 49.46845 | 13.50748 | 233° | 22km/h | 35747m | 4.4m/s | -34.1°C | 0% | 5.2hPa | 2.5V | 03:22:25 | 02:42:59 | 00:00:00 | |
| HSKMA3-T | 2026-09-05 00:45:32 | 49.46863 | 13.50749 | 151° | 38km/h | 35728m | 7.6m/s | -34.1°C | 0% | 5.2hPa | 2.6V | 03:25:49 | 02:42:56 | 00:00:00 | |
| DL1XH-west | 2026-09-05 00:45:31 | 49.46872 | 13.50739 | 137° | 44km/h | 35721m | 6m/s | -34.1°C | 0% | 5.2hPa | 2.6V | 03:22:25 | 02:42:55 | 00:00:00 | |
| EDDB2-11 | 2026-09-05 00:45:31 | 49.46879 | 13.50727 | 125° | 42km/h | 35716m | 3.9m/s | -34.1°C | 0.5% | 5.2hPa | 2.5V | 00:00:00 | 00:00:00 | 00:00:00 | |
| BAUMI2-15 | 2026-09-05 00:45:30 | 49.46879 | 13.50727 | 126° | 26km/h | 35716m | 3.9m/s | -34.1°C | 1.9% | 5.2hPa | 2.5V | 00:00:00 | 02:42:54 | 00:00:00 | |
| DJ2DS-15 | 2026-09-05 00:45:29 | 49.46884 | 13.50714 | 115° | 31km/h | 35713m | 2.9m/s | -34.0°C | 1.8% | 5.2hPa | 2.6V | 03:21:00 | 02:42:53 | 00:00:00 | |
| DL1XH1-15 | 2026-09-05 00:45:28 | 49.46886 | 13.50696 | 62° | 13km/h | 35704m | 6.2m/s | -34.1°C | 1.8% | 5.2hPa | 2.6V | 03:21:55 | 02:42:51 | 00:00:00 | |
| OE5DRO-10 | 2026-09-05 00:45:26 | 49.46883 | 13.50694 | 353° | 33km/h | 35697m | 7.8m/s | -34.1°C | 1.8% | 5.2hPa | 2.6V | 00:00:00 | 00:00:00 | 00:00:00 | |
| BAUMI2-15 | 2026-09-05 00:45:25 | 49.46879 | 13.50698 | 316° | 29km/h | 35690m | 7.7m/s | -34.0°C | 1.9% | 5.2hPa | 2.5V | 00:00:00 | 02:42:49 | 00:00:00 | |
| DL1XH-15 | 2026-09-05 00:45:24 | 49.46885 | 13.50746 | 163° | 29km/h | 35660m | 8m/s | -34.1°C | 0% | 5.2hPa | 2.5V | 00:00:00 | 02:42:43 | 00:00:00 | |
| AA1-15 | 2026-09-05 00:45:24 | 49.46875 | 13.50707 | 298° | 33km/h | 35682m | 5.9m/s | -34.1°C | 0% | 5.2hPa | 2.5V | 03:22:25 | 02:42:48 | 00:00:00 | |
| PETON7-10 | 2026-09-05 00:45:23 | 49.46872 | 13.50719 | 284° | 35km/h | 35678m | 3.6m/s | -34.0°C | 1.8% | 5.2hPa | 2.5V | 00:00:00 | 00:00:00 | 00:00:00 | |
| DL1XH1-15 | 2026-09-05 00:45:22 | 49.46905 | 13.50710 | 109° | 49km/h | 35640m | 3.3m/s | -34.1°C | 1.8% | 5.3hPa | 2.6V | 03:22:06 | 02:42:40 | 00:00:00 | |
| DL1XH-west | 2026-09-05 00:45:21 | 49.46878 | 13.50747 | 198° | 24km/h | 35667m | 6m/s | -34.2°C | 0% | 5.2hPa | 2.5V | 03:22:25 | 02:42:44 | 00:00:00 | |
| AA1-15 | 2026-09-05 00:45:13 | 49.46902 | 13.50670 | 38° | 27km/h | 35628m | 6.5m/s | -34.1°C | 0% | 5.3hPa | 2.5V | 03:22:25 | 02:42:37 | 00:00:00 | |
| PG1ADW-2 | 2026-09-05 00:45:13 | 49.46902 | 13.50670 | 38° | 35km/h | 35628m | 6.4m/s | -34.1°C | 1.8% | 5.2hPa | 2.6V | 00:00:00 | 00:00:00 | 00:00:00 | |
| DL1XH1-15 | 2026-09-05 00:45:11 | 49.46873 | 13.50721 | 206° | 18km/h | 35589m | 5.8m/s | -34.2°C | 1.8% | 5.3hPa | 2.6V | 03:22:16 | 02:42:30 | 00:00:00 | |
| HSKMA3-T | 2026-09-05 00:45:10 | 49.46880 | 13.50679 | 315° | 42km/h | 35607m | 5.5m/s | -34.1°C | 0% | 5.3hPa | 2.5V | 03:25:49 | 02:42:34 | 00:00:00 | |
| DL1XH-west | 2026-09-05 00:45:09 | 49.46873 | 13.50692 | 300° | 40km/h | 35602m | 4m/s | -34.2°C | 0% | 5.3hPa | 2.5V | 03:22:25 | 02:42:33 | 00:00:00 | |
| AA1-15 | 2026-09-05 00:45:02 | 49.46897 | 13.50688 | 113° | 47km/h | 35563m | 4.5m/s | -34.3°C | 0% | 5.3hPa | 2.6V | 03:22:25 | 02:42:26 | 00:00:00 | |
| OE5MMP-10 | 2026-09-05 00:45:01 | 49.46900 | 13.50672 | 99° | 27km/h | 35560m | 3.3m/s | -34.3°C | 1.9% | 5.3hPa | 2.6V | 00:00:00 | 02:42:25 | 00:00:00 | |
| DL1XH1-15 | 2026-09-05 00:45:00 | 49.46877 | 13.50646 | 329° | 35km/h | 35531m | 6.5m/s | -34.4°C | 1.9% | 5.4hPa | 2.6V | 03:22:26 | 02:42:20 | 00:00:00 | |
| HSKMA3-T | 2026-09-05 00:45:00 | 49.46897 | 13.50647 | 52° | 27km/h | 35551m | 5.3m/s | -34.4°C | 0% | 5.4hPa | 2.5V | 03:25:49 | 02:42:23 | 00:00:00 | |
| DL1XH-west | 2026-09-05 00:44:58 | 49.46892 | 13.50641 | 17° | 26km/h | 35545m | 6.8m/s | -34.4°C | 0% | 5.3hPa | 2.5V | 03:22:25 | 02:42:22 | 00:00:00 | |
| AA1-15 | 2026-09-05 00:44:52 | 49.46860 | 13.50674 | 278° | 4km/h | 35513m | 5.1m/s | -34.6°C | 0% | 5.4hPa | 2.6V | 03:23:16 | 02:42:16 | 00:00:00 | |
| OE5MMP-10 | 2026-09-05 00:44:51 | 49.46861 | 13.50673 | 128° | 26km/h | 35508m | 6.5m/s | -34.5°C | 1.9% | 5.3hPa | 2.6V | 00:00:00 | 02:42:15 | 00:00:00 | |
| BAUMI2-15 | 2026-09-05 00:44:50 | 49.46863 | 13.50667 | 118° | 33km/h | 35501m | 7.3m/s | -34.6°C | 1.9% | 5.3hPa | 2.6V | 00:00:00 | 02:42:14 | 00:00:00 | |
| DJ2DS-15 | 2026-09-05 00:44:49 | 49.46866 | 13.50656 | 112° | 29km/h | 35494m | 6.7m/s | -34.6°C | 1.9% | 5.4hPa | 2.6V | 00:00:00 | 02:42:13 | 00:00:00 | |
| DL1XH1-15 | 2026-09-05 00:44:48 | 49.46872 | 13.50615 | 85° | 29km/h | 35480m | 3.7m/s | -34.7°C | 1.9% | 5.4hPa | 2.6V | 03:22:36 | 02:42:10 | 00:00:00 | |
| DL1XH-west | 2026-09-05 00:44:48 | 49.46869 | 13.50643 | 105° | 40km/h | 35487m | 5m/s | -34.7°C | 0% | 5.4hPa | 2.5V | 03:23:16 | 02:42:12 | 00:00:00 | |
| HSKMA3-T | 2026-09-05 00:44:47 | 49.46871 | 13.50628 | 97° | 38km/h | 35483m | 3.4m/s | -34.7°C | 0% | 5.4hPa | 2.6V | 03:25:49 | 02:42:11 | 00:00:00 | |
| AA1-15 | 2026-09-05 00:44:41 | 49.46853 | 13.50612 | 313° | 27km/h | 35451m | 4.7m/s | -34.7°C | 0% | 5.4hPa | 2.6V | 03:23:16 | 02:42:05 | 00:00:00 | |
| DL1XH1-15 | 2026-09-05 00:44:41 | 49.46848 | 13.50613 | 104° | 31km/h | 35426m | 6.8m/s | -34.8°C | 1.9% | 5.4hPa | 2.6V | 03:22:46 | 02:42:00 | 00:00:00 | |
| DL1XH-west | 2026-09-05 00:44:38 | 49.46846 | 13.50625 | 85° | 2km/h | 35438m | 5m/s | -34.7°C | 0% | 5.4hPa | 2.5V | 03:23:16 | 02:42:02 | 00:00:00 | |
| HSKMA3-T | 2026-09-05 00:44:36 | 49.46848 | 13.50613 | 104° | 31km/h | 35426m | 6.8m/s | -34.8°C | 0% | 0hPa | 2.6V | 03:25:49 | 02:42:00 | 00:00:00 | |
| AA1-15 | 2026-09-05 00:44:31 | 49.46842 | 13.50538 | 50° | 35km/h | 35401m | 5.8m/s | -34.7°C | 0% | 5.5hPa | 2.6V | 03:23:16 | 02:41:55 | 00:00:00 | |
| OE5MMP-10 | 2026-09-05 00:44:31 | 49.46842 | 13.50538 | 50° | 27km/h | 35401m | 5.8m/s | -34.7°C | 1.9% | 5.4hPa | 2.6V | 00:00:00 | 02:41:55 | 00:00:00 | |
| DL1XH-15 | 2026-09-05 00:44:30 | 49.46806 | 13.50529 | 350° | 22km/h | 35373m | 4.7m/s | -34.6°C | 0% | 5.5hPa | 2.6V | 00:00:00 | 02:41:50 | 00:00:00 | |
| DL1XH-west | 2026-09-05 00:44:27 | 49.46806 | 13.50529 | 351° | 22km/h | 35373m | 4.7m/s | -34.6°C | 0% | 5.5hPa | 2.6V | 03:23:16 | 02:41:50 | 00:00:00 | |
| DF8AY | 2026-09-05 00:44:27 | 49.46802 | 13.50529 | 11° | 16km/h | 35368m | 5.1m/s | -34.6°C | 0% | 5.5hPa | 2.5V | 03:23:16 | 02:41:49 | 00:00:00 | |
| HSKMA3-T | 2026-09-05 00:44:25 | 49.46798 | 13.50526 | 51° | 15km/h | 35363m | 5.5m/s | -34.5°C | 0% | 0hPa | 2.5V | 03:25:49 | 02:41:48 | 00:00:00 | |
| AA1-15 | 2026-09-05 00:44:21 | 49.46795 | 13.50496 | 84° | 37km/h | 35346m | 4.7m/s | -34.5°C | 0% | 5.5hPa | 2.6V | 03:23:16 | 02:41:45 | 00:00:00 | |
| OE5MMP-10 | 2026-09-05 00:44:21 | 49.46795 | 13.50496 | 84° | 33km/h | 35346m | 4.6m/s | -34.5°C | 1.9% | 5.5hPa | 2.5V | 00:00:00 | 02:41:45 | 00:00:00 | |
| EDDB2-12 | 2026-09-05 00:44:20 | 49.46790 | 13.50469 | 66° | 35km/h | 35337m | 4.5m/s | -34.6°C | 0.4% | 5.5hPa | 2.5V | 00:00:00 | 00:00:00 | 00:00:00 | |
| DL1XH-15 | 2026-09-05 00:44:19 | 49.46754 | 13.50440 | 358° | 33km/h | 35309m | 4.5m/s | -34.7°C | 0% | 5.5hPa | 2.5V | 00:00:00 | 02:41:38 | 00:00:00 | |
| DL1XH-west | 2026-09-05 00:44:17 | 49.46779 | 13.50449 | 33° | 33km/h | 35326m | 6m/s | -34.6°C | 0% | 5.5hPa | 2.6V | 03:23:16 | 02:41:41 | 00:00:00 | |
| HSKMA3-T | 2026-09-05 00:44:13 | 49.46747 | 13.50441 | 358° | 27km/h | 35305m | 4.4m/s | -34.7°C | 0% | 0hPa | 2.5V | 03:25:49 | 02:41:37 | 00:00:00 | |
| AA1-15 | 2026-09-05 00:44:11 | 49.46737 | 13.50439 | 37° | 13km/h | 35295m | 5.7m/s | -34.8°C | 0% | 5.6hPa | 2.6V | 03:23:16 | 02:41:35 | 00:00:00 | |
| DL1XH-west | 2026-09-05 00:44:06 | 49.46742 | 13.50403 | 104° | 20km/h | 35270m | 4.3m/s | -35°C | 0% | 5.6hPa | 2.5V | 03:23:16 | 02:41:30 | 00:00:00 | |
| AA1-15 | 2026-09-05 00:44:00 | 49.46721 | 13.50392 | 2° | 26km/h | 35237m | 4.3m/s | -35.1°C | 0% | 5.6hPa | 2.5V | 03:24:07 | 02:41:24 | 00:00:00 | |
| EDDB2-11 | 2026-09-05 00:43:58 | 49.46707 | 13.50380 | 64° | 20km/h | 35222m | 6.2m/s | -35.2°C | 0.5% | 5.6hPa | 2.6V | 00:00:00 | 00:00:00 | 00:00:00 | |
| DL1XH-15 | 2026-09-05 00:43:56 | 49.46706 | 13.50354 | 97° | 20km/h | 35206m | 3.4m/s | -35.2°C | 0% | 0hPa | 2.6V | 00:00:00 | 02:41:18 | 00:00:00 | |
| HSKMA3-T | 2026-09-05 00:43:56 | 49.46705 | 13.50372 | 84° | 24km/h | 35215m | 5.8m/s | 0°C | 0% | 0hPa | 2.5V | 03:25:49 | 02:41:20 | 00:00:00 | |
| AA1-15 | 2026-09-05 00:43:50 | 49.46698 | 13.50346 | 338° | 27km/h | 35186m | 6.3m/s | -35.1°C | 0% | 5.7hPa | 2.5V | 03:24:07 | 02:41:14 | 00:00:00 | |
| DL1XH-west | 2026-09-05 00:43:46 | 49.46660 | 13.50356 | 10° | 42km/h | 35168m | 4.3m/s | -35.1°C | 0% | 5.7hPa | 2.5V | 03:24:07 | 02:41:10 | 00:00:00 | |
| DL1XH-15 | 2026-09-05 00:43:45 | 49.46642 | 13.50342 | 44° | 42km/h | 35157m | 6.3m/s | -35.1°C | 0% | 0hPa | 2.6V | 00:00:00 | 02:41:08 | 00:00:00 | |
| HSKMA3-T | 2026-09-05 00:43:45 | 49.46650 | 13.50351 | 26° | 40km/h | 35163m | 5.7m/s | 0°C | 0% | 0hPa | 2.5V | 03:25:49 | 02:41:09 | 00:00:00 | |
| AA1-15 | 2026-09-05 00:43:40 | 49.46625 | 13.50292 | 63° | 24km/h | 35140m | 2.9m/s | -35.1°C | 0% | 5.7hPa | 2.5V | 03:24:07 | 02:41:04 | 00:00:00 | |
| DL1XH-15 | 2026-09-05 00:43:39 | 49.46581 | 13.50326 | 337° | 37km/h | 35106m | 2.5m/s | -35°C | 0% | 0hPa | 2.6V | 00:00:00 | 02:40:57 | 00:00:00 | |
| DL1XH-west | 2026-09-05 00:43:35 | 49.46598 | 13.50309 | 319° | 44km/h | 35112m | 4m/s | -34.9°C | 0% | 5.7hPa | 2.5V | 03:24:07 | 02:40:59 | 00:00:00 | |
| HSKMA3-T | 2026-09-05 00:43:30 | 49.46560 | 13.50320 | 52° | 33km/h | 35090m | 7.4m/s | 0°C | 0% | 0hPa | 2.5V | 03:25:49 | 02:40:54 | 00:00:00 | |
| AA1-15 | 2026-09-05 00:43:29 | 49.46556 | 13.50308 | 67° | 40km/h | 35083m | 5.9m/s | -35°C | 0% | 5.8hPa | 2.5V | 03:24:07 | 02:40:53 | 00:00:00 | |
| DJ2DS-15 | 2026-09-05 00:43:29 | 49.46556 | 13.50308 | 67° | 33km/h | 35084m | 5.8m/s | -35.0°C | 1.9% | 5.7hPa | 2.6V | 00:00:00 | 02:40:53 | 00:00:00 | |
| DL1XH1-15 | 2026-09-05 00:43:28 | 49.46544 | 13.50268 | 47° | 29km/h | 35075m | 2.3m/s | -35.1°C | 1.9% | 5.8hPa | 2.6V | 03:23:56 | 02:40:50 | 00:00:00 | |
| DL1XH-west | 2026-09-05 00:43:25 | 49.46538 | 13.50263 | 17° | 26km/h | 35071m | 4.6m/s | -35.2°C | 0% | 5.8hPa | 2.5V | 03:24:07 | 02:40:49 | 00:00:00 | |
| DL1XH-15 | 2026-09-05 00:43:23 | 49.46523 | 13.50269 | 324° | 40km/h | 35058m | 7.8m/s | -35.3°C | 0% | 0hPa | 2.5V | 00:00:00 | 02:40:47 | 00:00:00 | |
| HSKMA3-T | 2026-09-05 00:43:20 | 49.46498 | 13.50310 | 308° | 47km/h | 35042m | 2.3m/s | 0°C | 0% | 0hPa | 2.6V | 03:25:49 | 02:40:44 | 00:00:00 | |
| AA1-15 | 2026-09-05 00:43:19 | 49.46492 | 13.50322 | 312° | 37km/h | 35040m | 2.7m/s | -35.5°C | 0% | 5.8hPa | 2.5V | 03:24:07 | 02:40:43 | 00:00:00 | |
| DL1XH1-15 | 2026-09-05 00:43:17 | 49.46478 | 13.50329 | 51° | 20km/h | 35025m | 6.9m/s | -35.5°C | 1.9% | 5.8hPa | 2.6V | 03:24:06 | 02:40:40 | 00:00:00 | |
| DL1XH-west | 2026-09-05 00:43:14 | 49.46472 | 13.50308 | 69° | 37km/h | 35013m | 4.9m/s | -35.6°C | 0% | 5.8hPa | 2.5V | 03:24:58 | 02:40:38 | 00:00:00 | |
| OE5DRO-10 | 2026-09-05 00:43:13 | 49.46468 | 13.50296 | 62° | 26km/h | 35009m | 3.5m/s | -35.5°C | 1.9% | 5.8hPa | 2.5V | 00:00:00 | 00:00:00 | 00:00:00 | |
| OE5MMP-10 | 2026-09-05 00:43:11 | 49.46458 | 13.50279 | 24° | 24km/h | 35002m | 4.1m/s | -35.6°C | 2.0% | 5.8hPa | 2.5V | 00:00:00 | 02:40:35 | 00:00:00 | |
| DJ2DS-15 | 2026-09-05 00:43:09 | 49.46444 | 13.50280 | 332° | 24km/h | 34992m | 5.7m/s | -35.7°C | 2.0% | 5.8hPa | 2.5V | 00:00:00 | 02:40:33 | 00:00:00 | |
| PETON7-10 | 2026-09-05 00:43:08 | 49.46438 | 13.50288 | 315° | 24km/h | 34986m | 5.4m/s | -35.8°C | 2.0% | 5.8hPa | 2.5V | 00:00:00 | 00:00:00 | 00:00:00 | |
| AA1-15 | 2026-09-05 00:43:08 | 49.46438 | 13.50288 | 315° | 35km/h | 34986m | 5.5m/s | -35.8°C | 0% | 5.8hPa | 2.5V | 03:24:58 | 02:40:32 | 00:00:00 | |
| DL1XH1-15 | 2026-09-05 00:43:07 | 49.46428 | 13.50309 | 295° | 31km/h | 34976m | 4.3m/s | -35.9°C | 2% | 5.8hPa | 2.6V | 03:24:16 | 02:40:30 | 00:00:00 | |
| DL1XH-west | 2026-09-05 00:43:03 | 49.46425 | 13.50329 | 206° | 4km/h | 34963m | 5.2m/s | -36°C | 0% | 5.8hPa | 2.5V | 03:24:58 | 02:40:27 | 00:00:00 | |
| AA1-15 | 2026-09-05 00:42:57 | 49.46419 | 13.50291 | 32° | 27km/h | 34932m | 5.5m/s | -36°C | 0% | 5.9hPa | 2.5V | 03:24:58 | 02:40:21 | 00:00:00 | |
| DL1XH1-15 | 2026-09-05 00:42:57 | 49.46413 | 13.50287 | 14° | 29km/h | 34926m | 5.5m/s | -36°C | 2% | 5.9hPa | 2.6V | 03:24:26 | 02:40:20 | 00:00:00 | |
| DL1XH-west | 2026-09-05 00:42:52 | 49.46383 | 13.50287 | 359° | 20km/h | 34908m | 4.6m/s | -36.1°C | 0% | 5.9hPa | 2.5V | 03:24:58 | 02:40:16 | 00:00:00 | |
| AA1-15 | 2026-09-05 00:42:47 | 49.46385 | 13.50267 | 134° | 26km/h | 34879m | 4.8m/s | -36.2°C | 0% | 6hPa | 2.5V | 03:24:58 | 02:40:11 | 00:00:00 | |
| DF8AY | 2026-09-05 00:42:45 | 49.46393 | 13.50255 | 128° | 15km/h | 34871m | 3.7m/s | -36.3°C | 0% | 0hPa | 2.5V | 03:27:31 | 02:40:09 | 00:00:00 | |
| DL1XH-west | 2026-09-05 00:42:42 | 49.46384 | 13.50251 | 352° | 27km/h | 34849m | 5.1m/s | -36.5°C | 0% | 6hPa | 2.5V | 03:24:58 | 02:40:05 | 00:00:00 | |
| AA1-15 | 2026-09-05 00:42:36 | 49.46356 | 13.50226 | 88° | 33km/h | 34827m | 6.8m/s | -36.3°C | 0% | 6hPa | 2.5V | 03:24:58 | 02:40:00 | 00:00:00 | |
| DF8AY | 2026-09-05 00:42:32 | 49.46377 | 13.50178 | 152° | 37km/h | 34805m | 4m/s | -36.4°C | 0% | 0hPa | 2.6V | 03:27:31 | 02:39:56 | 00:00:00 | |
| DL1XH-west | 2026-09-05 00:42:30 | 49.46390 | 13.50172 | 189° | 16km/h | 34795m | 5.5m/s | -36.6°C | 0% | 6hPa | 2.5V | 03:24:58 | 02:39:54 | 00:00:00 | |
| OE5WHR-10 | 2026-09-05 00:42:30 | 49.46390 | 13.50172 | 189° | 15km/h | 34795m | 5.4m/s | -36.5°C | 2.0% | 6.0hPa | 2.5V | 03:24:00 | 02:39:54 | 00:00:00 | |
| DJ2DS-15 | 2026-09-05 00:42:29 | 49.46393 | 13.50175 | 249° | 31km/h | 34790m | 5.5m/s | -36.6°C | 2.0% | 6.0hPa | 2.5V | 00:00:00 | 02:39:53 | 00:00:00 | |
| DL1XH1-15 | 2026-09-05 00:42:28 | 49.46381 | 13.50178 | 19° | 31km/h | 34775m | 4.7m/s | -36.9°C | 2.1% | 6hPa | 2.5V | 03:24:56 | 02:39:50 | 00:00:00 | |
| AA1-15 | 2026-09-05 00:42:26 | 49.46381 | 13.50178 | 19° | 31km/h | 34775m | 4.7m/s | -36.9°C | 0% | 6hPa | 2.5V | 03:24:58 | 02:39:50 | 00:00:00 | |
| DL1XH-west | 2026-09-05 00:42:20 | 49.46369 | 13.50091 | 126° | 44km/h | 34746m | 4.7m/s | -37.1°C | 0% | 6.1hPa | 2.6V | 03:25:49 | 02:39:44 | 00:00:00 | |
| DF8AY | 2026-09-05 00:42:19 | 49.46376 | 13.50080 | 145° | 38km/h | 34740m | 5.8m/s | -37.1°C | 0% | 0hPa | 2.5V | 03:27:31 | 02:39:43 | 00:00:00 | |
| DL1XH1-15 | 2026-09-05 00:42:18 | 49.46399 | 13.50079 | 219° | 26km/h | 34722m | 5.2m/s | -37.1°C | 2.1% | 6.1hPa | 2.5V | 03:25:06 | 02:39:40 | 00:00:00 | |
| AA1-15 | 2026-09-05 00:42:15 | 49.46402 | 13.50086 | 248° | 18km/h | 34718m | 4.1m/s | -37.1°C | 0% | 6.1hPa | 2.6V | 03:25:49 | 02:39:39 | 00:00:00 | |
| DF8AY | 2026-09-05 00:42:09 | 49.46384 | 13.50049 | 80° | 49km/h | 34686m | 4.6m/s | -37.2°C | 0% | 0hPa | 2.6V | 03:27:31 | 02:39:33 | 00:00:00 | |
| DJ2DS-15 | 2026-09-05 00:42:09 | 49.46384 | 13.50049 | 81° | 26km/h | 34687m | 4.6m/s | -37.1°C | 2.1% | 6.0hPa | 2.6V | 00:00:00 | 02:39:33 | 00:00:00 | |
| DL1XH1-15 | 2026-09-05 00:42:08 | 49.46387 | 13.50002 | 120° | 31km/h | 34672m | 5.4m/s | -37.2°C | 2.1% | 6.1hPa | 2.5V | 03:25:16 | 02:39:30 | 00:00:00 | |
| AA1-15 | 2026-09-05 00:42:05 | 49.46391 | 13.49994 | 147° | 22km/h | 34666m | 6.2m/s | -37.3°C | 0% | 6.1hPa | 2.6V | 03:25:49 | 02:39:29 | 00:00:00 | |
| DL1XH-west | 2026-09-05 00:41:58 | 49.46390 | 13.50010 | 34° | 27km/h | 34629m | 6.4m/s | -37.3°C | 0% | 6.2hPa | 2.6V | 03:25:49 | 02:39:22 | 00:00:00 | |
| DL1XH1-15 | 2026-09-05 00:41:58 | 49.46379 | 13.49990 | 60° | 38km/h | 34616m | 5.8m/s | -37.3°C | 2.1% | 6.2hPa | 2.5V | 03:25:26 | 02:39:20 | 00:00:00 | |
| HSKMA3-T | 2026-09-05 00:41:55 | 49.46375 | 13.49977 | 69° | 38km/h | 34611m | 5.2m/s | 0°C | 0% | 0hPa | 2.5V | 03:25:49 | 02:39:19 | 00:00:00 | |
| AA1-15 | 2026-09-05 00:41:55 | 49.46373 | 13.49964 | 76° | 33km/h | 34606m | 4.9m/s | -37.3°C | 0% | 6.2hPa | 2.5V | 03:25:49 | 02:39:18 | 00:00:00 | |
| BAUMI2-15 | 2026-09-05 00:41:54 | 49.46373 | 13.49964 | 76° | 16km/h | 34606m | 4.9m/s | -37.2°C | 2.1% | 6.1hPa | 2.5V | 00:00:00 | 02:39:18 | 00:00:00 | |
| PETON7-10 | 2026-09-05 00:41:53 | 49.46371 | 13.49953 | 83° | 13km/h | 34601m | 5.0m/s | -37.2°C | 2.1% | 6.1hPa | 2.6V | 00:00:00 | 02:39:17 | 00:00:00 | |
| PG1ADW-2 | 2026-09-05 00:41:52 | 49.46371 | 13.49945 | 93° | 11km/h | 34596m | 5.4m/s | -37.2°C | 2.1% | 6.1hPa | 2.6V | 00:00:00 | 00:00:00 | 00:00:00 | |
| OE5WHR-10 | 2026-09-05 00:41:51 | 49.46371 | 13.49942 | 122° | 9km/h | 34590m | 6.1m/s | -37.2°C | 2.1% | 6.1hPa | 2.6V | 00:00:00 | 00:00:00 | 00:00:00 | |
| DJ2DS-15 | 2026-09-05 00:41:49 | 49.46372 | 13.49945 | 271° | 11km/h | 34578m | 6.1m/s | -37.2°C | 2.1% | 6.2hPa | 2.6V | 00:00:00 | 02:39:13 | 00:00:00 | |
| DL1XH1-15 | 2026-09-05 00:41:48 | 49.46368 | 13.49959 | 327° | 13km/h | 34559m | 5.7m/s | -37.3°C | 2.1% | 6.2hPa | 2.6V | 03:25:36 | 02:39:10 | 00:00:00 | |
| DL1XH-west | 2026-09-05 00:41:47 | 49.46370 | 13.49955 | 300° | 15km/h | 34565m | 5.7m/s | -37.3°C | 0% | 6.2hPa | 2.6V | 03:25:49 | 02:39:11 | 00:00:00 | |
| DF8AY | 2026-09-05 00:41:45 | 49.46365 | 13.49960 | 2° | 13km/h | 34554m | 5.9m/s | -37.3°C | 0% | 0hPa | 2.5V | 03:27:31 | 02:39:09 | 00:00:00 | |
| AA1-15 | 2026-09-05 00:41:44 | 49.46362 | 13.49959 | 29° | 15km/h | 34548m | 5.9m/s | -37.3°C | 0% | 6.2hPa | 2.5V | 03:25:49 | 02:39:08 | 00:00:00 | |
| DL1XH-west | 2026-09-05 00:41:37 | 49.46352 | 13.49935 | 230° | 4km/h | 34506m | 5.6m/s | -37.4°C | 0% | 6.3hPa | 2.5V | 03:25:49 | 02:39:01 | 00:00:00 | |
| DF8AY | 2026-09-05 00:41:34 | 49.46352 | 13.49941 | 330° | 7km/h | 34491m | 5.2m/s | -37.4°C | 0% | 0hPa | 2.6V | 03:27:31 | 02:38:58 | 00:00:00 | |
| AA1-15 | 2026-09-05 00:41:33 | 49.46350 | 13.49941 | 1° | 11km/h | 34485m | 5.8m/s | -37.5°C | 0% | 6.3hPa | 2.5V | 03:25:49 | 02:38:57 | 00:00:00 | |
| SONDE2-11 | 2026-09-05 00:41:33 | 49.46350 | 13.49941 | 1° | 9km/h | 34485m | 5.8m/s | -37.5°C | 0.5% | 6.3hPa | 2.5V | 00:00:00 | 00:00:00 | 00:00:00 | |
| DL1XH1-15 | 2026-09-05 00:41:32 | 49.46338 | 13.49918 | 170° | 15km/h | 34446m | 7.1m/s | -38°C | 2.2% | 6.3hPa | 2.5V | 03:25:56 | 02:38:50 | 00:00:00 | |
| HSKMA3-T | 2026-09-05 00:41:32 | 49.46343 | 13.49937 | 33° | 18km/h | 34473m | 5.8m/s | 0°C | 0% | 0hPa | 2.5V | 18:12:15 | 02:38:55 | 00:00:00 | |
| DL1XH-west | 2026-09-05 00:41:26 | 49.46338 | 13.49918 | 170° | 15km/h | 34446m | 7.1m/s | -38°C | 0% | 6.3hPa | 2.5V | 03:26:40 | 02:38:50 | 00:00:00 | |
| DF8AY | 2026-09-05 00:41:23 | 49.46354 | 13.49918 | 178° | 24km/h | 34428m | 4.8m/s | -38°C | 0% | 0hPa | 2.6V | 03:27:31 | 02:38:47 | 00:00:00 | |
| AA1-15 | 2026-09-05 00:41:22 | 49.46359 | 13.49917 | 164° | 20km/h | 34423m | 5.2m/s | -38.1°C | 0% | 6.3hPa | 2.5V | 03:26:40 | 02:38:46 | 00:00:00 | |
| HSKMA3-T | 2026-09-05 00:41:20 | 49.46365 | 13.49909 | 107° | 16km/h | 34411m | 6.4m/s | 0°C | 0% | 0hPa | 2.5V | 18:12:15 | 02:38:44 | 00:00:00 | |
| DL1XH-west | 2026-09-05 00:41:16 | 49.46360 | 13.49886 | 54° | 11km/h | 34388m | 5.8m/s | -38.3°C | 0% | 6.4hPa | 2.5V | 03:26:40 | 02:38:40 | 00:00:00 | |
| AA1-15 | 2026-09-05 00:41:12 | 49.46365 | 13.49887 | 188° | 16km/h | 34367m | 5m/s | -38.4°C | 0% | 6.4hPa | 2.6V | 03:26:40 | 02:38:36 | 00:00:00 | |
| DF8AY | 2026-09-05 00:41:08 | 49.46386 | 13.49875 | 135° | 26km/h | 34343m | 5.8m/s | -38.5°C | 0% | 0hPa | 2.5V | 03:27:31 | 02:38:32 | 00:00:00 | |
| DL1XH1-15 | 2026-09-05 00:41:08 | 49.46394 | 13.49860 | 125° | 22km/h | 34332m | 4.8m/s | -38.5°C | 2.2% | 6.4hPa | 2.6V | 03:26:16 | 02:38:30 | 00:00:00 | |
| HSKMA3-T | 2026-09-05 00:41:07 | 49.46390 | 13.49867 | 128° | 26km/h | 34337m | 5.1m/s | 0°C | 0% | 0hPa | 2.5V | 18:12:15 | 02:38:31 | 00:00:00 | |
| DL1XH-west | 2026-09-05 00:41:06 | 49.46394 | 13.49860 | 125° | 22km/h | 34332m | 4.8m/s | -38.5°C | 0% | 6.4hPa | 2.6V | 03:26:40 | 02:38:30 | 00:00:00 | |
| AA1-15 | 2026-09-05 00:41:01 | 49.46412 | 13.49860 | 212° | 20km/h | 34298m | 4.4m/s | -38.5°C | 0% | 6.5hPa | 2.6V | 03:26:40 | 02:38:24 | 00:00:00 | |
| OE5MMP-10 | 2026-09-05 00:41:01 | 49.46408 | 13.49856 | 221° | 29km/h | 34303m | 5.4m/s | -38.5°C | 2.2% | 6.4hPa | 2.6V | 00:00:00 | 02:38:25 | 00:00:00 | |
| OE5DRO-10 | 2026-09-05 00:41:00 | 49.46412 | 13.49860 | 212° | 26km/h | 34298m | 4.4m/s | -38.5°C | 2.2% | 6.4hPa | 2.5V | 03:26:00 | 00:00:00 | 00:00:00 | |
| BAUMI2-15 | 2026-09-05 00:40:59 | 49.46417 | 13.49863 | 193° | 27km/h | 34294m | 4.3m/s | -38.5°C | 2.2% | 6.4hPa | 2.5V | 00:00:00 | 02:38:23 | 00:00:00 | |
| DL1XH1-15 | 2026-09-05 00:40:58 | 49.46432 | 13.49851 | 130° | 33km/h | 34275m | 6.9m/s | -38.6°C | 2.2% | 6.5hPa | 2.5V | 03:26:26 | 02:38:20 | 00:00:00 | |
| DF8AY | 2026-09-05 00:40:56 | 49.46432 | 13.49851 | 131° | 33km/h | 34275m | 6.9m/s | -38.6°C | 0% | 0hPa | 2.5V | 03:27:31 | 02:38:20 | 00:00:00 | |
| DL1XH-west | 2026-09-05 00:40:55 | 49.46437 | 13.49840 | 126° | 40km/h | 34269m | 5.8m/s | -38.6°C | 0% | 6.5hPa | 2.6V | 03:26:40 | 02:38:19 | 00:00:00 | |
| HSKMA3-T | 2026-09-05 00:40:54 | 49.46444 | 13.49828 | 128° | 44km/h | 34264m | 4.9m/s | 0°C | 0% | 0hPa | 2.6V | 18:12:15 | 02:38:18 | 00:00:00 | |
| AA1-15 | 2026-09-05 00:40:50 | 49.46481 | 13.49797 | 199° | 26km/h | 34236m | 5.7m/s | -38.8°C | 0% | 6.5hPa | 2.5V | 03:26:40 | 02:38:13 | 00:00:00 | |
| BAUMI2-15 | 2026-09-05 00:40:49 | 49.46481 | 13.49797 | 200° | 13km/h | 34237m | 5.7m/s | -38.7°C | 2.2% | 6.5hPa | 2.5V | 03:26:00 | 02:38:13 | 00:00:00 | |
| DL1XH1-15 | 2026-09-05 00:40:48 | 49.46492 | 13.49809 | 226° | 7km/h | 34221m | 5.2m/s | -38.8°C | 2.3% | 6.5hPa | 2.5V | 03:26:36 | 02:38:10 | 00:00:00 | |
| DL1XH-west | 2026-09-05 00:40:44 | 49.46494 | 13.49806 | 96° | 15km/h | 34210m | 6.2m/s | -38.9°C | 0% | 6.6hPa | 2.5V | 03:26:40 | 02:38:08 | 00:00:00 | |
| HSKMA3-T | 2026-09-05 00:40:43 | 49.46494 | 13.49797 | 101° | 27km/h | 34203m | 5.5m/s | 0°C | 0% | 0hPa | 2.6V | 18:12:15 | 02:38:07 | 00:00:00 | |
| DF8AY | 2026-09-05 00:40:41 | 49.46559 | 13.49742 | 188° | 53km/h | 34164m | 4.7m/s | -38.8°C | 0% | 0hPa | 2.6V | 03:27:31 | 02:38:00 | 00:00:00 | |
| AA1-15 | 2026-09-05 00:40:38 | 49.46532 | 13.49743 | 167° | 55km/h | 34176m | 7.1m/s | -38.8°C | 0% | 6.6hPa | 2.5V | 03:27:31 | 02:38:02 | 00:00:00 | |
| DL1XH1-15 | 2026-09-05 00:40:38 | 49.46559 | 13.49742 | 187° | 53km/h | 34163m | 4.7m/s | -38.8°C | 2.3% | 6.6hPa | 2.6V | 03:26:46 | 02:38:00 | 00:00:00 | |
| DL1XH-west | 2026-09-05 00:40:33 | 49.46588 | 13.49751 | 186° | 22km/h | 34150m | 6.2m/s | -38.7°C | 0% | 6.6hPa | 2.5V | 03:27:31 | 02:37:57 | 00:00:00 | |
| PG1ADW-2 | 2026-09-05 00:40:32 | 49.46592 | 13.49750 | 152° | 37km/h | 34143m | 7.3m/s | -38.6°C | 2.3% | 6.6hPa | 2.5V | 00:00:00 | 00:00:00 | 00:00:00 | |
| DM0DOS-11 | 2026-09-05 00:40:31 | 49.46607 | 13.49702 | 136° | 44km/h | 34116m | 5.5m/s | 0°C | 0% | 0hPa | 2.5V | 00:00:00 | 02:37:51 | 00:00:00 | |
| OE3MUC-15 | 2026-09-05 00:40:30 | 49.46595 | 13.49737 | 98° | 51km/h | 34130m | 5.5m/s | -38.6°C | 2.3% | 6.6hPa | 2.5V | 00:00:00 | 00:00:00 | 00:00:00 | |
| DL1XH1-15 | 2026-09-05 00:40:29 | 49.46616 | 13.49691 | 151° | 51km/h | 34110m | 6.5m/s | -38.5°C | 2.3% | 6.7hPa | 2.5V | 03:26:56 | 02:37:50 | 00:00:00 | |
| HSKMA3-T | 2026-09-05 00:40:29 | 49.46600 | 13.49714 | 121° | 38km/h | 34121m | 4.1m/s | 0°C | 0% | 0hPa | 2.5V | 18:12:15 | 02:37:52 | 00:00:00 | |
| AA1-15 | 2026-09-05 00:40:27 | 49.46607 | 13.49702 | 137° | 44km/h | 34116m | 5.5m/s | -38.5°C | 0% | 6.7hPa | 2.5V | 03:27:31 | 02:37:51 | 00:00:00 | |
| DF8AY | 2026-09-05 00:40:26 | 49.46629 | 13.49683 | 163° | 58km/h | 34103m | 6.8m/s | -38.5°C | 0% | 0hPa | 2.6V | 03:27:31 | 02:37:49 | 00:00:00 | |
| DL1XH-west | 2026-09-05 00:40:23 | 49.46661 | 13.49675 | 176° | 64km/h | 34092m | 4.9m/s | -38.4°C | 0% | 6.7hPa | 2.5V | 03:27:31 | 02:37:47 | 00:00:00 | |
| PETON7-10 | 2026-09-05 00:40:23 | 49.46660 | 13.49675 | 176° | 38km/h | 34092m | 4.9m/s | -38.4°C | 2.2% | 6.6hPa | 2.5V | 00:00:00 | 02:37:47 | 00:00:00 | |
| OE3MUC-15 | 2026-09-05 00:40:22 | 49.46676 | 13.49673 | 179° | 42km/h | 34087m | 4.6m/s | -38.4°C | 2.2% | 6.6hPa | 2.5V | 00:00:00 | 00:00:00 | 00:00:00 | |
| OE5MMP-10 | 2026-09-05 00:40:21 | 49.46689 | 13.49673 | 180° | 29km/h | 34082m | 4.9m/s | -38.4°C | 2.2% | 6.7hPa | 2.5V | 00:00:00 | 02:37:45 | 00:00:00 | |
| EDDB2-11 | 2026-09-05 00:40:20 | 49.46700 | 13.49673 | 177° | 35km/h | 34077m | 5.7m/s | -38.4°C | 0.6% | 6.7hPa | 2.5V | 00:00:00 | 00:00:00 | 00:00:00 | |
| DM0DOS-11 | 2026-09-05 00:40:18 | 49.46725 | 13.49648 | 147° | 31km/h | 34043m | 5.6m/s | 0°C | 0% | 0hPa | 2.5V | 00:00:00 | 02:37:38 | 00:00:00 | |
| DL1XH1-15 | 2026-09-05 00:40:18 | 49.46717 | 13.49660 | 123° | 18km/h | 34053m | 4.8m/s | -38.3°C | 2.2% | 6.7hPa | 2.5V | 03:27:06 | 02:37:40 | 00:00:00 | |
| AA1-15 | 2026-09-05 00:40:16 | 49.46717 | 13.49660 | 123° | 18km/h | 34053m | 4.8m/s | -38.3°C | 0% | 6.7hPa | 2.5V | 03:27:31 | 02:37:40 | 00:00:00 | |
| HSKMA3-T | 2026-09-05 00:40:15 | 49.46720 | 13.49654 | 134° | 24km/h | 34049m | 4.9m/s | 0°C | 0% | 0hPa | 2.5V | 18:12:15 | 02:37:39 | 00:00:00 | |
| DL1XH-west | 2026-09-05 00:40:13 | 49.46733 | 13.49641 | 157° | 38km/h | 34037m | 6.1m/s | -38.3°C | 0% | 6.8hPa | 2.5V | 03:27:31 | 02:37:37 | 00:00:00 | |
| OE3MUC-15 | 2026-09-05 00:40:13 | 49.46733 | 13.49641 | 158° | 42km/h | 34038m | 6.1m/s | -38.3°C | 2.2% | 6.7hPa | 2.6V | 03:27:00 | 00:00:00 | 00:00:00 | |
| PG1ADW-2 | 2026-09-05 00:40:12 | 49.46743 | 13.49636 | 164° | 38km/h | 34032m | 6.1m/s | -38.3°C | 2.2% | 6.7hPa | 2.6V | 00:00:00 | 02:37:36 | 00:00:00 | |
| OE5MMP-10 | 2026-09-05 00:40:11 | 49.46755 | 13.49631 | 168° | 38km/h | 34025m | 5.8m/s | -38.3°C | 2.3% | 6.7hPa | 2.6V | 00:00:00 | 02:37:35 | 00:00:00 | |
| DL1XH1-15 | 2026-09-05 00:40:08 | 49.46810 | 13.49608 | 150° | 31km/h | 33996m | 6.2m/s | -38.4°C | 2.2% | 6.8hPa | 2.6V | 03:27:16 | 02:37:30 | 00:00:00 | |
| DF8AY | 2026-09-05 00:40:05 | 49.46816 | 13.49602 | 140° | 27km/h | 33991m | 5.9m/s | -38.4°C | 0% | 0hPa | 2.5V | 03:27:31 | 02:37:29 | 00:00:00 | |
| HSKMA3-T | 2026-09-05 00:40:04 | 49.46821 | 13.49595 | 134° | 26km/h | 33985m | 5.2m/s | 0°C | 0% | 0hPa | 2.5V | 18:12:15 | 02:37:28 | 00:00:00 | |
| DL1XH-west | 2026-09-05 00:40:02 | 49.46831 | 13.49581 | 145° | 29km/h | 33975m | 5.5m/s | -38.5°C | 0% | 6.8hPa | 2.5V | 03:27:31 | 02:37:26 | 00:00:00 | |
| SONDE2-11 | 2026-09-05 00:40:00 | 49.46847 | 13.49570 | 162° | 38km/h | 33962m | 6.5m/s | -38.5°C | 0.6% | 6.8hPa | 2.5V | 00:00:00 | 00:00:00 | 00:00:00 | |
| DL1XH1-15 | 2026-09-05 00:39:58 | 49.46889 | 13.49555 | 166° | 40km/h | 33939m | 6.2m/s | -38.5°C | 2.2% | 6.8hPa | 2.5V | 03:27:26 | 02:37:20 | 00:00:00 | |
| DF8AY | 2026-09-05 00:39:55 | 49.46906 | 13.49548 | 162° | 31km/h | 33927m | 5.6m/s | -38.5°C | 0% | 0hPa | 2.6V | 03:27:31 | 02:37:18 | 00:00:00 | |
| DL1XH-west | 2026-09-05 00:39:52 | 49.46919 | 13.49541 | 162° | 26km/h | 33915m | 6.3m/s | -38.5°C | 0% | 6.9hPa | 2.5V | 03:27:31 | 02:37:16 | 00:00:00 | |
| AA1-15 | 2026-09-05 00:39:45 | 49.46963 | 13.49507 | 141° | 33km/h | 33873m | 5.3m/s | -38.7°C | 0% | 6.9hPa | 2.5V | 03:28:22 | 02:37:09 | 00:00:00 | |
| DF8AY | 2026-09-05 00:39:44 | 49.46969 | 13.49499 | 146° | 35km/h | 33868m | 5m/s | -38.7°C | 0% | 0hPa | 2.5V | 03:30:55 | 02:37:08 | 00:00:00 | |
| DL1XH-west | 2026-09-05 00:39:41 | 49.46997 | 13.49481 | 166° | 44km/h | 33850m | 6.6m/s | -38.7°C | 0% | 6.9hPa | 2.6V | 03:28:22 | 02:37:05 | 00:00:00 | |
| OE5MMP-10 | 2026-09-05 00:39:41 | 49.46997 | 13.49481 | 167° | 22km/h | 33850m | 6.6m/s | -38.6°C | 2.3% | 6.9hPa | 2.6V | 00:00:00 | 02:37:05 | 00:00:00 | |
| EDDB2-12 | 2026-09-05 00:39:40 | 49.47007 | 13.49478 | 171° | 40km/h | 33844m | 5.3m/s | -38.7°C | 0.6% | 7.0hPa | 2.6V | 00:00:00 | 00:00:00 | 00:00:00 | |
| DL1XH1-15 | 2026-09-05 00:39:38 | 49.47033 | 13.49471 | 134° | 9km/h | 33822m | 7.5m/s | -38.6°C | 2.3% | 7hPa | 2.6V | 03:27:46 | 02:37:00 | 00:00:00 | |
| PETON7-10 | 2026-09-05 00:39:38 | 49.47025 | 13.49474 | 172° | 29km/h | 33835m | 4.8m/s | -38.6°C | 2.3% | 6.9hPa | 2.5V | 03:27:00 | 02:37:02 | 00:00:00 | |
| DM0DOS-11 | 2026-09-05 00:39:35 | 49.47031 | 13.49460 | 69° | 11km/h | 33805m | 3.5m/s | 0°C | 0% | 0hPa | 2.5V | 00:00:00 | 02:36:57 | 00:00:00 | |
| AA1-15 | 2026-09-05 00:39:35 | 49.47033 | 13.49468 | 70° | 9km/h | 33815m | 6.9m/s | -38.7°C | 0% | 7hPa | 2.6V | 03:28:22 | 02:36:59 | 00:00:00 | |
| DF8AY | 2026-09-05 00:39:34 | 49.47075 | 13.49434 | 168° | 58km/h | 33769m | 5m/s | -38.6°C | 0% | 0hPa | 2.5V | 03:30:55 | 02:36:51 | 00:00:00 | |
| PG1ADW-2 | 2026-09-05 00:39:32 | 49.47039 | 13.49447 | 161° | 33km/h | 33790m | 7.1m/s | -38.6°C | 2.2% | 6.9hPa | 2.6V | 03:27:00 | 00:00:00 | 00:00:00 | |
| DL1XH1-15 | 2026-09-05 00:39:31 | 49.47089 | 13.49429 | 165° | 57km/h | 33765m | 4.6m/s | -38.6°C | 2.3% | 7hPa | 2.5V | 03:27:56 | 02:36:50 | 00:00:00 | |
| HSKMA3-T | 2026-09-05 00:39:31 | 49.47033 | 13.49451 | 145° | 20km/h | 33796m | 5.8m/s | 0°C | 0% | 0hPa | 2.5V | 18:12:15 | 02:36:55 | 00:00:00 | |
| DL1XH-west | 2026-09-05 00:39:30 | 49.47039 | 13.49447 | 160° | 31km/h | 33790m | 7.2m/s | -38.6°C | 0% | 7hPa | 2.6V | 03:28:22 | 02:36:54 | 00:00:00 | |
| AA1-15 | 2026-09-05 00:39:25 | 49.47101 | 13.49423 | 162° | 47km/h | 33760m | 5.1m/s | -38.6°C | 0% | 7hPa | 2.5V | 03:28:22 | 02:36:49 | 00:00:00 | |
| DL1XH-west | 2026-09-05 00:39:19 | 49.47129 | 13.49398 | 174° | 11km/h | 33724m | 6m/s | -38.6°C | 0% | 7hPa | 2.5V | 03:28:22 | 02:36:43 | 00:00:00 | |
| DL1XH1-15 | 2026-09-05 00:39:18 | 49.47145 | 13.49402 | 189° | 31km/h | 33705m | 5.8m/s | -38.7°C | 2.3% | 7.1hPa | 2.5V | 03:28:06 | 02:36:40 | 00:00:00 | |
| DF8AY | 2026-09-05 00:39:15 | 49.47191 | 13.49346 | 121° | 20km/h | 33648m | 5.7m/s | 0°C | 0% | 0hPa | 2.5V | 03:30:55 | 02:36:30 | 00:00:00 | |
| AA1-15 | 2026-09-05 00:39:14 | 49.47162 | 13.49403 | 177° | 35km/h | 33695m | 4.8m/s | -38.7°C | 0% | 7.1hPa | 2.5V | 03:28:22 | 02:36:38 | 00:00:00 | |
| DL1XH-west | 2026-09-05 00:39:08 | 49.47188 | 13.49364 | 96° | 26km/h | 33658m | 4.8m/s | -38.7°C | 0% | 7.1hPa | 2.6V | 03:28:22 | 02:36:32 | 00:00:00 | |
| PETON7-10 | 2026-09-05 00:39:08 | 49.47188 | 13.49364 | 97° | 20km/h | 33659m | 4.8m/s | -38.6°C | 2.3% | 7.1hPa | 2.5V | 00:00:00 | 00:00:00 | 00:00:00 | |
| DL1XH1-15 | 2026-09-05 00:39:07 | 49.47191 | 13.49346 | 120° | 20km/h | 33648m | 5.7m/s | -38.6°C | 2.3% | 7.1hPa | 2.5V | 03:28:16 | 02:36:30 | 00:00:00 | |
| AA1-15 | 2026-09-05 00:39:04 | 49.47199 | 13.49338 | 170° | 24km/h | 33635m | 6.7m/s | -38.6°C | 0% | 7.2hPa | 2.5V | 03:28:22 | 02:36:28 | 00:00:00 | |
| DL6DJ-15 | 2026-09-05 00:39:00 | 49.47223 | 13.49344 | 198° | 16km/h | 33612m | 6.2m/s | -38.6°C | 0.6% | 7.2hPa | 2.6V | 00:00:00 | 00:00:00 | 00:00:00 | |
| SONDE2-11 | 2026-09-05 00:38:58 | 49.47229 | 13.49345 | 153° | 7km/h | 33600m | 5.5m/s | -38.6°C | 0.6% | 7.2hPa | 2.6V | 00:00:00 | 00:00:00 | 00:00:00 | |
| DL1XH1-15 | 2026-09-05 00:38:57 | 49.47232 | 13.49338 | 122° | 15km/h | 33589m | 5.7m/s | -38.6°C | 2.2% | 7.2hPa | 2.6V | 03:28:26 | 02:36:20 | 00:00:00 | |
| DL1XH-west | 2026-09-05 00:38:57 | 49.47231 | 13.49342 | 124° | 11km/h | 33595m | 5.3m/s | -38.6°C | 0% | 7.2hPa | 2.6V | 03:29:13 | 02:36:21 | 00:00:00 | |
| DF8AY | 2026-09-05 00:38:55 | 49.47235 | 13.49333 | 129° | 20km/h | 33583m | 6.5m/s | 0°C | 0% | 0hPa | 2.5V | 03:30:55 | 02:36:19 | 00:00:00 | |
| AA1-15 | 2026-09-05 00:38:53 | 49.47244 | 13.49320 | 147° | 27km/h | 33570m | 5.9m/s | -38.7°C | 0% | 7.2hPa | 2.5V | 03:29:13 | 02:36:17 | 00:00:00 | |
| PETON7-10 | 2026-09-05 00:38:53 | 49.47244 | 13.49320 | 148° | 26km/h | 33571m | 5.8m/s | -38.6°C | 2.3% | 7.2hPa | 2.6V | 00:00:00 | 02:36:17 | 00:00:00 | |
| PG1ADW-2 | 2026-09-05 00:38:52 | 49.47251 | 13.49315 | 155° | 27km/h | 33565m | 5.3m/s | -38.7°C | 2.3% | 7.2hPa | 2.6V | 00:00:00 | 02:36:16 | 00:00:00 | |
| OE5MMP-10 | 2026-09-05 00:38:51 | 49.47257 | 13.49310 | 161° | 22km/h | 33560m | 5.2m/s | -38.7°C | 2.3% | 7.2hPa | 2.6V | 00:00:00 | 02:36:15 | 00:00:00 | |
| SP3BTT-10 | 2026-09-05 00:38:50 | 49.47264 | 13.49308 | 167° | 16km/h | 33555m | 5.4m/s | -38.7°C | 2.3% | 7.2hPa | 2.6V | 00:00:00 | 00:00:00 | 00:00:00 | |
| DL1XH1-15 | 2026-09-05 00:38:49 | 49.47280 | 13.49309 | 212° | 15km/h | 33530m | 5.1m/s | -38.7°C | 2.3% | 7.3hPa | 2.5V | 03:28:36 | 02:36:10 | 00:00:00 | |
| DL1XH-west | 2026-09-05 00:38:47 | 49.47277 | 13.49307 | 202° | 13km/h | 33536m | 5.7m/s | -38.7°C | 0% | 7.2hPa | 2.5V | 03:29:13 | 02:36:11 | 00:00:00 | |
| DF8AY | 2026-09-05 00:38:44 | 49.47288 | 13.49315 | 201° | 22km/h | 33519m | 6m/s | 0°C | 0% | 0hPa | 2.6V | 03:30:55 | 02:36:08 | 00:00:00 | |
| AA1-15 | 2026-09-05 00:38:43 | 49.47293 | 13.49317 | 188° | 27km/h | 33513m | 6m/s | -38.7°C | 0% | 7.3hPa | 2.6V | 03:29:13 | 02:36:07 | 00:00:00 | |
| OE5MMP-10 | 2026-09-05 00:38:41 | 49.47309 | 13.49314 | 161° | 33km/h | 33503m | 5.3m/s | -38.7°C | 2.3% | 7.3hPa | 2.6V | 03:28:00 | 02:36:05 | 00:00:00 | |
| S52SK | 2026-09-05 00:38:40 | 49.47309 | 13.49314 | 161° | 37km/h | 33503m | 5.4m/s | -38.7°C | 0.6% | 7.3hPa | 2.6V | 00:00:00 | 00:00:00 | 00:00:00 | |
| DL1XH1-15 | 2026-09-05 00:38:38 | 49.47344 | 13.49259 | 118° | 37km/h | 33473m | 4.3m/s | -38.8°C | 2.3% | 7.3hPa | 2.6V | 03:28:46 | 02:36:00 | 00:00:00 | |
| DL1XH-west | 2026-09-05 00:38:37 | 49.47339 | 13.49272 | 120° | 42km/h | 33477m | 5.2m/s | -38.8°C | 0% | 7.3hPa | 2.6V | 03:29:13 | 02:36:01 | 00:00:00 | |
| AA1-15 | 2026-09-05 00:38:32 | 49.47362 | 13.49236 | 190° | 22km/h | 33450m | 5.9m/s | -38.7°C | 0% | 7.4hPa | 2.5V | 03:29:13 | 02:35:56 | 00:00:00 | |
| PG1ADW-2 | 2026-09-05 00:38:32 | 49.47362 | 13.49236 | 191° | 24km/h | 33451m | 5.9m/s | -38.7°C | 2.3% | 7.3hPa | 2.5V | 00:00:00 | 00:00:00 | 00:00:00 | |
| DL1XH1-15 | 2026-09-05 00:38:31 | 49.47387 | 13.49234 | 114° | 26km/h | 33417m | 6m/s | -38.6°C | 2.2% | 7.4hPa | 2.5V | 03:28:56 | 02:35:50 | 00:00:00 | |
| DL1XH-west | 2026-09-05 00:38:26 | 49.47387 | 13.49234 | 115° | 26km/h | 33417m | 6m/s | -38.6°C | 0% | 7.4hPa | 2.5V | 03:29:13 | 02:35:50 | 00:00:00 | |
| AA1-15 | 2026-09-05 00:38:22 | 49.47403 | 13.49186 | 131° | 40km/h | 33395m | 5.8m/s | -38.7°C | 0% | 7.4hPa | 2.5V | 03:29:13 | 02:35:46 | 00:00:00 | |
| DL1XH-west | 2026-09-05 00:38:16 | 49.47437 | 13.49155 | 111° | 5km/h | 33363m | 6.6m/s | -38.9°C | 0% | 7.5hPa | 2.5V | 03:29:13 | 02:35:40 | 00:00:00 | |
| BAUMI2-15 | 2026-09-05 00:38:14 | 49.47434 | 13.49149 | 39° | 15km/h | 33352m | 4.8m/s | -38.9°C | 2.2% | 7.4hPa | 2.5V | 00:00:00 | 02:35:38 | 00:00:00 | |
| PG1ADW-2 | 2026-09-05 00:38:12 | 49.47429 | 13.49141 | 64° | 20km/h | 33342m | 5.0m/s | -38.9°C | 2.3% | 7.4hPa | 2.5V | 03:29:00 | 00:00:00 | 00:00:00 | |
| DL1XH1-15 | 2026-09-05 00:38:11 | 49.47449 | 13.49094 | 122° | 37km/h | 33309m | 5.2m/s | -39.2°C | 2.3% | 7.5hPa | 2.5V | 00:00:00 | 02:35:30 | 00:00:00 | |
| AA1-15 | 2026-09-05 00:38:11 | 49.47429 | 13.49136 | 93° | 15km/h | 33337m | 5.8m/s | -39°C | 0% | 7.5hPa | 2.6V | 03:29:13 | 02:35:35 | 00:00:00 | |
| DL1XH-west | 2026-09-05 00:38:05 | 49.47453 | 13.49082 | 113° | 35km/h | 33304m | 5.6m/s | -39.3°C | 0% | 7.5hPa | 2.6V | 03:30:04 | 02:35:29 | 00:00:00 | |
| AA1-15 | 2026-09-05 00:38:00 | 49.47454 | 13.49041 | 92° | 5km/h | 33278m | 5.9m/s | -39.3°C | 0% | 7.5hPa | 2.6V | 03:30:04 | 02:35:24 | 00:00:00 | |
| DL1XH1-15 | 2026-09-05 00:37:59 | 49.47464 | 13.49042 | 177° | 15km/h | 33256m | 4.4m/s | -39.3°C | 2.4% | 7.6hPa | 2.5V | 00:00:00 | 02:35:20 | 00:00:00 | |
| DL1XH-west | 2026-09-05 00:37:54 | 49.47471 | 13.49037 | 130° | 16km/h | 33245m | 5.9m/s | -39.2°C | 0% | 7.6hPa | 2.6V | 03:30:04 | 02:35:18 | 00:00:00 | |
| BAUMI2-15 | 2026-09-05 00:37:54 | 49.47471 | 13.49037 | 131° | 22km/h | 33246m | 5.8m/s | -39.2°C | 2.4% | 7.5hPa | 2.6V | 00:00:00 | 02:35:18 | 00:00:00 | |
| PETON7-10 | 2026-09-05 00:37:53 | 49.47473 | 13.49031 | 111° | 18km/h | 33240m | 5.8m/s | -39.1°C | 2.4% | 7.6hPa | 2.5V | 00:00:00 | 00:00:00 | 00:00:00 | |
| PG1ADW-2 | 2026-09-05 00:37:52 | 49.47474 | 13.49023 | 101° | 22km/h | 33234m | 5.2m/s | -39.1°C | 2.4% | 7.5hPa | 2.5V | 00:00:00 | 00:00:00 | 00:00:00 | |
| OE5MMP-10 | 2026-09-05 00:37:51 | 49.47475 | 13.49014 | 98° | 16km/h | 33229m | 4.7m/s | -39.1°C | 2.3% | 7.6hPa | 2.5V | 00:00:00 | 02:35:15 | 00:00:00 | |
| OE5DRO-10 | 2026-09-05 00:37:50 | 49.47476 | 13.49004 | 102° | 22km/h | 33224m | 5.3m/s | -39.0°C | 2.3% | 7.6hPa | 2.5V | 00:00:00 | 00:00:00 | 00:00:00 | |
| DL1XH1-15 | 2026-09-05 00:37:49 | 49.47484 | 13.48976 | 120° | 13km/h | 33202m | 4.9m/s | -39°C | 2.3% | 7.6hPa | 2.5V | 00:00:00 | 02:35:10 | 00:00:00 | |
| AA1-15 | 2026-09-05 00:37:49 | 49.47478 | 13.48995 | 109° | 24km/h | 33218m | 6m/s | -39.1°C | 0% | 7.6hPa | 2.6V | 03:30:04 | 02:35:13 | 00:00:00 | |
| DF8AY | 2026-09-05 00:37:47 | 49.47482 | 13.48981 | 123° | 16km/h | 33207m | 5.1m/s | 0°C | 0% | 0hPa | 2.5V | 03:30:55 | 02:35:11 | 00:00:00 | |
| EDDB2-11 | 2026-09-05 00:37:45 | 49.47485 | 13.48972 | 104° | 7km/h | 33197m | 5.7m/s | -39.1°C | 0.6% | 7.7hPa | 2.6V | 00:00:00 | 00:00:00 | 00:00:00 | |
| DL1XH-west | 2026-09-05 00:37:43 | 49.47484 | 13.48966 | 62° | 11km/h | 33184m | 5.4m/s | -39.1°C | 0% | 7.7hPa | 2.6V | 03:30:04 | 02:35:07 | 00:00:00 | |
| SP3BTT-10 | 2026-09-05 00:37:43 | 49.47484 | 13.48966 | 62° | 18km/h | 33185m | 5.4m/s | -39.0°C | 2.3% | 7.6hPa | 2.5V | 03:29:00 | 00:00:00 | 00:00:00 | |
| OE5MMP-10 | 2026-09-05 00:37:41 | 49.47482 | 13.48956 | 90° | 29km/h | 33176m | 4.2m/s | -39.1°C | 2.3% | 7.6hPa | 2.5V | 00:00:00 | 02:35:05 | 00:00:00 | |
| BAUMI2-15 | 2026-09-05 00:37:39 | 49.47485 | 13.48940 | 119° | 33km/h | 33164m | 6.6m/s | -39.1°C | 2.3% | 7.6hPa | 2.5V | 00:00:00 | 02:35:03 | 00:00:00 | |
| AA1-15 | 2026-09-05 00:37:39 | 49.47485 | 13.48941 | 118° | 26km/h | 33164m | 6.6m/s | -39.1°C | 0% | 7.7hPa | 2.5V | 03:30:04 | 02:35:03 | 00:00:00 | |
| DL1XH1-15 | 2026-09-05 00:37:38 | 49.47499 | 13.48909 | 122° | 37km/h | 33148m | 4.2m/s | -39.1°C | 0% | 7.7hPa | 2.6V | 00:00:00 | 02:35:00 | 00:00:00 | |
| DF8AY | 2026-09-05 00:37:38 | 49.47494 | 13.48921 | 126° | 35km/h | 33152m | 4.7m/s | 0°C | 0% | 0hPa | 2.6V | 03:30:55 | 02:35:01 | 00:00:00 | |
| DL1XH-west | 2026-09-05 00:37:33 | 49.47507 | 13.48873 | 89° | 31km/h | 33132m | 6.4m/s | -39.1°C | 0% | 7.7hPa | 2.5V | 03:30:04 | 02:34:57 | 00:00:00 | |
| PG1ADW-2 | 2026-09-05 00:37:32 | 49.47506 | 13.48862 | 78° | 24km/h | 33126m | 5.6m/s | -39.0°C | 2.3% | 7.7hPa | 2.5V | 00:00:00 | 02:34:56 | 00:00:00 | |
| DL1XH1-15 | 2026-09-05 00:37:31 | 49.47519 | 13.48807 | 142° | 35km/h | 33089m | 4.7m/s | -39.1°C | 0% | 7.8hPa | 2.5V | 00:00:00 | 02:34:49 | 00:00:00 | |
| AA1-15 | 2026-09-05 00:37:29 | 49.47502 | 13.48834 | 92° | 18km/h | 33112m | 4.9m/s | -39°C | 0% | 7.8hPa | 2.6V | 03:30:04 | 02:34:53 | 00:00:00 | |
| DF8AY | 2026-09-05 00:37:26 | 49.47512 | 13.48814 | 145° | 31km/h | 33094m | 5.6m/s | 0°C | 0% | 0hPa | 2.5V | 03:30:55 | 02:34:50 | 00:00:00 | |
| DL1XH-west | 2026-09-05 00:37:23 | 49.47530 | 13.48788 | 123° | 33km/h | 33079m | 5.5m/s | -39.2°C | 0% | 7.8hPa | 2.6V | 03:30:04 | 02:34:47 | 00:00:00 | |
| AA1-15 | 2026-09-05 00:37:18 | 49.47529 | 13.48733 | 66° | 24km/h | 33052m | 5.5m/s | -39.3°C | 0% | 7.8hPa | 2.6V | 03:30:04 | 02:34:42 | 00:00:00 | |
| DF8AY | 2026-09-05 00:37:16 | 49.47526 | 13.48720 | 83° | 13km/h | 33041m | 5.3m/s | 0°C | 0% | 0hPa | 2.5V | 03:30:55 | 02:34:40 | 00:00:00 | |
| DL1XH-west | 2026-09-05 00:37:13 | 49.47529 | 13.48707 | 122° | 15km/h | 33025m | 5.9m/s | -39.3°C | 0% | 7.8hPa | 2.6V | 03:30:55 | 02:34:37 | 00:00:00 | |
| AA1-15 | 2026-09-05 00:37:07 | 49.47546 | 13.48668 | 134° | 24km/h | 32993m | 6.2m/s | -39.4°C | 0% | 7.9hPa | 2.6V | 03:30:55 | 02:34:31 | 00:00:00 | |
| DL1XH1-15 | 2026-09-05 00:37:07 | 49.47557 | 13.48636 | 76° | 22km/h | 32967m | 6.4m/s | -39.3°C | 0% | 0hPa | 2.6V | 00:00:00 | 02:34:26 | 00:00:00 | |
| DF8AY | 2026-09-05 00:37:06 | 49.47554 | 13.48656 | 131° | 20km/h | 32982m | 4.5m/s | 0°C | 0% | 0hPa | 2.5V | 03:30:55 | 02:34:29 | 00:00:00 | |
| DL1XH-west | 2026-09-05 00:37:02 | 49.47558 | 13.48636 | 76° | 22km/h | 32967m | 6.4m/s | -39.3°C | 0% | 7.9hPa | 2.6V | 03:30:55 | 02:34:26 | 00:00:00 | |
| AA1-15 | 2026-09-05 00:36:56 | 49.47553 | 13.48582 | 136° | 24km/h | 32936m | 7.2m/s | -39.4°C | 0% | 8hPa | 2.6V | 03:30:55 | 02:34:20 | 00:00:00 | |
| DF8AY | 2026-09-05 00:36:55 | 49.47558 | 13.48577 | 155° | 26km/h | 32929m | 6.6m/s | 0°C | 0% | 0hPa | 2.5V | 03:30:55 | 02:34:19 | 00:00:00 | |
| OE3MUC-15 | 2026-09-05 00:36:55 | 49.47558 | 13.48577 | 155° | 24km/h | 32929m | 6.5m/s | -39.4°C | 2.3% | 7.9hPa | 2.5V | 00:00:00 | 00:00:00 | 00:00:00 | |
| DL1XH1-15 | 2026-09-05 00:36:54 | 49.47575 | 13.48566 | 149° | 18km/h | 32914m | 5m/s | -39.5°C | 0% | 0hPa | 2.5V | 00:00:00 | 02:34:16 | 00:00:00 | |
| DL1XH-west | 2026-09-05 00:36:52 | 49.47576 | 13.48566 | 149° | 20km/h | 32914m | 5m/s | -39.5°C | 0% | 8hPa | 2.5V | 03:30:55 | 02:34:16 | 00:00:00 | |
| OE5WHR-10 | 2026-09-05 00:36:52 | 49.47575 | 13.48566 | 150° | 16km/h | 32914m | 4.9m/s | -39.4°C | 2.3% | 7.9hPa | 2.5V | 00:00:00 | 00:00:00 | 00:00:00 | |
| OE5MMP-10 | 2026-09-05 00:36:51 | 49.47579 | 13.48562 | 119° | 20km/h | 32909m | 5.6m/s | -39.5°C | 2.3% | 7.9hPa | 2.5V | 00:00:00 | 02:34:15 | 00:00:00 | |
| BAUMI2-15 | 2026-09-05 00:36:49 | 49.47577 | 13.48550 | 63° | 22km/h | 32898m | 5.4m/s | -39.5°C | 2.3% | 7.9hPa | 2.5V | 03:30:00 | 02:34:13 | 00:00:00 | |
| DL1XH1-15 | 2026-09-05 00:36:48 | 49.47573 | 13.48499 | 123° | 22km/h | 32860m | 5.8m/s | -39.5°C | 0% | 0hPa | 2.5V | 00:00:00 | 02:34:06 | 00:00:00 | |
| AA1-15 | 2026-09-05 00:36:45 | 49.47568 | 13.48520 | 86° | 18km/h | 32876m | 5.2m/s | -39.5°C | 0% | 8hPa | 2.6V | 03:30:55 | 02:34:09 | 00:00:00 | |
| BAUMI2-15 | 2026-09-05 00:36:44 | 49.47569 | 13.48513 | 104° | 22km/h | 32871m | 5.0m/s | -39.5°C | 2.3% | 8.0hPa | 2.5V | 00:00:00 | 02:34:08 | 00:00:00 | |
| EDDB2-11 | 2026-09-05 00:36:43 | 49.47570 | 13.48506 | 117° | 20km/h | 32866m | 5.3m/s | -39.5°C | 0.6% | 8.0hPa | 2.5V | 00:00:00 | 00:00:00 | 00:00:00 | |
| OE5MMP-10 | 2026-09-05 00:36:41 | 49.47576 | 13.48491 | 125° | 11km/h | 32854m | 6.0m/s | -39.5°C | 2.3% | 8.0hPa | 2.5V | 03:30:00 | 02:34:05 | 00:00:00 | |
| DL1XH-west | 2026-09-05 00:36:41 | 49.47576 | 13.48491 | 125° | 22km/h | 32854m | 6.1m/s | -39.5°C | 0% | 8.1hPa | 2.6V | 03:30:55 | 02:34:05 | 00:00:00 | |
| BAUMI2-15 | 2026-09-05 00:36:39 | 49.47582 | 13.48478 | 121° | 20km/h | 32843m | 5.1m/s | -39.6°C | 2.3% | 8.0hPa | 2.5V | 00:00:00 | 02:34:03 | 00:00:00 | |
| PETON7-10 | 2026-09-05 00:36:38 | 49.47584 | 13.48472 | 117° | 15km/h | 32838m | 5.1m/s | -39.6°C | 2.3% | 8.0hPa | 2.5V | 03:30:00 | 02:34:02 | 00:00:00 | |
| DL1XH1-15 | 2026-09-05 00:36:36 | 49.47591 | 13.48464 | 93° | 9km/h | 32801m | 4.6m/s | 0°C | 0% | 0hPa | 2.5V | 00:00:00 | 02:33:55 | 00:00:00 | |
| AA1-15 | 2026-09-05 00:36:34 | 49.47588 | 13.48466 | 214° | 5km/h | 32816m | 6m/s | -39.7°C | 0% | 8.1hPa | 2.6V | 03:30:55 | 02:33:58 | 00:00:00 | |
| DF8AY | 2026-09-05 00:36:34 | 49.47591 | 13.48467 | 135° | 4km/h | 32806m | 4.1m/s | 0°C | 0% | 0hPa | 2.5V | 03:30:55 | 02:33:56 | 00:00:00 | |
| DL1XH-west | 2026-09-05 00:36:30 | 49.47591 | 13.48459 | 82° | 18km/h | 32796m | 5.8m/s | -39.8°C | 0% | 8.1hPa | 2.6V | 03:30:55 | 02:33:54 | 00:00:00 | |
| AA1-15 | 2026-09-05 00:36:24 | 49.47587 | 13.48400 | 125° | 13km/h | 32765m | 6.2m/s | -40.2°C | 0% | 8.2hPa | 2.6V | 03:33:28 | 02:33:48 | 00:00:00 | |
| DF8AY | 2026-09-05 00:36:23 | 49.47589 | 13.48398 | 188° | 11km/h | 32759m | 6.9m/s | 0°C | 0% | 0hPa | 2.5V | 18:12:15 | 02:33:47 | 00:00:00 | |
| DL1XH-west | 2026-09-05 00:36:20 | 49.47598 | 13.48415 | 249° | 20km/h | 32743m | 3.5m/s | -40.4°C | 0% | 8.2hPa | 2.5V | 03:31:46 | 02:33:44 | 00:00:00 | |
| AA1-15 | 2026-09-05 00:36:13 | 49.47593 | 13.48382 | 96° | 33km/h | 32706m | 5.4m/s | -40.7°C | 0% | 8.2hPa | 2.6V | 03:33:28 | 02:33:37 | 00:00:00 | |
| DL1XH-west | 2026-09-05 00:36:10 | 49.47599 | 13.48354 | 129° | 15km/h | 32692m | 4.6m/s | -40.8°C | 0% | 8.2hPa | 2.5V | 03:31:46 | 02:33:34 | 00:00:00 | |
| AA1-15 | 2026-09-05 00:36:03 | 49.47593 | 13.48377 | 257° | 4km/h | 32655m | 5m/s | -41°C | 0% | 8.3hPa | 2.6V | 03:33:28 | 02:33:27 | 00:00:00 | |
| DL1XH-west | 2026-09-05 00:36:00 | 49.47601 | 13.48365 | 122° | 29km/h | 32638m | 5.5m/s | -41°C | 0% | 8.3hPa | 2.5V | 03:31:46 | 02:33:24 | 00:00:00 | |
| DJ2DS-15 | 2026-09-05 00:36:00 | 49.47601 | 13.48365 | 123° | 29km/h | 32638m | 5.4m/s | 0°C | 0% | 0hPa | 2.6V | 00:00:00 | 02:33:24 | 00:00:00 | |
| DM0DOS-11 | 2026-09-05 00:35:56 | 49.47598 | 13.48299 | 21° | 13km/h | 32601m | 5.9m/s | 0°C | 0% | 0hPa | 2.6V | 00:00:00 | 02:33:17 | 00:00:00 | |
| AA1-15 | 2026-09-05 00:35:53 | 49.47598 | 13.48299 | 21° | 13km/h | 32601m | 5.9m/s | -41.3°C | 0% | 8.4hPa | 2.6V | 03:33:28 | 02:33:17 | 00:00:00 | |
| DF8AY | 2026-09-05 00:35:50 | 49.47594 | 13.48299 | 163° | 4km/h | 32584m | 4.4m/s | 0°C | 0% | 0hPa | 2.5V | 18:12:15 | 02:33:14 | 00:00:00 | |
| DL1XH-west | 2026-09-05 00:35:49 | 49.47595 | 13.48297 | 129° | 9km/h | 32580m | 3.9m/s | -41.4°C | 0% | 8.4hPa | 2.5V | 03:31:46 | 02:33:13 | 00:00:00 | |
| SP3BTT-10 | 2026-09-05 00:35:47 | 49.47598 | 13.48285 | 95° | 33km/h | 32571m | 6.1m/s | -41.3°C | 2.5% | 8.3hPa | 2.5V | 00:00:00 | 00:00:00 | 00:00:00 | |
| DM0DOS-11 | 2026-09-05 00:35:46 | 49.47590 | 13.48230 | 73° | 42km/h | 32547m | 4.1m/s | 0°C | 0% | 0hPa | 2.5V | 00:00:00 | 02:33:07 | 00:00:00 | |
| AA1-15 | 2026-09-05 00:35:43 | 49.47590 | 13.48230 | 73° | 42km/h | 32547m | 4.1m/s | -41.4°C | 0% | 8.4hPa | 2.5V | 03:33:28 | 02:33:07 | 00:00:00 | |
| DL1XH-west | 2026-09-05 00:35:39 | 49.47585 | 13.48186 | 98° | 15km/h | 32526m | 5.8m/s | -41.5°C | 0% | 8.4hPa | 2.5V | 03:31:46 | 02:33:03 | 00:00:00 | |
| DF8AY | 2026-09-05 00:35:34 | 49.47579 | 13.48166 | 46° | 26km/h | 32500m | 5.8m/s | 0°C | 0% | 0hPa | 2.5V | 18:12:15 | 02:32:58 | 00:00:00 | |
| DL1XH-west | 2026-09-05 00:35:29 | 49.47560 | 13.48100 | 89° | 42km/h | 32471m | 6.3m/s | -41.5°C | 0% | 8.5hPa | 2.5V | 03:32:37 | 02:32:53 | 00:00:00 | |
| AA1-15 | 2026-09-05 00:35:25 | 49.47567 | 13.48037 | 97° | 38km/h | 32449m | 5.8m/s | -41.4°C | 0% | 8.6hPa | 2.6V | 03:33:28 | 02:32:49 | 00:00:00 | |
| DF8AY | 2026-09-05 00:35:21 | 49.47558 | 13.47982 | 57° | 24km/h | 32420m | 6.5m/s | 0°C | 0% | 0hPa | 2.6V | 18:12:15 | 02:32:44 | 00:00:00 | |
| DL1XH-west | 2026-09-05 00:35:18 | 49.47552 | 13.47966 | 62° | 26km/h | 32409m | 4.9m/s | -41.3°C | 0% | 8.6hPa | 2.5V | 03:32:37 | 02:32:42 | 00:00:00 | |
| AA1-15 | 2026-09-05 00:35:14 | 49.47540 | 13.47913 | 81° | 46km/h | 32386m | 5m/s | -41.4°C | 0% | 8.6hPa | 2.6V | 03:33:28 | 02:32:38 | 00:00:00 | |
| DF8AY | 2026-09-05 00:35:09 | 49.47546 | 13.47838 | 114° | 26km/h | 32358m | 5.2m/s | 0°C | 0% | 0hPa | 2.6V | 18:12:15 | 02:32:33 | 00:00:00 | |
| DL1XH-west | 2026-09-05 00:35:08 | 49.47548 | 13.47830 | 106° | 20km/h | 32354m | 4.6m/s | -41.4°C | 0% | 8.7hPa | 2.5V | 03:32:37 | 02:32:32 | 00:00:00 | |
| DF8AY | 2026-09-05 00:34:58 | 49.47527 | 13.47720 | 129° | 31km/h | 32297m | 6.7m/s | 0°C | 0% | 0hPa | 2.6V | 18:12:15 | 02:32:22 | 00:00:00 | |
| DL1XH-west | 2026-09-05 00:34:52 | 49.47542 | 13.47671 | 54° | 33km/h | 32263m | 6.8m/s | -41.5°C | 0% | 8.8hPa | 2.6V | 03:32:37 | 02:32:16 | 00:00:00 | |
| AA1-15 | 2026-09-05 00:34:47 | 49.47515 | 13.47618 | 81° | 29km/h | 32235m | 5.3m/s | -41.6°C | 0% | 8.8hPa | 2.5V | 03:33:28 | 02:32:11 | 00:00:00 | |
| SONCRA | 2026-09-05 00:34:45 | 49.47518 | 13.47594 | 113° | 37km/h | 32224m | 6.7m/s | -41.6°C | 0.7% | 8.9hPa | 2.5V | 00:00:00 | 00:00:00 | 00:00:00 | |
| DL1XH-west | 2026-09-05 00:34:41 | 49.47541 | 13.47531 | 118° | 46km/h | 32199m | 4.2m/s | -41.5°C | 0% | 8.9hPa | 2.5V | 03:34:19 | 02:32:05 | 00:00:00 | |
| DL1XH-west | 2026-09-05 00:34:30 | 49.47541 | 13.47414 | 98° | 53km/h | 32136m | 5.1m/s | -41.4°C | 0% | 9hPa | 2.5V | 03:34:19 | 02:31:54 | 00:00:00 | |
| AA1-15 | 2026-09-05 00:34:28 | 49.47552 | 13.47362 | 122° | 38km/h | 32120m | 6.3m/s | -41.4°C | 0% | 9hPa | 2.6V | 03:33:28 | 02:31:51 | 00:00:00 | |
| AA1-15 | 2026-09-05 00:34:17 | 49.47560 | 13.47275 | 91° | 33km/h | 32056m | 5.9m/s | -41.7°C | 0% | 9.1hPa | 2.5V | 03:33:28 | 02:31:40 | 00:00:00 | |
| DL1XH-west | 2026-09-05 00:34:08 | 49.47576 | 13.47189 | 109° | 27km/h | 32010m | 5m/s | -42°C | 0% | 9.2hPa | 2.5V | 03:34:19 | 02:31:32 | 00:00:00 | |
| AA1-15 | 2026-09-05 00:34:06 | 49.47582 | 13.47166 | 114° | 13km/h | 31993m | 6.9m/s | -42.2°C | 0% | 9.2hPa | 2.6V | 03:33:28 | 02:31:29 | 00:00:00 | |
| AA1-15 | 2026-09-05 00:33:54 | 49.47572 | 13.47066 | 110° | 16km/h | 31929m | 6.2m/s | 0°C | 0% | 9.3hPa | 2.5V | 03:33:28 | 02:31:18 | 00:00:00 | |
| DL1XH-west | 2026-09-05 00:33:52 | 49.47575 | 13.47059 | 141° | 9km/h | 31918m | 5.5m/s | -42.5°C | 0% | 9.3hPa | 2.6V | 03:34:19 | 02:31:16 | 00:00:00 | |
| DL6DJ-15 | 2026-09-05 00:33:49 | 49.47577 | 13.47048 | 78° | 15km/h | 31899m | 6.1m/s | -42.4°C | 0.7% | 9.3hPa | 2.6V | 00:00:00 | 00:00:00 | 00:00:00 | |
| SONDE2-11 | 2026-09-05 00:33:47 | 49.47573 | 13.47032 | 61° | 27km/h | 31888m | 5.8m/s | -42.3°C | 0.7% | 9.3hPa | 2.6V | 00:00:00 | 00:00:00 | 00:00:00 | |
| AA1-15 | 2026-09-05 00:33:41 | 49.47552 | 13.46987 | 67° | 15km/h | 31851m | 5.6m/s | 0°C | 0% | 9.4hPa | 2.6V | 18:12:15 | 02:31:05 | 00:00:00 | |
| DL1XH-west | 2026-09-05 00:33:39 | 49.47550 | 13.46974 | 91° | 20km/h | 31839m | 7m/s | -42.2°C | 0% | 9.4hPa | 2.5V | 03:34:19 | 02:31:03 | 00:00:00 | |
| DL1XH-west | 2026-09-05 00:33:28 | 49.47536 | 13.46916 | 52° | 26km/h | 31771m | 5.9m/s | -42.1°C | 0% | 9.5hPa | 2.5V | 03:34:19 | 02:30:52 | 00:00:00 | |
| AA1-15 | 2026-09-05 00:33:22 | 49.47529 | 13.46884 | 129° | 9km/h | 31735m | 5.7m/s | 0°C | 0% | 9.5hPa | 2.5V | 18:12:15 | 02:30:46 | 00:00:00 | |
| DL1XH-west | 2026-09-05 00:33:18 | 49.47531 | 13.46864 | 73° | 18km/h | 31710m | 5.9m/s | -41.9°C | 0% | 9.6hPa | 2.5V | 03:34:19 | 02:30:42 | 00:00:00 | |
| AA1-15 | 2026-09-05 00:33:09 | 49.47511 | 13.46831 | 83° | 16km/h | 31656m | 6.2m/s | 0°C | 0% | 9.6hPa | 2.6V | 18:12:15 | 02:30:33 | 00:00:00 | |
| DL1XH-west | 2026-09-05 00:33:07 | 49.47510 | 13.46809 | 78° | 7km/h | 31633m | 6.5m/s | 0°C | 0% | 9.7hPa | 2.5V | 03:34:19 | 02:30:29 | 00:00:00 | |
| AA1-15 | 2026-09-05 00:32:54 | 49.47494 | 13.46789 | 184° | 9km/h | 31567m | 5.8m/s | 0°C | 0% | 0hPa | 2.5V | 18:12:15 | 02:30:18 | 00:00:00 | |
| DL1XH-west | 2026-09-05 00:32:44 | 49.47504 | 13.46771 | 308° | 9km/h | 31507m | 4.8m/s | 0°C | 0% | 0hPa | 2.5V | 03:35:10 | 02:30:08 | 00:00:00 | |
| AA1-15 | 2026-09-05 00:32:43 | 49.47503 | 13.46773 | 277° | 4km/h | 31503m | 4.2m/s | 0°C | 0% | 0hPa | 2.5V | 18:12:15 | 02:30:07 | 00:00:00 | |
| AA1-15 | 2026-09-05 00:32:33 | 49.47547 | 13.46732 | 226° | 15km/h | 31443m | 5.9m/s | 0°C | 0% | 0hPa | 2.5V | 18:12:15 | 02:29:57 | 00:00:00 | |
| DL1XH-west | 2026-09-05 00:32:22 | 49.47566 | 13.46692 | 150° | 18km/h | 31377m | 5.7m/s | 0°C | 0% | 0hPa | 2.5V | 03:35:10 | 02:29:46 | 00:00:00 | |
| AA1-15 | 2026-09-05 00:32:21 | 49.47571 | 13.46689 | 165° | 20km/h | 31371m | 6.3m/s | 0°C | 0% | 0hPa | 2.5V | 18:12:15 | 02:29:45 | 00:00:00 | |
| DL1XH-west | 2026-09-05 00:32:12 | 49.47597 | 13.46682 | 75° | 13km/h | 31319m | 4.6m/s | 0°C | 0% | 0hPa | 2.5V | 03:35:10 | 02:29:36 | 00:00:00 | |
| AA1-15 | 2026-09-05 00:32:11 | 49.47597 | 13.46676 | 95° | 20km/h | 31314m | 5m/s | 0°C | 0% | 0hPa | 2.5V | 18:12:15 | 02:29:35 | 00:00:00 | |
| AA1-15 | 2026-09-05 00:31:54 | 49.47633 | 13.46562 | 128° | 29km/h | 31213m | 6.4m/s | 0°C | 0% | 0hPa | 2.5V | 18:12:15 | 02:29:18 | 00:00:00 | |
| DL6DJ-15 | 2026-09-05 00:31:45 | 49.47650 | 13.46516 | 110° | 22km/h | 31158m | 6.3m/s | -42.5°C | 0.7% | 10.4hPa | 2.6V | 00:00:00 | 00:00:00 | 00:00:00 | |
| AA1-15 | 2026-09-05 00:31:42 | 49.47657 | 13.46494 | 116° | 16km/h | 31141m | 5.7m/s | 0°C | 0% | 0hPa | 2.6V | 18:12:15 | 02:29:06 | 00:00:00 | |
| AA1-15 | 2026-09-05 00:31:28 | 49.47661 | 13.46415 | 109° | 7km/h | 31057m | 5.3m/s | 0°C | 0% | 0hPa | 2.5V | 18:12:15 | 02:28:52 | 00:00:00 | |
| AA1-15 | 2026-09-05 00:31:18 | 49.47656 | 13.46390 | 296° | 13km/h | 30999m | 5.3m/s | 0°C | 0% | 0hPa | 2.5V | 18:12:15 | 02:28:42 | 00:00:00 | |
| AA1-15 | 2026-09-05 00:31:05 | 49.47648 | 13.46381 | 231° | 20km/h | 30925m | 6m/s | 0°C | 0% | 0hPa | 2.5V | 18:12:15 | 02:28:29 | 00:00:00 | |
| AA1-15 | 2026-09-05 00:30:53 | 49.47678 | 13.46375 | 200° | 27km/h | 30852m | 5.8m/s | 0°C | 0% | 0hPa | 2.6V | 18:12:15 | 02:28:16 | 00:00:00 | |
| EDDB2-12 | 2026-09-05 00:30:53 | 49.47678 | 13.46375 | 199° | 26km/h | 30852m | 5.8m/s | -43.8°C | 0.8% | 10.9hPa | 2.5V | 00:00:00 | 00:00:00 | 00:00:00 | |
| AA1-15 | 2026-09-05 00:30:39 | 49.47728 | 13.46343 | 164° | 26km/h | 30776m | 5.9m/s | 0°C | 0% | 0hPa | 2.5V | 18:12:15 | 02:28:03 | 00:00:00 | |
| PETON7-10 | 2026-09-05 00:30:37 | 49.47740 | 13.46334 | 142° | 26km/h | 30764m | 5.9m/s | -44.1°C | 2.9% | 11.0hPa | 2.5V | 03:36:00 | 02:28:01 | 00:00:00 | |
| SONCRA | 2026-09-05 00:30:36 | 49.47744 | 13.46327 | 130° | 24km/h | 30759m | 5.6m/s | -44.1°C | 0.8% | 11.1hPa | 2.5V | 00:00:00 | 00:00:00 | 00:00:00 | |
| AA1-15 | 2026-09-05 00:30:17 | 49.47815 | 13.46234 | 165° | 29km/h | 30646m | 6.3m/s | 0°C | 0% | 0hPa | 2.5V | 18:12:15 | 02:27:40 | 00:00:00 | |
| BAUMI2-15 | 2026-09-05 00:30:14 | 49.47829 | 13.46221 | 133° | 29km/h | 30635m | 5.6m/s | -44.0°C | 2.9% | 11.2hPa | 2.5V | 03:37:00 | 02:27:38 | 00:00:00 | |
| DL6DJ-15 | 2026-09-05 00:30:12 | 49.47838 | 13.46198 | 105° | 31km/h | 30624m | 5.5m/s | -44.0°C | 0.8% | 11.3hPa | 2.5V | 00:00:00 | 00:00:00 | 00:00:00 | |
| PG1ADW-2 | 2026-09-05 00:30:11 | 49.47839 | 13.46187 | 91° | 16km/h | 30618m | 6.2m/s | -44.0°C | 2.9% | 11.3hPa | 2.5V | 00:00:00 | 02:27:35 | 00:00:00 | |
| OE3MUC-15 | 2026-09-05 00:30:10 | 49.47838 | 13.46179 | 68° | 9km/h | 30612m | 6.1m/s | -44.0°C | 2.9% | 11.3hPa | 2.5V | 00:00:00 | 00:00:00 | 00:00:00 | |
| BAUMI2-15 | 2026-09-05 00:30:09 | 49.47836 | 13.46175 | 34° | 15km/h | 30606m | 5.4m/s | -44.1°C | 2.9% | 11.3hPa | 2.5V | 00:00:00 | 02:27:33 | 00:00:00 | |
| PETON7-10 | 2026-09-05 00:30:07 | 49.47833 | 13.46176 | 277° | 16km/h | 30596m | 5.3m/s | -44.1°C | 2.9% | 11.3hPa | 2.5V | 00:00:00 | 00:00:00 | 00:00:00 | |
| SONCRA | 2026-09-05 00:30:05 | 49.47837 | 13.46183 | 204° | 16km/h | 30584m | 6.1m/s | -44.1°C | 0.8% | 11.3hPa | 2.5V | 00:00:00 | 00:00:00 | 00:00:00 | |
| AA1-15 | 2026-09-05 00:29:44 | 49.47872 | 13.46109 | 173° | 4km/h | 30464m | 6.5m/s | 0°C | 0% | 0hPa | 2.5V | 18:12:15 | 02:27:08 | 00:00:00 | |
| AA1-15 | 2026-09-05 00:29:28 | 49.47882 | 13.46073 | 131° | 4km/h | 30373m | 5.1m/s | 0°C | 0% | 0hPa | 2.5V | 18:12:15 | 02:26:52 | 00:00:00 | |
| AA1-15 | 2026-09-05 00:29:18 | 49.47871 | 13.46065 | 73° | 9km/h | 30317m | 6.3m/s | 0°C | 0% | 0hPa | 2.6V | 18:12:15 | 02:26:42 | 00:00:00 | |
| BAUMI2-15 | 2026-09-05 00:29:15 | 49.47877 | 13.46058 | 163° | 9km/h | 30300m | 4.9m/s | -44.8°C | 3.0% | 11.8hPa | 2.5V | 00:00:00 | 02:26:39 | 00:00:00 | |
| PG1ADW-2 | 2026-09-05 00:29:11 | 49.47882 | 13.46053 | 18° | 7km/h | 30277m | 5.2m/s | -44.8°C | 3.1% | 11.9hPa | 2.5V | 00:00:00 | 00:00:00 | 00:00:00 | |
| DO3MHA-11 | 2026-09-05 00:29:10 | 49.47881 | 13.46053 | 360° | 7km/h | 30272m | 5.0m/s | -44.8°C | 3.1% | 11.9hPa | 2.5V | 00:00:00 | 02:26:34 | 00:00:00 | |
| BAUMI2-15 | 2026-09-05 00:29:09 | 49.47879 | 13.46053 | 349° | 5km/h | 30267m | 5.2m/s | -44.8°C | 3.1% | 11.9hPa | 2.5V | 03:38:00 | 02:26:33 | 00:00:00 | |
| SONDE2-11 | 2026-09-05 00:29:08 | 49.47878 | 13.46054 | 328° | 4km/h | 30261m | 6.3m/s | -44.8°C | 0.8% | 11.9hPa | 2.5V | 00:00:00 | 00:00:00 | 00:00:00 | |
| PETON7-10 | 2026-09-05 00:29:07 | 49.47877 | 13.46055 | 278° | 7km/h | 30255m | 6.0m/s | -44.7°C | 3.0% | 11.9hPa | 2.5V | 00:00:00 | 02:26:31 | 00:00:00 | |
| BAUMI2-15 | 2026-09-05 00:29:04 | 49.47880 | 13.46055 | 135° | 9km/h | 30239m | 5.5m/s | -44.7°C | 3.1% | 11.9hPa | 2.5V | 00:00:00 | 02:26:28 | 00:00:00 | |
| SONCRA | 2026-09-05 00:29:03 | 49.47881 | 13.46053 | 107° | 7km/h | 30233m | 6.6m/s | -44.7°C | -1.0% | 12.0hPa | 2.5V | 00:00:00 | 00:00:00 | 00:00:00 | |
| EDDB2-11 | 2026-09-05 00:28:57 | 49.47884 | 13.46040 | 234° | 5km/h | 30198m | 4.8m/s | -44.6°C | 0.8% | 12.0hPa | 2.5V | 00:00:00 | 00:00:00 | 00:00:00 | |
| EDDB2-12 | 2026-09-05 00:28:48 | 49.47880 | 13.46049 | 117° | 7km/h | 30148m | 5.1m/s | -44.6°C | 0.8% | 12.1hPa | 2.5V | 00:00:00 | 00:00:00 | 00:00:00 | |
| OE5DRO-10 | 2026-09-05 00:28:45 | 49.47880 | 13.46040 | 46° | 11km/h | 30131m | 4.9m/s | -44.6°C | 3.0% | 12.1hPa | 2.5V | 00:00:00 | 00:00:00 | 00:00:00 | |
| BAUMI2-15 | 2026-09-05 00:28:44 | 49.47879 | 13.46038 | 9° | 9km/h | 30126m | 4.7m/s | -44.6°C | 3.0% | 12.1hPa | 2.5V | 00:00:00 | 02:26:08 | 00:00:00 | |
| OE5MMP-10 | 2026-09-05 00:28:41 | 49.47877 | 13.46047 | 265° | 15km/h | 30108m | 6.0m/s | -44.6°C | 3.0% | 12.2hPa | 2.5V | 03:38:00 | 02:26:05 | 00:00:00 | |
| SP3BTT-10 | 2026-09-05 00:28:40 | 49.47877 | 13.46053 | 262° | 15km/h | 30103m | 4.9m/s | -44.6°C | 3.0% | 12.2hPa | 2.5V | 03:38:00 | 00:00:00 | 00:00:00 | |
| BAUMI2-15 | 2026-09-05 00:28:39 | 49.47878 | 13.46060 | 268° | 16km/h | 30098m | 4.1m/s | -44.6°C | 3.0% | 12.2hPa | 2.5V | 00:00:00 | 02:26:03 | 00:00:00 | |
| PETON7-10 | 2026-09-05 00:28:37 | 49.47876 | 13.46071 | 310° | 13km/h | 30088m | 6.3m/s | -44.5°C | 3.0% | 12.2hPa | 2.5V | 03:38:00 | 00:00:00 | 00:00:00 | |
| SONCRA | 2026-09-05 00:28:32 | 49.47863 | 13.46062 | 83° | 11km/h | 30058m | 5.3m/s | 0°C | -1.0% | -1.0hPa | 2.5V | 00:00:00 | 00:00:00 | 00:00:00 | |
| OE5MMP-10 | 2026-09-05 00:28:31 | 49.47863 | 13.46058 | 103° | 11km/h | 30054m | 4.3m/s | -44.5°C | 3.0% | 12.3hPa | 2.5V | 00:00:00 | 02:25:55 | 00:00:00 | |
| OE5DRO-10 | 2026-09-05 00:28:26 | 49.47861 | 13.46062 | 299° | 9km/h | 30027m | 4.8m/s | -44.5°C | 3.0% | 12.3hPa | 2.5V | 00:00:00 | 00:00:00 | 00:00:00 | |
| PETON7-10 | 2026-09-05 00:28:22 | 49.47858 | 13.46086 | 258° | 7km/h | 30006m | 5.8m/s | -44.6°C | 3.0% | 12.4hPa | 2.5V | 00:00:00 | 02:25:46 | 00:00:00 | |
| OE5MMP-10 | 2026-09-05 00:28:21 | 49.47859 | 13.46090 | 242° | 9km/h | 30001m | 5.1m/s | -44.6°C | 3.0% | 12.4hPa | 2.5V | 00:00:00 | 02:25:45 | 00:00:00 | |
| DO3MHA-11 | 2026-09-05 00:28:19 | 49.47860 | 13.46095 | 291° | 7km/h | 29991m | 4.9m/s | -44.7°C | 3.0% | 12.4hPa | 2.5V | 00:00:00 | 02:25:43 | 00:00:00 | |
| EDDB2-12 | 2026-09-05 00:28:17 | 49.47857 | 13.46095 | 7° | 11km/h | 29980m | 5.8m/s | -44.7°C | 0.8% | 12.5hPa | 2.6V | 00:00:00 | 00:00:00 | 00:00:00 | |
| OE5MMP-10 | 2026-09-05 00:28:11 | 49.47845 | 13.46095 | 221° | 7km/h | 29948m | 4.9m/s | -44.7°C | 3.0% | 12.5hPa | 2.6V | 00:00:00 | 02:25:35 | 00:00:00 | |
| DO3MHA-11 | 2026-09-05 00:28:09 | 49.47846 | 13.46097 | 241° | 11km/h | 29938m | 5.7m/s | -44.7°C | 3.0% | 12.5hPa | 2.6V | 03:39:00 | 02:25:33 | 00:00:00 | |
| DL6DJ-15 | 2026-09-05 00:28:08 | 49.47845 | 13.46097 | 24° | 4km/h | 29927m | 4.9m/s | -44.8°C | 0.8% | 12.6hPa | 2.6V | 00:00:00 | 00:00:00 | 00:00:00 | |
| PETON7-10 | 2026-09-05 00:28:07 | 49.47845 | 13.46097 | 25° | 13km/h | 29927m | 4.9m/s | -44.7°C | 3.0% | 12.5hPa | 2.6V | 00:00:00 | 00:00:00 | 00:00:00 | |
| SONDE2-11 | 2026-09-05 00:28:06 | 49.47844 | 13.46096 | 42° | 5km/h | 29922m | 5.1m/s | -44.8°C | 0.8% | 12.6hPa | 2.6V | 00:00:00 | 00:00:00 | 00:00:00 | |
| EDDB2-11 | 2026-09-05 00:27:55 | 49.47820 | 13.46049 | 85° | 5km/h | 29861m | 6.2m/s | -44.8°C | 0.8% | 12.7hPa | 2.6V | 00:00:00 | 00:00:00 | 00:00:00 | |
| EDDB2-12 | 2026-09-05 00:27:46 | 49.47811 | 13.46020 | 49° | 15km/h | 29813m | 5.9m/s | -45.0°C | 0.8% | 12.8hPa | 2.6V | 00:00:00 | 00:00:00 | 00:00:00 | |
| OE5MMP-10 | 2026-09-05 00:27:41 | 49.47801 | 13.46002 | 30° | 15km/h | 29788m | 5.6m/s | -45.0°C | 3.1% | 12.8hPa | 2.6V | 00:00:00 | 02:25:05 | 00:00:00 | |
| DO3MHA-11 | 2026-09-05 00:27:39 | 49.47794 | 13.45995 | 37° | 15km/h | 29778m | 4.2m/s | -45.0°C | 3.1% | 12.8hPa | 2.6V | 00:00:00 | 02:25:03 | 00:00:00 | |
| PETON7-10 | 2026-09-05 00:27:37 | 49.47789 | 13.45987 | 72° | 13km/h | 29768m | 6.1m/s | -45.0°C | 3.1% | 12.8hPa | 2.6V | 03:39:00 | 02:25:01 | 00:00:00 | |
| SONDE2-11 | 2026-09-05 00:27:35 | 49.47789 | 13.45970 | 95° | 13km/h | 29753m | 4.0m/s | -45.0°C | 0.8% | 12.9hPa | 2.6V | 00:00:00 | 00:00:00 | 00:00:00 | |
| PG1ADW-2 | 2026-09-05 00:27:31 | 49.47785 | 13.45962 | 2° | 11km/h | 29738m | 6.2m/s | -45.0°C | 3.0% | 12.9hPa | 2.6V | 00:00:00 | 02:24:55 | 00:00:00 | |
| DO3MHA-11 | 2026-09-05 00:27:29 | 49.47776 | 13.45965 | 343° | 11km/h | 29727m | 4.1m/s | -45.0°C | 3.1% | 12.9hPa | 2.6V | 03:39:00 | 02:24:53 | 00:00:00 | |
| OE5DRO-10 | 2026-09-05 00:27:28 | 49.47766 | 13.45970 | 359° | 7km/h | 29713m | 6.1m/s | -45.0°C | 3.0% | 12.9hPa | 2.6V | 00:00:00 | 00:00:00 | 00:00:00 | |
| EDDB2-11 | 2026-09-05 00:27:24 | 49.47768 | 13.45967 | 136° | 11km/h | 29702m | 4.8m/s | -45.0°C | 0.8% | 13.0hPa | 2.6V | 00:00:00 | 00:00:00 | 00:00:00 | |
| PETON7-10 | 2026-09-05 00:27:22 | 49.47771 | 13.45960 | 115° | 7km/h | 29691m | 5.8m/s | -45.0°C | 3.0% | 13.0hPa | 2.6V | 00:00:00 | 00:00:00 | 00:00:00 | |
| OE3MUC-15 | 2026-09-05 00:27:21 | 49.47772 | 13.45956 | 84° | 9km/h | 29686m | 5.3m/s | -45.0°C | 3.1% | 13.0hPa | 2.6V | 00:00:00 | 00:00:00 | 00:00:00 | |
| DO3MHA-11 | 2026-09-05 00:27:19 | 49.47769 | 13.45951 | 28° | 7km/h | 29676m | 4.7m/s | -45.0°C | 3.0% | 13.0hPa | 2.5V | 00:00:00 | 02:24:43 | 00:00:00 | |
| OE3MUC-15 | 2026-09-05 00:27:17 | 49.47765 | 13.45949 | 10° | 7km/h | 29666m | 5.7m/s | -45.0°C | 3.1% | 13.0hPa | 2.6V | 00:00:00 | 00:00:00 | 00:00:00 | |
| EDDB2-12 | 2026-09-05 00:27:15 | 49.47762 | 13.45949 | 356° | 4km/h | 29655m | 4.9m/s | -45.2°C | 0.8% | 13.1hPa | 2.6V | 00:00:00 | 00:00:00 | 00:00:00 | |
| OE3MUC-15 | 2026-09-05 00:27:13 | 49.47759 | 13.45949 | 342° | 7km/h | 29645m | 4.3m/s | -45.1°C | 3.0% | 13.1hPa | 2.6V | 00:00:00 | 00:00:00 | 00:00:00 | |
| PG1ADW-2 | 2026-09-05 00:27:11 | 49.47755 | 13.45951 | 341° | 11km/h | 29634m | 5.9m/s | -45.1°C | 3.0% | 13.1hPa | 2.6V | 00:00:00 | 00:00:00 | 00:00:00 | |
| DO3MHA-11 | 2026-09-05 00:27:09 | 49.47751 | 13.45954 | 339° | 9km/h | 29624m | 4.6m/s | -45.1°C | 3.0% | 13.1hPa | 2.6V | 00:00:00 | 02:24:33 | 00:00:00 | |
| PETON7-10 | 2026-09-05 00:27:07 | 49.47751 | 13.45954 | 157° | 11km/h | 29613m | 6.5m/s | -45.1°C | 3.0% | 13.1hPa | 2.6V | 00:00:00 | 00:00:00 | 00:00:00 | |
| DL6DJ-15 | 2026-09-05 00:27:06 | 49.47755 | 13.45951 | 146° | 9km/h | 29602m | 4.4m/s | -45.2°C | 0.8% | 13.2hPa | 2.6V | 00:00:00 | 00:00:00 | 00:00:00 | |
| SONDE2-11 | 2026-09-05 00:27:04 | 49.47757 | 13.45946 | 80° | 5km/h | 29592m | 5.7m/s | -45.2°C | 0.8% | 13.2hPa | 2.6V | 00:00:00 | 00:00:00 | 00:00:00 | |
| EDDB2-11 | 2026-09-05 00:26:53 | 49.47737 | 13.45950 | 275° | 9km/h | 29540m | 5.5m/s | -45.4°C | 0.8% | 13.3hPa | 2.6V | 00:00:00 | 00:00:00 | 00:00:00 | |
| EDDB2-12 | 2026-09-05 00:26:44 | 49.47720 | 13.45935 | 345° | 9km/h | 29495m | 6.0m/s | -45.4°C | 0.8% | 13.4hPa | 2.6V | 00:00:00 | 00:00:00 | 00:00:00 | |
| OE5MMP-10 | 2026-09-05 00:26:41 | 49.47714 | 13.45952 | 278° | 16km/h | 29478m | 4.6m/s | -45.4°C | 3.1% | 13.4hPa | 2.6V | 03:40:00 | 02:24:05 | 00:00:00 | |
| DO3MHA-11 | 2026-09-05 00:26:39 | 49.47714 | 13.45966 | 262° | 16km/h | 29469m | 5.2m/s | -45.4°C | 3.1% | 13.4hPa | 2.6V | 00:00:00 | 02:24:03 | 00:00:00 | |
| PETON7-10 | 2026-09-05 00:26:37 | 49.47715 | 13.45971 | 69° | 16km/h | 29459m | 5.0m/s | -45.5°C | 3.1% | 13.4hPa | 2.6V | 03:40:00 | 00:00:00 | 00:00:00 | |
| DL6DJ-15 | 2026-09-05 00:26:35 | 49.47707 | 13.45962 | 27° | 22km/h | 29442m | 5.9m/s | -45.6°C | 0.9% | 13.5hPa | 2.6V | 00:00:00 | 00:00:00 | 00:00:00 | |
| SONDE2-11 | 2026-09-05 00:26:33 | 49.47695 | 13.45954 | 19° | 27km/h | 29431m | 4.7m/s | -45.6°C | 0.8% | 13.6hPa | 2.6V | 00:00:00 | 00:00:00 | 00:00:00 | |
| OE5MMP-10 | 2026-09-05 00:26:31 | 49.47689 | 13.45951 | 20° | 15km/h | 29426m | 4.9m/s | -45.5°C | 3.1% | 13.5hPa | 2.6V | 00:00:00 | 02:23:55 | 00:00:00 | |
| OE3MUC-15 | 2026-09-05 00:26:29 | 49.47679 | 13.45946 | 16° | 15km/h | 29415m | 5.2m/s | -45.5°C | 3.1% | 13.5hPa | 2.6V | 00:00:00 | 00:00:00 | 00:00:00 | |
| BAUMI2-15 | 2026-09-05 00:26:28 | 49.47676 | 13.45945 | 358° | 13km/h | 29410m | 4.9m/s | -45.6°C | 3.1% | 13.5hPa | 2.6V | 03:40:00 | 02:23:52 | 00:00:00 | |
| OE3MUC-15 | 2026-09-05 00:26:25 | 49.47670 | 13.45953 | 301° | 15km/h | 29393m | 5.5m/s | -45.5°C | 3.1% | 13.6hPa | 2.6V | 00:00:00 | 00:00:00 | 00:00:00 | |
| BAUMI2-15 | 2026-09-05 00:26:23 | 49.47666 | 13.45962 | 318° | 15km/h | 29383m | 4.4m/s | -45.5°C | 3.1% | 13.6hPa | 2.5V | 00:00:00 | 02:23:47 | 00:00:00 | |
| PETON7-10 | 2026-09-05 00:26:22 | 49.47663 | 13.45964 | 351° | 16km/h | 29379m | 5.0m/s | -45.5°C | 3.1% | 13.6hPa | 2.5V | 00:00:00 | 00:00:00 | 00:00:00 | |
| OE5MMP-10 | 2026-09-05 00:26:21 | 49.47661 | 13.45964 | 37° | 22km/h | 29373m | 6.6m/s | -45.5°C | 3.1% | 13.6hPa | 2.5V | 00:00:00 | 02:23:45 | 00:00:00 | |
| DO3MHA-11 | 2026-09-05 00:26:19 | 49.47656 | 13.45953 | 59° | 22km/h | 29361m | 4.7m/s | -45.5°C | 3.1% | 13.6hPa | 2.5V | 00:00:00 | 02:23:43 | 00:00:00 | |
| OE3MUC-15 | 2026-09-05 00:26:18 | 49.47653 | 13.45946 | 50° | 26km/h | 29356m | 4.3m/s | -45.5°C | 3.1% | 13.7hPa | 2.5V | 00:00:00 | 00:00:00 | 00:00:00 | |
| OE3MUC-15 | 2026-09-05 00:26:14 | 49.47630 | 13.45937 | 339° | 22km/h | 29335m | 4.9m/s | -45.4°C | 3.1% | 13.7hPa | 2.5V | 03:41:00 | 00:00:00 | 00:00:00 | |
| BAUMI2-15 | 2026-09-05 00:26:13 | 49.47624 | 13.45942 | 326° | 15km/h | 29330m | 4.8m/s | -45.3°C | 3.1% | 13.7hPa | 2.5V | 00:00:00 | 02:23:37 | 00:00:00 | |
| OE5MMP-10 | 2026-09-05 00:26:11 | 49.47617 | 13.45952 | 301° | 11km/h | 29319m | 5.6m/s | -45.3°C | 3.1% | 13.7hPa | 2.5V | 00:00:00 | 02:23:35 | 00:00:00 | |
| OE3MUC-15 | 2026-09-05 00:26:10 | 49.47616 | 13.45956 | 281° | 13km/h | 29314m | 5.3m/s | -45.3°C | 3.1% | 13.7hPa | 2.5V | 00:00:00 | 00:00:00 | 00:00:00 | |
| OE5DRO-10 | 2026-09-05 00:26:09 | 49.47617 | 13.45957 | 123° | 11km/h | 29304m | 4.9m/s | -45.3°C | 3.1% | 13.8hPa | 2.6V | 00:00:00 | 00:00:00 | 00:00:00 | |
| BAUMI2-15 | 2026-09-05 00:26:08 | 49.47617 | 13.45957 | 123° | 9km/h | 29304m | 4.9m/s | -45.3°C | 3.1% | 13.8hPa | 2.6V | 03:41:00 | 02:23:32 | 00:00:00 | |
| PETON7-10 | 2026-09-05 00:26:07 | 49.47617 | 13.45955 | 79° | 11km/h | 29298m | 5.6m/s | -45.3°C | 3.1% | 13.8hPa | 2.6V | 00:00:00 | 02:23:31 | 00:00:00 | |
| DL6DJ-15 | 2026-09-05 00:26:04 | 49.47606 | 13.45945 | 19° | 16km/h | 29276m | 5.0m/s | -45.5°C | 0.9% | 13.9hPa | 2.6V | 00:00:00 | 00:00:00 | 00:00:00 | |
| BAUMI2-15 | 2026-09-05 00:26:03 | 49.47606 | 13.45945 | 20° | 13km/h | 29276m | 4.9m/s | -45.4°C | 3.1% | 13.8hPa | 2.6V | 00:00:00 | 02:23:27 | 00:00:00 | |
| SONDE2-11 | 2026-09-05 00:26:02 | 49.47599 | 13.45941 | 20° | 13km/h | 29264m | 6.1m/s | -45.4°C | 0.8% | 13.9hPa | 2.5V | 00:00:00 | 00:00:00 | 00:00:00 | |
| OE5MMP-10 | 2026-09-05 00:26:01 | 49.47599 | 13.45941 | 21° | 9km/h | 29264m | 6.0m/s | -45.4°C | 3.1% | 13.9hPa | 2.5V | 03:41:00 | 02:23:25 | 00:00:00 | |
| OE3MUC-15 | 2026-09-05 00:26:00 | 49.47596 | 13.45940 | 17° | 9km/h | 29259m | 5.2m/s | -45.4°C | 3.1% | 13.9hPa | 2.6V | 00:00:00 | 00:00:00 | 00:00:00 | |
| BAUMI2-15 | 2026-09-05 00:25:58 | 49.47593 | 13.45940 | 322° | 9km/h | 29248m | 5.7m/s | -45.3°C | 3.1% | 13.9hPa | 2.6V | 00:00:00 | 02:23:22 | 00:00:00 | |
| PG1ADW-2 | 2026-09-05 00:25:57 | 49.47591 | 13.45943 | 305° | 4km/h | 29242m | 6.4m/s | -45.3°C | 3.1% | 13.9hPa | 2.6V | 00:00:00 | 02:23:21 | 00:00:00 | |
| OE3MUC-15 | 2026-09-05 00:25:55 | 49.47589 | 13.45950 | 289° | 11km/h | 29231m | 4.2m/s | -45.3°C | 3.1% | 13.9hPa | 2.6V | 00:00:00 | 00:00:00 | 00:00:00 | |
| SP3BTT-10 | 2026-09-05 00:25:53 | 49.47589 | 13.45953 | 171° | 13km/h | 29221m | 6.5m/s | -45.2°C | 3.1% | 13.9hPa | 2.6V | 00:00:00 | 00:00:00 | 00:00:00 | |
| PETON7-10 | 2026-09-05 00:25:52 | 49.47591 | 13.45952 | 132° | 9km/h | 29214m | 6.7m/s | -45.2°C | 3.1% | 13.9hPa | 2.6V | 00:00:00 | 00:00:00 | 00:00:00 | |
| OE5MMP-10 | 2026-09-05 00:25:51 | 49.47592 | 13.45948 | 118° | 13km/h | 29208m | 5.2m/s | -45.2°C | 3.0% | 14.0hPa | 2.5V | 00:00:00 | 02:23:15 | 00:00:00 | |
| OE5DRO-10 | 2026-09-05 00:25:50 | 49.47594 | 13.45936 | 87° | 9km/h | 29198m | 5.9m/s | -45.2°C | 3.0% | 14.0hPa | 2.5V | 00:00:00 | 00:00:00 | 00:00:00 | |
| BAUMI2-15 | 2026-09-05 00:25:48 | 49.47593 | 13.45931 | 62° | 13km/h | 29192m | 6.4m/s | -45.2°C | 3.1% | 14.0hPa | 2.5V | 03:41:00 | 02:23:12 | 00:00:00 | |
| OE3MUC-15 | 2026-09-05 00:25:47 | 49.47591 | 13.45927 | 35° | 13km/h | 29186m | 5.7m/s | -45.3°C | 3.1% | 14.0hPa | 2.6V | 03:41:00 | 00:00:00 | 00:00:00 | |
| OE3MUC-15 | 2026-09-05 00:25:43 | 49.47579 | 13.45922 | 15° | 4km/h | 29164m | 5.7m/s | -45.4°C | 3.1% | 14.1hPa | 2.6V | 00:00:00 | 00:00:00 | 00:00:00 | |
| EDDB2-12 | 2026-09-05 00:25:42 | 49.47578 | 13.45921 | 41° | 2km/h | 29158m | 5.7m/s | -45.4°C | 0.8% | 14.1hPa | 2.6V | 00:00:00 | 00:00:00 | 00:00:00 | |
| OE5MMP-10 | 2026-09-05 00:25:41 | 49.47577 | 13.45920 | 96° | 7km/h | 29152m | 5.2m/s | -45.4°C | 3.1% | 14.1hPa | 2.6V | 00:00:00 | 02:23:05 | 00:00:00 | |
| BAUMI2-15 | 2026-09-05 00:25:38 | 49.47578 | 13.45918 | 39° | 5km/h | 29135m | 6.1m/s | -45.5°C | 3.1% | 14.1hPa | 2.6V | 00:00:00 | 02:23:02 | 00:00:00 | |
| PETON7-10 | 2026-09-05 00:25:37 | 49.47577 | 13.45917 | 30° | 13km/h | 29129m | 5.2m/s | -45.5°C | 3.1% | 14.1hPa | 2.6V | 03:41:00 | 00:00:00 | 00:00:00 | |
| PG1ADW-2 | 2026-09-05 00:25:35 | 49.47576 | 13.45914 | 85° | 11km/h | 29119m | 5.4m/s | -45.6°C | 3.1% | 14.1hPa | 2.6V | 00:00:00 | 00:00:00 | 00:00:00 | |
| DL6DJ-15 | 2026-09-05 00:25:33 | 49.47576 | 13.45898 | 84° | 16km/h | 29102m | 4.7m/s | -45.7°C | 0.9% | 14.2hPa | 2.5V | 00:00:00 | 00:00:00 | 00:00:00 | |
| SONDE2-11 | 2026-09-05 00:25:31 | 49.47573 | 13.45886 | 53° | 16km/h | 29091m | 6.5m/s | -45.7°C | 0.9% | 14.3hPa | 2.5V | 00:00:00 | 00:00:00 | 00:00:00 | |
| OE5REO-15 | 2026-09-05 00:25:29 | 49.47573 | 13.45886 | 54° | 18km/h | 29091m | 6.5m/s | 0°C | 0% | 0hPa | 2.5V | 00:00:00 | 00:00:00 | 00:00:00 | |
| BAUMI2-15 | 2026-09-05 00:25:28 | 49.47566 | 13.45878 | 22° | 13km/h | 29079m | 5.3m/s | -45.7°C | 3.2% | 14.2hPa | 2.5V | 03:41:00 | 02:22:52 | 00:00:00 | |
| S52SK | 2026-09-05 00:25:25 | 49.47558 | 13.45874 | 24° | 13km/h | 29069m | 5.4m/s | -45.7°C | 0.9% | 14.3hPa | 2.5V | 00:00:00 | 00:00:00 | 00:00:00 | |
| BAUMI2-15 | 2026-09-05 00:25:23 | 49.47557 | 13.45865 | 128° | 9km/h | 29051m | 5.8m/s | -45.6°C | 3.1% | 14.3hPa | 2.5V | 00:00:00 | 02:22:47 | 00:00:00 | |
| PETON7-10 | 2026-09-05 00:25:22 | 49.47559 | 13.45862 | 139° | 11km/h | 29046m | 5.1m/s | -45.6°C | 3.1% | 14.3hPa | 2.5V | 00:00:00 | 02:22:46 | 00:00:00 | |
| OE3MUC-15 | 2026-09-05 00:25:21 | 49.47561 | 13.45858 | 142° | 7km/h | 29040m | 5.4m/s | -45.6°C | 3.2% | 14.3hPa | 2.5V | 00:00:00 | 00:00:00 | 00:00:00 | |
| EDDB2-11 | 2026-09-05 00:25:20 | 49.47564 | 13.45854 | 107° | 4km/h | 29028m | 5.7m/s | -45.6°C | 0.9% | 14.4hPa | 2.6V | 00:00:00 | 00:00:00 | 00:00:00 | |
| BAUMI2-15 | 2026-09-05 00:25:18 | 49.47564 | 13.45853 | 50° | 13km/h | 29023m | 5.2m/s | -45.6°C | 3.2% | 14.4hPa | 2.6V | 00:00:00 | 02:22:42 | 00:00:00 | |
| OE3MUC-15 | 2026-09-05 00:25:17 | 49.47562 | 13.45851 | 46° | 15km/h | 29018m | 5.4m/s | -45.5°C | 3.1% | 14.4hPa | 2.6V | 00:00:00 | 00:00:00 | 00:00:00 | |
| OE3MUC-15 | 2026-09-05 00:25:13 | 49.47554 | 13.45832 | 55° | 15km/h | 28994m | 4.9m/s | -45.5°C | 3.1% | 14.4hPa | 2.6V | 03:42:00 | 00:00:00 | 00:00:00 | |
| OE5DRO-10 | 2026-09-05 00:25:12 | 49.47551 | 13.45827 | 45° | 9km/h | 28989m | 5.7m/s | -45.5°C | 3.1% | 14.4hPa | 2.6V | 00:00:00 | 00:00:00 | 00:00:00 | |
| EDDB2-12 | 2026-09-05 00:25:11 | 49.47548 | 13.45823 | 30° | 13km/h | 28983m | 6.4m/s | -45.6°C | 0.9% | 14.5hPa | 2.6V | 00:00:00 | 00:00:00 | 00:00:00 | |
| PG1ADW-2 | 2026-09-05 00:25:09 | 49.47543 | 13.45821 | 3° | 7km/h | 28972m | 4.8m/s | -45.5°C | 3.1% | 14.5hPa | 2.6V | 03:42:00 | 00:00:00 | 00:00:00 | |
| BAUMI2-15 | 2026-09-05 00:25:08 | 49.47542 | 13.45821 | 48° | 11km/h | 28966m | 5.2m/s | -45.5°C | 3.1% | 14.5hPa | 2.6V | 03:42:00 | 02:22:32 | 00:00:00 | |
| PETON7-10 | 2026-09-05 00:25:07 | 49.47543 | 13.45820 | 141° | 9km/h | 28960m | 6.9m/s | -45.5°C | 3.1% | 14.5hPa | 2.6V | 00:00:00 | 00:00:00 | 00:00:00 | |
| OE3MUC-15 | 2026-09-05 00:25:05 | 49.47548 | 13.45814 | 145° | 13km/h | 28947m | 5.5m/s | -45.6°C | 3.1% | 14.5hPa | 2.5V | 00:00:00 | 00:00:00 | 00:00:00 | |
| BAUMI2-15 | 2026-09-05 00:25:03 | 49.47554 | 13.45807 | 143° | 7km/h | 28937m | 5.1m/s | -45.6°C | 3.1% | 14.5hPa | 2.5V | 00:00:00 | 02:22:27 | 00:00:00 | |
| DL6DJ-15 | 2026-09-05 00:25:01 | 49.47556 | 13.45804 | 44° | 2km/h | 28925m | 6.3m/s | -45.7°C | 0.9% | 14.6hPa | 2.5V | 00:00:00 | 00:00:00 | 00:00:00 | |
| SONDE2-11 | 2026-09-05 00:24:59 | 49.47553 | 13.45804 | 359° | 9km/h | 28912m | 6.3m/s | -45.7°C | 0.9% | 14.7hPa | 2.5V | 00:00:00 | 00:00:00 | 00:00:00 | |
| EDDB2-11 | 2026-09-05 00:24:49 | 49.47549 | 13.45783 | 158° | 15km/h | 28846m | 5.1m/s | -46.1°C | 0.9% | 14.8hPa | 2.5V | 00:00:00 | 00:00:00 | 00:00:00 | |
| BAUMI2-15 | 2026-09-05 00:24:48 | 49.47549 | 13.45783 | 159° | 13km/h | 28846m | 5.1m/s | -46.0°C | 3.2% | 14.8hPa | 2.5V | 03:42:00 | 02:22:12 | 00:00:00 | |
| OE3MUC-15 | 2026-09-05 00:24:46 | 49.47556 | 13.45782 | 193° | 11km/h | 28835m | 6.7m/s | -46.1°C | 3.2% | 14.8hPa | 2.5V | 00:00:00 | 00:00:00 | 00:00:00 | |
| BAUMI2-15 | 2026-09-05 00:24:43 | 49.47559 | 13.45792 | 276° | 7km/h | 28817m | 5.4m/s | -46.1°C | 3.2% | 14.8hPa | 2.5V | 00:00:00 | 02:22:07 | 00:00:00 | |
| OE3MUC-15 | 2026-09-05 00:24:42 | 49.47559 | 13.45795 | 293° | 9km/h | 28811m | 5.6m/s | -46.1°C | 3.2% | 14.8hPa | 2.5V | 00:00:00 | 00:00:00 | 00:00:00 | |
| OE5MMP-10 | 2026-09-05 00:24:40 | 49.47557 | 13.45795 | 61° | 9km/h | 28799m | 6.0m/s | -46.0°C | 3.2% | 14.9hPa | 2.5V | 03:42:00 | 02:22:04 | 00:00:00 | |
| OE3MUC-15 | 2026-09-05 00:24:38 | 49.47556 | 13.45789 | 85° | 9km/h | 28787m | 6.0m/s | -46.0°C | 3.2% | 14.9hPa | 2.5V | 03:42:00 | 00:00:00 | 00:00:00 | |
| PETON7-10 | 2026-09-05 00:24:37 | 49.47556 | 13.45785 | 87° | 11km/h | 28781m | 6.5m/s | -46.0°C | 3.2% | 14.9hPa | 2.5V | 03:42:00 | 02:22:01 | 00:00:00 | |
| OE3MUC-15 | 2026-09-05 00:24:34 | 49.47558 | 13.45776 | 137° | 13km/h | 28764m | 5.5m/s | -46.1°C | 3.1% | 14.9hPa | 2.5V | 00:00:00 | 00:00:00 | 00:00:00 | |
| DL1JEZ-13 | 2026-09-05 00:24:32 | 49.47560 | 13.45773 | 147° | 13km/h | 28758m | 7.0m/s | -46.1°C | 0.9% | 15.0hPa | 2.5V | 03:42:00 | 00:00:00 | 00:00:00 | |
| OE3MUC-15 | 2026-09-05 00:24:30 | 49.47569 | 13.45770 | 206° | 13km/h | 28740m | 5.7m/s | -46.1°C | 3.2% | 15.0hPa | 2.5V | 00:00:00 | 00:00:00 | 00:00:00 | |
| PG1ADW-2 | 2026-09-05 00:24:29 | 49.47571 | 13.45773 | 240° | 11km/h | 28733m | 7.3m/s | -46.1°C | 3.2% | 15.0hPa | 2.5V | 00:00:00 | 02:21:53 | 00:00:00 | |
| SONDE2-11 | 2026-09-05 00:24:28 | 49.47572 | 13.45777 | 265° | 13km/h | 28726m | 6.6m/s | -46.1°C | 0.9% | 15.1hPa | 2.5V | 00:00:00 | 00:00:00 | 00:00:00 | |
| OE3MUC-15 | 2026-09-05 00:24:26 | 49.47571 | 13.45789 | 274° | 9km/h | 28715m | 5.0m/s | -46.0°C | 3.1% | 15.1hPa | 2.5V | 00:00:00 | 02:21:50 | 00:00:00 | |
| OE3MUC-15 | 2026-09-05 00:24:22 | 49.47578 | 13.45793 | 154° | 11km/h | 28692m | 5.3m/s | -46.0°C | 3.1% | 15.1hPa | 2.5V | 03:43:00 | 00:00:00 | 00:00:00 | |
| OE5MMP-10 | 2026-09-05 00:24:20 | 49.47585 | 13.45788 | 163° | 9km/h | 28681m | 6.1m/s | -46.0°C | 3.1% | 15.1hPa | 2.5V | 00:00:00 | 02:21:44 | 00:00:00 | |
| EDDB2-11 | 2026-09-05 00:24:18 | 49.47591 | 13.45791 | 248° | 7km/h | 28662m | 5.4m/s | -46.2°C | 0.9% | 15.2hPa | 2.5V | 00:00:00 | 00:00:00 | 00:00:00 | |
| OE3MUC-15 | 2026-09-05 00:24:17 | 49.47591 | 13.45790 | 249° | 9km/h | 28662m | 5.3m/s | -46.1°C | 3.1% | 15.2hPa | 2.5V | 00:00:00 | 00:00:00 | 00:00:00 | |
| OE5DRO-10 | 2026-09-05 00:24:15 | 49.47592 | 13.45797 | 244° | 7km/h | 28651m | 6.1m/s | -46.2°C | 3.1% | 15.2hPa | 2.6V | 03:43:00 | 00:00:00 | 00:00:00 | |
| OE3MUC-15 | 2026-09-05 00:24:12 | 49.47598 | 13.45803 | 187° | 9km/h | 28633m | 5.2m/s | -46.4°C | 3.2% | 15.3hPa | 2.6V | 00:00:00 | 00:00:00 | 00:00:00 | |
| DL1JEZ-13 | 2026-09-05 00:24:11 | 49.47598 | 13.45803 | 188° | 11km/h | 28633m | 5.3m/s | -46.4°C | 0.9% | 15.3hPa | 2.6V | 00:00:00 | 00:00:00 | 00:00:00 | |
| OE5MMP-10 | 2026-09-05 00:24:10 | 49.47603 | 13.45803 | 185° | 9km/h | 28622m | 6.0m/s | -46.4°C | 3.2% | 15.3hPa | 2.6V | 00:00:00 | 02:21:34 | 00:00:00 | |
| EDDB2-12 | 2026-09-05 00:24:09 | 49.47605 | 13.45804 | 196° | 5km/h | 28615m | 6.3m/s | -46.5°C | 0.9% | 15.3hPa | 2.6V | 00:00:00 | 00:00:00 | 00:00:00 | |
| OE3MUC-15 | 2026-09-05 00:24:08 | 49.47606 | 13.45804 | 207° | 11km/h | 28609m | 5.8m/s | -46.5°C | 3.2% | 15.3hPa | 2.6V | 00:00:00 | 00:00:00 | 00:00:00 | |
| PETON7-10 | 2026-09-05 00:24:07 | 49.47608 | 13.45805 | 194° | 9km/h | 28604m | 5.6m/s | -46.5°C | 3.2% | 15.3hPa | 2.6V | 00:00:00 | 00:00:00 | 00:00:00 | |
| OE5REO-15 | 2026-09-05 00:24:05 | 49.47609 | 13.45805 | 167° | 5km/h | 28598m | 5.8m/s | 0°C | 0% | 0hPa | 2.6V | 00:00:00 | 00:00:00 | 00:00:00 | |
| DL6DJ-15 | 2026-09-05 00:23:59 | 49.47618 | 13.45790 | 332° | 4km/h | 28555m | 5.5m/s | -46.7°C | 0.9% | 15.5hPa | 2.6V | 00:00:00 | 00:00:00 | 00:00:00 | |
| SONDE2-11 | 2026-09-05 00:23:57 | 49.47616 | 13.45792 | 285° | 2km/h | 28544m | 5.8m/s | -46.8°C | 0.9% | 15.5hPa | 2.6V | 00:00:00 | 00:00:00 | 00:00:00 | |
| EDDB2-11 | 2026-09-05 00:23:47 | 49.47640 | 13.45783 | 106° | 9km/h | 28479m | 6.7m/s | -47.2°C | 0.9% | 15.7hPa | 2.6V | 00:00:00 | 00:00:00 | 00:00:00 | |
| OE3MUC-15 | 2026-09-05 00:23:45 | 49.47640 | 13.45779 | 106° | 11km/h | 28473m | 5.6m/s | -47.2°C | 3.3% | 15.6hPa | 2.6V | 03:43:00 | 00:00:00 | 00:00:00 | |
| OE5MMP-10 | 2026-09-05 00:23:40 | 49.47643 | 13.45764 | 124° | 7km/h | 28443m | 5.5m/s | -47.3°C | 3.3% | 15.7hPa | 2.6V | 00:00:00 | 02:21:04 | 00:00:00 | |
| EDDB2-12 | 2026-09-05 00:23:38 | 49.47644 | 13.45762 | 138° | 5km/h | 28431m | 6.5m/s | -47.3°C | 0.9% | 15.8hPa | 2.6V | 00:00:00 | 00:00:00 | 00:00:00 | |
| PETON7-10 | 2026-09-05 00:23:37 | 49.47645 | 13.45760 | 130° | 7km/h | 28425m | 5.5m/s | -47.3°C | 3.3% | 15.7hPa | 2.6V | 03:43:00 | 00:00:00 | 00:00:00 | |
| DL2RXE-15 | 2026-09-05 00:23:35 | 49.47646 | 13.45758 | 118° | 7km/h | 28420m | 5.0m/s | -47.3°C | 0% | 15.8hPa | 2.6V | 00:00:00 | 00:00:00 | 00:00:00 | |
| S52SK | 2026-09-05 00:23:33 | 49.47646 | 13.45753 | 56° | 5km/h | 28408m | 6.8m/s | -47.3°C | 0.9% | 15.8hPa | 2.6V | 00:00:00 | 00:00:00 | 00:00:00 | |
| OE5REO-15 | 2026-09-05 00:23:32 | 49.47645 | 13.45751 | 31° | 9km/h | 28401m | 6.2m/s | 0°C | 0% | 0hPa | 2.6V | 00:00:00 | 00:00:00 | 00:00:00 | |
| OE5MMP-10 | 2026-09-05 00:23:30 | 49.47640 | 13.45745 | 64° | 5km/h | 28383m | 6.4m/s | -47.2°C | 3.3% | 15.8hPa | 2.6V | 00:00:00 | 02:20:54 | 00:00:00 | |
| DL6DJ-15 | 2026-09-05 00:23:28 | 49.47640 | 13.45739 | 109° | 7km/h | 28372m | 5.2m/s | -47.3°C | 0.9% | 15.9hPa | 2.5V | 00:00:00 | 00:00:00 | 00:00:00 | |
| SONDE2-11 | 2026-09-05 00:23:26 | 49.47641 | 13.45736 | 156° | 2km/h | 28360m | 6.7m/s | -47.5°C | 0.9% | 16.0hPa | 2.5V | 00:00:00 | 00:00:00 | 00:00:00 | |
| PETON7-10 | 2026-09-05 00:23:22 | 49.47642 | 13.45736 | 109° | 11km/h | 28336m | 6.5m/s | -47.8°C | 3.5% | 16.0hPa | 2.5V | 00:00:00 | 00:00:00 | 00:00:00 | |
| OE3MUC-15 | 2026-09-05 00:23:21 | 49.47642 | 13.45734 | 90° | 13km/h | 28330m | 5.4m/s | -47.8°C | 3.5% | 16.0hPa | 2.5V | 00:00:00 | 00:00:00 | 00:00:00 | |
| OE5MMP-10 | 2026-09-05 00:23:20 | 49.47642 | 13.45730 | 72° | 11km/h | 28324m | 5.2m/s | -47.9°C | 3.5% | 16.0hPa | 2.5V | 03:44:00 | 02:20:44 | 00:00:00 | |
| OE5DRO-10 | 2026-09-05 00:23:18 | 49.47638 | 13.45721 | 44° | 11km/h | 28312m | 6.6m/s | -47.9°C | 3.5% | 16.0hPa | 2.5V | 00:00:00 | 00:00:00 | 00:00:00 | |
| OE3MUC-15 | 2026-09-05 00:23:16 | 49.47632 | 13.45714 | 37° | 11km/h | 28300m | 5.6m/s | -47.9°C | 3.5% | 16.1hPa | 2.5V | 00:00:00 | 00:00:00 | 00:00:00 | |
| EDDB2-11 | 2026-09-05 00:23:15 | 49.47629 | 13.45711 | 48° | 11km/h | 28294m | 6.2m/s | -47.9°C | 1.0% | 16.1hPa | 2.5V | 00:00:00 | 00:00:00 | 00:00:00 | |
| OE3MUC-15 | 2026-09-05 00:23:12 | 49.47630 | 13.45701 | 152° | 9km/h | 28277m | 5.0m/s | -47.8°C | 3.5% | 16.1hPa | 2.5V | 03:44:00 | 00:00:00 | 00:00:00 | |
| OE5MMP-10 | 2026-09-05 00:23:10 | 49.47634 | 13.45702 | 215° | 11km/h | 28265m | 6.9m/s | -47.8°C | 3.5% | 16.1hPa | 2.6V | 00:00:00 | 02:20:34 | 00:00:00 | |
| OE3MUC-15 | 2026-09-05 00:23:07 | 49.47637 | 13.45712 | 254° | 7km/h | 28247m | 5.6m/s | -47.7°C | 3.5% | 16.2hPa | 2.6V | 00:00:00 | 00:00:00 | 00:00:00 | |
| OE3MUC-15 | 2026-09-05 00:23:03 | 49.47634 | 13.45707 | 47° | 16km/h | 28223m | 6.6m/s | -47.6°C | 3.4% | 16.2hPa | 2.6V | 00:00:00 | 00:00:00 | 00:00:00 | |
| DL6DJ-15 | 2026-09-05 00:22:57 | 49.47623 | 13.45677 | 134° | 11km/h | 28188m | 5.7m/s | -47.7°C | 0.9% | 16.4hPa | 2.6V | 00:00:00 | 00:00:00 | 00:00:00 | |
| SONDE2-11 | 2026-09-05 00:22:55 | 49.47628 | 13.45675 | 197° | 11km/h | 28178m | 5.2m/s | -47.6°C | 0.9% | 16.4hPa | 2.6V | 00:00:00 | 00:00:00 | 00:00:00 | |
| EDDB2-11 | 2026-09-05 00:22:44 | 49.47621 | 13.45675 | 49° | 5km/h | 28116m | 6.0m/s | -47.6°C | 1.0% | 16.6hPa | 2.6V | 00:00:00 | 00:00:00 | 00:00:00 | |
| OE3MUC-15 | 2026-09-05 00:22:42 | 49.47619 | 13.45674 | 322° | 5km/h | 28105m | 5.5m/s | -47.5°C | 3.4% | 16.5hPa | 2.6V | 00:00:00 | 00:00:00 | 00:00:00 | |
| OE5MMP-10 | 2026-09-05 00:22:40 | 49.47618 | 13.45677 | 257° | 7km/h | 28093m | 6.3m/s | -47.5°C | 3.4% | 16.6hPa | 2.6V | 03:44:00 | 02:20:04 | 00:00:00 | |
| OE3MUC-15 | 2026-09-05 00:22:38 | 49.47619 | 13.45682 | 255° | 11km/h | 28082m | 5.0m/s | -47.5°C | 3.4% | 16.6hPa | 2.6V | 03:44:00 | 00:00:00 | 00:00:00 | |
| PETON7-10 | 2026-09-05 00:22:37 | 49.47620 | 13.45686 | 269° | 7km/h | 28076m | 5.9m/s | -47.4°C | 3.4% | 16.6hPa | 2.6V | 03:44:00 | 00:00:00 | 00:00:00 | |
| EDDB2-12 | 2026-09-05 00:22:36 | 49.47620 | 13.45690 | 281° | 11km/h | 28070m | 6.0m/s | -47.4°C | 0.9% | 16.7hPa | 2.6V | 00:00:00 | 00:00:00 | 00:00:00 | |
| OE3MUC-15 | 2026-09-05 00:22:34 | 49.47618 | 13.45698 | 286° | 9km/h | 28060m | 4.4m/s | -47.4°C | 3.4% | 16.6hPa | 2.6V | 00:00:00 | 00:00:00 | 00:00:00 | |
| BAUMI2-15 | 2026-09-05 00:22:31 | 49.47620 | 13.45699 | 138° | 9km/h | 28042m | 5.7m/s | -47.4°C | 3.4% | 16.7hPa | 2.5V | 00:00:00 | 02:19:55 | 00:00:00 | |
| OE5MMP-10 | 2026-09-05 00:22:30 | 49.47622 | 13.45696 | 125° | 7km/h | 28037m | 4.8m/s | -47.5°C | 3.5% | 16.7hPa | 2.5V | 00:00:00 | 02:19:54 | 00:00:00 | |
| OE3MUC-15 | 2026-09-05 00:22:27 | 49.47623 | 13.45685 | 58° | 7km/h | 28019m | 5.7m/s | -47.4°C | 3.5% | 16.7hPa | 2.6V | 00:00:00 | 00:00:00 | 00:00:00 | |
| BAUMI2-15 | 2026-09-05 00:22:26 | 49.47621 | 13.45683 | 33° | 5km/h | 28014m | 5.0m/s | -47.4°C | 3.4% | 16.8hPa | 2.6V | 03:44:00 | 02:19:50 | 00:00:00 | |
| SONDE2-11 | 2026-09-05 00:22:24 | 49.47619 | 13.45682 | 352° | 2km/h | 28003m | 6.3m/s | -47.5°C | 0.9% | 16.8hPa | 2.6V | 00:00:00 | 00:00:00 | 00:00:00 | |
| OE3MUC-15 | 2026-09-05 00:22:23 | 49.47619 | 13.45682 | 223° | 7km/h | 27997m | 6.1m/s | -47.4°C | 3.4% | 16.8hPa | 2.6V | 00:00:00 | 00:00:00 | 00:00:00 | |
| PETON7-10 | 2026-09-05 00:22:22 | 49.47620 | 13.45683 | 210° | 9km/h | 27991m | 5.4m/s | -47.4°C | 3.4% | 16.8hPa | 2.6V | 00:00:00 | 02:19:46 | 00:00:00 | |
| BAUMI2-15 | 2026-09-05 00:22:21 | 49.47622 | 13.45684 | 211° | 7km/h | 27986m | 5.2m/s | -47.4°C | 3.4% | 16.8hPa | 2.6V | 00:00:00 | 02:19:45 | 00:00:00 | |
| OE5MMP-10 | 2026-09-05 00:22:20 | 49.47623 | 13.45686 | 214° | 9km/h | 27980m | 5.9m/s | -47.4°C | 3.4% | 16.8hPa | 2.6V | 00:00:00 | 02:19:44 | 00:00:00 | |
| BAUMI2-15 | 2026-09-05 00:22:16 | 49.47628 | 13.45685 | 118° | 13km/h | 27958m | 6.0m/s | -47.3°C | 3.4% | 16.9hPa | 2.6V | 00:00:00 | 02:19:40 | 00:00:00 | |
| OE3MUC-15 | 2026-09-05 00:22:15 | 49.47630 | 13.45680 | 116° | 13km/h | 27951m | 6.7m/s | -47.3°C | 3.4% | 16.9hPa | 2.6V | 00:00:00 | 00:00:00 | 00:00:00 | |
| EDDB2-11 | 2026-09-05 00:22:13 | 49.47632 | 13.45669 | 101° | 13km/h | 27941m | 4.4m/s | -47.4°C | 0.9% | 17.0hPa | 2.6V | 00:00:00 | 00:00:00 | 00:00:00 | |
| BAUMI2-15 | 2026-09-05 00:22:11 | 49.47632 | 13.45662 | 41° | 9km/h | 27930m | 6.4m/s | -47.3°C | 3.3% | 17.0hPa | 2.6V | 00:00:00 | 02:19:35 | 00:00:00 | |
| OE3MUC-15 | 2026-09-05 00:22:10 | 49.47630 | 13.45661 | 356° | 9km/h | 27924m | 5.5m/s | -47.3°C | 3.3% | 17.0hPa | 2.6V | 00:00:00 | 00:00:00 | 00:00:00 | |
| PETON7-10 | 2026-09-05 00:22:06 | 49.47622 | 13.45664 | 75° | 9km/h | 27903m | 5.6m/s | -47.5°C | 3.4% | 17.1hPa | 2.6V | 00:00:00 | 00:00:00 | 00:00:00 | |
| EDDB2-12 | 2026-09-05 00:22:05 | 49.47622 | 13.45662 | 101° | 9km/h | 27897m | 5.6m/s | -47.6°C | 1.0% | 17.1hPa | 2.5V | 00:00:00 | 00:00:00 | 00:00:00 | |
| DL2RXE-15 | 2026-09-05 00:22:04 | 49.47622 | 13.45662 | 102° | 11km/h | 27898m | 5.6m/s | -47.6°C | 0% | 17.1hPa | 2.5V | 00:00:00 | 00:00:00 | 00:00:00 | |
| OE3MUC-15 | 2026-09-05 00:22:02 | 49.47623 | 13.45643 | 88° | 13km/h | 27882m | 5.2m/s | -47.5°C | 3.4% | 17.1hPa | 2.5V | 03:45:00 | 00:00:00 | 00:00:00 | |
| DL6DJ-15 | 2026-09-05 00:21:55 | 49.47621 | 13.45623 | 104° | 4km/h | 27845m | 4.4m/s | -47.7°C | 1.0% | 17.3hPa | 2.5V | 00:00:00 | 00:00:00 | 00:00:00 | |
| SONDE2-11 | 2026-09-05 00:21:53 | 49.47620 | 13.45618 | 53° | 11km/h | 27835m | 5.9m/s | -47.8°C | 1.0% | 17.3hPa | 2.5V | 00:00:00 | 00:00:00 | 00:00:00 | |
| PETON7-10 | 2026-09-05 00:21:51 | 49.47614 | 13.45610 | 41° | 15km/h | 27823m | 5.4m/s | -47.8°C | 3.4% | 17.3hPa | 2.5V | 00:00:00 | 00:00:00 | 00:00:00 | |
| OE5MMP-10 | 2026-09-05 00:21:50 | 49.47611 | 13.45605 | 44° | 15km/h | 27818m | 4.4m/s | -47.7°C | 3.4% | 17.3hPa | 2.5V | 00:00:00 | 02:19:14 | 00:00:00 | |
| OE3MUC-15 | 2026-09-05 00:21:49 | 49.47608 | 13.45601 | 56° | 13km/h | 27814m | 4.9m/s | -47.7°C | 3.4% | 17.3hPa | 2.5V | 00:00:00 | 00:00:00 | 00:00:00 | |
| OE3MUC-15 | 2026-09-05 00:21:45 | 49.47612 | 13.45586 | 142° | 13km/h | 27791m | 4.6m/s | -47.7°C | 3.4% | 17.4hPa | 2.5V | 03:45:00 | 00:00:00 | 00:00:00 | |
| OE5DRO-10 | 2026-09-05 00:21:43 | 49.47617 | 13.45578 | 109° | 15km/h | 27780m | 5.8m/s | -47.7°C | 3.4% | 17.4hPa | 2.5V | 03:45:00 | 00:00:00 | 00:00:00 | |
| EDDB2-11 | 2026-09-05 00:21:42 | 49.47617 | 13.45573 | 81° | 13km/h | 27774m | 5.9m/s | -47.7°C | 0.9% | 17.4hPa | 2.5V | 00:00:00 | 00:00:00 | 00:00:00 | |
| BAUMI2-15 | 2026-09-05 00:21:40 | 49.47614 | 13.45562 | 57° | 15km/h | 27763m | 5.4m/s | -47.7°C | 3.4% | 17.4hPa | 2.5V | 00:00:00 | 02:19:04 | 00:00:00 | |
| PETON7-10 | 2026-09-05 00:21:36 | 49.47605 | 13.45544 | 48° | 13km/h | 27740m | 4.8m/s | -48.1°C | 3.5% | 17.5hPa | 2.5V | 03:45:00 | 02:19:00 | 00:00:00 | |
| BAUMI2-15 | 2026-09-05 00:21:35 | 49.47603 | 13.45541 | 34° | 13km/h | 27735m | 5.8m/s | -48.2°C | 3.5% | 17.5hPa | 2.5V | 00:00:00 | 02:18:59 | 00:00:00 | |
| PG1ADW-2 | 2026-09-05 00:21:34 | 49.47601 | 13.45539 | 24° | 13km/h | 27729m | 5.9m/s | -48.2°C | 3.5% | 17.5hPa | 2.5V | 03:45:00 | 00:00:00 | 00:00:00 | |
| BAUMI2-15 | 2026-09-05 00:21:30 | 49.47593 | 13.45526 | 92° | 16km/h | 27709m | 6.6m/s | -48.3°C | 3.5% | 17.6hPa | 2.5V | 00:00:00 | 02:18:54 | 00:00:00 | |
| BAUMI2-15 | 2026-09-05 00:21:25 | 49.47600 | 13.45496 | 92° | 9km/h | 27680m | 5.5m/s | -48.3°C | 0% | 17.6hPa | 2.5V | 03:45:00 | 02:18:49 | 00:00:00 | |
| OE5DRO-10 | 2026-09-05 00:21:24 | 49.47599 | 13.45492 | 71° | 13km/h | 27675m | 5.2m/s | -48.3°C | 3.5% | 17.7hPa | 2.5V | 00:00:00 | 00:00:00 | 00:00:00 | |
| SONDE2-11 | 2026-09-05 00:21:22 | 49.47598 | 13.45487 | 70° | 7km/h | 27665m | 5.4m/s | -48.3°C | 1.0% | 17.7hPa | 2.5V | 00:00:00 | 00:00:00 | 00:00:00 | |
| OE5MMP-10 | 2026-09-05 00:21:21 | 49.47597 | 13.45484 | 92° | 9km/h | 27659m | 6.1m/s | -48.2°C | 3.5% | 17.7hPa | 2.5V | 00:00:00 | 02:18:45 | 00:00:00 | |
| BAUMI2-15 | 2026-09-05 00:21:20 | 49.47598 | 13.45480 | 103° | 15km/h | 27653m | 5.3m/s | 0°C | 0% | 0hPa | 2.6V | 00:00:00 | 02:18:44 | 00:00:00 | |
| OE3MUC-15 | 2026-09-05 00:21:18 | 49.47598 | 13.45470 | 86° | 16km/h | 27643m | 5.6m/s | -48.2°C | 3.5% | 17.8hPa | 2.6V | 00:00:00 | 00:00:00 | 00:00:00 | |
| BAUMI2-15 | 2026-09-05 00:21:15 | 49.47594 | 13.45451 | 62° | 11km/h | 27626m | 4.8m/s | 0°C | 0% | 0hPa | 2.6V | 00:00:00 | 02:18:39 | 00:00:00 | |
| OE3MUC-15 | 2026-09-05 00:21:14 | 49.47592 | 13.45447 | 60° | 11km/h | 27620m | 5.9m/s | -48.2°C | 3.5% | 17.8hPa | 2.6V | 00:00:00 | 02:18:38 | 00:00:00 | |
| PG1ADW-2 | 2026-09-05 00:21:13 | 49.47591 | 13.45444 | 39° | 16km/h | 27615m | 5.2m/s | -48.2°C | 3.5% | 17.8hPa | 2.5V | 00:00:00 | 00:00:00 | 00:00:00 | |
| OE5MMP-10 | 2026-09-05 00:21:11 | 49.47588 | 13.45445 | 326° | 16km/h | 27605m | 5.6m/s | -48.3°C | 3.5% | 17.9hPa | 2.6V | 03:46:00 | 02:18:35 | 00:00:00 | |
| OE3MUC-15 | 2026-09-05 00:21:10 | 49.47585 | 13.45449 | 324° | 20km/h | 27598m | 6.4m/s | -48.4°C | 3.5% | 17.9hPa | 2.6V | 03:46:00 | 00:00:00 | 00:00:00 | |
| S52SK | 2026-09-05 00:21:09 | 49.47585 | 13.45449 | 325° | 16km/h | 27598m | 6.5m/s | -48.4°C | 1.0% | 17.9hPa | 2.6V | 00:00:00 | 00:00:00 | 00:00:00 | |
| PETON7-10 | 2026-09-05 00:21:06 | 49.47571 | 13.45464 | 327° | 18km/h | 27576m | 6.1m/s | -48.6°C | 3.6% | 17.9hPa | 2.6V | 00:00:00 | 00:00:00 | 00:00:00 | |
| BAUMI2-15 | 2026-09-05 00:21:05 | 49.47569 | 13.45466 | 2° | 13km/h | 27571m | 5.2m/s | 0°C | 0% | 0hPa | 2.6V | 03:46:00 | 02:18:29 | 00:00:00 | |
| EDDB2-12 | 2026-09-05 00:21:03 | 49.47514 | 13.45482 | 331° | 27km/h | 27497m | 5.0m/s | -48.5°C | 1.0% | 18.2hPa | 2.6V | 00:00:00 | 00:00:00 | 00:00:00 | |
| BAUMI2-15 | 2026-09-05 00:21:00 | 49.47556 | 13.45447 | 32° | 16km/h | 27544m | 4.1m/s | 0°C | 0% | 0hPa | 2.6V | 00:00:00 | 02:18:24 | 00:00:00 | |
| DL2RXE-15 | 2026-09-05 00:20:56 | 49.47544 | 13.45444 | 328° | 15km/h | 27529m | 5.2m/s | 0°C | 0% | 18.1hPa | 2.6V | 00:00:00 | 00:00:00 | 00:00:00 | |
| OE3MUC-15 | 2026-09-05 00:20:54 | 49.47533 | 13.45462 | 318° | 22km/h | 27514m | 6.3m/s | -48.3°C | 3.4% | 18.1hPa | 2.6V | 00:00:00 | 00:00:00 | 00:00:00 | |
| PG1ADW-2 | 2026-09-05 00:20:53 | 49.47527 | 13.45469 | 324° | 26km/h | 27508m | 5.5m/s | -48.4°C | 3.5% | 18.1hPa | 2.6V | 00:00:00 | 02:18:17 | 00:00:00 | |
| PETON7-10 | 2026-09-05 00:20:51 | 49.47514 | 13.45482 | 332° | 24km/h | 27497m | 4.9m/s | -48.4°C | 3.5% | 18.2hPa | 2.6V | 00:00:00 | 02:18:15 | 00:00:00 | |
| BAUMI2-15 | 2026-09-05 00:20:50 | 49.47508 | 13.45486 | 334° | 18km/h | 27492m | 6.0m/s | 0°C | 0% | 0hPa | 2.6V | 00:00:00 | 02:18:14 | 00:00:00 | |
| DL1JEZ-13 | 2026-09-05 00:20:49 | 49.47508 | 13.45486 | 335° | 24km/h | 27492m | 6.0m/s | -48.5°C | 1.0% | 18.2hPa | 2.6V | 00:00:00 | 00:00:00 | 00:00:00 | |
| OE5DRO-10 | 2026-09-05 00:20:46 | 49.47492 | 13.45491 | 8° | 22km/h | 27470m | 6.0m/s | -48.6°C | 3.5% | 18.2hPa | 2.6V | 00:00:00 | 00:00:00 | 00:00:00 | |
| BAUMI2-15 | 2026-09-05 00:20:45 | 49.47487 | 13.45490 | 4° | 20km/h | 27465m | 4.9m/s | 0°C | 0% | 0hPa | 2.6V | 03:46:00 | 02:18:09 | 00:00:00 | |
| OE3MUC-15 | 2026-09-05 00:20:40 | 49.47469 | 13.45513 | 289° | 31km/h | 27439m | 5.2m/s | -48.8°C | 3.6% | 18.3hPa | 2.6V | 00:00:00 | 00:00:00 | 00:00:00 | |
| PETON7-10 | 2026-09-05 00:20:36 | 49.47455 | 13.45557 | 309° | 22km/h | 27418m | 4.1m/s | -48.9°C | 3.6% | 18.4hPa | 2.5V | 03:46:00 | 00:00:00 | 00:00:00 | |
| OE5MMP-10 | 2026-09-05 00:20:33 | 49.47444 | 13.45575 | 317° | 13km/h | 27402m | 5.4m/s | -48.9°C | 3.6% | 18.4hPa | 2.5V | 00:00:00 | 02:17:57 | 00:00:00 | |
| EDDB2-12 | 2026-09-05 00:20:32 | 49.47440 | 13.45580 | 323° | 9km/h | 27393m | 4.7m/s | -49.0°C | 1.0% | 18.5hPa | 2.5V | 00:00:00 | 00:00:00 | 00:00:00 | |
| PG1ADW-2 | 2026-09-05 00:20:31 | 49.47440 | 13.45580 | 324° | 20km/h | 27393m | 4.7m/s | -48.9°C | 3.6% | 18.4hPa | 2.5V | 00:00:00 | 00:00:00 | 00:00:00 | |
| OE3MUC-15 | 2026-09-05 00:20:29 | 49.47435 | 13.45587 | 314° | 22km/h | 27382m | 5.0m/s | -49.0°C | 3.6% | 18.5hPa | 2.5V | 03:46:00 | 00:00:00 | 00:00:00 | |
| OE5DRO-10 | 2026-09-05 00:20:27 | 49.47429 | 13.45601 | 294° | 20km/h | 27373m | 4.7m/s | -49.0°C | 3.6% | 18.5hPa | 2.5V | 03:46:00 | 00:00:00 | 00:00:00 | |
| DL6DJ-15 | 2026-09-05 00:20:22 | 49.47429 | 13.45654 | 259° | 27km/h | 27347m | 3.8m/s | -49.1°C | 1.0% | 18.6hPa | 2.6V | 00:00:00 | 00:00:00 | 00:00:00 | |
| PETON7-10 | 2026-09-05 00:20:21 | 49.47430 | 13.45664 | 266° | 16km/h | 27343m | 4.4m/s | -49.0°C | 3.6% | 18.6hPa | 2.6V | 00:00:00 | 00:00:00 | 00:00:00 | |
| SONDE2-11 | 2026-09-05 00:20:20 | 49.47427 | 13.45690 | 293° | 20km/h | 27328m | 4.2m/s | -49.0°C | 1.0% | 18.7hPa | 2.6V | 00:00:00 | 00:00:00 | 00:00:00 | |
| OE5MMP-10 | 2026-09-05 00:20:18 | 49.47427 | 13.45690 | 294° | 13km/h | 27328m | 4.1m/s | -49.0°C | 3.6% | 18.6hPa | 2.6V | 03:47:00 | 02:17:42 | 00:00:00 | |
| OE3MUC-15 | 2026-09-05 00:20:17 | 49.47425 | 13.45696 | 292° | 13km/h | 27324m | 4.2m/s | -48.9°C | 3.6% | 18.7hPa | 2.6V | 00:00:00 | 00:00:00 | 00:00:00 | |
| PG1ADW-2 | 2026-09-05 00:20:11 | 49.47430 | 13.45718 | 258° | 11km/h | 27295m | 5.4m/s | -49.0°C | 3.6% | 18.7hPa | 2.6V | 03:47:00 | 00:00:00 | 00:00:00 | |
| OE3MUC-15 | 2026-09-05 00:20:10 | 49.47430 | 13.45722 | 287° | 15km/h | 27289m | 5.5m/s | -49.0°C | 3.6% | 18.8hPa | 2.5V | 03:47:00 | 00:00:00 | 00:00:00 | |
| EDDB2-11 | 2026-09-05 00:20:09 | 49.47429 | 13.45727 | 301° | 15km/h | 27284m | 5.2m/s | -49.1°C | 1.0% | 18.8hPa | 2.5V | 00:00:00 | 00:00:00 | 00:00:00 | |
| OE5DRO-10 | 2026-09-05 00:20:08 | 49.47427 | 13.45732 | 305° | 11km/h | 27279m | 4.6m/s | -49.0°C | 3.6% | 18.8hPa | 2.5V | 00:00:00 | 00:00:00 | 00:00:00 | |
| PETON7-10 | 2026-09-05 00:20:06 | 49.47423 | 13.45744 | 286° | 9km/h | 27270m | 5.4m/s | -49.0°C | 3.6% | 18.8hPa | 2.5V | 00:00:00 | 02:17:30 | 00:00:00 | |
| OE3MUC-15 | 2026-09-05 00:20:02 | 49.47428 | 13.45762 | 225° | 9km/h | 27250m | 5.2m/s | -49.0°C | 3.6% | 18.9hPa | 2.5V | 00:00:00 | 00:00:00 | 00:00:00 | |
| EDDB2-12 | 2026-09-05 00:20:01 | 49.47431 | 13.45767 | 246° | 5km/h | 27240m | 4.9m/s | -49.0°C | 1.0% | 18.9hPa | 2.5V | 00:00:00 | 00:00:00 | 00:00:00 | |
| OE3MUC-15 | 2026-09-05 00:19:58 | 49.47432 | 13.45771 | 247° | 9km/h | 27231m | 4.6m/s | -49.0°C | 3.6% | 18.9hPa | 2.5V | 00:00:00 | 00:00:00 | 00:00:00 | |
| OE3MUC-15 | 2026-09-05 00:19:51 | 49.47440 | 13.45790 | 258° | 11km/h | 27195m | 3.9m/s | -49.1°C | 3.5% | 19.0hPa | 2.6V | 03:47:00 | 00:00:00 | 00:00:00 | |
| OE5DRO-10 | 2026-09-05 00:19:49 | 49.47443 | 13.45798 | 227° | 11km/h | 27186m | 5.8m/s | -49.1°C | 3.6% | 19.0hPa | 2.6V | 00:00:00 | 00:00:00 | 00:00:00 | |
| OE3MUC-15 | 2026-09-05 00:19:43 | 49.47461 | 13.45801 | 145° | 11km/h | 27155m | 4.4m/s | -49.3°C | 3.6% | 19.2hPa | 2.6V | 00:00:00 | 00:00:00 | 00:00:00 | |
| EDDB2-11 | 2026-09-05 00:19:38 | 49.47474 | 13.45795 | 201° | 9km/h | 27130m | 5.5m/s | -49.5°C | 1.0% | 19.3hPa | 2.6V | 00:00:00 | 00:00:00 | 00:00:00 | |
| PETON7-10 | 2026-09-05 00:19:36 | 49.47477 | 13.45800 | 246° | 9km/h | 27119m | 4.6m/s | -49.6°C | 3.6% | 19.2hPa | 2.6V | 03:47:00 | 00:00:00 | 00:00:00 | |
| PG1ADW-2 | 2026-09-05 00:19:31 | 49.47490 | 13.45807 | 168° | 7km/h | 27095m | 4.2m/s | -49.8°C | 3.7% | 19.3hPa | 2.6V | 00:00:00 | 02:16:55 | 00:00:00 | |
| EDDB2-12 | 2026-09-05 00:19:30 | 49.47496 | 13.45804 | 149° | 9km/h | 27084m | 6.0m/s | -49.9°C | 1.1% | 19.4hPa | 2.6V | 00:00:00 | 00:00:00 | 00:00:00 | |
| DL2RXE-15 | 2026-09-05 00:19:22 | 49.47503 | 13.45787 | 111° | 5km/h | 27053m | 4.7m/s | 0°C | 0% | 19.5hPa | 2.6V | 00:00:00 | 00:00:00 | 00:00:00 | |
| PETON7-10 | 2026-09-05 00:19:21 | 49.47503 | 13.45784 | 33° | 7km/h | 27042m | 5.3m/s | -49.9°C | 3.7% | 19.5hPa | 2.6V | 00:00:00 | 02:16:45 | 00:00:00 | |
| DL6DJ-15 | 2026-09-05 00:19:20 | 49.47502 | 13.45784 | 21° | 4km/h | 27037m | 4.6m/s | -50.0°C | 1.0% | 19.5hPa | 2.6V | 00:00:00 | 00:00:00 | 00:00:00 | |
| OE3MUC-15 | 2026-09-05 00:19:18 | 49.47501 | 13.45782 | 151° | 9km/h | 27028m | 5.9m/s | -50.1°C | 3.7% | 19.5hPa | 2.6V | 00:00:00 | 00:00:00 | 00:00:00 | |
| OE3MUC-15 | 2026-09-05 00:19:14 | 49.47509 | 13.45774 | 115° | 9km/h | 27007m | 5.9m/s | -50.5°C | 3.8% | 19.6hPa | 2.6V | 03:48:00 | 00:00:00 | 00:00:00 | |
| PG1ADW-2 | 2026-09-05 00:19:11 | 49.47508 | 13.45764 | 68° | 9km/h | 26991m | 5.6m/s | -50.6°C | 3.9% | 19.6hPa | 2.5V | 00:00:00 | 00:00:00 | 00:00:00 | |
| OE3MUC-15 | 2026-09-05 00:19:10 | 49.47507 | 13.45760 | 69° | 7km/h | 26985m | 5.9m/s | -50.6°C | 3.9% | 19.7hPa | 2.5V | 00:00:00 | 00:00:00 | 00:00:00 | |
| EDDB2-11 | 2026-09-05 00:19:07 | 49.47503 | 13.45754 | 25° | 7km/h | 26969m | 6.1m/s | -50.7°C | 1.1% | 19.8hPa | 2.5V | 00:00:00 | 00:00:00 | 00:00:00 | |
| PETON7-10 | 2026-09-05 00:19:06 | 49.47501 | 13.45753 | 13° | 9km/h | 26964m | 4.8m/s | -50.6°C | 3.9% | 19.7hPa | 2.5V | 00:00:00 | 00:00:00 | 00:00:00 | |
| OE5MMP-10 | 2026-09-05 00:19:05 | 49.47500 | 13.45752 | 8° | 7km/h | 26960m | 3.4m/s | -50.6°C | 3.9% | 19.7hPa | 2.5V | 00:00:00 | 02:16:29 | 00:00:00 | |
| OE3MUC-15 | 2026-09-05 00:19:02 | 49.47501 | 13.45750 | 145° | 13km/h | 26944m | 5.4m/s | -50.6°C | 3.9% | 19.8hPa | 2.6V | 00:00:00 | 00:00:00 | 00:00:00 | |
| EDDB2-12 | 2026-09-05 00:18:58 | 49.47504 | 13.45724 | 70° | 16km/h | 26919m | 4.4m/s | -50.7°C | 1.1% | 19.9hPa | 2.5V | 00:00:00 | 00:00:00 | 00:00:00 | |
| DL6DJ-15 | 2026-09-05 00:18:49 | 49.47499 | 13.45724 | 312° | 9km/h | 26878m | 4.3m/s | -50.8°C | 1.1% | 20.0hPa | 2.5V | 00:00:00 | 00:00:00 | 00:00:00 | |
| OE5MMP-10 | 2026-09-05 00:18:47 | 49.47497 | 13.45726 | 46° | 13km/h | 26868m | 5.6m/s | -50.9°C | 3.9% | 20.0hPa | 2.5V | 00:00:00 | 02:16:11 | 00:00:00 | |
| OE3MUC-15 | 2026-09-05 00:18:46 | 49.47496 | 13.45723 | 74° | 18km/h | 26862m | 4.8m/s | -50.9°C | 3.9% | 20.1hPa | 2.5V | 00:00:00 | 00:00:00 | 00:00:00 | |
| OE3MUC-15 | 2026-09-05 00:18:42 | 49.47487 | 13.45696 | 48° | 20km/h | 26842m | 4.9m/s | -51.0°C | 4.0% | 20.1hPa | 2.5V | 03:48:00 | 00:00:00 | 00:00:00 | |
| OE3MUC-15 | 2026-09-05 00:18:38 | 49.47473 | 13.45681 | 345° | 11km/h | 26822m | 5.5m/s | -51.1°C | 4.1% | 20.2hPa | 2.5V | 00:00:00 | 00:00:00 | 00:00:00 | |
| OE5MMP-10 | 2026-09-05 00:18:35 | 49.47470 | 13.45694 | 288° | 18km/h | 26807m | 5.1m/s | -51.1°C | 4.0% | 20.2hPa | 2.6V | 00:00:00 | 02:15:59 | 00:00:00 | |
| OE3MUC-15 | 2026-09-05 00:18:34 | 49.47468 | 13.45700 | 302° | 16km/h | 26802m | 5.2m/s | -51.1°C | 4.1% | 20.2hPa | 2.6V | 00:00:00 | 00:00:00 | 00:00:00 | |
| OE5DRO-10 | 2026-09-05 00:18:33 | 49.47465 | 13.45705 | 321° | 13km/h | 26797m | 4.7m/s | !°C | 4.0% | 20.2hPa | 2.6V | 00:00:00 | 00:00:00 | 00:00:00 | |
| PG1ADW-2 | 2026-09-05 00:18:31 | 49.47458 | 13.45709 | 7° | 13km/h | 26788m | 4.6m/s | -51.1°C | 4.0% | 20.3hPa | 2.5V | 00:00:00 | 00:00:00 | 00:00:00 | |
| OE3MUC-15 | 2026-09-05 00:18:30 | 49.47455 | 13.45707 | 33° | 13km/h | 26783m | 5.6m/s | -51.1°C | 4.0% | 20.3hPa | 2.5V | 00:00:00 | 00:00:00 | 00:00:00 | |
| DL2RXE-15 | 2026-09-05 00:18:27 | 49.47451 | 13.45699 | 80° | 11km/h | 26772m | 4.9m/s | 0°C | 0% | 20.4hPa | 2.5V | 00:00:00 | 00:00:00 | 00:00:00 | |
| OE3MUC-15 | 2026-09-05 00:18:26 | 49.47451 | 13.45693 | 79° | 9km/h | 26763m | 4.1m/s | -51.0°C | 4.0% | 20.4hPa | 2.5V | 03:48:00 | 00:00:00 | 00:00:00 | |
| BAUMI2-15 | 2026-09-05 00:18:25 | 49.47450 | 13.45692 | 355° | 13km/h | 26758m | 5.1m/s | 0°C | 0% | 0hPa | 2.5V | 03:48:00 | 02:15:49 | 00:00:00 | |
| OE3MUC-15 | 2026-09-05 00:18:22 | 49.47442 | 13.45701 | 314° | 20km/h | 26742m | 4.9m/s | -50.9°C | 4.0% | 20.4hPa | 2.5V | 00:00:00 | 00:00:00 | 00:00:00 | |
| PETON7-10 | 2026-09-05 00:18:21 | 49.47438 | 13.45708 | 307° | 15km/h | 26736m | 5.0m/s | -50.8°C | 4.0% | 20.4hPa | 2.5V | 00:00:00 | 00:00:00 | 00:00:00 | |
| BAUMI2-15 | 2026-09-05 00:18:20 | 49.47436 | 13.45715 | 298° | 15km/h | 26731m | 6.0m/s | 0°C | 0% | 0hPa | 2.6V | 00:00:00 | 02:15:44 | 00:00:00 | |
| OE3MUC-15 | 2026-09-05 00:18:18 | 49.47432 | 13.45727 | 295° | 9km/h | 26721m | 4.3m/s | -50.7°C | 3.9% | 20.5hPa | 2.6V | 00:00:00 | 00:00:00 | 00:00:00 | |
| BAUMI2-15 | 2026-09-05 00:18:15 | 49.47427 | 13.45734 | 351° | 7km/h | 26704m | 5.1m/s | 0°C | 0% | 0hPa | 2.6V | 00:00:00 | 02:15:39 | 00:00:00 | |
| OE5DRO-10 | 2026-09-05 00:18:14 | 49.47425 | 13.45735 | 2° | 15km/h | 26699m | 5.2m/s | -50.6°C | 3.8% | 20.5hPa | 2.6V | 00:00:00 | 00:00:00 | 00:00:00 | |
| OE3MUC-15 | 2026-09-05 00:18:12 | 49.47421 | 13.45735 | 336° | 15km/h | 26688m | 4.7m/s | -50.5°C | 3.8% | 20.6hPa | 2.6V | 00:00:00 | 00:00:00 | 00:00:00 | |
| PG1ADW-2 | 2026-09-05 00:18:10 | 49.47417 | 13.45740 | 326° | 18km/h | 26678m | 5.3m/s | -50.5°C | 3.8% | 20.6hPa | 2.5V | 00:00:00 | 02:15:34 | 00:00:00 | |
| OE3MUC-15 | 2026-09-05 00:18:08 | 49.47408 | 13.45749 | 324° | 26km/h | 26667m | 5.1m/s | -50.5°C | 3.8% | 20.7hPa | 2.6V | 03:49:00 | 00:00:00 | 00:00:00 | |
| DL2RXE-15 | 2026-09-05 00:18:07 | 49.47408 | 13.45749 | 325° | 26km/h | 26667m | 5.1m/s | 0°C | 0% | 0hPa | 2.6V | 00:00:00 | 00:00:00 | 00:00:00 | |
| PETON7-10 | 2026-09-05 00:18:06 | 49.47398 | 13.45763 | 311° | 16km/h | 26657m | 5.2m/s | -50.5°C | 3.8% | 20.7hPa | 2.6V | 00:00:00 | 00:00:00 | 00:00:00 | |
| BAUMI2-15 | 2026-09-05 00:18:05 | 49.47395 | 13.45770 | 299° | 13km/h | 26651m | 5.8m/s | 0°C | 0% | 0hPa | 2.6V | 03:49:00 | 02:15:29 | 00:00:00 | |
| OE3MUC-15 | 2026-09-05 00:18:04 | 49.47393 | 13.45777 | 283° | 11km/h | 26646m | 5.0m/s | -50.6°C | 3.9% | 20.7hPa | 2.6V | 00:00:00 | 00:00:00 | 00:00:00 | |
| OE5MMP-10 | 2026-09-05 00:18:02 | 49.47393 | 13.45786 | 266° | 15km/h | 26636m | 4.8m/s | -50.7°C | 3.9% | 20.7hPa | 2.6V | 00:00:00 | 02:15:26 | 00:00:00 | |
| EDDB2-12 | 2026-09-05 00:17:56 | 49.47380 | 13.45806 | 305° | 18km/h | 26605m | 5.7m/s | -51.0°C | 1.1% | 20.9hPa | 2.6V | 00:00:00 | 00:00:00 | 00:00:00 | |
| DL6DJ-15 | 2026-09-05 00:17:47 | 49.47362 | 13.45887 | 278° | 24km/h | 26553m | 4.7m/s | -50.6°C | 1.1% | 21.1hPa | 2.6V | 00:00:00 | 00:00:00 | 00:00:00 | |
| BAUMI2-15 | 2026-09-05 00:17:45 | 49.47361 | 13.45896 | 281° | 18km/h | 26549m | 4.5m/s | 0°C | 0% | 0hPa | 2.6V | 03:49:00 | 02:15:09 | 00:00:00 | |
| OE5MMP-10 | 2026-09-05 00:17:42 | 49.47355 | 13.45914 | 321° | 11km/h | 26532m | 5.1m/s | -50.4°C | 3.8% | 21.1hPa | 2.6V | 00:00:00 | 02:15:06 | 00:00:00 | |
| BAUMI2-15 | 2026-09-05 00:17:40 | 49.47351 | 13.45919 | 316° | 9km/h | 26522m | 5.8m/s | 0°C | 0% | 0hPa | 2.6V | 00:00:00 | 02:15:04 | 00:00:00 | |
| PETON7-10 | 2026-09-05 00:17:36 | 49.47347 | 13.45930 | 306° | 16km/h | 26501m | 5.6m/s | -50.2°C | 3.8% | 21.2hPa | 2.6V | 03:49:00 | 00:00:00 | 00:00:00 | |
| BAUMI2-15 | 2026-09-05 00:17:35 | 49.47345 | 13.45933 | 320° | 13km/h | 26496m | 5.9m/s | 0°C | 0% | 0hPa | 2.6V | 00:00:00 | 02:14:59 | 00:00:00 | |
| EDDB2-11 | 2026-09-05 00:17:34 | 49.47340 | 13.45943 | 289° | 13km/h | 26480m | 5.7m/s | -50.5°C | 1.1% | 21.3hPa | 2.6V | 00:00:00 | 00:00:00 | 00:00:00 | |
| OE5MMP-10 | 2026-09-05 00:17:32 | 49.47340 | 13.45943 | 290° | 18km/h | 26481m | 5.7m/s | -50.5°C | 3.8% | 21.2hPa | 2.6V | 03:49:00 | 02:14:56 | 00:00:00 | |
| PG1ADW-2 | 2026-09-05 00:17:30 | 49.47339 | 13.45955 | 268° | 13km/h | 26469m | 5.2m/s | -50.6°C | 3.8% | 21.3hPa | 2.6V | 03:49:00 | 00:00:00 | 00:00:00 | |
| BAUMI2-15 | 2026-09-05 00:17:25 | 49.47331 | 13.45990 | 326° | 18km/h | 26444m | 5.2m/s | 0°C | 0% | 0hPa | 2.6V | 03:49:00 | 02:14:49 | 00:00:00 | |
| OE5MMP-10 | 2026-09-05 00:17:22 | 49.47320 | 13.45998 | 341° | 7km/h | 26428m | 5.1m/s | -50.8°C | 3.9% | 21.4hPa | 2.6V | 00:00:00 | 02:14:46 | 00:00:00 | |
| PETON7-10 | 2026-09-05 00:17:21 | 49.47318 | 13.45999 | 358° | 9km/h | 26423m | 4.9m/s | -50.8°C | 4.0% | 21.4hPa | 2.6V | 00:00:00 | 00:00:00 | 00:00:00 | |
| BAUMI2-15 | 2026-09-05 00:17:20 | 49.47316 | 13.45998 | 30° | 5km/h | 26417m | 5.7m/s | 0°C | 0% | 0hPa | 2.6V | 00:00:00 | 02:14:44 | 00:00:00 | |
| OE3MUC-15 | 2026-09-05 00:17:18 | 49.47314 | 13.45994 | 65° | 4km/h | 26406m | 5.0m/s | -50.9°C | 4.0% | 21.5hPa | 2.6V | 00:00:00 | 00:00:00 | 00:00:00 | |
| OE5DRO-10 | 2026-09-05 00:17:17 | 49.47313 | 13.45992 | 71° | 7km/h | 26401m | 4.4m/s | -50.9°C | 3.9% | 21.5hPa | 2.6V | 00:00:00 | 00:00:00 | 00:00:00 | |
| BAUMI2-15 | 2026-09-05 00:17:15 | 49.47314 | 13.45992 | 255° | 7km/h | 26390m | 5.9m/s | 0°C | 0% | 0hPa | 2.6V | 00:00:00 | 02:14:39 | 00:00:00 | |
| OE3MUC-15 | 2026-09-05 00:17:14 | 49.47314 | 13.45994 | 277° | 11km/h | 26384m | 4.7m/s | -50.9°C | 4.0% | 21.6hPa | 2.6V | 00:00:00 | 00:00:00 | 00:00:00 | |
| OE5MMP-10 | 2026-09-05 00:17:12 | 49.47311 | 13.46001 | 317° | 11km/h | 26374m | 6.3m/s | -50.9°C | 4.0% | 21.6hPa | 2.5V | 00:00:00 | 02:14:36 | 00:00:00 | |
| OE3MUC-15 | 2026-09-05 00:17:10 | 49.47305 | 13.46006 | 343° | 9km/h | 26362m | 5.3m/s | -51.0°C | 4.0% | 21.6hPa | 2.5V | 03:50:00 | 00:00:00 | 00:00:00 | |
| PETON7-10 | 2026-09-05 00:17:06 | 49.47295 | 13.46010 | 18° | 7km/h | 26341m | 4.8m/s | -50.9°C | 4.0% | 21.7hPa | 2.5V | 00:00:00 | 02:14:30 | 00:00:00 | |
| OE3MUC-15 | 2026-09-05 00:17:04 | 49.47292 | 13.46006 | 58° | 5km/h | 26329m | 5.6m/s | -50.9°C | 4.0% | 21.8hPa | 2.5V | 00:00:00 | 00:00:00 | 00:00:00 | |
| EDDB2-11 | 2026-09-05 00:17:03 | 49.47291 | 13.46003 | 60° | 7km/h | 26323m | 4.9m/s | -50.9°C | 1.1% | 21.8hPa | 2.5V | 00:00:00 | 00:00:00 | 00:00:00 | |
| OE5MMP-10 | 2026-09-05 00:17:02 | 49.47290 | 13.46001 | 62° | 7km/h | 26319m | 5.2m/s | -50.9°C | 4.0% | 21.8hPa | 2.5V | 00:00:00 | 02:14:26 | 00:00:00 | |
| DL2RXE-15 | 2026-09-05 00:17:01 | 49.47290 | 13.46001 | 63° | 4km/h | 26319m | 5.2m/s | 0°C | 0% | 0hPa | 2.5V | 00:00:00 | 00:00:00 | 00:00:00 | |
| OE3MUC-15 | 2026-09-05 00:17:00 | 49.47290 | 13.46001 | 270° | 7km/h | 26307m | 5.1m/s | -50.8°C | 4.0% | 21.8hPa | 2.5V | 00:00:00 | 00:00:00 | 00:00:00 | |
| BAUMI2-15 | 2026-09-05 00:16:59 | 49.47290 | 13.46004 | 282° | 7km/h | 26302m | 4.5m/s | 0°C | 0% | 0hPa | 2.6V | 00:00:00 | 02:14:23 | 00:00:00 | |
| OE5DRO-10 | 2026-09-05 00:16:58 | 49.47289 | 13.46006 | 304° | 7km/h | 26297m | 5.2m/s | -50.8°C | 3.9% | 21.9hPa | 2.6V | 00:00:00 | 00:00:00 | 00:00:00 | |
| OE3MUC-15 | 2026-09-05 00:16:56 | 49.47286 | 13.46009 | 360° | 9km/h | 26286m | 5.4m/s | -50.8°C | 4.0% | 21.9hPa | 2.6V | 00:00:00 | 00:00:00 | 00:00:00 | |
| BAUMI2-15 | 2026-09-05 00:16:54 | 49.47280 | 13.46008 | 14° | 5km/h | 26276m | 4.5m/s | 0°C | 0% | 0hPa | 2.6V | 00:00:00 | 02:14:18 | 00:00:00 | |
| OE3MUC-15 | 2026-09-05 00:16:52 | 49.47276 | 13.46007 | 341° | 5km/h | 26266m | 5.8m/s | -50.8°C | 4.0% | 22.0hPa | 2.6V | 03:50:00 | 00:00:00 | 00:00:00 | |
| PETON7-10 | 2026-09-05 00:16:51 | 49.47275 | 13.46008 | 308° | 5km/h | 26260m | 5.1m/s | -50.8°C | 4.0% | 22.0hPa | 2.6V | 00:00:00 | 00:00:00 | 00:00:00 | |
| PG1ADW-2 | 2026-09-05 00:16:50 | 49.47275 | 13.46010 | 298° | 5km/h | 26255m | 4.5m/s | -50.8°C | 4.0% | 22.0hPa | 2.5V | 00:00:00 | 02:14:14 | 00:00:00 | |
| OE3MUC-15 | 2026-09-05 00:16:48 | 49.47273 | 13.46012 | 353° | 7km/h | 26244m | 5.8m/s | -50.8°C | 4.0% | 22.1hPa | 2.5V | 00:00:00 | 00:00:00 | 00:00:00 | |
| S52SK | 2026-09-05 00:16:46 | 49.47271 | 13.46012 | 4° | 7km/h | 26239m | 5.2m/s | -50.9°C | 1.1% | 22.1hPa | 2.6V | 00:00:00 | 00:00:00 | 00:00:00 | |
| OE3MUC-15 | 2026-09-05 00:16:44 | 49.47266 | 13.46014 | 311° | 7km/h | 26223m | 6.1m/s | -50.9°C | 4.0% | 22.1hPa | 2.6V | 00:00:00 | 00:00:00 | 00:00:00 | |
| BAUMI2-15 | 2026-09-05 00:16:42 | 49.47265 | 13.46020 | 279° | 5km/h | 26213m | 4.6m/s | 0°C | 0% | 0hPa | 2.6V | 00:00:00 | 02:14:06 | 00:00:00 | |
| OE3MUC-15 | 2026-09-05 00:16:38 | 49.47267 | 13.46021 | 179° | 5km/h | 26191m | 5.0m/s | -50.8°C | 4.0% | 22.2hPa | 2.6V | 00:00:00 | 00:00:00 | 00:00:00 | |
| PETON7-10 | 2026-09-05 00:16:36 | 49.47270 | 13.46023 | 233° | 7km/h | 26180m | 5.4m/s | -50.7°C | 4.0% | 22.3hPa | 2.6V | 03:50:00 | 00:00:00 | 00:00:00 | |
| OE3MUC-15 | 2026-09-05 00:16:34 | 49.47271 | 13.46028 | 290° | 7km/h | 26170m | 5.3m/s | -50.7°C | 4.0% | 22.3hPa | 2.6V | 03:50:00 | 00:00:00 | 00:00:00 | |
| OE5MMP-10 | 2026-09-05 00:16:32 | 49.47268 | 13.46031 | 358° | 7km/h | 26158m | 5.3m/s | -50.7°C | 4.0% | 22.3hPa | 2.6V | 00:00:00 | 02:13:56 | 00:00:00 | |
| PG1ADW-2 | 2026-09-05 00:16:30 | 49.47262 | 13.46031 | 355° | 7km/h | 26148m | 4.9m/s | -50.6°C | 4.0% | 22.4hPa | 2.6V | 00:00:00 | 00:00:00 | 00:00:00 | |
| PETON7-10 | 2026-09-05 00:16:21 | 49.47256 | 13.46033 | 68° | 9km/h | 26100m | 5.3m/s | -50.3°C | 3.9% | 22.5hPa | 2.6V | 00:00:00 | 02:13:45 | 00:00:00 | |
| OE5MMP-10 | 2026-09-05 00:16:20 | 49.47255 | 13.46029 | 58° | 7km/h | 26094m | 6.0m/s | -50.3°C | 3.9% | 22.6hPa | 2.6V | 00:00:00 | 02:13:44 | 00:00:00 | |
| DL6DJ-15 | 2026-09-05 00:16:13 | 49.47252 | 13.46013 | 189° | 5km/h | 26056m | 6.6m/s | -50.2°C | 1.1% | 22.8hPa | 2.6V | 00:00:00 | 00:00:00 | 00:00:00 | |
| SONDE2-11 | 2026-09-05 00:16:12 | 49.47255 | 13.46016 | 209° | 7km/h | 26044m | 5.1m/s | -50.2°C | 1.1% | 22.8hPa | 2.6V | 00:00:00 | 00:00:00 | 00:00:00 | |
| OE3MUC-15 | 2026-09-05 00:16:11 | 49.47255 | 13.46016 | 210° | 7km/h | 26044m | 5.0m/s | -50.2°C | 3.8% | 22.7hPa | 2.6V | 00:00:00 | 00:00:00 | 00:00:00 | |
| PG1ADW-2 | 2026-09-05 00:16:10 | 49.47256 | 13.46017 | 189° | 15km/h | 26039m | 5.4m/s | -50.2°C | 3.8% | 22.8hPa | 2.6V | 03:51:00 | 00:00:00 | 00:00:00 | |
| PETON7-10 | 2026-09-05 00:16:06 | 49.47252 | 13.46003 | 49° | 15km/h | 26017m | 6.2m/s | -50.3°C | 3.8% | 22.9hPa | 2.5V | 00:00:00 | 00:00:00 | 00:00:00 | |
| EDDB2-11 | 2026-09-05 00:16:01 | 49.47237 | 13.45975 | 70° | 15km/h | 25990m | 5.0m/s | -50.3°C | 1.1% | 23.0hPa | 2.6V | 00:00:00 | 00:00:00 | 00:00:00 | |
| EDDB2-12 | 2026-09-05 00:15:52 | 49.47251 | 13.45954 | 74° | 20km/h | 25942m | 5.1m/s | -50.4°C | 1.1% | 23.2hPa | 2.6V | 00:00:00 | 00:00:00 | 00:00:00 | |
| PETON7-10 | 2026-09-05 00:15:51 | 49.47249 | 13.45947 | 66° | 15km/h | 25937m | 5.8m/s | -50.4°C | 3.9% | 23.1hPa | 2.6V | 00:00:00 | 00:00:00 | 00:00:00 | |
| OE5MMP-10 | 2026-09-05 00:15:50 | 49.47246 | 13.45939 | 58° | 15km/h | 25931m | 6.2m/s | -50.4°C | 3.9% | 23.2hPa | 2.6V | 00:00:00 | 02:13:14 | 00:00:00 | |
| OE5DRO-10 | 2026-09-05 00:15:42 | 49.47236 | 13.45897 | 127° | 11km/h | 25888m | 6.0m/s | -50.4°C | 3.9% | 23.3hPa | 2.6V | 00:00:00 | 00:00:00 | 00:00:00 | |
| SONDE2-11 | 2026-09-05 00:15:41 | 49.47239 | 13.45893 | 159° | 5km/h | 25876m | 4.9m/s | -50.4°C | 1.1% | 23.4hPa | 2.5V | 00:00:00 | 00:00:00 | 00:00:00 | |
| OE5MMP-10 | 2026-09-05 00:15:40 | 49.47239 | 13.45893 | 160° | 11km/h | 25877m | 4.9m/s | -50.4°C | 3.9% | 23.3hPa | 2.5V | 00:00:00 | 02:13:04 | 00:00:00 | |
| DL2RXE-15 | 2026-09-05 00:15:37 | 49.47242 | 13.45890 | 136° | 9km/h | 25866m | 6.0m/s | 0°C | 0% | 0hPa | 2.5V | 00:00:00 | 00:00:00 | 00:00:00 | |
| PETON7-10 | 2026-09-05 00:15:36 | 49.47245 | 13.45883 | 109° | 13km/h | 25855m | 4.8m/s | -50.4°C | 3.9% | 23.4hPa | 2.5V | 03:51:00 | 02:13:00 | 00:00:00 | |
| PG1ADW-2 | 2026-09-05 00:15:30 | 49.47246 | 13.45858 | 112° | 16km/h | 25824m | 5.9m/s | -50.3°C | 3.9% | 23.5hPa | 2.5V | 00:00:00 | 02:12:54 | 00:00:00 | |
| OE5DRO-10 | 2026-09-05 00:15:23 | 49.47257 | 13.45821 | 95° | 16km/h | 25786m | 4.7m/s | -50.2°C | 3.9% | 23.7hPa | 2.5V | 03:51:00 | 00:00:00 | 00:00:00 | |
| PETON7-10 | 2026-09-05 00:15:21 | 49.47258 | 13.45809 | 102° | 16km/h | 25775m | 5.8m/s | -50.2°C | 3.9% | 23.7hPa | 2.5V | 00:00:00 | 00:00:00 | 00:00:00 | |
| OE5MMP-10 | 2026-09-05 00:15:20 | 49.47259 | 13.45803 | 101° | 20km/h | 25769m | 5.4m/s | -50.1°C | 3.9% | 23.7hPa | 2.5V | 00:00:00 | 02:12:44 | 00:00:00 | |
| OE3MUC-15 | 2026-09-05 00:15:17 | 49.47259 | 13.45782 | 86° | 18km/h | 25753m | 4.9m/s | -50.1°C | 3.9% | 23.8hPa | 2.5V | 00:00:00 | 00:00:00 | 00:00:00 | |
| OE3MUC-15 | 2026-09-05 00:15:13 | 49.47263 | 13.45752 | 115° | 15km/h | 25732m | 4.8m/s | -50.0°C | 3.9% | 23.9hPa | 2.6V | 00:00:00 | 00:00:00 | 00:00:00 | |
| DL6DJ-15 | 2026-09-05 00:15:11 | 49.47267 | 13.45737 | 111° | 16km/h | 25723m | 5.7m/s | -50.0°C | 1.1% | 24.0hPa | 2.6V | 00:00:00 | 00:00:00 | 00:00:00 | |
| SONDE2-11 | 2026-09-05 00:15:10 | 49.47269 | 13.45722 | 103° | 9km/h | 25706m | 4.8m/s | -50.0°C | 1.1% | 24.0hPa | 2.6V | 00:00:00 | 00:00:00 | 00:00:00 | |
| OE3MUC-15 | 2026-09-05 00:15:07 | 49.47270 | 13.45718 | 114° | 15km/h | 25701m | 5.8m/s | -50.0°C | 3.8% | 24.0hPa | 2.6V | 00:00:00 | 00:00:00 | 00:00:00 | |
| PETON7-10 | 2026-09-05 00:15:06 | 49.47272 | 13.45714 | 124° | 15km/h | 25695m | 5.5m/s | -49.9°C | 3.8% | 24.0hPa | 2.6V | 00:00:00 | 00:00:00 | 00:00:00 | |
| OE5DRO-10 | 2026-09-05 00:15:04 | 49.47276 | 13.45705 | 129° | 13km/h | 25685m | 4.6m/s | -49.9°C | 3.8% | 24.1hPa | 2.6V | 00:00:00 | 00:00:00 | 00:00:00 | |
| EDDB2-11 | 2026-09-05 00:14:59 | 49.47284 | 13.45678 | 119° | 16km/h | 25653m | 5.9m/s | -49.9°C | 1.1% | 24.2hPa | 2.6V | 00:00:00 | 00:00:00 | 00:00:00 | |
| PETON7-10 | 2026-09-05 00:14:51 | 49.47297 | 13.45644 | 118° | 18km/h | 25618m | 4.6m/s | -49.9°C | 3.8% | 24.3hPa | 2.6V | 00:00:00 | 02:12:15 | 00:00:00 | |
| PG1ADW-2 | 2026-09-05 00:14:50 | 49.47299 | 13.45642 | 131° | 16km/h | 25613m | 5.9m/s | -49.9°C | 3.8% | 24.3hPa | 2.6V | 03:52:00 | 00:00:00 | 00:00:00 | |
| OE5DRO-10 | 2026-09-05 00:14:45 | 49.47308 | 13.45621 | 101° | 18km/h | 25586m | 5.2m/s | -49.9°C | 3.7% | 24.4hPa | 2.6V | 00:00:00 | 00:00:00 | 00:00:00 | |
| DL2RXE-15 | 2026-09-05 00:14:44 | 49.47308 | 13.45621 | 101° | 15km/h | 25586m | 5.2m/s | 0°C | 0% | 0hPa | 2.5V | 00:00:00 | 00:00:00 | 00:00:00 | |
| OE5MMP-10 | 2026-09-05 00:14:40 | 49.47313 | 13.45579 | 112° | 15km/h | 25561m | 5.0m/s | -49.9°C | 3.8% | 24.5hPa | 2.5V | 00:00:00 | 02:12:04 | 00:00:00 | |
| SONDE2-11 | 2026-09-05 00:14:39 | 49.47318 | 13.45560 | 109° | 22km/h | 25551m | 5.7m/s | -50.0°C | 1.1% | 24.6hPa | 2.5V | 00:00:00 | 00:00:00 | 00:00:00 | |
| PETON7-10 | 2026-09-05 00:14:36 | 49.47320 | 13.45548 | 102° | 18km/h | 25541m | 4.9m/s | -50.1°C | 3.8% | 24.6hPa | 2.5V | 03:52:00 | 00:00:00 | 00:00:00 | |
| S52SK | 2026-09-05 00:14:33 | 49.47322 | 13.45542 | 133° | 7km/h | 25531m | 5.5m/s | -50.2°C | 1.1% | 24.7hPa | 2.6V | 00:00:00 | 00:00:00 | 00:00:00 | |
| OE5MMP-10 | 2026-09-05 00:14:30 | 49.47326 | 13.45527 | 91° | 18km/h | 25511m | 6.2m/s | -50.2°C | 3.8% | 24.7hPa | 2.6V | 00:00:00 | 02:11:54 | 00:00:00 | |
| EDDB2-11 | 2026-09-05 00:14:28 | 49.47323 | 13.45501 | 80° | 26km/h | 25495m | 5.1m/s | -50.3°C | 1.1% | 24.8hPa | 2.6V | 00:00:00 | 00:00:00 | 00:00:00 | |
| OE5DRO-10 | 2026-09-05 00:14:26 | 49.47323 | 13.45491 | 88° | 18km/h | 25490m | 5.4m/s | -50.2°C | 3.9% | 24.8hPa | 2.6V | 00:00:00 | 00:00:00 | 00:00:00 | |
| PETON7-10 | 2026-09-05 00:14:21 | 49.47323 | 13.45461 | 67° | 18km/h | 25465m | 5.2m/s | -50.4°C | 3.9% | 24.9hPa | 2.6V | 00:00:00 | 00:00:00 | 00:00:00 | |
| OE5MMP-10 | 2026-09-05 00:14:20 | 49.47322 | 13.45458 | 63° | 18km/h | 25460m | 4.4m/s | -50.4°C | 3.9% | 24.9hPa | 2.6V | 00:00:00 | 02:11:44 | 00:00:00 | |
| OE3MUC-15 | 2026-09-05 00:14:19 | 49.47321 | 13.45454 | 72° | 18km/h | 25455m | 4.9m/s | -50.4°C | 3.9% | 24.9hPa | 2.6V | 00:00:00 | 00:00:00 | 00:00:00 | |
| OE3MUC-15 | 2026-09-05 00:14:14 | 49.47319 | 13.45420 | 73° | 24km/h | 25430m | 5.4m/s | -50.3°C | 3.9% | 25.0hPa | 2.6V | 00:00:00 | 00:00:00 | 00:00:00 | |
| OE3MUC-15 | 2026-09-05 00:14:10 | 49.47306 | 13.45392 | 51° | 20km/h | 25411m | 4.3m/s | -50.3°C | 3.9% | 25.1hPa | 2.6V | 00:00:00 | 00:00:00 | 00:00:00 | |
| DL6DJ-15 | 2026-09-05 00:14:09 | 49.47303 | 13.45386 | 65° | 16km/h | 25405m | 5.9m/s | -50.4°C | 1.1% | 25.2hPa | 2.6V | 00:00:00 | 00:00:00 | 00:00:00 | |
| OE5DRO-10 | 2026-09-05 00:14:07 | 49.47302 | 13.45374 | 100° | 20km/h | 25393m | 5.3m/s | -50.3°C | 3.9% | 25.2hPa | 2.6V | 03:53:00 | 00:00:00 | 00:00:00 | |
| PETON7-10 | 2026-09-05 00:14:06 | 49.47303 | 13.45368 | 102° | 20km/h | 25388m | 5.1m/s | -50.4°C | 3.9% | 25.2hPa | 2.6V | 00:00:00 | 02:11:30 | 00:00:00 | |
| OE3MUC-15 | 2026-09-05 00:14:02 | 49.47303 | 13.45338 | 82° | 24km/h | 25368m | 4.8m/s | -50.4°C | 3.9% | 25.3hPa | 2.6V | 03:53:00 | 00:00:00 | 00:00:00 | |
| EDDB2-11 | 2026-09-05 00:13:57 | 49.47291 | 13.45286 | 48° | 24km/h | 25336m | 5.0m/s | -50.3°C | 1.2% | 25.4hPa | 2.6V | 00:00:00 | 00:00:00 | 00:00:00 | |
| OE3MUC-15 | 2026-09-05 00:13:52 | 49.47280 | 13.45266 | 67° | 15km/h | 25316m | 4.2m/s | -50.1°C | 3.8% | 25.5hPa | 2.6V | 00:00:00 | 00:00:00 | 00:00:00 | |
| PETON7-10 | 2026-09-05 00:13:51 | 49.47279 | 13.45261 | 66° | 22km/h | 25311m | 5.1m/s | -50.1°C | 3.8% | 25.5hPa | 2.5V | 00:00:00 | 00:00:00 | 00:00:00 | |
| OE5MMP-10 | 2026-09-05 00:13:50 | 49.47277 | 13.45256 | 62° | 26km/h | 25306m | 5.8m/s | -50.1°C | 3.8% | 25.5hPa | 2.5V | 00:00:00 | 02:11:14 | 00:00:00 | |
| OE3MUC-15 | 2026-09-05 00:13:48 | 49.47272 | 13.45242 | 62° | 20km/h | 25295m | 4.8m/s | -50.2°C | 3.9% | 25.5hPa | 2.5V | 00:00:00 | 00:00:00 | 00:00:00 | |
| SP3BTT-10 | 2026-09-05 00:13:44 | 49.47262 | 13.45207 | 67° | 16km/h | 25274m | 4.9m/s | -50.4°C | 3.9% | 25.6hPa | 2.5V | 00:00:00 | 00:00:00 | 00:00:00 | |
| DL6DJ-15 | 2026-09-05 00:13:38 | 49.47241 | 13.45160 | 44° | 13km/h | 25241m | 5.3m/s | -50.4°C | 1.1% | 25.8hPa | 2.5V | 00:00:00 | 00:00:00 | 00:00:00 | |
| OE5MMP-10 | 2026-09-05 00:13:30 | 49.47219 | 13.45131 | 56° | 15km/h | 25200m | 4.3m/s | -50.4°C | 3.9% | 25.9hPa | 2.5V | 03:53:00 | 02:10:54 | 00:00:00 | |
| OE5DRO-10 | 2026-09-05 00:13:29 | 49.47216 | 13.45125 | 52° | 15km/h | 25196m | 5.1m/s | -50.3°C | 3.9% | 25.9hPa | 2.5V | 00:00:00 | 00:00:00 | 00:00:00 | |
| EDDB2-11 | 2026-09-05 00:13:26 | 49.47198 | 13.45106 | 19° | 18km/h | 25176m | 4.5m/s | -50.3°C | 1.1% | 26.1hPa | 2.5V | 00:00:00 | 00:00:00 | 00:00:00 | |
| OE5MMP-10 | 2026-09-05 00:13:20 | 49.47194 | 13.45098 | 115° | 15km/h | 25151m | 4.8m/s | -50.1°C | 3.8% | 26.1hPa | 2.5V | 00:00:00 | 02:10:44 | 00:00:00 | |
| PETON7-10 | 2026-09-05 00:13:16 | 49.47186 | 13.45083 | 20° | 11km/h | 25130m | 5.3m/s | -50.2°C | 3.8% | 26.2hPa | 2.5V | 00:00:00 | 02:10:40 | 00:00:00 | |
| OE5MMP-10 | 2026-09-05 00:13:10 | 49.47164 | 13.45084 | 10° | 7km/h | 25099m | 5.1m/s | -50.2°C | 3.8% | 26.3hPa | 2.5V | 00:00:00 | 02:10:34 | 00:00:00 | |
| DL6DJ-15 | 2026-09-05 00:13:07 | 49.47159 | 13.45078 | 54° | 7km/h | 25084m | 4.3m/s | -50.4°C | 1.1% | 26.4hPa | 2.5V | 00:00:00 | 00:00:00 | 00:00:00 | |
| EDDB2-11 | 2026-09-05 00:12:55 | 49.47136 | 13.45091 | 170° | 2km/h | 25015m | 5.9m/s | -50.6°C | 1.1% | 26.7hPa | 2.5V | 00:00:00 | 00:00:00 | 00:00:00 | |
| SP3BTT-10 | 2026-09-05 00:12:52 | 49.47138 | 13.45088 | 133° | 7km/h | 25005m | 4.6m/s | -50.7°C | 3.9% | 26.7hPa | 2.5V | 00:00:00 | 00:00:00 | 00:00:00 | |
| OE5DRO-10 | 2026-09-05 00:12:51 | 49.47140 | 13.45085 | 126° | 13km/h | 25000m | 4.6m/s | -50.7°C | 3.9% | 26.7hPa | 2.5V | 03:54:00 | 00:00:00 | 00:00:00 | |
| OE5MMP-10 | 2026-09-05 00:12:50 | 49.47141 | 13.45082 | 120° | 9km/h | 24995m | 5.7m/s | -50.7°C | 3.9% | 26.7hPa | 2.5V | 03:54:00 | 02:10:14 | 00:00:00 | |
| PETON7-10 | 2026-09-05 00:12:45 | 49.47142 | 13.45087 | 214° | 15km/h | 24968m | 6.4m/s | -50.9°C | 4.0% | 26.9hPa | 2.5V | 00:00:00 | 00:00:00 | 00:00:00 | |
| OE5MMP-10 | 2026-09-05 00:12:40 | 49.47158 | 13.45098 | 186° | 16km/h | 24941m | 4.2m/s | -50.9°C | 4.0% | 27.0hPa | 2.5V | 00:00:00 | 02:10:04 | 00:00:00 | |
| S52SK | 2026-09-05 00:12:35 | 49.47175 | 13.45088 | 141° | 20km/h | 24920m | 5.2m/s | -50.9°C | 1.2% | 27.1hPa | 2.5V | 00:00:00 | 00:00:00 | 00:00:00 | |
| OE5DRO-10 | 2026-09-05 00:12:32 | 49.47186 | 13.45072 | 155° | 22km/h | 24901m | 4.7m/s | -50.8°C | 3.9% | 27.2hPa | 2.5V | 00:00:00 | 00:00:00 | 00:00:00 | |
| OE5MMP-10 | 2026-09-05 00:12:30 | 49.47195 | 13.45069 | 175° | 18km/h | 24889m | 5.7m/s | -50.8°C | 3.9% | 27.2hPa | 2.5V | 00:00:00 | 02:09:54 | 00:00:00 | |
| PETON7-10 | 2026-09-05 00:12:29 | 49.47201 | 13.45068 | 180° | 26km/h | 24884m | 5.0m/s | -50.8°C | 4.0% | 27.2hPa | 2.5V | 03:54:00 | 02:09:53 | 00:00:00 | |
| PG1ADW-2 | 2026-09-05 00:12:26 | 49.47219 | 13.45069 | 182° | 24km/h | 24870m | 5.6m/s | -50.9°C | 4.0% | 27.3hPa | 2.5V | 00:00:00 | 00:00:00 | 00:00:00 | |
| OE3MUC-15 | 2026-09-05 00:12:25 | 49.47222 | 13.45069 | 176° | 13km/h | 24865m | 5.4m/s | -51.0°C | 4.0% | 27.3hPa | 2.5V | 03:54:00 | 00:00:00 | 00:00:00 | |
| EDDB2-11 | 2026-09-05 00:12:23 | 49.47227 | 13.45065 | 134° | 11km/h | 24855m | 4.3m/s | -51.0°C | 1.2% | 27.4hPa | 2.5V | 00:00:00 | 00:00:00 | 00:00:00 | |
| OE5MMP-10 | 2026-09-05 00:12:20 | 49.47238 | 13.45050 | 142° | 27km/h | 24840m | 5.2m/s | -50.9°C | 4.0% | 27.4hPa | 2.5V | 00:00:00 | 02:09:44 | 00:00:00 | |
| OE5WHR-10 | 2026-09-05 00:12:18 | 49.47250 | 13.45036 | 148° | 24km/h | 24830m | 4.7m/s | -50.9°C | 4.0% | 27.4hPa | 2.5V | 03:55:00 | 00:00:00 | 00:00:00 | |
| OE3MUC-15 | 2026-09-05 00:12:14 | 49.47274 | 13.45012 | 145° | 24km/h | 24809m | 4.8m/s | -50.8°C | 4.0% | 27.5hPa | 2.6V | 00:00:00 | 00:00:00 | 00:00:00 | |
| PETON7-10 | 2026-09-05 00:12:13 | 49.47279 | 13.45006 | 145° | 22km/h | 24805m | 4.7m/s | -50.8°C | 4.0% | 27.5hPa | 2.6V | 00:00:00 | 00:00:00 | 00:00:00 | |
| OE5MMP-10 | 2026-09-05 00:12:10 | 49.47297 | 13.44988 | 150° | 22km/h | 24788m | 4.6m/s | -50.8°C | 4.0% | 27.6hPa | 2.5V | 03:55:00 | 02:09:34 | 00:00:00 | |
| DL6DJ-15 | 2026-09-05 00:12:06 | 49.47323 | 13.44966 | 145° | 18km/h | 24762m | 5.4m/s | -50.7°C | 1.1% | 27.8hPa | 2.5V | 00:00:00 | 00:00:00 | 00:00:00 | |
| OE5MMP-10 | 2026-09-05 00:12:00 | 49.47343 | 13.44940 | 138° | 18km/h | 24734m | 6.2m/s | -50.5°C | 3.9% | 27.9hPa | 2.5V | 00:00:00 | 02:09:24 | 00:00:00 | |
| PETON7-10 | 2026-09-05 00:11:58 | 49.47349 | 13.44932 | 140° | 20km/h | 24724m | 4.8m/s | -50.5°C | 3.9% | 27.9hPa | 2.5V | 00:00:00 | 00:00:00 | 00:00:00 | |
| DL1JEZ-13 | 2026-09-05 00:11:55 | 49.47356 | 13.44922 | 142° | 22km/h | 24712m | 5.5m/s | -50.5°C | 1.2% | 28.0hPa | 2.5V | 00:00:00 | 00:00:00 | 00:00:00 | |
| OE5DRO-10 | 2026-09-05 00:11:54 | 49.47365 | 13.44912 | 142° | 18km/h | 24703m | 4.8m/s | -50.5°C | 3.8% | 28.0hPa | 2.5V | 00:00:00 | 00:00:00 | 00:00:00 | |
| OE3MUC-15 | 2026-09-05 00:11:53 | 49.47369 | 13.44907 | 143° | 16km/h | 24697m | 6.0m/s | -50.5°C | 3.8% | 28.0hPa | 2.5V | 03:55:00 | 00:00:00 | 00:00:00 | |
| OE5WHR-10 | 2026-09-05 00:11:52 | 49.47373 | 13.44903 | 144° | 18km/h | 24692m | 5.8m/s | -50.5°C | 3.8% | 28.0hPa | 2.6V | 00:00:00 | 00:00:00 | 00:00:00 | |
| OE5MMP-10 | 2026-09-05 00:11:50 | 49.47379 | 13.44896 | 145° | 18km/h | 24681m | 4.9m/s | -50.6°C | 3.9% | 28.1hPa | 2.6V | 00:00:00 | 02:09:14 | 00:00:00 | |
| OE3MUC-15 | 2026-09-05 00:11:49 | 49.47382 | 13.44892 | 144° | 16km/h | 24676m | 5.6m/s | -50.6°C | 3.9% | 28.1hPa | 2.6V | 00:00:00 | 00:00:00 | 00:00:00 | |
| PG1ADW-2 | 2026-09-05 00:11:46 | 49.47397 | 13.44876 | 148° | 18km/h | 24660m | 4.4m/s | 0°C | 0% | 0hPa | 2.6V | 00:00:00 | 00:00:00 | 00:00:00 | |
| PETON7-10 | 2026-09-05 00:11:43 | 49.47411 | 13.44865 | 158° | 20km/h | 24644m | 5.2m/s | -50.7°C | 3.9% | 28.2hPa | 2.6V | 00:00:00 | 02:09:07 | 00:00:00 | |
| DO3MHA-11 | 2026-09-05 00:11:42 | 49.47414 | 13.44863 | 146° | 16km/h | 24639m | 4.8m/s | -50.8°C | 4.0% | 28.3hPa | 2.6V | 03:55:00 | 02:09:06 | 00:00:00 | |
| OE5MMP-10 | 2026-09-05 00:11:40 | 49.47417 | 13.44856 | 114° | 22km/h | 24627m | 6.1m/s | -50.7°C | 3.9% | 28.3hPa | 2.6V | 00:00:00 | 02:09:04 | 00:00:00 | |
| OE5DRO-10 | 2026-09-05 00:11:35 | 49.47427 | 13.44830 | 140° | 24km/h | 24600m | 4.9m/s | -50.8°C | 3.9% | 28.4hPa | 2.6V | 03:55:00 | 00:00:00 | 00:00:00 | |
| DL6DJ-15 | 2026-09-05 00:11:34 | 49.47432 | 13.44824 | 143° | 27km/h | 24594m | 6.7m/s | -50.9°C | 1.1% | 28.5hPa | 2.6V | 00:00:00 | 00:00:00 | 00:00:00 | |
| OE5WHR-10 | 2026-09-05 00:11:30 | 49.47458 | 13.44799 | 156° | 24km/h | 24575m | 5.7m/s | -50.9°C | 4.0% | 28.5hPa | 2.6V | 00:00:00 | 02:08:54 | 00:00:00 | |
| PETON7-10 | 2026-09-05 00:11:28 | 49.47466 | 13.44794 | 144° | 18km/h | 24563m | 5.5m/s | -50.9°C | 4.0% | 28.6hPa | 2.6V | 03:55:00 | 00:00:00 | 00:00:00 | |
| SONDE2-11 | 2026-09-05 00:11:27 | 49.47467 | 13.44792 | 81° | 5km/h | 24558m | 5.2m/s | -51.0°C | 1.2% | 28.7hPa | 2.6V | 00:00:00 | 00:00:00 | 00:00:00 | |
| DO3MHA-11 | 2026-09-05 00:11:26 | 49.47466 | 13.44788 | 66° | 24km/h | 24553m | 5.2m/s | -50.9°C | 4.0% | 28.7hPa | 2.6V | 00:00:00 | 02:08:50 | 00:00:00 | |
| EDDB2-11 | 2026-09-05 00:11:21 | 49.47469 | 13.44744 | 122° | 29km/h | 24526m | 5.9m/s | -50.9°C | 1.2% | 28.8hPa | 2.6V | 00:00:00 | 00:00:00 | 00:00:00 | |
| OE5MMP-10 | 2026-09-05 00:11:20 | 49.47474 | 13.44734 | 133° | 22km/h | 24520m | 5.8m/s | -50.9°C | 3.9% | 28.8hPa | 2.6V | 00:00:00 | 02:08:44 | 00:00:00 | |
| OE5DRO-10 | 2026-09-05 00:11:16 | 49.47491 | 13.44708 | 125° | 24km/h | 24499m | 5.4m/s | -50.9°C | 4.0% | 28.9hPa | 2.6V | 00:00:00 | 00:00:00 | 00:00:00 | |
| DO3MHA-11 | 2026-09-05 00:11:15 | 49.47494 | 13.44701 | 112° | 24km/h | 24493m | 5.4m/s | -50.9°C | 4.0% | 28.9hPa | 2.6V | 00:00:00 | 02:08:39 | 00:00:00 | |
| OE5MMP-10 | 2026-09-05 00:11:10 | 49.47491 | 13.44664 | 75° | 24km/h | 24466m | 5.9m/s | -51.0°C | 4.0% | 29.0hPa | 2.6V | 00:00:00 | 02:08:34 | 00:00:00 | |
| PG1ADW-2 | 2026-09-05 00:11:06 | 49.47486 | 13.44614 | 93° | 27km/h | 24444m | 6.0m/s | -51.1°C | 3.9% | 29.1hPa | 2.5V | 00:00:00 | 00:00:00 | 00:00:00 | |
| DO3MHA-11 | 2026-09-05 00:11:05 | 49.47487 | 13.44604 | 97° | 26km/h | 24438m | 5.8m/s | -51.1°C | 4.0% | 29.1hPa | 2.5V | 00:00:00 | 02:08:29 | 00:00:00 | |
| DL6DJ-15 | 2026-09-05 00:11:03 | 49.47488 | 13.44591 | 85° | 13km/h | 24428m | 4.6m/s | -51.2°C | 1.2% | 29.2hPa | 2.5V | 00:00:00 | 00:00:00 | 00:00:00 | |
| SONDE2-11 | 2026-09-05 00:10:56 | 49.47468 | 13.44530 | 69° | 35km/h | 24390m | 6.2m/s | -51.2°C | 1.2% | 29.4hPa | 2.5V | 00:00:00 | 00:00:00 | 00:00:00 | |
| DO3MHA-11 | 2026-09-05 00:10:55 | 49.47465 | 13.44517 | 74° | 29km/h | 24384m | 5.7m/s | -51.2°C | 4.0% | 29.4hPa | 2.5V | 03:56:00 | 02:08:19 | 00:00:00 | |
| OE3MUC-15 | 2026-09-05 00:10:54 | 49.47462 | 13.44505 | 74° | 31km/h | 24379m | 4.6m/s | -51.2°C | 4.0% | 29.4hPa | 2.5V | 00:00:00 | 00:00:00 | 00:00:00 | |
| OE5MMP-10 | 2026-09-05 00:10:50 | 49.47448 | 13.44464 | 48° | 31km/h | 24358m | 5.0m/s | -51.1°C | 4.0% | 29.5hPa | 2.5V | 03:56:00 | 02:08:14 | 00:00:00 | |
| OE3MUC-15 | 2026-09-05 00:10:49 | 49.47443 | 13.44456 | 44° | 27km/h | 24353m | 5.2m/s | -51.1°C | 4.0% | 29.6hPa | 2.5V | 00:00:00 | 02:08:13 | 00:00:00 | |
| PG1ADW-2 | 2026-09-05 00:10:46 | 49.47429 | 13.44434 | 48° | 31km/h | 24338m | 4.0m/s | -51.0°C | 4.0% | 29.6hPa | 2.5V | 03:56:00 | 00:00:00 | 00:00:00 | |
| DO3MHA-11 | 2026-09-05 00:10:44 | 49.47418 | 13.44416 | 48° | 22km/h | 24329m | 5.4m/s | -51.0°C | 4.0% | 29.7hPa | 2.5V | 00:00:00 | 02:08:08 | 00:00:00 | |
| PETON7-10 | 2026-09-05 00:10:43 | 49.47412 | 13.44405 | 47° | 29km/h | 24324m | 4.6m/s | -51.0°C | 4.0% | 29.7hPa | 2.5V | 00:00:00 | 00:00:00 | 00:00:00 | |
| EDDB2-12 | 2026-09-05 00:10:42 | 49.47394 | 13.44378 | 43° | 26km/h | 24309m | 5.7m/s | -51.0°C | 1.1% | 29.8hPa | 2.6V | 00:00:00 | 00:00:00 | 00:00:00 | |
| OE5MMP-10 | 2026-09-05 00:10:40 | 49.47394 | 13.44378 | 44° | 27km/h | 24309m | 5.7m/s | -50.9°C | 3.9% | 29.7hPa | 2.6V | 00:00:00 | 02:08:04 | 00:00:00 | |
| OE5WHR-10 | 2026-09-05 00:10:39 | 49.47390 | 13.44372 | 41° | 20km/h | 24304m | 4.8m/s | -51.0°C | 4.0% | 29.8hPa | 2.5V | 03:56:00 | 00:00:00 | 00:00:00 | |
| OE3MUC-15 | 2026-09-05 00:10:38 | 49.47385 | 13.44367 | 36° | 26km/h | 24299m | 4.6m/s | -51.0°C | 4.0% | 29.8hPa | 2.5V | 03:56:00 | 00:00:00 | 00:00:00 | |
| DL6DJ-15 | 2026-09-05 00:10:32 | 49.47353 | 13.44325 | 56° | 31km/h | 24269m | 5.7m/s | -51.2°C | 1.2% | 30.0hPa | 2.5V | 00:00:00 | 00:00:00 | 00:00:00 | |
| OE5MMP-10 | 2026-09-05 00:10:30 | 49.47345 | 13.44303 | 63° | 29km/h | 24260m | 3.7m/s | -51.1°C | 4.0% | 30.0hPa | 2.5V | 00:00:00 | 02:07:54 | 00:00:00 | |
| PETON7-10 | 2026-09-05 00:10:28 | 49.47336 | 13.44280 | 53° | 24km/h | 24251m | 5.3m/s | -51.1°C | 4.0% | 30.0hPa | 2.5V | 03:56:00 | 00:00:00 | 00:00:00 | |
| PG1ADW-2 | 2026-09-05 00:10:26 | 49.47323 | 13.44262 | 37° | 24km/h | 24241m | 4.3m/s | -51.1°C | 4.0% | 30.0hPa | 2.5V | 00:00:00 | 00:00:00 | 00:00:00 | |
| SONDE2-11 | 2026-09-05 00:10:25 | 49.47316 | 13.44255 | 30° | 31km/h | 24236m | 4.8m/s | -51.2°C | 1.2% | 30.1hPa | 2.5V | 00:00:00 | 00:00:00 | 00:00:00 | |
| DL1JEZ-13 | 2026-09-05 00:10:22 | 49.47305 | 13.44245 | 26° | 22km/h | 24226m | 5.5m/s | -51.1°C | 1.2% | 30.2hPa | 2.5V | 00:00:00 | 00:00:00 | 00:00:00 | |
| OE5MMP-10 | 2026-09-05 00:10:20 | 49.47291 | 13.44236 | 24° | 24km/h | 24213m | 4.6m/s | -51.2°C | 4.1% | 30.2hPa | 2.5V | 00:00:00 | 02:07:44 | 00:00:00 | |
| OE5DRO-10 | 2026-09-05 00:10:19 | 49.47286 | 13.44233 | 24° | 22km/h | 24208m | 5.3m/s | -51.3°C | 4.0% | 30.2hPa | 2.5V | 03:57:00 | 00:00:00 | 00:00:00 | |
| S52SK | 2026-09-05 00:10:16 | 49.47274 | 13.44224 | 30° | 29km/h | 24198m | 4.5m/s | -51.4°C | 1.2% | 30.3hPa | 2.5V | 00:00:00 | 00:00:00 | 00:00:00 | |
| EDDB2-12 | 2026-09-05 00:10:11 | 49.47245 | 13.44194 | 10° | 20km/h | 24168m | 5.5m/s | -51.4°C | 1.2% | 30.4hPa | 2.5V | 00:00:00 | 00:00:00 | 00:00:00 | |
| OE5MMP-10 | 2026-09-05 00:10:10 | 49.47240 | 13.44194 | 356° | 18km/h | 24163m | 4.1m/s | -51.3°C | 4.0% | 30.4hPa | 2.5V | 03:57:00 | 02:07:34 | 00:00:00 | |
| PETON7-10 | 2026-09-05 00:10:09 | 49.47235 | 13.44195 | 344° | 18km/h | 24159m | 3.8m/s | -51.3°C | 4.1% | 30.4hPa | 2.5V | 00:00:00 | 02:07:33 | 00:00:00 | |
| DL6DJ-15 | 2026-09-05 00:10:01 | 49.47196 | 13.44197 | 19° | 13km/h | 24116m | 5.2m/s | -51.5°C | 1.2% | 30.7hPa | 2.5V | 00:00:00 | 00:00:00 | 00:00:00 | |
| SONDE2-11 | 2026-09-05 00:09:54 | 49.47173 | 13.44209 | 334° | 18km/h | 24088m | 5.0m/s | -51.3°C | 1.2% | 30.8hPa | 2.5V | 00:00:00 | 00:00:00 | 00:00:00 | |
| EDDB2-11 | 2026-09-05 00:09:48 | 49.47152 | 13.44213 | 12° | 16km/h | 24059m | 4.6m/s | -51.2°C | 1.2% | 31.0hPa | 2.5V | 00:00:00 | 00:00:00 | 00:00:00 | |
| PG1ADW-2 | 2026-09-05 00:09:46 | 49.47143 | 13.44211 | 2° | 15km/h | 24051m | 5.0m/s | -51.1°C | 4.1% | 30.9hPa | 2.5V | 00:00:00 | 00:00:00 | 00:00:00 | |
| OE5DRO-10 | 2026-09-05 00:09:41 | 49.47125 | 13.44226 | 324° | 13km/h | 24027m | 4.7m/s | -51.0°C | 4.0% | 31.1hPa | 2.5V | 00:00:00 | 00:00:00 | 00:00:00 | |
| OE5MMP-10 | 2026-09-05 00:09:40 | 49.47121 | 13.44231 | 325° | 13km/h | 24023m | 4.0m/s | -51.0°C | 4.1% | 31.1hPa | 2.5V | 00:00:00 | 02:07:04 | 00:00:00 | |
| PETON7-10 | 2026-09-05 00:09:39 | 49.47117 | 13.44236 | 322° | 13km/h | 24018m | 4.4m/s | -51.0°C | 4.0% | 31.1hPa | 2.6V | 00:00:00 | 00:00:00 | 00:00:00 | |
| SP3BTT-10 | 2026-09-05 00:09:32 | 49.47101 | 13.44228 | 44° | 11km/h | 23985m | 3.7m/s | -50.9°C | 3.9% | 31.3hPa | 2.6V | 00:00:00 | 00:00:00 | 00:00:00 | |
| DL6DJ-15 | 2026-09-05 00:09:30 | 49.47094 | 13.44222 | 341° | 7km/h | 23971m | 4.4m/s | -50.9°C | 1.2% | 31.4hPa | 2.6V | 00:00:00 | 00:00:00 | 00:00:00 | |
| PG1ADW-2 | 2026-09-05 00:09:26 | 49.47086 | 13.44230 | 328° | 13km/h | 23958m | 5.1m/s | -50.9°C | 3.9% | 31.4hPa | 2.6V | 03:57:00 | 00:00:00 | 00:00:00 | |
| PETON7-10 | 2026-09-05 00:09:23 | 49.47076 | 13.44232 | 30° | 11km/h | 23944m | 4.1m/s | -51.0°C | 3.9% | 31.5hPa | 2.6V | 03:57:00 | 02:06:47 | 00:00:00 | |
| OE5DRO-10 | 2026-09-05 00:09:22 | 49.47073 | 13.44229 | 60° | 13km/h | 23940m | 4.4m/s | -51.0°C | 3.9% | 31.5hPa | 2.6V | 00:00:00 | 00:00:00 | 00:00:00 | |
| OE5MMP-10 | 2026-09-05 00:09:20 | 49.47073 | 13.44219 | 108° | 11km/h | 23930m | 4.4m/s | -51.1°C | 3.9% | 31.5hPa | 2.6V | 00:00:00 | 02:06:44 | 00:00:00 | |
| EDDB2-11 | 2026-09-05 00:09:17 | 49.47076 | 13.44206 | 86° | 7km/h | 23917m | 4.8m/s | -51.3°C | 1.2% | 31.6hPa | 2.6V | 00:00:00 | 00:00:00 | 00:00:00 | |
| EDDB2-12 | 2026-09-05 00:09:09 | 49.47058 | 13.44181 | 62° | 9km/h | 23875m | 5.4m/s | -51.4°C | 1.2% | 31.9hPa | 2.6V | 00:00:00 | 00:00:00 | 00:00:00 | |
| PETON7-10 | 2026-09-05 00:09:07 | 49.47057 | 13.44177 | 62° | 13km/h | 23870m | 4.4m/s | -51.4°C | 3.9% | 31.8hPa | 2.6V | 00:00:00 | 00:00:00 | 00:00:00 | |
| PG1ADW-2 | 2026-09-05 00:09:06 | 49.47056 | 13.44173 | 73° | 13km/h | 23866m | 4.2m/s | -51.4°C | 3.9% | 31.9hPa | 2.5V | 00:00:00 | 00:00:00 | 00:00:00 | |
| OE5DRO-10 | 2026-09-05 00:09:03 | 49.47055 | 13.44157 | 89° | 15km/h | 23851m | 3.8m/s | -51.6°C | 3.9% | 31.9hPa | 2.5V | 03:58:00 | 00:00:00 | 00:00:00 | |
| DL6DJ-15 | 2026-09-05 00:08:59 | 49.47048 | 13.44126 | 66° | 15km/h | 23828m | 5.0m/s | -52.0°C | 1.2% | 32.1hPa | 2.5V | 00:00:00 | 00:00:00 | 00:00:00 | |
| PETON7-10 | 2026-09-05 00:08:52 | 49.47045 | 13.44109 | 88° | 11km/h | 23801m | 3.9m/s | -52.2°C | 4.1% | 32.2hPa | 2.5V | 00:00:00 | 00:00:00 | 00:00:00 | |
| OE5MMP-10 | 2026-09-05 00:08:50 | 49.47045 | 13.44102 | 106° | 18km/h | 23791m | 4.7m/s | -52.2°C | 4.1% | 32.2hPa | 2.5V | 03:58:00 | 02:06:14 | 00:00:00 | |
| SP3BTT-10 | 2026-09-05 00:08:47 | 49.47046 | 13.44080 | 80° | 15km/h | 23777m | 4.8m/s | -52.3°C | 4.1% | 32.3hPa | 2.5V | 00:00:00 | 00:00:00 | 00:00:00 | |
| PG1ADW-2 | 2026-09-05 00:08:46 | 49.47045 | 13.44071 | 75° | 13km/h | 23772m | 3.6m/s | -52.4°C | 4.1% | 32.3hPa | 2.5V | 00:00:00 | 02:06:10 | 00:00:00 | |
| OE5DRO-10 | 2026-09-05 00:08:44 | 49.47042 | 13.44054 | 79° | 11km/h | 23764m | 4.9m/s | -52.5°C | 4.2% | 32.4hPa | 2.5V | 00:00:00 | 00:00:00 | 00:00:00 | |
| DO3MHA-11 | 2026-09-05 00:08:41 | 49.47041 | 13.44039 | 86° | 11km/h | 23751m | 4.6m/s | -52.6°C | 4.2% | 32.4hPa | 2.5V | 00:00:00 | 02:06:05 | 00:00:00 | |
| OE5MMP-10 | 2026-09-05 00:08:40 | 49.47040 | 13.44038 | 43° | 9km/h | 23746m | 5.6m/s | -52.7°C | 4.2% | 32.5hPa | 2.5V | 00:00:00 | 02:06:04 | 00:00:00 | |
| EDDB2-12 | 2026-09-05 00:08:38 | 49.47038 | 13.44037 | 114° | 4km/h | 23728m | 5.1m/s | -52.8°C | 1.2% | 32.6hPa | 2.5V | 00:00:00 | 00:00:00 | 00:00:00 | |
| PETON7-10 | 2026-09-05 00:08:35 | 49.47039 | 13.44035 | 114° | 13km/h | 23723m | 4.9m/s | -52.8°C | 4.2% | 32.6hPa | 2.5V | 00:00:00 | 02:05:59 | 00:00:00 | |
| DO3MHA-11 | 2026-09-05 00:08:30 | 49.47036 | 13.44005 | 46° | 9km/h | 23700m | 4.9m/s | -53.0°C | 4.3% | 32.7hPa | 2.5V | 03:58:00 | 02:05:54 | 00:00:00 | |
| DL6DJ-15 | 2026-09-05 00:08:27 | 49.47025 | 13.43995 | 18° | 9km/h | 23688m | 4.1m/s | -53.0°C | 1.3% | 32.8hPa | 2.6V | 00:00:00 | 00:00:00 | 00:00:00 | |
| PG1ADW-2 | 2026-09-05 00:08:26 | 49.47023 | 13.43994 | 22° | 9km/h | 23683m | 4.7m/s | -52.9°C | 4.3% | 32.8hPa | 2.6V | 00:00:00 | 00:00:00 | 00:00:00 | |
| OE5DRO-10 | 2026-09-05 00:08:25 | 49.47023 | 13.43993 | 166° | 7km/h | 23679m | 4.7m/s | -52.9°C | 4.3% | 32.8hPa | 2.6V | 00:00:00 | 00:00:00 | 00:00:00 | |
| OE5MMP-10 | 2026-09-05 00:08:20 | 49.47027 | 13.43991 | 1° | 9km/h | 23656m | 4.1m/s | -53.1°C | 4.3% | 32.9hPa | 2.6V | 00:00:00 | 02:05:44 | 00:00:00 | |
| OE5WHR-10 | 2026-09-05 00:08:18 | 49.47014 | 13.43993 | 42° | 9km/h | 23630m | 5.0m/s | -53.2°C | 4.3% | 33.0hPa | 2.6V | 00:00:00 | 00:00:00 | 00:00:00 | |
| OE5MMP-10 | 2026-09-05 00:08:17 | 49.47011 | 13.43977 | 108° | 9km/h | 23611m | 5.2m/s | -53.4°C | 4.5% | 33.1hPa | 2.5V | 03:59:00 | 02:05:34 | 00:00:00 | |
| OE5DRO-10 | 2026-09-05 00:08:16 | 49.47015 | 13.43961 | 99° | 9km/h | 23591m | 5.1m/s | -53.5°C | 4.5% | 33.3hPa | 2.5V | 00:00:00 | 00:00:00 | 00:00:00 | |
| PG1ADW-2 | 2026-09-05 00:08:15 | 49.47015 | 13.43961 | 99° | 9km/h | 23591m | 5.1m/s | -53.5°C | 4.5% | 33.3hPa | 2.5V | 03:59:00 | 00:00:00 | 00:00:00 | |
| PETON7-10 | 2026-09-05 00:08:14 | 49.47016 | 13.43957 | 90° | 9km/h | 23587m | 4.2m/s | -53.5°C | 4.5% | 33.3hPa | 2.6V | 00:00:00 | 00:00:00 | 00:00:00 | |
| EDDB2-11 | 2026-09-05 00:07:44 | 49.47013 | 13.43896 | 84° | 13km/h | 23486m | 4.3m/s | -53.6°C | 1.3% | 33.8hPa | 2.6V | 00:00:00 | 00:00:00 | 00:00:00 | |
| DG1MFX-10 | 2026-09-05 00:07:42 | 49.47012 | 13.43891 | 86° | 13km/h | 23481m | 4.8m/s | -53.6°C | 1.3% | 33.9hPa | 2.6V | 00:00:00 | 00:00:00 | 00:00:00 | |
| OE5MMP-10 | 2026-09-05 00:07:40 | 49.47012 | 13.43878 | 100° | 15km/h | 23467m | 4.4m/s | -53.5°C | 4.5% | 33.9hPa | 2.6V | 00:00:00 | 02:05:04 | 00:00:00 | |
| DO3MHA-11 | 2026-09-05 00:07:38 | 49.47014 | 13.43867 | 104° | 15km/h | 23456m | 4.5m/s | -53.5°C | 4.4% | 34.0hPa | 2.5V | 00:00:00 | 02:05:02 | 00:00:00 | |
| PETON7-10 | 2026-09-05 00:07:35 | 49.47016 | 13.43850 | 95° | 13km/h | 23442m | 5.2m/s | -53.5°C | 4.4% | 34.0hPa | 2.5V | 00:00:00 | 00:00:00 | 00:00:00 | |
| OE5WHR-10 | 2026-09-05 00:07:32 | 49.47015 | 13.43836 | 80° | 13km/h | 23427m | 5.7m/s | -53.6°C | 4.5% | 34.1hPa | 2.5V | 00:00:00 | 02:04:56 | 00:00:00 | |
| OE5MMP-10 | 2026-09-05 00:07:30 | 49.47014 | 13.43822 | 84° | 13km/h | 23417m | 4.8m/s | -53.6°C | 4.5% | 34.2hPa | 2.5V | 03:59:00 | 02:04:54 | 00:00:00 | |
| OE5DRO-10 | 2026-09-05 00:07:28 | 49.47013 | 13.43809 | 90° | 15km/h | 23407m | 4.5m/s | -53.6°C | 4.5% | 34.2hPa | 2.5V | 00:00:00 | 00:00:00 | 00:00:00 | |
| S52SK | 2026-09-05 00:07:27 | 49.47013 | 13.43809 | 90° | 15km/h | 23407m | 4.6m/s | -53.6°C | 1.3% | 34.3hPa | 2.5V | 00:00:00 | 00:00:00 | 00:00:00 | |
| PG1ADW-2 | 2026-09-05 00:07:26 | 49.47014 | 13.43798 | 101° | 13km/h | 23397m | 5.7m/s | -53.6°C | 4.5% | 34.3hPa | 2.5V | 00:00:00 | 02:04:50 | 00:00:00 | |
| DL6DJ-15 | 2026-09-05 00:07:25 | 49.47015 | 13.43792 | 106° | 15km/h | 23391m | 4.9m/s | -53.6°C | 1.3% | 34.4hPa | 2.5V | 00:00:00 | 00:00:00 | 00:00:00 | |
| DO3MHA-11 | 2026-09-05 00:07:23 | 49.47017 | 13.43782 | 121° | 13km/h | 23382m | 5.7m/s | -53.6°C | 4.5% | 34.4hPa | 2.5V | 00:00:00 | 02:04:47 | 00:00:00 | |
| PETON7-10 | 2026-09-05 00:07:20 | 49.47020 | 13.43775 | 111° | 15km/h | 23368m | 4.8m/s | -53.6°C | 4.4% | 34.4hPa | 2.6V | 00:00:00 | 00:00:00 | 00:00:00 | |
| SONDE2-11 | 2026-09-05 00:07:19 | 49.47021 | 13.43758 | 87° | 18km/h | 23353m | 4.6m/s | -53.7°C | 1.3% | 34.6hPa | 2.6V | 00:00:00 | 00:00:00 | 00:00:00 | |
| DO3MHA-11 | 2026-09-05 00:07:13 | 49.47020 | 13.43732 | 91° | 15km/h | 23333m | 4.2m/s | -53.7°C | 4.5% | 34.6hPa | 2.6V | 00:00:00 | 02:04:37 | 00:00:00 | |
| DG1MFX-10 | 2026-09-05 00:07:11 | 49.47020 | 13.43726 | 93° | 15km/h | 23328m | 5.6m/s | -53.7°C | 1.4% | 34.7hPa | 2.6V | 00:00:00 | 00:00:00 | 00:00:00 | |
| OE5MMP-10 | 2026-09-05 00:07:10 | 49.47020 | 13.43715 | 90° | 13km/h | 23318m | 4.0m/s | -53.6°C | 4.5% | 34.7hPa | 2.6V | 00:00:00 | 02:04:34 | 00:00:00 | |
| OE5WHR-10 | 2026-09-05 00:07:09 | 49.47020 | 13.43712 | 82° | 9km/h | 23314m | 5.1m/s | -53.6°C | 4.5% | 34.7hPa | 2.5V | 04:00:00 | 00:00:00 | 00:00:00 | |
| SP3BTT-10 | 2026-09-05 00:07:08 | 49.47020 | 13.43710 | 34° | 11km/h | 23309m | 5.7m/s | -53.6°C | 4.5% | 34.7hPa | 2.5V | 00:00:00 | 00:00:00 | 00:00:00 | |
| OE3MUC-15 | 2026-09-05 00:07:06 | 49.47017 | 13.43710 | 10° | 9km/h | 23299m | 3.8m/s | -53.7°C | 4.4% | 34.8hPa | 2.5V | 00:00:00 | 00:00:00 | 00:00:00 | |
| EDDB2-12 | 2026-09-05 00:07:05 | 49.47012 | 13.43705 | 47° | 16km/h | 23289m | 5.2m/s | -53.8°C | 1.4% | 34.9hPa | 2.6V | 00:00:00 | 00:00:00 | 00:00:00 | |
| DL6DJ-15 | 2026-09-05 00:06:54 | 49.46999 | 13.43669 | 0° | 9km/h | 23243m | 3.9m/s | -53.8°C | 1.4% | 35.2hPa | 2.6V | 00:00:00 | 00:00:00 | 00:00:00 | |
| SONDE2-11 | 2026-09-05 00:06:48 | 49.46988 | 13.43662 | 4° | 11km/h | 23209m | 5.1m/s | -53.6°C | 1.4% | 35.4hPa | 2.6V | 00:00:00 | 00:00:00 | 00:00:00 | |
| OE5WHR-10 | 2026-09-05 00:06:47 | 49.46988 | 13.43662 | 5° | 9km/h | 23210m | 5.1m/s | -53.6°C | 4.5% | 35.3hPa | 2.6V | 00:00:00 | 00:00:00 | 00:00:00 | |
| OE3MUC-15 | 2026-09-05 00:06:46 | 49.46985 | 13.43662 | 355° | 9km/h | 23205m | 4.6m/s | -53.6°C | 4.5% | 35.3hPa | 2.6V | 00:00:00 | 00:00:00 | 00:00:00 | |
| DG1MFX-10 | 2026-09-05 00:06:45 | 49.46985 | 13.43662 | 355° | 13km/h | 23205m | 4.6m/s | -53.6°C | 1.4% | 35.3hPa | 2.6V | 00:00:00 | 00:00:00 | 00:00:00 | |
| DL1JEZ-13 | 2026-09-05 00:06:44 | 49.46982 | 13.43663 | 343° | 11km/h | 23200m | 4.8m/s | -53.6°C | 1.4% | 35.4hPa | 2.6V | 04:00:00 | 00:00:00 | 00:00:00 | |
| EDDB2-11 | 2026-09-05 00:06:42 | 49.46978 | 13.43669 | 293° | 4km/h | 23184m | 4.3m/s | -53.5°C | 1.3% | 35.5hPa | 2.6V | 00:00:00 | 00:00:00 | 00:00:00 | |
| OE3MUC-15 | 2026-09-05 00:06:41 | 49.46977 | 13.43671 | 308° | 4km/h | 23179m | 5.7m/s | -53.4°C | 4.4% | 35.4hPa | 2.6V | 00:00:00 | 00:00:00 | 00:00:00 | |
| SP3BTT-10 | 2026-09-05 00:06:38 | 49.46975 | 13.43670 | 73° | 7km/h | 23164m | 5.7m/s | -53.4°C | 4.5% | 35.6hPa | 2.5V | 04:00:00 | 00:00:00 | 00:00:00 | |
| OE3MUC-15 | 2026-09-05 00:06:36 | 49.46975 | 13.43667 | 66° | 7km/h | 23154m | 4.3m/s | -53.3°C | 4.4% | 35.6hPa | 2.5V | 00:00:00 | 00:00:00 | 00:00:00 | |
| PETON7-10 | 2026-09-05 00:06:35 | 49.46974 | 13.43666 | 23° | 9km/h | 23149m | 5.0m/s | -53.3°C | 4.4% | 35.6hPa | 2.5V | 00:00:00 | 00:00:00 | 00:00:00 | |
| EDDB2-12 | 2026-09-05 00:06:34 | 49.46969 | 13.43667 | 337° | 13km/h | 23138m | 5.0m/s | -53.3°C | 1.3% | 35.7hPa | 2.5V | 00:00:00 | 00:00:00 | 00:00:00 | |
| OE3MUC-15 | 2026-09-05 00:06:32 | 49.46966 | 13.43670 | 326° | 15km/h | 23133m | 4.8m/s | -53.3°C | 4.4% | 35.7hPa | 2.5V | 00:00:00 | 00:00:00 | 00:00:00 | |
| OE5DRO-10 | 2026-09-05 00:06:31 | 49.46963 | 13.43674 | 312° | 9km/h | 23128m | 5.7m/s | -53.3°C | 4.4% | 35.7hPa | 2.5V | 00:00:00 | 00:00:00 | 00:00:00 | |
| OE5MMP-10 | 2026-09-05 00:06:30 | 49.46961 | 13.43679 | 298° | 7km/h | 23122m | 5.2m/s | -53.3°C | 4.4% | 35.8hPa | 2.5V | 04:00:00 | 02:03:54 | 00:00:00 | |
| OE3MUC-15 | 2026-09-05 00:06:28 | 49.46958 | 13.43689 | 290° | 9km/h | 23113m | 4.6m/s | -53.4°C | 4.4% | 35.8hPa | 2.5V | 04:00:00 | 00:00:00 | 00:00:00 | |
| DO3MHA-11 | 2026-09-05 00:06:27 | 49.46957 | 13.43693 | 298° | 5km/h | 23108m | 5.6m/s | -53.5°C | 4.5% | 35.8hPa | 2.5V | 00:00:00 | 02:03:51 | 00:00:00 | |
| PG1ADW-2 | 2026-09-05 00:06:26 | 49.46956 | 13.43696 | 305° | 9km/h | 23103m | 4.7m/s | -53.5°C | 4.5% | 35.9hPa | 2.5V | 00:00:00 | 00:00:00 | 00:00:00 | |
| OE3MUC-15 | 2026-09-05 00:06:24 | 49.46956 | 13.43698 | 188° | 4km/h | 23093m | 6.0m/s | -53.6°C | 4.6% | 35.9hPa | 2.5V | 00:00:00 | 00:00:00 | 00:00:00 | |
| DL6DJ-15 | 2026-09-05 00:06:23 | 49.46957 | 13.43697 | 161° | 4km/h | 23087m | 5.1m/s | -53.6°C | 1.4% | 36.0hPa | 2.5V | 00:00:00 | 00:00:00 | 00:00:00 | |
| PETON7-10 | 2026-09-05 00:06:20 | 49.46958 | 13.43695 | 15° | 11km/h | 23072m | 5.1m/s | -53.5°C | 4.6% | 36.0hPa | 2.5V | 00:00:00 | 02:03:44 | 00:00:00 | |
| OE3MUC-15 | 2026-09-05 00:06:19 | 49.46956 | 13.43695 | 346° | 11km/h | 23068m | 4.3m/s | -53.5°C | 4.5% | 36.1hPa | 2.5V | 00:00:00 | 00:00:00 | 00:00:00 | |
| SONDE2-11 | 2026-09-05 00:06:17 | 49.46952 | 13.43704 | 274° | 13km/h | 23053m | 5.7m/s | -53.5°C | 1.3% | 36.2hPa | 2.5V | 00:00:00 | 00:00:00 | 00:00:00 | |
| OE3MUC-15 | 2026-09-05 00:06:14 | 49.46953 | 13.43715 | 260° | 13km/h | 23043m | 4.6m/s | -53.3°C | 4.5% | 36.2hPa | 2.5V | 00:00:00 | 00:00:00 | 00:00:00 | |
| OE5DRO-10 | 2026-09-05 00:06:12 | 49.46955 | 13.43725 | 250° | 13km/h | 23033m | 4.7m/s | -53.3°C | 4.6% | 36.3hPa | 2.6V | 04:01:00 | 00:00:00 | 00:00:00 | |
| EDDB2-11 | 2026-09-05 00:06:11 | 49.46956 | 13.43729 | 229° | 9km/h | 23028m | 4.3m/s | -53.3°C | 1.4% | 36.4hPa | 2.5V | 00:00:00 | 00:00:00 | 00:00:00 | |
| OE5MMP-10 | 2026-09-05 00:06:10 | 49.46958 | 13.43732 | 215° | 11km/h | 23023m | 5.8m/s | -53.2°C | 4.5% | 36.3hPa | 2.5V | 00:00:00 | 02:03:34 | 00:00:00 | |
| PG1ADW-2 | 2026-09-05 00:06:06 | 49.46969 | 13.43737 | 180° | 11km/h | 23003m | 5.5m/s | -53.1°C | 4.5% | 36.5hPa | 2.6V | 04:01:00 | 02:03:30 | 00:00:00 | |
| PETON7-10 | 2026-09-05 00:06:05 | 49.46970 | 13.43737 | 213° | 9km/h | 22998m | 4.4m/s | -53.1°C | 4.5% | 36.5hPa | 2.6V | 00:00:00 | 00:00:00 | 00:00:00 | |
| EDDB2-12 | 2026-09-05 00:06:02 | 49.46971 | 13.43746 | 255° | 13km/h | 22983m | 4.9m/s | -53.1°C | 1.4% | 36.6hPa | 2.5V | 00:00:00 | 00:00:00 | 00:00:00 | |
| DL6DJ-15 | 2026-09-05 00:05:52 | 49.46995 | 13.43790 | 204° | 13km/h | 22934m | 4.9m/s | -52.7°C | 1.3% | 36.9hPa | 2.5V | 00:00:00 | 00:00:00 | 00:00:00 | |
| SONDE2-11 | 2026-09-05 00:05:46 | 49.47007 | 13.43797 | 188° | 11km/h | 22898m | 4.8m/s | -52.5°C | 1.3% | 37.1hPa | 2.5V | 00:00:00 | 00:00:00 | 00:00:00 | |
| S52SK | 2026-09-05 00:05:44 | 49.47007 | 13.43797 | 189° | 13km/h | 22898m | 4.8m/s | -52.5°C | 1.3% | 37.1hPa | 2.5V | 00:00:00 | 00:00:00 | 00:00:00 | |
| OE5MMP-10 | 2026-09-05 00:05:40 | 49.47025 | 13.43801 | 197° | 13km/h | 22872m | 5.8m/s | -52.3°C | 4.2% | 37.2hPa | 2.5V | 04:01:00 | 02:03:04 | 00:00:00 | |
| S52SK | 2026-09-05 00:05:39 | 49.47026 | 13.43801 | 197° | 20km/h | 22872m | 5.9m/s | -52.4°C | 1.3% | 37.2hPa | 2.6V | 00:00:00 | 00:00:00 | 00:00:00 | |
| DO3MHA-11 | 2026-09-05 00:05:36 | 49.47041 | 13.43809 | 192° | 13km/h | 22852m | 5.0m/s | -52.2°C | 4.2% | 37.3hPa | 2.6V | 00:00:00 | 02:03:00 | 00:00:00 | |
| OE5DRO-10 | 2026-09-05 00:05:34 | 49.47044 | 13.43809 | 167° | 15km/h | 22844m | 3.8m/s | -52.2°C | 4.2% | 37.4hPa | 2.5V | 00:00:00 | 00:00:00 | 00:00:00 | |
| PETON7-10 | 2026-09-05 00:05:33 | 49.47045 | 13.43808 | 172° | 13km/h | 22839m | 5.1m/s | -52.2°C | 4.2% | 37.4hPa | 2.5V | 04:01:00 | 02:02:57 | 00:00:00 | |
| EDDB2-12 | 2026-09-05 00:05:31 | 49.47052 | 13.43808 | 176° | 15km/h | 22829m | 5.0m/s | -52.2°C | 1.3% | 37.5hPa | 2.5V | 00:00:00 | 00:00:00 | 00:00:00 | |
| OE5MMP-10 | 2026-09-05 00:05:30 | 49.47056 | 13.43807 | 173° | 15km/h | 22824m | 4.6m/s | -52.1°C | 4.2% | 37.5hPa | 2.5V | 00:00:00 | 02:02:54 | 00:00:00 | |
| OE5WHR-10 | 2026-09-05 00:05:27 | 49.47070 | 13.43801 | 156° | 16km/h | 22809m | 4.3m/s | -52.1°C | 4.1% | 37.6hPa | 2.5V | 00:00:00 | 00:00:00 | 00:00:00 | |
| DO3MHA-11 | 2026-09-05 00:05:26 | 49.47074 | 13.43798 | 161° | 13km/h | 22805m | 4.0m/s | -52.1°C | 4.1% | 37.6hPa | 2.5V | 00:00:00 | 02:02:50 | 00:00:00 | |
| DL6DJ-15 | 2026-09-05 00:05:21 | 49.47088 | 13.43802 | 193° | 7km/h | 22781m | 5.4m/s | -52.5°C | 1.3% | 37.8hPa | 2.5V | 00:00:00 | 00:00:00 | 00:00:00 | |
| OE5MMP-10 | 2026-09-05 00:05:20 | 49.47090 | 13.43802 | 163° | 22km/h | 22776m | 4.9m/s | -52.5°C | 4.3% | 37.8hPa | 2.5V | 00:00:00 | 02:02:44 | 00:00:00 | |
| PETON7-10 | 2026-09-05 00:05:18 | 49.47095 | 13.43797 | 148° | 22km/h | 22767m | 4.0m/s | -52.5°C | 4.3% | 37.8hPa | 2.5V | 00:00:00 | 00:00:00 | 00:00:00 | |
| OE5DRO-10 | 2026-09-05 00:05:16 | 49.47109 | 13.43787 | 158° | 22km/h | 22752m | 4.5m/s | -52.6°C | 4.3% | 37.9hPa | 2.5V | 00:00:00 | 00:00:00 | 00:00:00 | |
| SONDE2-11 | 2026-09-05 00:05:15 | 49.47115 | 13.43783 | 154° | 27km/h | 22747m | 4.6m/s | -52.6°C | 1.3% | 38.0hPa | 2.5V | 00:00:00 | 00:00:00 | 00:00:00 | |
| OE5MMP-10 | 2026-09-05 00:05:10 | 49.47137 | 13.43760 | 146° | 18km/h | 22727m | 5.2m/s | -52.6°C | 4.3% | 38.0hPa | 2.5V | 00:00:00 | 02:02:34 | 00:00:00 | |
| EDDB2-11 | 2026-09-05 00:05:09 | 49.47146 | 13.43753 | 157° | 15km/h | 22717m | 4.1m/s | -52.6°C | 1.3% | 38.1hPa | 2.5V | 00:00:00 | 00:00:00 | 00:00:00 | |
| PG1ADW-2 | 2026-09-05 00:05:06 | 49.47153 | 13.43748 | 148° | 22km/h | 22708m | 5.3m/s | -52.5°C | 4.2% | 38.1hPa | 2.5V | 00:00:00 | 00:00:00 | 00:00:00 | |
| SP3BTT-10 | 2026-09-05 00:05:01 | 49.47172 | 13.43730 | 150° | 26km/h | 22683m | 4.6m/s | -52.4°C | 4.2% | 38.3hPa | 2.5V | 00:00:00 | 00:00:00 | 00:00:00 | |
| OE5MMP-10 | 2026-09-05 00:05:00 | 49.47177 | 13.43724 | 146° | 27km/h | 22677m | 5.7m/s | -52.4°C | 4.1% | 38.3hPa | 2.5V | 00:00:00 | 02:02:24 | 00:00:00 | |
| DO3MHA-11 | 2026-09-05 00:04:59 | 49.47182 | 13.43718 | 143° | 24km/h | 22672m | 4.6m/s | -52.4°C | 4.2% | 38.3hPa | 2.5V | 00:00:00 | 02:02:23 | 00:00:00 | |
| OE5DRO-10 | 2026-09-05 00:04:56 | 49.47201 | 13.43698 | 149° | 24km/h | 22658m | 4.9m/s | -52.5°C | 4.1% | 38.5hPa | 2.5V | 00:00:00 | 00:00:00 | 00:00:00 | |
| OE5MMP-10 | 2026-09-05 00:04:50 | 49.47227 | 13.43659 | 131° | 24km/h | 22629m | 5.1m/s | -52.6°C | 4.1% | 38.6hPa | 2.5V | 04:02:00 | 02:02:14 | 00:00:00 | |
| DG1MFX-10 | 2026-09-05 00:04:49 | 49.47227 | 13.43659 | 132° | 20km/h | 22629m | 5.2m/s | -52.6°C | 1.3% | 38.7hPa | 2.5V | 04:03:00 | 00:00:00 | 00:00:00 | |
| PG1ADW-2 | 2026-09-05 00:04:47 | 49.47239 | 13.43632 | 122° | 24km/h | 22609m | 4.3m/s | -52.8°C | 4.1% | 38.7hPa | 2.5V | 00:00:00 | 02:02:10 | 00:00:00 | |
| OE5WHR-10 | 2026-09-05 00:04:46 | 49.47243 | 13.43625 | 126° | 22km/h | 22605m | 4.5m/s | -52.9°C | 4.2% | 38.7hPa | 2.5V | 04:02:00 | 02:02:09 | 00:00:00 | |
| SONDE2-11 | 2026-09-05 00:04:45 | 49.47251 | 13.43609 | 132° | 26km/h | 22595m | 4.1m/s | -53.3°C | 1.3% | 38.9hPa | 2.5V | 00:00:00 | 00:00:00 | 00:00:00 | |
| DO3MHA-11 | 2026-09-05 00:04:43 | 49.47251 | 13.43609 | 133° | 24km/h | 22595m | 4.0m/s | -53.2°C | 4.2% | 38.8hPa | 2.5V | 00:00:00 | 02:02:07 | 00:00:00 | |
| OE5MMP-10 | 2026-09-05 00:04:40 | 49.47263 | 13.43584 | 118° | 20km/h | 22582m | 4.3m/s | -53.4°C | 4.4% | 38.9hPa | 2.5V | 00:00:00 | 02:02:04 | 00:00:00 | |
| EDDB2-11 | 2026-09-05 00:04:38 | 49.47270 | 13.43561 | 112° | 16km/h | 22567m | 4.9m/s | -53.5°C | 1.3% | 39.0hPa | 2.5V | 00:00:00 | 00:00:00 | 00:00:00 | |
| OE5DRO-10 | 2026-09-05 00:04:37 | 49.47270 | 13.43561 | 113° | 22km/h | 22567m | 4.9m/s | -53.5°C | 4.3% | 39.0hPa | 2.5V | 04:02:00 | 00:00:00 | 00:00:00 | |
| DO3MHA-11 | 2026-09-05 00:04:33 | 49.47275 | 13.43534 | 111° | 20km/h | 22549m | 3.7m/s | -53.6°C | 4.3% | 39.1hPa | 2.5V | 00:00:00 | 02:01:57 | 00:00:00 | |
| OE5MMP-10 | 2026-09-05 00:04:30 | 49.47283 | 13.43510 | 120° | 22km/h | 22535m | 4.0m/s | -53.7°C | 4.3% | 39.2hPa | 2.5V | 00:00:00 | 02:01:54 | 00:00:00 | |
| EDDB2-12 | 2026-09-05 00:04:29 | 49.47286 | 13.43502 | 113° | 22km/h | 22531m | 4.2m/s | -53.8°C | 1.3% | 39.3hPa | 2.5V | 00:00:00 | 00:00:00 | 00:00:00 | |
| PG1ADW-2 | 2026-09-05 00:04:26 | 49.47290 | 13.43475 | 99° | 29km/h | 22516m | 4.9m/s | -53.8°C | 4.3% | 39.3hPa | 2.5V | 04:02:00 | 00:00:00 | 00:00:00 | |
| OE5WHR-10 | 2026-09-05 00:04:24 | 49.47292 | 13.43459 | 108° | 31km/h | 22506m | 4.2m/s | -54.0°C | 4.5% | 39.4hPa | 2.5V | 00:00:00 | 00:00:00 | 00:00:00 | |
| DO3MHA-11 | 2026-09-05 00:04:23 | 49.47294 | 13.43453 | 115° | 29km/h | 22502m | 3.6m/s | -54.1°C | 4.5% | 39.4hPa | 2.5V | 00:00:00 | 02:01:47 | 00:00:00 | |
| OE5MMP-10 | 2026-09-05 00:04:20 | 49.47303 | 13.43428 | 123° | 35km/h | 22488m | 4.9m/s | -54.3°C | 4.6% | 39.5hPa | 2.5V | 00:00:00 | 02:01:44 | 00:00:00 | |
| DL6DJ-15 | 2026-09-05 00:04:19 | 49.47307 | 13.43419 | 126° | 31km/h | 22483m | 4.6m/s | -54.4°C | 1.4% | 39.6hPa | 2.5V | 00:00:00 | 00:00:00 | 00:00:00 | |
| OE5DRO-10 | 2026-09-05 00:04:18 | 49.47312 | 13.43409 | 131° | 35km/h | 22478m | 5.6m/s | -54.4°C | 4.6% | 39.5hPa | 2.5V | 00:00:00 | 00:00:00 | 00:00:00 | |
| SP3BTT-10 | 2026-09-05 00:04:15 | 49.47329 | 13.43379 | 126° | 24km/h | 22464m | 5.5m/s | -54.5°C | 4.6% | 39.6hPa | 2.5V | 00:00:00 | 00:00:00 | 00:00:00 | |
| DO3MHA-11 | 2026-09-05 00:04:14 | 49.47338 | 13.43354 | 117° | 33km/h | 22454m | 4.4m/s | -54.5°C | 4.7% | 39.7hPa | 2.5V | 04:03:00 | 02:01:37 | 00:00:00 | |
| SONDE2-11 | 2026-09-05 00:04:12 | 49.47346 | 13.43329 | 115° | 33km/h | 22444m | 5.7m/s | -54.6°C | 1.4% | 39.8hPa | 2.5V | 00:00:00 | 00:00:00 | 00:00:00 | |
| OE5MMP-10 | 2026-09-05 00:04:10 | 49.47349 | 13.43318 | 118° | 33km/h | 22439m | 4.7m/s | -54.5°C | 4.7% | 39.8hPa | 2.5V | 00:00:00 | 02:01:34 | 00:00:00 | |
| DG1MFX-10 | 2026-09-05 00:04:08 | 49.47353 | 13.43307 | 119° | 31km/h | 22435m | 4.3m/s | -54.6°C | 1.5% | 39.9hPa | 2.5V | 04:03:00 | 00:00:00 | 00:00:00 | |
| EDDB2-11 | 2026-09-05 00:04:07 | 49.47366 | 13.43274 | 124° | 33km/h | 22420m | 4.3m/s | -54.7°C | 1.4% | 40.0hPa | 2.5V | 00:00:00 | 00:00:00 | 00:00:00 | |
| PG1ADW-2 | 2026-09-05 00:04:06 | 49.47366 | 13.43274 | 125° | 31km/h | 22420m | 4.2m/s | -54.6°C | 4.7% | 39.9hPa | 2.5V | 00:00:00 | 00:00:00 | 00:00:00 | |
| OE5WHR-10 | 2026-09-05 00:04:03 | 49.47382 | 13.43245 | 135° | 29km/h | 22405m | 3.8m/s | -54.6°C | 4.7% | 40.0hPa | 2.6V | 00:00:00 | 00:00:00 | 00:00:00 | |
| EDDB2-12 | 2026-09-05 00:03:58 | 49.47404 | 13.43190 | 108° | 31km/h | 22382m | 5.7m/s | -54.6°C | 1.4% | 40.2hPa | 2.6V | 00:00:00 | 00:00:00 | 00:00:00 | |
| DL6DJ-15 | 2026-09-05 00:03:48 | 49.47420 | 13.43086 | 118° | 26km/h | 22332m | 5.4m/s | -54.5°C | 1.4% | 40.5hPa | 2.6V | 00:00:00 | 00:00:00 | 00:00:00 | |
| PG1ADW-2 | 2026-09-05 00:03:46 | 49.47426 | 13.43065 | 109° | 27km/h | 22322m | 4.0m/s | -54.5°C | 4.7% | 40.5hPa | 2.6V | 00:00:00 | 00:00:00 | 00:00:00 | |
| SONDE2-11 | 2026-09-05 00:03:42 | 49.47433 | 13.43010 | 94° | 31km/h | 22299m | 5.7m/s | -54.6°C | 1.4% | 40.7hPa | 2.6V | 00:00:00 | 00:00:00 | 00:00:00 | |
| DO3MHA-11 | 2026-09-05 00:03:41 | 49.47433 | 13.43010 | 95° | 27km/h | 22299m | 5.6m/s | -54.5°C | 4.7% | 40.7hPa | 2.6V | 00:00:00 | 02:01:05 | 00:00:00 | |
| OE5MMP-10 | 2026-09-05 00:03:40 | 49.47434 | 13.42998 | 92° | 27km/h | 22294m | 4.8m/s | -54.5°C | 4.7% | 40.7hPa | 2.6V | 00:00:00 | 02:01:04 | 00:00:00 | |
| S52SK | 2026-09-05 00:03:38 | 49.47434 | 13.42985 | 91° | 31km/h | 22289m | 4.3m/s | -54.6°C | 1.5% | 40.8hPa | 2.5V | 00:00:00 | 00:00:00 | 00:00:00 | |
| EDDB2-11 | 2026-09-05 00:03:36 | 49.47434 | 13.42946 | 96° | 22km/h | 22270m | 4.4m/s | -54.5°C | 1.4% | 40.9hPa | 2.5V | 00:00:00 | 00:00:00 | 00:00:00 | |
| S52SK | 2026-09-05 00:03:32 | 49.47436 | 13.42927 | 104° | 27km/h | 22260m | 5.0m/s | -54.5°C | 1.4% | 41.0hPa | 2.5V | 00:00:00 | 00:00:00 | 00:00:00 | |
| DO3MHA-11 | 2026-09-05 00:03:31 | 49.47440 | 13.42905 | 103° | 27km/h | 22251m | 4.2m/s | -54.4°C | 4.7% | 41.0hPa | 2.5V | 00:00:00 | 02:00:55 | 00:00:00 | |
| OE5MMP-10 | 2026-09-05 00:03:30 | 49.47441 | 13.42895 | 100° | 26km/h | 22246m | 5.4m/s | -54.4°C | 4.7% | 41.0hPa | 2.5V | 00:00:00 | 02:00:54 | 00:00:00 | |
| DG1MFX-10 | 2026-09-05 00:03:28 | 49.47442 | 13.42886 | 95° | 22km/h | 22241m | 5.3m/s | -54.4°C | 0% | 0hPa | 2.5V | 00:00:00 | 00:00:00 | 00:00:00 | |
| EDDB2-12 | 2026-09-05 00:03:27 | 49.47441 | 13.42869 | 73° | 22km/h | 22231m | 4.4m/s | -54.4°C | 1.4% | 41.1hPa | 2.5V | 00:00:00 | 00:00:00 | 00:00:00 | |
| PG1ADW-2 | 2026-09-05 00:03:26 | 49.47439 | 13.42860 | 69° | 24km/h | 22226m | 5.7m/s | -54.3°C | 4.6% | 41.1hPa | 2.5V | 00:00:00 | 02:00:50 | 00:00:00 | |
| OE5WHR-10 | 2026-09-05 00:03:21 | 49.47425 | 13.42808 | 78° | 22km/h | 22200m | 4.6m/s | -54.3°C | 4.7% | 41.3hPa | 2.5V | 00:00:00 | 00:00:00 | 00:00:00 | |
| OE5MMP-10 | 2026-09-05 00:03:20 | 49.47424 | 13.42799 | 83° | 20km/h | 22196m | 4.8m/s | -54.3°C | 4.6% | 41.3hPa | 2.6V | 00:00:00 | 02:00:44 | 00:00:00 | |
| DL6DJ-15 | 2026-09-05 00:03:17 | 49.47424 | 13.42773 | 90° | 22km/h | 22181m | 4.3m/s | -54.2°C | 1.4% | 41.5hPa | 2.6V | 00:00:00 | 00:00:00 | 00:00:00 | |
| DL1JEZ-13 | 2026-09-05 00:03:15 | 49.47424 | 13.42764 | 92° | 20km/h | 22176m | 5.4m/s | -54.2°C | 1.5% | 41.5hPa | 2.6V | 00:00:00 | 00:00:00 | 00:00:00 | |
| DO3MHA-11 | 2026-09-05 00:03:11 | 49.47416 | 13.42732 | 53° | 22km/h | 22149m | 4.7m/s | -54.3°C | 4.6% | 41.6hPa | 2.6V | 00:00:00 | 02:00:35 | 00:00:00 | |
| OE5MMP-10 | 2026-09-05 00:03:10 | 49.47411 | 13.42724 | 49° | 20km/h | 22145m | 4.5m/s | -54.2°C | 4.7% | 41.7hPa | 2.6V | 04:04:00 | 02:00:34 | 00:00:00 | |
| PETON7-10 | 2026-09-05 00:03:07 | 49.47398 | 13.42703 | 49° | 16km/h | 22130m | 4.1m/s | -54.3°C | 4.8% | 41.8hPa | 2.6V | 00:00:00 | 00:00:00 | 00:00:00 | |
| PG1ADW-2 | 2026-09-05 00:03:06 | 49.47395 | 13.42696 | 56° | 16km/h | 22125m | 5.0m/s | -54.3°C | 4.8% | 41.8hPa | 2.6V | 00:00:00 | 00:00:00 | 00:00:00 | |
| EDDB2-11 | 2026-09-05 00:03:05 | 49.47390 | 13.42682 | 73° | 18km/h | 22115m | 4.5m/s | -54.2°C | 1.5% | 41.9hPa | 2.5V | 00:00:00 | 00:00:00 | 00:00:00 | |
| PETON7-10 | 2026-09-05 00:02:56 | 49.47377 | 13.42608 | 90° | 16km/h | 22055m | 4.0m/s | -53.8°C | 4.6% | 42.3hPa | 2.5V | 00:00:00 | 02:00:16 | 00:00:00 | |
| OE3MUC-15 | 2026-09-05 00:02:55 | 49.47377 | 13.42601 | 98° | 18km/h | 22051m | 5.3m/s | -53.7°C | 4.6% | 42.3hPa | 2.5V | 00:00:00 | 00:00:00 | 00:00:00 | |
| OE5MMP-10 | 2026-09-05 00:02:54 | 49.47378 | 13.42594 | 104° | 16km/h | 22045m | 5.5m/s | -53.7°C | 4.6% | 42.3hPa | 2.5V | 00:00:00 | 02:00:14 | 00:00:00 | |
| DG1MFX-10 | 2026-09-05 00:02:52 | 49.47381 | 13.42581 | 115° | 16km/h | 22035m | 4.9m/s | -53.7°C | 0% | 0hPa | 2.5V | 04:04:00 | 00:00:00 | 00:00:00 | |
| PG1ADW-2 | 2026-09-05 00:02:50 | 49.47384 | 13.42572 | 123° | 16km/h | 22024m | 4.7m/s | -53.5°C | 4.6% | 42.5hPa | 2.5V | 04:04:00 | 00:00:00 | 00:00:00 | |
| OE5DRO-10 | 2026-09-05 00:02:48 | 49.47388 | 13.42559 | 111° | 18km/h | 22009m | 5.2m/s | -53.4°C | 4.5% | 42.6hPa | 2.5V | 00:00:00 | 00:00:00 | 00:00:00 | |
| DO3MHA-11 | 2026-09-05 00:02:45 | 49.47391 | 13.42545 | 108° | 18km/h | 22000m | 4.0m/s | -53.4°C | 4.5% | 42.6hPa | 2.5V | 00:00:00 | 02:00:05 | 00:00:00 | |
| OE5MMP-10 | 2026-09-05 00:02:44 | 49.47392 | 13.42538 | 108° | 16km/h | 21996m | 5.4m/s | -53.3°C | 4.5% | 42.6hPa | 2.5V | 00:00:00 | 02:00:04 | 00:00:00 | |
| SONDE2-11 | 2026-09-05 00:02:43 | 49.47394 | 13.42532 | 105° | 16km/h | 21990m | 5.6m/s | -53.3°C | 1.4% | 42.7hPa | 2.5V | 00:00:00 | 00:00:00 | 00:00:00 | |
| OE5WHR-10 | 2026-09-05 00:02:42 | 49.47394 | 13.42532 | 106° | 20km/h | 21990m | 5.6m/s | -53.3°C | 4.5% | 42.7hPa | 2.5V | 00:00:00 | 02:00:03 | 00:00:00 | |
| PETON7-10 | 2026-09-05 00:02:40 | 49.47396 | 13.42519 | 100° | 18km/h | 21980m | 4.9m/s | -53.2°C | 4.5% | 42.7hPa | 2.5V | 00:00:00 | 00:00:00 | 00:00:00 | |
| EDDB2-11 | 2026-09-05 00:02:34 | 49.47400 | 13.42492 | 108° | 15km/h | 21961m | 5.7m/s | -53.2°C | 1.3% | 42.9hPa | 2.5V | 00:00:00 | 00:00:00 | 00:00:00 | |
| OE3MUC-15 | 2026-09-05 00:02:32 | 49.47401 | 13.42487 | 120° | 18km/h | 21955m | 5.6m/s | -53.1°C | 4.3% | 42.9hPa | 2.5V | 00:00:00 | 00:00:00 | 00:00:00 | |
| DO3MHA-11 | 2026-09-05 00:02:31 | 49.47403 | 13.42483 | 128° | 20km/h | 21950m | 4.5m/s | -53.1°C | 4.3% | 43.0hPa | 2.6V | 04:04:00 | 01:59:55 | 00:00:00 | |
| OE5MMP-10 | 2026-09-05 00:02:30 | 49.47405 | 13.42479 | 128° | 22km/h | 21945m | 4.3m/s | -53.1°C | 4.3% | 43.0hPa | 2.6V | 00:00:00 | 01:59:54 | 00:00:00 | |
| PG1ADW-2 | 2026-09-05 00:02:26 | 49.47414 | 13.42450 | 115° | 27km/h | 21925m | 4.7m/s | -53.1°C | 4.3% | 43.1hPa | 2.6V | 00:00:00 | 00:00:00 | 00:00:00 | |
| OE3MUC-15 | 2026-09-05 00:02:25 | 49.47417 | 13.42442 | 116° | 22km/h | 21920m | 5.5m/s | -53.1°C | 4.3% | 43.2hPa | 2.6V | 04:04:00 | 00:00:00 | 00:00:00 | |
| OE5DRO-10 | 2026-09-05 00:02:24 | 49.47419 | 13.42434 | 118° | 27km/h | 21915m | 5.1m/s | -53.1°C | 4.3% | 43.2hPa | 2.6V | 00:00:00 | 00:00:00 | 00:00:00 | |
| PETON7-10 | 2026-09-05 00:02:23 | 49.47425 | 13.42420 | 124° | 27km/h | 21905m | 4.8m/s | -53.2°C | 4.3% | 43.2hPa | 2.6V | 04:05:00 | 00:00:00 | 00:00:00 | |
| OE5MMP-10 | 2026-09-05 00:02:22 | 49.47432 | 13.42404 | 124° | 27km/h | 21894m | 5.2m/s | -53.3°C | 4.3% | 43.3hPa | 2.6V | 04:05:00 | 01:59:44 | 00:00:00 | |
| OE5WHR-10 | 2026-09-05 00:02:20 | 49.47439 | 13.42388 | 125° | 31km/h | 21884m | 5.7m/s | -53.4°C | 4.3% | 43.4hPa | 2.6V | 00:00:00 | 00:00:00 | 00:00:00 | |
| OE3MUC-15 | 2026-09-05 00:02:19 | 49.47443 | 13.42380 | 128° | 24km/h | 21879m | 4.7m/s | -53.4°C | 4.3% | 43.4hPa | 2.5V | 00:00:00 | 00:00:00 | 00:00:00 | |
| DL6DJ-15 | 2026-09-05 00:02:17 | 49.47456 | 13.42357 | 132° | 29km/h | 21864m | 5.3m/s | -53.6°C | 1.3% | 43.6hPa | 2.5V | 00:00:00 | 00:00:00 | 00:00:00 | |
| OE3MUC-15 | 2026-09-05 00:02:16 | 49.47467 | 13.42339 | 135° | 31km/h | 21855m | 5.0m/s | -53.5°C | 4.4% | 43.6hPa | 2.5V | 00:00:00 | 00:00:00 | 00:00:00 | |
| OE5MMP-10 | 2026-09-05 00:02:13 | 49.47477 | 13.42323 | 133° | 33km/h | 21845m | 4.2m/s | -53.6°C | 4.4% | 43.7hPa | 2.5V | 00:00:00 | 01:59:34 | 00:00:00 | |
| SONDE2-11 | 2026-09-05 00:02:12 | 49.47486 | 13.42305 | 122° | 31km/h | 21835m | 5.6m/s | -53.8°C | 1.3% | 43.8hPa | 2.6V | 00:00:00 | 00:00:00 | 00:00:00 | |
| PETON7-10 | 2026-09-05 00:02:11 | 49.47490 | 13.42294 | 116° | 33km/h | 21830m | 5.4m/s | -53.8°C | 4.4% | 43.8hPa | 2.6V | 00:00:00 | 01:59:31 | 00:00:00 | |
| PG1ADW-2 | 2026-09-05 00:02:10 | 49.47493 | 13.42282 | 113° | 33km/h | 21825m | 4.4m/s | -53.8°C | 4.5% | 43.8hPa | 2.6V | 00:00:00 | 01:59:30 | 00:00:00 | |
| DG1MFX-10 | 2026-09-05 00:02:08 | 49.47493 | 13.42282 | 113° | 37km/h | 21825m | 4.4m/s | -53.9°C | 0% | 0hPa | 2.5V | 00:00:00 | 00:00:00 | 00:00:00 | |
| OE5DRO-10 | 2026-09-05 00:02:06 | 49.47496 | 13.42268 | 110° | 31km/h | 21820m | 4.7m/s | -53.9°C | 4.5% | 43.8hPa | 2.5V | 00:00:00 | 00:00:00 | 00:00:00 | |
| EDDB2-12 | 2026-09-05 00:01:58 | 49.47537 | 13.42141 | 115° | 27km/h | 21765m | 5.2m/s | -54.6°C | 1.4% | 44.3hPa | 2.5V | 00:00:00 | 00:00:00 | 00:00:00 | |
| PETON7-10 | 2026-09-05 00:01:56 | 49.47543 | 13.42119 | 107° | 31km/h | 21755m | 4.8m/s | -54.5°C | 4.8% | 44.3hPa | 2.5V | 00:00:00 | 00:00:00 | 00:00:00 | |
| DL1JEZ-13 | 2026-09-05 00:01:54 | 49.47544 | 13.42108 | 101° | 29km/h | 21751m | 5.0m/s | -54.5°C | 1.5% | 44.3hPa | 2.6V | 00:00:00 | 00:00:00 | 00:00:00 | |
| OE5MMP-10 | 2026-09-05 00:01:53 | 49.47545 | 13.42097 | 92° | 29km/h | 21745m | 6.2m/s | -54.5°C | 4.7% | 44.3hPa | 2.6V | 00:00:00 | 01:59:14 | 00:00:00 | |
| OE3MUC-15 | 2026-09-05 00:01:50 | 49.47544 | 13.42076 | 86° | 31km/h | 21734m | 4.2m/s | -54.5°C | 4.7% | 44.4hPa | 2.6V | 00:00:00 | 00:00:00 | 00:00:00 | |
| PG1ADW-2 | 2026-09-05 00:01:48 | 49.47544 | 13.42053 | 95° | 29km/h | 21724m | 5.5m/s | -54.6°C | 4.7% | 44.5hPa | 2.6V | 00:00:00 | 00:00:00 | 00:00:00 | |
| OE3MUC-15 | 2026-09-05 00:01:46 | 49.47546 | 13.42028 | 99° | 27km/h | 21713m | 5.6m/s | -54.5°C | 4.7% | 44.6hPa | 2.6V | 00:00:00 | 00:00:00 | 00:00:00 | |
| DL6DJ-15 | 2026-09-05 00:01:45 | 49.47547 | 13.42017 | 97° | 29km/h | 21708m | 5.5m/s | -54.5°C | 1.4% | 44.7hPa | 2.5V | 00:00:00 | 00:00:00 | 00:00:00 | |
| DO3MHA-11 | 2026-09-05 00:01:44 | 49.47549 | 13.41994 | 99° | 26km/h | 21698m | 5.1m/s | -54.5°C | 4.7% | 44.7hPa | 2.5V | 00:00:00 | 01:59:05 | 00:00:00 | |
| OE5MMP-10 | 2026-09-05 00:01:41 | 49.47551 | 13.41982 | 100° | 31km/h | 21693m | 5.7m/s | -54.4°C | 4.7% | 44.7hPa | 2.5V | 00:00:00 | 01:59:04 | 00:00:00 | |
| SONDE2-11 | 2026-09-05 00:01:40 | 49.47552 | 13.41946 | 83° | 29km/h | 21677m | 6.0m/s | -54.4°C | 1.4% | 44.9hPa | 2.6V | 00:00:00 | 00:00:00 | 00:00:00 | |
| S52SK | 2026-09-05 00:01:39 | 49.47551 | 13.41935 | 78° | 29km/h | 21672m | 4.5m/s | 0°C | 0% | 44.9hPa | 2.6V | 04:05:00 | 00:00:00 | 00:00:00 | |
| EDDB2-11 | 2026-09-05 00:01:37 | 49.47546 | 13.41875 | 90° | 31km/h | 21646m | 4.7m/s | -54.2°C | 1.4% | 45.1hPa | 2.6V | 00:00:00 | 00:00:00 | 00:00:00 | |
| PETON7-10 | 2026-09-05 00:01:36 | 49.47546 | 13.41875 | 91° | 26km/h | 21647m | 4.7m/s | -54.2°C | 4.6% | 45.0hPa | 2.6V | 00:00:00 | 00:00:00 | 00:00:00 | |
| SP3BTT-10 | 2026-09-05 00:01:34 | 49.47546 | 13.41863 | 91° | 22km/h | 21641m | 5.8m/s | -54.2°C | 4.6% | 45.1hPa | 2.6V | 00:00:00 | 00:00:00 | 00:00:00 | |
| OE5MMP-10 | 2026-09-05 00:01:33 | 49.47546 | 13.41863 | 91° | 26km/h | 21641m | 5.8m/s | -54.2°C | 4.6% | 45.1hPa | 2.6V | 04:05:00 | 01:58:54 | 00:00:00 | |
| PG1ADW-2 | 2026-09-05 00:01:29 | 49.47547 | 13.41825 | 96° | 24km/h | 21621m | 5.4m/s | -54.1°C | 4.5% | 45.2hPa | 2.6V | 00:00:00 | 00:00:00 | 00:00:00 | |
| EDDB2-12 | 2026-09-05 00:01:26 | 49.47547 | 13.41795 | 86° | 26km/h | 21606m | 5.4m/s | -54.2°C | 1.4% | 45.4hPa | 2.6V | 00:00:00 | 00:00:00 | 00:00:00 | |
| OE5MMP-10 | 2026-09-05 00:01:24 | 49.47543 | 13.41767 | 74° | 22km/h | 21590m | 5.1m/s | -54.3°C | 4.6% | 45.4hPa | 2.6V | 00:00:00 | 01:58:44 | 00:00:00 | |
| PETON7-10 | 2026-09-05 00:01:18 | 49.47539 | 13.41732 | 84° | 20km/h | 21570m | 5.7m/s | -54.4°C | 4.6% | 45.6hPa | 2.6V | 00:00:00 | 01:58:40 | 00:00:00 | |
| OE5WHR-10 | 2026-09-05 00:01:17 | 49.47539 | 13.41724 | 83° | 22km/h | 21564m | 5.6m/s | -54.4°C | 4.6% | 45.6hPa | 2.6V | 04:06:00 | 00:00:00 | 00:00:00 | |
| DL6DJ-15 | 2026-09-05 00:01:15 | 49.47539 | 13.41702 | 93° | 22km/h | 21548m | 5.4m/s | -54.6°C | 1.4% | 45.8hPa | 2.5V | 00:00:00 | 00:00:00 | 00:00:00 | |
| OE3MUC-15 | 2026-09-05 00:01:14 | 49.47538 | 13.41702 | 94° | 24km/h | 21548m | 5.3m/s | -54.5°C | 4.7% | 45.7hPa | 2.5V | 00:00:00 | 00:00:00 | 00:00:00 | |
| OE5MMP-10 | 2026-09-05 00:01:13 | 49.47539 | 13.41683 | 91° | 22km/h | 21538m | 5.6m/s | -54.6°C | 4.7% | 45.8hPa | 2.5V | 00:00:00 | 01:58:34 | 00:00:00 | |
| OE3MUC-15 | 2026-09-05 00:01:11 | 49.47538 | 13.41665 | 87° | 22km/h | 21528m | 4.2m/s | -54.7°C | 4.8% | 45.9hPa | 2.6V | 00:00:00 | 00:00:00 | 00:00:00 | |
| SONDE2-11 | 2026-09-05 00:01:09 | 49.47539 | 13.41647 | 94° | 24km/h | 21518m | 5.7m/s | -54.7°C | 1.5% | 46.0hPa | 2.5V | 00:00:00 | 00:00:00 | 00:00:00 | |
| PG1ADW-2 | 2026-09-05 00:01:08 | 49.47538 | 13.41647 | 95° | 22km/h | 21518m | 5.7m/s | -54.7°C | 4.8% | 46.0hPa | 2.5V | 04:06:00 | 00:00:00 | 00:00:00 | |
| OE3MUC-15 | 2026-09-05 00:01:06 | 49.47540 | 13.41629 | 97° | 20km/h | 21509m | 4.4m/s | -54.6°C | 4.8% | 46.0hPa | 2.5V | 04:06:00 | 00:00:00 | 00:00:00 | |
| PETON7-10 | 2026-09-05 00:01:01 | 49.47539 | 13.41607 | 77° | 15km/h | 21493m | 4.7m/s | -54.5°C | 4.8% | 46.1hPa | 2.5V | 04:06:00 | 00:00:00 | 00:00:00 | |
| OE5MMP-10 | 2026-09-05 00:01:00 | 49.47538 | 13.41599 | 76° | 24km/h | 21488m | 5.0m/s | -54.5°C | 4.8% | 46.2hPa | 2.5V | 00:00:00 | 01:58:24 | 00:00:00 | |
| OE5WHR-10 | 2026-09-05 00:00:54 | 49.47527 | 13.41543 | 68° | 18km/h | 21458m | 4.2m/s | -54.3°C | 4.8% | 46.4hPa | 2.5V | 00:00:00 | 00:00:00 | 00:00:00 | |
| EDDB2-12 | 2026-09-05 00:00:53 | 49.47524 | 13.41527 | 79° | 20km/h | 21448m | 5.6m/s | -54.3°C | 1.5% | 46.5hPa | 2.5V | 00:00:00 | 00:00:00 | 00:00:00 | |
| OE5MMP-10 | 2026-09-05 00:00:50 | 49.47523 | 13.41510 | 87° | 18km/h | 21438m | 4.3m/s | -54.2°C | 4.7% | 46.5hPa | 2.5V | 00:00:00 | 01:58:14 | 00:00:00 | |
| OE5DRO-10 | 2026-09-05 00:00:49 | 49.47522 | 13.41503 | 83° | 18km/h | 21433m | 5.6m/s | -54.2°C | 4.8% | 46.6hPa | 2.5V | 00:00:00 | 00:00:00 | 00:00:00 | |
| OE5DXL-15 | 2026-09-05 00:00:46 | 49.47520 | 13.41475 | 93° | 15km/h | 21414m | 5.5m/s | -54.1°C | 4.7% | 46.7hPa | 2.5V | 00:00:00 | 00:00:00 | 00:00:00 | |
| SP3BTT-10 | 2026-09-05 00:00:45 | 49.47520 | 13.41468 | 98° | 11km/h | 21409m | 4.7m/s | -54.0°C | 4.7% | 46.7hPa | 2.5V | 00:00:00 | 00:00:00 | 00:00:00 | |
| DL6DJ-15 | 2026-09-05 00:00:43 | 49.47521 | 13.41447 | 79° | 16km/h | 21393m | 5.0m/s | -54.0°C | 1.4% | 46.9hPa | 2.6V | 00:00:00 | 00:00:00 | 00:00:00 | |
| OE5MMP-10 | 2026-09-05 00:00:40 | 49.47519 | 13.41440 | 75° | 18km/h | 21389m | 4.1m/s | -53.9°C | 4.6% | 46.9hPa | 2.6V | 04:06:00 | 01:58:04 | 00:00:00 | |
| OE3MUC-15 | 2026-09-05 00:00:39 | 49.47518 | 13.41412 | 87° | 20km/h | 21370m | 4.3m/s | -53.7°C | 4.6% | 47.0hPa | 2.5V | 00:00:00 | 00:00:00 | 00:00:00 | |
| SONDE2-11 | 2026-09-05 00:00:38 | 49.47517 | 13.41405 | 83° | 18km/h | 21365m | 5.6m/s | -53.7°C | 1.4% | 47.1hPa | 2.5V | 00:00:00 | 00:00:00 | 00:00:00 | |
| OE5WHR-10 | 2026-09-05 00:00:37 | 49.47516 | 13.41391 | 81° | 13km/h | 21355m | 4.5m/s | -53.6°C | 4.6% | 47.1hPa | 2.5V | 00:00:00 | 01:57:57 | 00:00:00 | |
| OE3MUC-15 | 2026-09-05 00:00:36 | 49.47515 | 13.41385 | 87° | 16km/h | 21350m | 5.4m/s | -53.6°C | 4.5% | 47.2hPa | 2.5V | 00:00:00 | 00:00:00 | 00:00:00 | |
| OE5DRO-10 | 2026-09-05 00:00:33 | 49.47516 | 13.41372 | 101° | 11km/h | 21341m | 4.0m/s | -53.5°C | 4.5% | 47.2hPa | 2.5V | 00:00:00 | 00:00:00 | 00:00:00 | |
| OE5MMP-10 | 2026-09-05 00:00:32 | 49.47516 | 13.41372 | 101° | 13km/h | 21341m | 4.0m/s | -53.5°C | 4.5% | 47.2hPa | 2.5V | 00:00:00 | 01:57:54 | 00:00:00 | |
| EDDB2-11 | 2026-09-05 00:00:30 | 49.47517 | 13.41366 | 100° | 13km/h | 21336m | 4.5m/s | -53.5°C | 1.4% | 47.4hPa | 2.5V | 00:00:00 | 00:00:00 | 00:00:00 | |
| OE3MUC-15 | 2026-09-05 00:00:28 | 49.47517 | 13.41361 | 97° | 13km/h | 21331m | 5.5m/s | -53.4°C | 4.4% | 47.3hPa | 2.5V | 00:00:00 | 00:00:00 | 00:00:00 | |
| DO3MHA-11 | 2026-09-05 00:00:26 | 49.47518 | 13.41350 | 100° | 11km/h | 21318m | 5.0m/s | -53.4°C | 4.4% | 47.4hPa | 2.5V | 00:00:00 | 01:57:49 | 00:00:00 | |
| EDDB2-12 | 2026-09-05 00:00:22 | 49.47522 | 13.41322 | 95° | 11km/h | 21293m | 5.2m/s | -53.5°C | 1.4% | 47.6hPa | 2.5V | 00:00:00 | 00:00:00 | 00:00:00 | |
| OE5MMP-10 | 2026-09-05 00:00:21 | 49.47522 | 13.41322 | 96° | 9km/h | 21294m | 5.1m/s | -53.5°C | 4.4% | 47.6hPa | 2.5V | 00:00:00 | 01:57:44 | 00:00:00 | |
| OE5DXL-15 | 2026-09-05 00:00:18 | 49.47526 | 13.41298 | 129° | 13km/h | 21265m | 5.4m/s | -53.6°C | 4.4% | 47.8hPa | 2.5V | 00:00:00 | 00:00:00 | 00:00:00 | |
| DO3MHA-11 | 2026-09-05 00:00:14 | 49.47526 | 13.41298 | 129° | 11km/h | 21265m | 5.4m/s | -53.6°C | 4.4% | 47.8hPa | 2.5V | 00:00:00 | 01:57:38 | 00:00:00 | |
| OE5WHR-10 | 2026-09-05 00:00:13 | 49.47528 | 13.41295 | 136° | 11km/h | 21256m | 4.0m/s | -53.6°C | 4.3% | 47.9hPa | 2.5V | 00:00:00 | 00:00:00 | 00:00:00 | |
| OE5DRO-10 | 2026-09-05 00:00:12 | 49.47529 | 13.41293 | 127° | 11km/h | 21251m | 5.0m/s | -53.6°C | 4.3% | 47.9hPa | 2.6V | 00:00:00 | 00:00:00 | 00:00:00 | |
| DL6DJ-15 | 2026-09-05 00:00:11 | 49.47530 | 13.41291 | 118° | 7km/h | 21246m | 4.9m/s | -53.7°C | 1.4% | 48.0hPa | 2.6V | 00:00:00 | 00:00:00 | 00:00:00 | |
| OE3MUC-15 | 2026-09-05 00:00:10 | 49.47530 | 13.41291 | 119° | 7km/h | 21246m | 4.9m/s | -53.6°C | 4.3% | 48.0hPa | 2.6V | 00:00:00 | 00:00:00 | 00:00:00 | |
| DL1JEZ-13 | 2026-09-05 00:00:09 | 49.47530 | 13.41291 | 119° | 9km/h | 21246m | 4.9m/s | -53.7°C | 1.4% | 48.0hPa | 2.6V | 04:07:00 | 00:00:00 | 00:00:00 | |
| PG1ADW-2 | 2026-09-05 00:00:06 | 49.47532 | 13.41277 | 100° | 15km/h | 21223m | 4.3m/s | -53.9°C | 4.3% | 48.1hPa | 2.6V | 00:00:00 | 00:00:00 | 00:00:00 | |
| SONDE2-11 | 2026-09-05 00:00:04 | 49.47533 | 13.41273 | 106° | 9km/h | 21218m | 5.2m/s | -54.1°C | 1.3% | 48.2hPa | 2.6V | 00:00:00 | 00:00:00 | 00:00:00 | |
| DO3MHA-11 | 2026-09-05 00:00:01 | 49.47537 | 13.41262 | 133° | 27km/h | 21204m | 5.1m/s | -54.4°C | 4.4% | 48.3hPa | 2.6V | 00:00:00 | 01:57:25 | 00:00:00 | |
| OE5MMP-10 | 2026-09-05 00:00:00 | 49.47539 | 13.41259 | 147° | 15km/h | 21199m | 4.7m/s | -54.5°C | 4.4% | 48.3hPa | 2.6V | 00:00:00 | 01:57:24 | 00:00:00 | |
| OE3MUC-15 | 2026-09-04 23:59:59 | 49.47541 | 13.41257 | 153° | 13km/h | 21195m | 4.1m/s | -54.7°C | 4.5% | 48.3hPa | 2.6V | 00:00:00 | 01:57:23 | 00:00:00 | |
| SP3BTT-10 | 2026-09-04 23:59:58 | 49.47543 | 13.41256 | 150° | 18km/h | 21190m | 4.5m/s | -54.8°C | 4.5% | 48.4hPa | 2.5V | 00:00:00 | 00:00:00 | 00:00:00 | |
| OE5DRO-10 | 2026-09-04 23:59:53 | 49.47559 | 13.41230 | 130° | 18km/h | 21161m | 3.7m/s | -55.4°C | 4.8% | 48.6hPa | 2.5V | 04:07:00 | 00:00:00 | 00:00:00 | |
| OE5WHR-10 | 2026-09-04 23:59:51 | 49.47563 | 13.41223 | 127° | 16km/h | 21157m | 5.0m/s | -55.4°C | 4.7% | 48.6hPa | 2.5V | 00:00:00 | 00:00:00 | 00:00:00 | |
| OE5MMP-10 | 2026-09-04 23:59:50 | 49.47566 | 13.41215 | 123° | 20km/h | 21152m | 4.6m/s | -55.5°C | 4.7% | 48.7hPa | 2.5V | 04:07:00 | 01:57:14 | 00:00:00 | |
| DL1JEZ-13 | 2026-09-04 23:59:47 | 49.47573 | 13.41199 | 123° | 22km/h | 21144m | 4.7m/s | -55.7°C | 1.5% | 48.8hPa | 2.5V | 00:00:00 | 00:00:00 | 00:00:00 | |
| OE5DXL-15 | 2026-09-04 23:59:45 | 49.47581 | 13.41181 | 130° | 18km/h | 21130m | 4.1m/s | -55.6°C | 4.8% | 48.8hPa | 2.5V | 00:00:00 | 00:00:00 | 00:00:00 | |
| OE5MMP-10 | 2026-09-04 23:59:40 | 49.47597 | 13.41153 | 136° | 11km/h | 21107m | 4.6m/s | -56.0°C | 5.0% | 49.0hPa | 2.5V | 00:00:00 | 01:57:04 | 00:00:00 | |
| DL6DJ-15 | 2026-09-04 23:59:39 | 49.47600 | 13.41149 | 126° | 13km/h | 21103m | 3.5m/s | -56.0°C | 1.5% | 49.1hPa | 2.5V | 00:00:00 | 00:00:00 | 00:00:00 | |
| S52SK | 2026-09-04 23:59:38 | 49.47600 | 13.41149 | 127° | 13km/h | 21103m | 3.5m/s | 0°C | 0% | 49.1hPa | 2.5V | 00:00:00 | 00:00:00 | 00:00:00 | |
| OE5DRO-10 | 2026-09-04 23:59:33 | 49.47602 | 13.41122 | 96° | 18km/h | 21075m | 3.3m/s | -56.1°C | 5.0% | 49.2hPa | 2.5V | 00:00:00 | 00:00:00 | 00:00:00 | |
| S52SK | 2026-09-04 23:59:32 | 49.47602 | 13.41122 | 96° | 7km/h | 21075m | 3.4m/s | 0°C | 0% | 49.3hPa | 2.5V | 00:00:00 | 00:00:00 | 00:00:00 | |
| OE5WHR-10 | 2026-09-04 23:59:30 | 49.47606 | 13.41112 | 131° | 22km/h | 21063m | 5.0m/s | -56.1°C | 5.1% | 49.4hPa | 2.5V | 04:07:00 | 01:56:54 | 00:00:00 | |
| EDDB2-11 | 2026-09-04 23:59:27 | 49.47618 | 13.41093 | 134° | 22km/h | 21049m | 5.1m/s | -56.1°C | 1.6% | 49.5hPa | 2.5V | 00:00:00 | 00:00:00 | 00:00:00 | |
| DL1JEZ-13 | 2026-09-04 23:59:23 | 49.47629 | 13.41076 | 133° | 20km/h | 21035m | 4.1m/s | -56.1°C | 1.6% | 49.6hPa | 2.5V | 00:00:00 | 00:00:00 | 00:00:00 | |
| PETON7-10 | 2026-09-04 23:59:22 | 49.47636 | 13.41063 | 126° | 22km/h | 21026m | 4.3m/s | -56.0°C | 5.0% | 49.6hPa | 2.5V | 00:00:00 | 00:00:00 | 00:00:00 | |
| OE5MMP-10 | 2026-09-04 23:59:20 | 49.47642 | 13.41049 | 122° | 22km/h | 21017m | 5.3m/s | -56.0°C | 5.0% | 49.7hPa | 2.5V | 00:00:00 | 01:56:44 | 00:00:00 | |
| OE5DXL-15 | 2026-09-04 23:59:15 | 49.47656 | 13.41018 | 131° | 22km/h | 20994m | 4.0m/s | -56.1°C | 5.0% | 49.9hPa | 2.5V | 04:08:00 | 00:00:00 | 00:00:00 | |
| OE5DRO-10 | 2026-09-04 23:59:14 | 49.47660 | 13.41010 | 133° | 22km/h | 20990m | 4.1m/s | -56.2°C | 5.0% | 49.9hPa | 2.5V | 00:00:00 | 00:00:00 | 00:00:00 | |
| SP3BTT-10 | 2026-09-04 23:59:13 | 49.47665 | 13.41003 | 135° | 24km/h | 20985m | 5.5m/s | -56.2°C | 5.0% | 49.9hPa | 2.5V | 00:00:00 | 00:00:00 | 00:00:00 | |
| NBG1-10 | 2026-09-04 23:59:12 | 49.47669 | 13.40997 | 136° | 40km/h | 20980m | 4.6m/s | -56.2°C | 5.1% | 50.0hPa | 2.5V | 00:00:00 | 01:56:36 | 00:00:00 | |
| OE5MMP-10 | 2026-09-04 23:59:10 | 49.47677 | 13.40984 | 128° | 22km/h | 20971m | 5.2m/s | -56.1°C | 5.0% | 50.1hPa | 2.5V | 00:00:00 | 01:56:34 | 00:00:00 | |
| OE5WHR-10 | 2026-09-04 23:59:09 | 49.47680 | 13.40976 | 122° | 26km/h | 20967m | 4.3m/s | -56.1°C | 5.1% | 50.1hPa | 2.5V | 00:00:00 | 00:00:00 | 00:00:00 | |
| DL6DJ-15 | 2026-09-04 23:59:08 | 49.47683 | 13.40968 | 115° | 22km/h | 20962m | 3.8m/s | -56.2°C | 1.6% | 50.2hPa | 2.5V | 00:00:00 | 00:00:00 | 00:00:00 | |
| PETON7-10 | 2026-09-04 23:59:07 | 49.47685 | 13.40960 | 113° | 24km/h | 20958m | 5.1m/s | -56.1°C | 5.1% | 50.1hPa | 2.5V | 00:00:00 | 01:56:31 | 00:00:00 | |
| PG1ADW-2 | 2026-09-04 23:59:05 | 49.47689 | 13.40947 | 112° | 22km/h | 20949m | 3.5m/s | -56.1°C | 5.0% | 50.2hPa | 2.5V | 00:00:00 | 00:00:00 | 00:00:00 | |
| SONDE2-11 | 2026-09-04 23:59:02 | 49.47696 | 13.40922 | 117° | 26km/h | 20935m | 4.3m/s | -56.0°C | 1.6% | 50.4hPa | 2.5V | 00:00:00 | 00:00:00 | 00:00:00 | |
| EDDB2-11 | 2026-09-04 23:58:56 | 49.47711 | 13.40875 | 106° | 20km/h | 20910m | 5.0m/s | -56.0°C | 1.6% | 50.6hPa | 2.5V | 00:00:00 | 00:00:00 | 00:00:00 | |
| EDDB2-12 | 2026-09-04 23:58:48 | 49.47720 | 13.40806 | 105° | 18km/h | 20868m | 5.4m/s | -56.2°C | 1.6% | 50.9hPa | 2.5V | 00:00:00 | 00:00:00 | 00:00:00 | |
| DF8AY | 2026-09-04 23:58:42 | 49.47726 | 13.40771 | 95° | 20km/h | 20845m | 4.1m/s | -56.1°C | 1.4% | 51.1hPa | 2.5V | 04:09:10 | 01:56:06 | 00:00:00 | |
| DF8AY | 2026-09-04 23:58:24 | 49.47735 | 13.40611 | 93° | 27km/h | 20761m | 4.8m/s | -56.1°C | 1.5% | 51.8hPa | 2.5V | 04:09:10 | 01:55:48 | 00:00:00 | |
| DF8AY | 2026-09-04 23:58:14 | 49.47737 | 13.40488 | 94° | 24km/h | 20700m | 4.6m/s | -56°C | 1.4% | 52.3hPa | 2.5V | 04:10:01 | 01:55:35 | 00:00:00 | |
| DF8AY | 2026-09-04 23:58:00 | 49.47739 | 13.40386 | 91° | 24km/h | 20647m | 4.6m/s | -55.8°C | 1.4% | 52.7hPa | 2.5V | 04:10:01 | 01:55:24 | 00:00:00 | |
| DF8AY | 2026-09-04 23:57:47 | 49.47727 | 13.40243 | 93° | 24km/h | 20581m | 4m/s | -55.3°C | 1.4% | 53.3hPa | 2.6V | 04:10:01 | 01:55:10 | 00:00:00 | |
| EDDB2-12 | 2026-09-04 23:57:46 | 49.47727 | 13.40234 | 88° | 24km/h | 20577m | 4.2m/s | -55.3°C | 1.5% | 53.3hPa | 2.5V | 00:00:00 | 00:00:00 | 00:00:00 | |
| DF8AY | 2026-09-04 23:57:33 | 49.47713 | 13.40099 | 86° | 29km/h | 20520m | 4.5m/s | -55°C | 1.3% | 53.8hPa | 2.5V | 04:10:01 | 01:54:57 | 00:00:00 | |
| DF8AY | 2026-09-04 23:57:18 | 49.47682 | 13.39932 | 85° | 27km/h | 20447m | 5.1m/s | -54.7°C | 1.3% | 54.4hPa | 2.6V | 04:10:52 | 01:54:42 | 00:00:00 | |
| DF8AY | 2026-09-04 23:57:05 | 49.47658 | 13.39790 | 77° | 26km/h | 20384m | 4.6m/s | -54.7°C | 1.3% | 55hPa | 2.5V | 04:10:52 | 01:54:29 | 00:00:00 | |
| DL6DJ-15 | 2026-09-04 23:57:04 | 49.47656 | 13.39780 | 74° | 26km/h | 20379m | 4.6m/s | -54.7°C | 1.5% | 55.0hPa | 2.5V | 00:00:00 | 00:00:00 | 00:00:00 | |
| PG1ADW-2 | 2026-09-04 23:57:03 | 49.47654 | 13.39771 | 72° | 26km/h | 20374m | 5.0m/s | -54.6°C | 4.7% | 55.0hPa | 2.5V | 04:10:00 | 00:00:00 | 00:00:00 | |
| OE3MUC-15 | 2026-09-04 23:57:02 | 49.47652 | 13.39760 | 69° | 31km/h | 20369m | 5.1m/s | -54.6°C | 4.7% | 55.0hPa | 2.5V | 00:00:00 | 00:00:00 | 00:00:00 | |
| SONDE2-11 | 2026-09-04 23:56:58 | 49.47632 | 13.39711 | 56° | 26km/h | 20345m | 3.6m/s | -54.6°C | 1.5% | 55.3hPa | 2.5V | 00:00:00 | 00:00:00 | 00:00:00 | |
| EDDB2-11 | 2026-09-04 23:56:52 | 49.47620 | 13.39660 | 82° | 26km/h | 20322m | 5.4m/s | -54.5°C | 1.5% | 55.5hPa | 2.5V | 00:00:00 | 00:00:00 | 00:00:00 | |
| DF8AY | 2026-09-04 23:56:52 | 49.47620 | 13.39660 | 83° | 26km/h | 20321m | 5.4m/s | -54.5°C | 1.3% | 55.5hPa | 2.5V | 04:10:52 | 01:54:16 | 00:00:00 | |
| DF8AY | 2026-09-04 23:56:41 | 49.47609 | 13.39577 | 76° | 16km/h | 20266m | 5.7m/s | -54.3°C | 1.3% | 56hPa | 2.5V | 04:10:52 | 01:54:05 | 00:00:00 | |
| DF8AY | 2026-09-04 23:56:30 | 49.47611 | 13.39508 | 103° | 15km/h | 20213m | 4.5m/s | -54.3°C | 1.2% | 56.5hPa | 2.5V | 04:10:52 | 01:53:54 | 00:00:00 | |
| OE5MMP-10 | 2026-09-04 23:56:30 | 49.47611 | 13.39508 | 103° | 11km/h | 20213m | 4.4m/s | -54.2°C | 4.6% | 56.4hPa | 2.6V | 04:10:00 | 01:53:54 | 00:00:00 | |
| DF8AY | 2026-09-04 23:56:10 | 49.47645 | 13.39432 | 132° | 15km/h | 20117m | 4.1m/s | -54.3°C | 1.1% | 57.3hPa | 2.6V | 04:12:34 | 01:53:34 | 00:00:00 | |
| DF8AY | 2026-09-04 23:55:58 | 49.47662 | 13.39371 | 113° | 15km/h | 20061m | 5.3m/s | -54.9°C | 1.2% | 57.8hPa | 2.6V | 04:12:34 | 01:53:22 | 00:00:00 | |
| DF8AY | 2026-09-04 23:55:48 | 49.47681 | 13.39285 | 106° | 33km/h | 20013m | 4.5m/s | -55.2°C | 1.3% | 58.2hPa | 2.5V | 04:12:34 | 01:53:12 | 00:00:00 | |
| DF8AY | 2026-09-04 23:55:34 | 49.47690 | 13.39100 | 96° | 37km/h | 19943m | 3.9m/s | -55°C | 1.3% | 58.9hPa | 2.5V | 04:12:34 | 01:52:57 | 00:00:00 | |
| DF8AY | 2026-09-04 23:55:20 | 49.47678 | 13.38923 | 84° | 35km/h | 19884m | 3.8m/s | -54.8°C | 1.3% | 59.4hPa | 2.5V | 04:12:34 | 01:52:44 | 00:00:00 | |
| OE5MMP-10 | 2026-09-04 23:55:20 | 49.47677 | 13.38923 | 85° | 31km/h | 19884m | 3.7m/s | -54.7°C | 4.7% | 59.4hPa | 2.5V | 00:00:00 | 01:52:44 | 00:00:00 | |
| EDDB2-11 | 2026-09-04 23:55:19 | 49.47676 | 13.38897 | 84° | 35km/h | 19874m | 5.0m/s | -54.7°C | 1.5% | 59.5hPa | 2.5V | 00:00:00 | 00:00:00 | 00:00:00 | |
| DF8AY | 2026-09-04 23:54:59 | 49.47647 | 13.38665 | 74° | 29km/h | 19787m | 5.1m/s | -55.1°C | 1.3% | 60.3hPa | 2.5V | 04:12:34 | 01:52:23 | 00:00:00 | |
| DF8AY | 2026-09-04 23:54:49 | 49.47597 | 13.38499 | 55° | 26km/h | 19715m | 4.9m/s | -55°C | 1.3% | 61hPa | 2.6V | 04:14:16 | 01:52:08 | 00:00:00 | |
| OE5DRO-10 | 2026-09-04 23:54:48 | 49.47608 | 13.38534 | 71° | 26km/h | 19735m | 4.6m/s | -55.1°C | 4.9% | 60.8hPa | 2.5V | 00:00:00 | 00:00:00 | 00:00:00 | |
| DF8AY | 2026-09-04 23:54:30 | 49.47538 | 13.38400 | 65° | 18km/h | 19645m | 4.6m/s | -54.6°C | 1.3% | 61.7hPa | 2.5V | 04:14:16 | 01:51:54 | 00:00:00 | |
| DF8AY | 2026-09-04 23:54:19 | 49.47505 | 13.38339 | 35° | 18km/h | 19594m | 4.7m/s | -54.3°C | 1.2% | 62.2hPa | 2.5V | 04:14:16 | 01:51:43 | 00:00:00 | |
| DF8AY | 2026-09-04 23:54:10 | 49.47483 | 13.38303 | 36° | 20km/h | 19547m | 3.9m/s | -54°C | 1.1% | 62.6hPa | 2.6V | 04:14:16 | 01:51:33 | 00:00:00 | |
| DF8AY | 2026-09-04 23:53:58 | 49.47451 | 13.38272 | 69° | 11km/h | 19497m | 4.3m/s | -53.8°C | 1.2% | 63.1hPa | 2.6V | 04:14:16 | 01:51:22 | 00:00:00 | |
| DF8AY | 2026-09-04 23:53:46 | 49.47424 | 13.38237 | 131° | 11km/h | 19444m | 4.7m/s | -53.7°C | 1.2% | 0hPa | 2.6V | 04:14:16 | 01:51:10 | 00:00:00 | |
| EDDB2-11 | 2026-09-04 23:53:46 | 49.47426 | 13.38234 | 135° | 9km/h | 19440m | 3.8m/s | -53.8°C | 1.5% | 63.7hPa | 2.6V | 00:00:00 | 00:00:00 | 00:00:00 | |
| DF8AY | 2026-09-04 23:53:35 | 49.47406 | 13.38211 | 61° | 11km/h | 19397m | 3.4m/s | -53.4°C | 1.2% | 0hPa | 2.6V | 04:14:16 | 01:50:59 | 00:00:00 | |
| DF8AY | 2026-09-04 23:53:18 | 49.47412 | 13.38132 | 121° | 15km/h | 19310m | 6.4m/s | -52.6°C | 1% | 0hPa | 2.6V | 04:14:16 | 01:50:42 | 00:00:00 | |
| OE3MUC-15 | 2026-09-04 23:53:17 | 49.47414 | 13.38128 | 147° | 13km/h | 19305m | 5.1m/s | -52.5°C | 4.3% | 65.0hPa | 2.6V | 00:00:00 | 00:00:00 | 00:00:00 | |
| DF8AY | 2026-09-04 23:52:59 | 49.47435 | 13.38019 | 119° | 15km/h | 19212m | 6.2m/s | -52.6°C | 1% | 0hPa | 2.5V | 04:15:07 | 01:50:23 | 00:00:00 | |
| DF8AY | 2026-09-04 23:52:48 | 49.47404 | 13.37940 | 98° | 51km/h | 19158m | 5.5m/s | -52.1°C | 1% | 0hPa | 2.5V | 04:15:07 | 01:50:12 | 00:00:00 | |
| DF8AY | 2026-09-04 23:52:37 | 49.47377 | 13.37794 | 76° | 38km/h | 19087m | 6.1m/s | -51.5°C | 0.8% | 0hPa | 2.6V | 04:15:07 | 01:50:01 | 00:00:00 | |
| DF8AY | 2026-09-04 23:52:26 | 49.47390 | 13.37669 | 74° | 42km/h | 19022m | 6.4m/s | -53°C | 1% | 0hPa | 2.6V | 04:15:07 | 01:49:50 | 00:00:00 | |
| DF8AY | 2026-09-04 23:52:15 | 49.47359 | 13.37466 | 81° | 53km/h | 18966m | 4.5m/s | -53.6°C | 1.1% | 0hPa | 2.6V | 04:15:07 | 01:49:39 | 00:00:00 | |
| DF8AY | 2026-09-04 23:52:03 | 49.47329 | 13.37251 | 82° | 47km/h | 18913m | 4.6m/s | -54.5°C | 1.2% | 0hPa | 2.6V | 04:15:58 | 01:49:27 | 00:00:00 | |
| DF8AY | 2026-09-04 23:51:53 | 49.47327 | 13.37067 | 92° | 49km/h | 18869m | 4.3m/s | -55°C | 1.3% | 0hPa | 2.5V | 04:15:58 | 01:49:17 | 00:00:00 | |
| SONDE2-11 | 2026-09-04 23:51:47 | 49.47332 | 13.36941 | 94° | 57km/h | 18842m | 3.4m/s | -55.0°C | 1.5% | 69.9hPa | 2.5V | 00:00:00 | 00:00:00 | 00:00:00 | |
| DF8AY | 2026-09-04 23:51:43 | 49.47338 | 13.36848 | 92° | 42km/h | 18820m | 4.7m/s | -55.8°C | 1.3% | 0hPa | 2.5V | 04:15:58 | 01:49:06 | 00:00:00 | |
| DF8AY | 2026-09-04 23:51:32 | 49.47338 | 13.36654 | 100° | 57km/h | 18776m | 4.8m/s | -56.8°C | 1.6% | 0hPa | 2.5V | 04:15:58 | 01:48:56 | 00:00:00 | |
| DF8AY | 2026-09-04 23:51:22 | 49.47356 | 13.36414 | 92° | 58km/h | 18722m | 4.4m/s | 0°C | 0% | 0hPa | 2.5V | 18:12:15 | 01:48:44 | 00:00:00 | |
| DF8AY | 2026-09-04 23:51:16 | 49.47362 | 13.36227 | 89° | 46km/h | 18682m | 4.6m/s | 0°C | 0% | 0hPa | 2.6V | 18:12:15 | 01:48:35 | 00:00:00 | |
| DF8AY | 2026-09-04 23:51:00 | 49.47358 | 13.35990 | 86° | 57km/h | 18635m | 4m/s | 0°C | 0% | 0hPa | 2.6V | 18:12:15 | 01:48:24 | 00:00:00 | |
| DF8AY | 2026-09-04 23:50:47 | 49.47356 | 13.35726 | 92° | 51km/h | 18573m | 3m/s | 0°C | 0% | 0hPa | 2.5V | 18:12:15 | 01:48:10 | 00:00:00 | |
| SONDE2-11 | 2026-09-04 23:50:45 | 49.47356 | 13.35707 | 93° | 47km/h | 18570m | 4.6m/s | -58.0°C | 1.8% | 73.0hPa | 2.6V | 00:00:00 | 00:00:00 | 00:00:00 | |
| DF8AY | 2026-09-04 23:50:31 | 49.47367 | 13.35456 | 99° | 55km/h | 18509m | 3.8m/s | 0°C | 0% | 0hPa | 2.6V | 18:12:15 | 01:47:55 | 00:00:00 | |
| EDDB2-12 | 2026-09-04 23:50:31 | 49.47367 | 13.35456 | 98° | 55km/h | 18509m | 3.8m/s | -58.2°C | 1.9% | 73.6hPa | 2.5V | 00:00:00 | 00:00:00 | 00:00:00 | |
| OE5MMP-10 | 2026-09-04 23:50:30 | 49.47369 | 13.35434 | 100° | 55km/h | 18504m | 5.1m/s | -58.1°C | 5.5% | 73.7hPa | 2.5V | 00:00:00 | 01:47:54 | 00:00:00 | |
| SP3BTT-10 | 2026-09-04 23:50:27 | 49.47377 | 13.35368 | 99° | 46km/h | 18491m | 5.2m/s | -58.0°C | 5.5% | 73.8hPa | 2.5V | 00:00:00 | 00:00:00 | 00:00:00 | |
| S52SK | 2026-09-04 23:50:25 | 49.47379 | 13.35344 | 97° | 62km/h | 18486m | 4.2m/s | 0°C | 0% | 73.9hPa | 2.5V | 00:00:00 | 00:00:00 | 00:00:00 | |
| PG1ADW-2 | 2026-09-04 23:50:23 | 49.47383 | 13.35278 | 96° | 53km/h | 18473m | 4.6m/s | -58.0°C | 5.6% | 74.1hPa | 2.5V | 04:16:00 | 00:00:00 | 00:00:00 | |
| DF8AY | 2026-09-04 23:50:05 | 49.47375 | 13.34915 | 80° | 53km/h | 18394m | 4.3m/s | 0°C | 0% | 0hPa | 2.5V | 18:12:15 | 01:47:29 | 00:00:00 | |
| DF8AY | 2026-09-04 23:49:55 | 49.47358 | 13.34719 | 91° | 46km/h | 18354m | 5.1m/s | 0°C | 0% | 0hPa | 2.5V | 18:12:15 | 01:47:19 | 00:00:00 | |
| DL6DJ-15 | 2026-09-04 23:49:49 | 49.47350 | 13.34617 | 76° | 46km/h | 18329m | 3.6m/s | -58.4°C | 1.9% | 75.8hPa | 2.6V | 00:00:00 | 00:00:00 | 00:00:00 | |
| SONDE2-11 | 2026-09-04 23:49:44 | 49.47338 | 13.34523 | 81° | 40km/h | 18303m | 4.1m/s | -58.4°C | 1.9% | 76.1hPa | 2.6V | 00:00:00 | 00:00:00 | 00:00:00 | |
| PG1ADW-2 | 2026-09-04 23:49:43 | 49.47338 | 13.34523 | 82° | 35km/h | 18303m | 4.1m/s | -58.4°C | 5.7% | 76.1hPa | 2.6V | 00:00:00 | 00:00:00 | 00:00:00 | |
| OE5MMP-10 | 2026-09-04 23:49:40 | 49.47334 | 13.34477 | 83° | 35km/h | 18290m | 3.8m/s | -58.4°C | 5.7% | 76.2hPa | 2.6V | 00:00:00 | 01:47:04 | 00:00:00 | |
| PETON7-10 | 2026-09-04 23:49:37 | 49.47330 | 13.34435 | 86° | 35km/h | 18278m | 4.4m/s | -58.4°C | 5.7% | 76.4hPa | 2.6V | 04:17:00 | 01:47:01 | 00:00:00 | |
| OE5MMP-10 | 2026-09-04 23:49:30 | 49.47319 | 13.34345 | 82° | 35km/h | 18250m | 3.4m/s | -58.3°C | 5.7% | 76.7hPa | 2.6V | 00:00:00 | 01:46:54 | 00:00:00 | |
| EDDB2-12 | 2026-09-04 23:49:29 | 49.47318 | 13.34332 | 87° | 33km/h | 18246m | 3.7m/s | -58.4°C | 1.9% | 76.8hPa | 2.6V | 00:00:00 | 00:00:00 | 00:00:00 | |
| OE5DRO-10 | 2026-09-04 23:49:25 | 49.47322 | 13.34280 | 103° | 33km/h | 18229m | 4.9m/s | -58.2°C | 5.6% | 77.0hPa | 2.6V | 00:00:00 | 00:00:00 | 00:00:00 | |
| PG1ADW-2 | 2026-09-04 23:49:23 | 49.47326 | 13.34253 | 99° | 33km/h | 18219m | 3.5m/s | -58.2°C | 5.7% | 77.1hPa | 2.6V | 00:00:00 | 01:46:47 | 00:00:00 | |
| PETON7-10 | 2026-09-04 23:49:22 | 49.47327 | 13.34239 | 99° | 33km/h | 18215m | 4.1m/s | -58.2°C | 5.7% | 77.1hPa | 2.5V | 00:00:00 | 00:00:00 | 00:00:00 | |
| OE5MMP-10 | 2026-09-04 23:49:20 | 49.47329 | 13.34214 | 95° | 31km/h | 18206m | 3.5m/s | -58.1°C | 5.6% | 77.3hPa | 2.6V | 00:00:00 | 01:46:44 | 00:00:00 | |
| OE3MUC-15 | 2026-09-04 23:49:19 | 49.47330 | 13.34203 | 92° | 29km/h | 18202m | 4.6m/s | -58.1°C | 5.6% | 77.3hPa | 2.6V | 04:18:00 | 00:00:00 | 00:00:00 | |
| DL6DJ-15 | 2026-09-04 23:49:18 | 49.47330 | 13.34191 | 89° | 29km/h | 18197m | 4.4m/s | -58.1°C | 1.9% | 77.4hPa | 2.5V | 00:00:00 | 00:00:00 | 00:00:00 | |
| OE3MUC-15 | 2026-09-04 23:49:14 | 49.47332 | 13.34147 | 105° | 33km/h | 18180m | 3.1m/s | -58.0°C | 5.6% | 77.6hPa | 2.5V | 00:00:00 | 00:00:00 | 00:00:00 | |
| SONDE2-11 | 2026-09-04 23:49:12 | 49.47337 | 13.34122 | 105° | 35km/h | 18172m | 4.5m/s | -58.0°C | 1.9% | 77.7hPa | 2.5V | 00:00:00 | 00:00:00 | 00:00:00 | |
| OE5MMP-10 | 2026-09-04 23:49:10 | 49.47342 | 13.34095 | 110° | 31km/h | 18163m | 5.1m/s | -57.9°C | 5.6% | 77.8hPa | 2.5V | 00:00:00 | 01:46:34 | 00:00:00 | |
| OE3MUC-15 | 2026-09-04 23:49:07 | 49.47352 | 13.34058 | 109° | 29km/h | 18150m | 4.0m/s | -57.9°C | 5.6% | 77.9hPa | 2.6V | 00:00:00 | 00:00:00 | 00:00:00 | |
| OE5DRO-10 | 2026-09-04 23:49:06 | 49.47354 | 13.34045 | 105° | 27km/h | 18146m | 4.6m/s | -57.8°C | 5.6% | 78.0hPa | 2.6V | 00:00:00 | 00:00:00 | 00:00:00 | |
| PG1ADW-2 | 2026-09-04 23:49:03 | 49.47360 | 13.34011 | 106° | 27km/h | 18134m | 5.0m/s | -57.7°C | 5.6% | 78.1hPa | 2.6V | 00:00:00 | 00:00:00 | 00:00:00 | |
| OE3MUC-15 | 2026-09-04 23:49:02 | 49.47362 | 13.34002 | 112° | 22km/h | 18129m | 4.2m/s | -57.7°C | 5.6% | 78.2hPa | 2.6V | 00:00:00 | 00:00:00 | 00:00:00 | |
| EDDB2-12 | 2026-09-04 23:48:58 | 49.47372 | 13.33967 | 118° | 27km/h | 18113m | 3.7m/s | -57.6°C | 1.9% | 78.5hPa | 2.5V | 00:00:00 | 00:00:00 | 00:00:00 | |
| OE3MUC-15 | 2026-09-04 23:48:56 | 49.47380 | 13.33948 | 124° | 29km/h | 18104m | 4.3m/s | -57.5°C | 5.5% | 78.5hPa | 2.5V | 00:00:00 | 00:00:00 | 00:00:00 | |
| PETON7-10 | 2026-09-04 23:48:52 | 49.47394 | 13.33908 | 114° | 27km/h | 18087m | 3.1m/s | -57.4°C | 5.5% | 78.7hPa | 2.5V | 00:00:00 | 01:46:16 | 00:00:00 | |
| OE5MMP-10 | 2026-09-04 23:48:50 | 49.47399 | 13.33889 | 114° | 26km/h | 18079m | 3.8m/s | -57.4°C | 5.5% | 78.8hPa | 2.5V | 00:00:00 | 01:46:14 | 00:00:00 | |
| OE3MUC-15 | 2026-09-04 23:48:49 | 49.47402 | 13.33881 | 113° | 22km/h | 18076m | 2.8m/s | -57.4°C | 5.6% | 78.8hPa | 2.5V | 04:18:00 | 00:00:00 | 00:00:00 | |
| OE5DRO-10 | 2026-09-04 23:48:47 | 49.47406 | 13.33863 | 108° | 29km/h | 18067m | 4.5m/s | -57.3°C | 5.5% | 79.0hPa | 2.5V | 04:18:00 | 00:00:00 | 00:00:00 | |
| PG1ADW-2 | 2026-09-04 23:48:43 | 49.47415 | 13.33825 | 120° | 31km/h | 18050m | 4.7m/s | -57.2°C | 5.5% | 79.2hPa | 2.5V | 04:18:00 | 00:00:00 | 00:00:00 | |
| OE3MUC-15 | 2026-09-04 23:48:41 | 49.47423 | 13.33808 | 125° | 27km/h | 18042m | 3.8m/s | -57.2°C | 5.4% | 79.3hPa | 2.5V | 00:00:00 | 00:00:00 | 00:00:00 | |
| OE5MMP-10 | 2026-09-04 23:48:40 | 49.47426 | 13.33799 | 123° | 31km/h | 18038m | 4.7m/s | -57.2°C | 5.4% | 79.3hPa | 2.5V | 00:00:00 | 01:46:04 | 00:00:00 | |
| PETON7-10 | 2026-09-04 23:48:37 | 49.47439 | 13.33769 | 125° | 33km/h | 18025m | 4.8m/s | -57.1°C | 5.4% | 79.5hPa | 2.5V | 00:00:00 | 00:00:00 | 00:00:00 | |
| OE3MUC-15 | 2026-09-04 23:48:36 | 49.47443 | 13.33760 | 125° | 31km/h | 18020m | 3.8m/s | -57.1°C | 5.3% | 79.5hPa | 2.5V | 00:00:00 | 00:00:00 | 00:00:00 | |
| EDDB2-11 | 2026-09-04 23:48:35 | 49.47447 | 13.33751 | 119° | 27km/h | 18016m | 3.9m/s | -57.1°C | 1.9% | 79.7hPa | 2.5V | 00:00:00 | 00:00:00 | 00:00:00 | |
| S52SK | 2026-09-04 23:48:33 | 49.47450 | 13.33740 | 115° | 31km/h | 18012m | 5.3m/s | 0°C | 0% | 79.7hPa | 2.5V | 00:00:00 | 00:00:00 | 00:00:00 | |
| OE5MMP-10 | 2026-09-04 23:48:30 | 49.47462 | 13.33690 | 114° | 35km/h | 17993m | 4.3m/s | -56.9°C | 5.2% | 79.9hPa | 2.5V | 00:00:00 | 01:45:54 | 00:00:00 | |
| OE5DRO-10 | 2026-09-04 23:48:28 | 49.47470 | 13.33666 | 117° | 37km/h | 17985m | 4.8m/s | -56.9°C | 5.2% | 80.0hPa | 2.5V | 00:00:00 | 00:00:00 | 00:00:00 | |
| EDDB2-12 | 2026-09-04 23:48:27 | 49.47474 | 13.33653 | 116° | 35km/h | 17980m | 4.4m/s | -57.0°C | 1.8% | 80.1hPa | 2.5V | 00:00:00 | 00:00:00 | 00:00:00 | |
| PG1ADW-2 | 2026-09-04 23:48:23 | 49.47491 | 13.33608 | 120° | 42km/h | 17963m | 3.8m/s | -56.9°C | 5.2% | 80.3hPa | 2.5V | 00:00:00 | 00:00:00 | 00:00:00 | |
| PETON7-10 | 2026-09-04 23:48:22 | 49.47495 | 13.33596 | 115° | 40km/h | 17959m | 5.2m/s | -57.0°C | 5.2% | 80.3hPa | 2.7V | 04:19:00 | 00:00:00 | 00:00:00 | |
| OE5MMP-10 | 2026-09-04 23:48:20 | 49.47502 | 13.33570 | 111° | 40km/h | 17950m | 4.1m/s | -57.0°C | 5.3% | 80.4hPa | 2.7V | 00:00:00 | 01:45:44 | 00:00:00 | |
| OE3MUC-15 | 2026-09-04 23:48:17 | 49.47512 | 13.33529 | 112° | 38km/h | 17937m | 3.4m/s | -57.2°C | 5.3% | 80.6hPa | 2.7V | 00:00:00 | 00:00:00 | 00:00:00 | |
| DL6DJ-15 | 2026-09-04 23:48:16 | 49.47516 | 13.33515 | 109° | 40km/h | 17933m | 4.9m/s | -57.3°C | 1.9% | 80.7hPa | 2.7V | 00:00:00 | 00:00:00 | 00:00:00 | |
| DL1JEZ-13 | 2026-09-04 23:48:12 | 49.47525 | 13.33468 | 108° | 40km/h | 17919m | 4.2m/s | -57.5°C | 1.9% | 80.9hPa | 2.7V | 00:00:00 | 00:00:00 | 00:00:00 | |
| DF8AY | 2026-09-04 23:47:54 | 49.47617 | 13.33145 | 109° | 53km/h | 17835m | 4.7m/s | 0°C | 0% | 0hPa | 2.7V | 18:12:15 | 01:45:18 | 00:00:00 | |
| DL6DJ-15 | 2026-09-04 23:47:45 | 49.47649 | 13.32958 | 98° | 57km/h | 17799m | 4.6m/s | -58.4°C | 2.0% | 82.4hPa | 2.5V | 00:00:00 | 00:00:00 | 00:00:00 | |
| DF8AY | 2026-09-04 23:47:34 | 49.47687 | 13.32728 | 99° | 55km/h | 17754m | 4.2m/s | 0°C | 0% | 0hPa | 2.5V | 18:12:15 | 01:44:58 | 00:00:00 | |
| DF8AY | 2026-09-04 23:47:24 | 49.47692 | 13.32530 | 95° | 49km/h | 17713m | 3m/s | 0°C | 0% | 0hPa | 2.5V | 18:12:15 | 01:44:48 | 00:00:00 | |
| PG1ADW-2 | 2026-09-04 23:47:23 | 49.47693 | 13.32510 | 97° | 44km/h | 17709m | 4.7m/s | -58.3°C | 5.7% | 83.6hPa | 2.5V | 00:00:00 | 00:00:00 | 00:00:00 | |
| PETON7-10 | 2026-09-04 23:47:22 | 49.47695 | 13.32491 | 96° | 49km/h | 17704m | 4.4m/s | -58.3°C | 5.7% | 83.7hPa | 2.5V | 00:00:00 | 01:44:46 | 00:00:00 | |
| OE5MMP-10 | 2026-09-04 23:47:20 | 49.47697 | 13.32451 | 94° | 47km/h | 17697m | 4.1m/s | -58.3°C | 5.8% | 83.7hPa | 2.5V | 04:20:00 | 01:44:44 | 00:00:00 | |
| DO3MHA-11 | 2026-09-04 23:47:15 | 49.47694 | 13.32360 | 86° | 51km/h | 17676m | 4.5m/s | -58.4°C | 5.7% | 84.0hPa | 2.5V | 00:00:00 | 01:44:39 | 00:00:00 | |
| DL6DJ-15 | 2026-09-04 23:47:14 | 49.47693 | 13.32341 | 86° | 49km/h | 17672m | 3.3m/s | -58.4°C | 2.0% | 84.1hPa | 2.5V | 00:00:00 | 00:00:00 | 00:00:00 | |
| OE5DRO-10 | 2026-09-04 23:47:12 | 49.47692 | 13.32302 | 92° | 49km/h | 17664m | 4.8m/s | -58.5°C | 5.7% | 84.2hPa | 2.5V | 04:20:00 | 00:00:00 | 00:00:00 | |
| OE5MMP-10 | 2026-09-04 23:47:10 | 49.47694 | 13.32265 | 97° | 51km/h | 17656m | 3.2m/s | -58.5°C | 5.8% | 84.3hPa | 2.7V | 00:00:00 | 01:44:34 | 00:00:00 | |
| SONDE2-11 | 2026-09-04 23:47:08 | 49.47697 | 13.32206 | 88° | 53km/h | 17644m | 4.4m/s | -58.5°C | 2.0% | 84.5hPa | 2.5V | 00:00:00 | 00:00:00 | 00:00:00 | |
| PETON7-10 | 2026-09-04 23:47:07 | 49.47697 | 13.32206 | 89° | 49km/h | 17644m | 4.3m/s | -58.4°C | 5.7% | 84.5hPa | 2.5V | 04:20:00 | 00:00:00 | 00:00:00 | |
| DO3MHA-11 | 2026-09-04 23:47:05 | 49.47696 | 13.32164 | 87° | 49km/h | 17636m | 4.0m/s | -58.4°C | 5.7% | 84.6hPa | 2.6V | 00:00:00 | 01:44:29 | 00:00:00 | |
| EDDB2-11 | 2026-09-04 23:47:03 | 49.47693 | 13.32107 | 86° | 47km/h | 17623m | 3.8m/s | -58.5°C | 2.0% | 84.8hPa | 2.5V | 00:00:00 | 00:00:00 | 00:00:00 | |
| DF3TZ-5 | 2026-09-04 23:46:56 | 49.47688 | 13.31993 | 85° | 46km/h | 17598m | 3.5m/s | 0°C | -1.0% | -1.0hPa | 2.5V | 00:00:00 | 00:00:00 | 00:00:00 | |
| DO3MHA-11 | 2026-09-04 23:46:55 | 49.47687 | 13.31975 | 86° | 46km/h | 17594m | 3.7m/s | -58.6°C | 5.9% | 85.1hPa | 2.5V | 00:00:00 | 01:44:19 | 00:00:00 | |
| PETON7-10 | 2026-09-04 23:46:52 | 49.47684 | 13.31919 | 84° | 46km/h | 17582m | 3.7m/s | -58.6°C | 5.8% | 85.3hPa | 2.5V | 00:00:00 | 00:00:00 | 00:00:00 | |
| OE5MMP-10 | 2026-09-04 23:46:50 | 49.47681 | 13.31884 | 84° | 46km/h | 17573m | 4.1m/s | -58.6°C | 5.8% | 85.4hPa | 2.5V | 00:00:00 | 01:44:14 | 00:00:00 | |
| DO3MHA-11 | 2026-09-04 23:46:45 | 49.47672 | 13.31798 | 78° | 44km/h | 17552m | 5.1m/s | -58.4°C | 5.8% | 85.7hPa | 2.5V | 04:20:00 | 01:44:09 | 00:00:00 | |
| DL6DJ-15 | 2026-09-04 23:46:43 | 49.47664 | 13.31745 | 75° | 46km/h | 17538m | 5.1m/s | -58.3°C | 2.0% | 86.0hPa | 2.5V | 00:00:00 | 00:00:00 | 00:00:00 | |
| OE5MMP-10 | 2026-09-04 23:46:40 | 49.47658 | 13.31711 | 74° | 42km/h | 17530m | 3.5m/s | -58.2°C | 5.8% | 86.0hPa | 2.5V | 00:00:00 | 01:44:04 | 00:00:00 | |
| PETON7-10 | 2026-09-04 23:46:37 | 49.47649 | 13.31665 | 75° | 42km/h | 17517m | 4.3m/s | -58.2°C | 5.7% | 86.2hPa | 2.5V | 00:00:00 | 01:44:01 | 00:00:00 | |
| S52SK | 2026-09-04 23:46:36 | 49.47649 | 13.31665 | 75° | 38km/h | 17517m | 4.3m/s | 0°C | 0% | 86.2hPa | 2.5V | 00:00:00 | 00:00:00 | 00:00:00 | |
| DO3MHA-11 | 2026-09-04 23:46:35 | 49.47643 | 13.31635 | 72° | 42km/h | 17508m | 4.1m/s | -58.2°C | 5.8% | 86.3hPa | 2.5V | 00:00:00 | 01:43:59 | 00:00:00 | |
| OE5DRO-10 | 2026-09-04 23:46:34 | 49.47640 | 13.31619 | 73° | 42km/h | 17504m | 3.6m/s | -58.2°C | 5.8% | 86.4hPa | 2.5V | 00:00:00 | 00:00:00 | 00:00:00 | |
| S52SK | 2026-09-04 23:46:32 | 49.47634 | 13.31587 | 77° | 40km/h | 17495m | 4.9m/s | 0°C | 0% | 86.5hPa | 2.5V | 00:00:00 | 00:00:00 | 00:00:00 | |
| EDDB2-11 | 2026-09-04 23:46:31 | 49.47632 | 13.31572 | 76° | 38km/h | 17491m | 3.7m/s | -58.2°C | 2.0% | 86.6hPa | 2.5V | 00:00:00 | 00:00:00 | 00:00:00 | |
| OE5MMP-10 | 2026-09-04 23:46:30 | 49.47629 | 13.31557 | 75° | 42km/h | 17487m | 3.3m/s | -58.1°C | 5.8% | 86.6hPa | 2.5V | 04:20:00 | 01:43:54 | 00:00:00 | |
| DO3MHA-11 | 2026-09-04 23:46:25 | 49.47608 | 13.31479 | 67° | 40km/h | 17466m | 4.9m/s | -57.9°C | 5.8% | 86.9hPa | 2.5V | 00:00:00 | 01:43:49 | 00:00:00 | |
| EDDB2-12 | 2026-09-04 23:46:23 | 49.47597 | 13.31435 | 68° | 40km/h | 17453m | 5.3m/s | -57.9°C | 2.0% | 87.1hPa | 2.5V | 00:00:00 | 00:00:00 | 00:00:00 | |
| PETON7-10 | 2026-09-04 23:46:22 | 49.47597 | 13.31435 | 69° | 42km/h | 17453m | 5.2m/s | -57.8°C | 5.7% | 87.1hPa | 2.5V | 00:00:00 | 00:00:00 | 00:00:00 | |
| DL1JEZ-13 | 2026-09-04 23:46:21 | 49.47597 | 13.31435 | 70° | 40km/h | 17453m | 5.3m/s | -57.9°C | 2.0% | 87.1hPa | 2.6V | 00:00:00 | 00:00:00 | 00:00:00 | |
| OE5MMP-10 | 2026-09-04 23:46:20 | 49.47589 | 13.31405 | 67° | 42km/h | 17443m | 4.1m/s | -57.7°C | 5.7% | 87.2hPa | 2.6V | 00:00:00 | 01:43:44 | 00:00:00 | |
| DO3MHA-11 | 2026-09-04 23:46:15 | 49.47567 | 13.31334 | 63° | 49km/h | 17421m | 4.9m/s | -57.5°C | 5.6% | 87.5hPa | 2.6V | 00:00:00 | 01:43:39 | 00:00:00 | |
| DL6DJ-15 | 2026-09-04 23:46:12 | 49.47543 | 13.31274 | 55° | 42km/h | 17403m | 3.9m/s | -57.4°C | 2.0% | 87.8hPa | 2.6V | 00:00:00 | 00:00:00 | 00:00:00 | |
| OE5MMP-10 | 2026-09-04 23:46:10 | 49.47537 | 13.31260 | 56° | 42km/h | 17399m | 4.0m/s | -57.3°C | 5.5% | 87.8hPa | 2.6V | 00:00:00 | 01:43:34 | 00:00:00 | |
| SP3BTT-10 | 2026-09-04 23:46:09 | 49.47531 | 13.31246 | 58° | 44km/h | 17395m | 4.6m/s | -57.2°C | 5.5% | 87.9hPa | 2.5V | 00:00:00 | 00:00:00 | 00:00:00 | |
| PETON7-10 | 2026-09-04 23:46:07 | 49.47520 | 13.31217 | 65° | 42km/h | 17387m | 4.7m/s | -57.2°C | 5.5% | 88.0hPa | 2.5V | 00:00:00 | 00:00:00 | 00:00:00 | |
| SONDE2-11 | 2026-09-04 23:46:06 | 49.47513 | 13.31189 | 71° | 37km/h | 17378m | 3.4m/s | -57.1°C | 1.9% | 88.2hPa | 2.5V | 00:00:00 | 00:00:00 | 00:00:00 | |
| EDDB2-11 | 2026-09-04 23:46:00 | 49.47493 | 13.31114 | 60° | 42km/h | 17358m | 4.8m/s | -57.2°C | 1.9% | 88.5hPa | 2.5V | 00:00:00 | 00:00:00 | 00:00:00 | |
| DF3TZ-5 | 2026-09-04 23:45:54 | 49.47452 | 13.30984 | 74° | 40km/h | 17319m | 3.6m/s | 0°C | -1.0% | -1.0hPa | 2.5V | 00:00:00 | 00:00:00 | 00:00:00 | |
| EDDB2-12 | 2026-09-04 23:45:52 | 49.47452 | 13.30984 | 74° | 40km/h | 17319m | 3.6m/s | -56.9°C | 1.9% | 89.0hPa | 2.5V | 00:00:00 | 00:00:00 | 00:00:00 | |
| OE5MMP-10 | 2026-09-04 23:45:50 | 49.47449 | 13.30968 | 74° | 46km/h | 17315m | 4.8m/s | -56.8°C | 5.5% | 89.0hPa | 2.5V | 00:00:00 | 01:43:14 | 00:00:00 | |
| DL6DJ-15 | 2026-09-04 23:45:41 | 49.47401 | 13.30811 | 64° | 40km/h | 17271m | 4.1m/s | -56.6°C | 1.9% | 89.7hPa | 2.5V | 00:00:00 | 00:00:00 | 00:00:00 | |
| OE5MMP-10 | 2026-09-04 23:45:40 | 49.47401 | 13.30811 | 65° | 46km/h | 17271m | 4.1m/s | -56.6°C | 5.4% | 89.7hPa | 2.5V | 04:21:00 | 01:43:04 | 00:00:00 | |
| PG1ADW-2 | 2026-09-04 23:45:38 | 49.47393 | 13.30782 | 71° | 46km/h | 17263m | 5.1m/s | -56.6°C | 5.4% | 89.8hPa | 2.7V | 00:00:00 | 01:43:02 | 00:00:00 | |
| DF8AY | 2026-09-04 23:45:26 | 49.47330 | 13.30476 | 88° | 46km/h | 17183m | 3.8m/s | 0°C | 0% | 0hPa | 2.7V | 18:12:15 | 01:42:44 | 00:00:00 | |
| DF3TZ-5 | 2026-09-04 23:45:23 | 49.47331 | 13.30512 | 86° | 46km/h | 17192m | 5.2m/s | 0°C | -1.0% | -1.0hPa | 2.5V | 00:00:00 | 00:00:00 | 00:00:00 | |
| EDDB2-12 | 2026-09-04 23:45:21 | 49.47330 | 13.30476 | 87° | 44km/h | 17183m | 3.8m/s | -56.3°C | 1.9% | 90.9hPa | 2.5V | 00:00:00 | 00:00:00 | 00:00:00 | |
| OE5MMP-10 | 2026-09-04 23:45:20 | 49.47330 | 13.30476 | 88° | 46km/h | 17184m | 3.7m/s | -56.2°C | 5.3% | 90.9hPa | 2.5V | 00:00:00 | 01:42:44 | 00:00:00 | |
| PG1ADW-2 | 2026-09-04 23:45:18 | 49.47328 | 13.30441 | 79° | 40km/h | 17175m | 4.9m/s | -56.1°C | 5.4% | 91.0hPa | 2.5V | 00:00:00 | 00:00:00 | 00:00:00 | |
| DL6DJ-15 | 2026-09-04 23:45:10 | 49.47277 | 13.30303 | 72° | 46km/h | 17135m | 5.4m/s | -55.9°C | 1.9% | 91.6hPa | 2.7V | 00:00:00 | 00:00:00 | 00:00:00 | |
| PETON7-10 | 2026-09-04 23:45:06 | 49.47275 | 13.30253 | 98° | 38km/h | 17119m | 3.8m/s | -55.7°C | 5.3% | 91.8hPa | 2.7V | 00:00:00 | 01:42:30 | 00:00:00 | |
| SONDE2-11 | 2026-09-04 23:45:03 | 49.47277 | 13.30215 | 82° | 27km/h | 17105m | 5.2m/s | -55.6°C | 1.8% | 92.1hPa | 2.7V | 00:00:00 | 00:00:00 | 00:00:00 | |
| EDDB2-11 | 2026-09-04 23:44:58 | 49.47265 | 13.30154 | 78° | 42km/h | 17069m | 9.5m/s | -55.6°C | 1.8% | 92.5hPa | 2.7V | 00:00:00 | 00:00:00 | 00:00:00 | |
| DF3TZ-5 | 2026-09-04 23:44:52 | 49.47249 | 13.30028 | 75° | 47km/h | 17018m | 6.5m/s | 0°C | -1.0% | -1.0hPa | 2.7V | 00:00:00 | 00:00:00 | 00:00:00 | |
| EDDB2-12 | 2026-09-04 23:44:50 | 49.47244 | 13.29990 | 82° | 51km/h | 17007m | 5.9m/s | -55.8°C | 1.8% | 93.5hPa | 2.7V | 00:00:00 | 00:00:00 | 00:00:00 | |
| S52SK | 2026-09-04 23:44:46 | 49.47242 | 13.29949 | 91° | 53km/h | 16995m | 5.4m/s | 0°C | 0% | 93.7hPa | 2.7V | 00:00:00 | 00:00:00 | 00:00:00 | |
| DL1JEZ-13 | 2026-09-04 23:44:42 | 49.47245 | 13.29864 | 96° | 57km/h | 16974m | 4.8m/s | -55.7°C | 1.9% | 94.0hPa | 2.7V | 00:00:00 | 00:00:00 | 00:00:00 | |
| OE3JTB-15 | 2026-09-04 23:44:41 | 49.47248 | 13.29821 | 99° | 57km/h | 16964m | 4.6m/s | 0°C | 0% | 0hPa | 2.7V | 00:00:00 | 00:00:00 | 00:00:00 | |
| OE5MMP-10 | 2026-09-04 23:44:40 | 49.47250 | 13.29799 | 97° | 62km/h | 16959m | 5.3m/s | -55.7°C | 5.1% | 94.1hPa | 2.7V | 00:00:00 | 01:42:04 | 00:00:00 | |
| DO3MHA-11 | 2026-09-04 23:44:38 | 49.47253 | 13.29753 | 94° | 66km/h | 16948m | 5.1m/s | -55.7°C | 5.2% | 94.3hPa | 2.6V | 00:00:00 | 01:42:02 | 00:00:00 | |
| SONDE2-11 | 2026-09-04 23:44:32 | 49.47257 | 13.29607 | 92° | 62km/h | 16917m | 5.3m/s | -56.1°C | 1.9% | 94.8hPa | 2.6V | 00:00:00 | 00:00:00 | 00:00:00 | |
| OE5MMP-10 | 2026-09-04 23:44:30 | 49.47260 | 13.29560 | 97° | 58km/h | 16906m | 4.4m/s | -56.1°C | 5.2% | 94.9hPa | 2.6V | 00:00:00 | 01:41:54 | 00:00:00 | |
| SP3BTT-10 | 2026-09-04 23:44:27 | 49.47263 | 13.29496 | 90° | 62km/h | 16892m | 4.9m/s | -56.1°C | 5.2% | 95.1hPa | 2.6V | 00:00:00 | 00:00:00 | 00:00:00 | |
| OE5DRO-10 | 2026-09-04 23:44:21 | 49.47259 | 13.29358 | 86° | 68km/h | 16863m | 5.5m/s | -55.9°C | 5.3% | 95.6hPa | 2.6V | 00:00:00 | 00:00:00 | 00:00:00 | |
| OE5MMP-10 | 2026-09-04 23:44:20 | 49.47258 | 13.29332 | 87° | 68km/h | 16858m | 4.5m/s | -55.8°C | 5.2% | 95.7hPa | 2.7V | 00:00:00 | 01:41:44 | 00:00:00 | |
| PG1ADW-2 | 2026-09-04 23:44:18 | 49.47256 | 13.29281 | 90° | 66km/h | 16847m | 5.1m/s | -55.8°C | 5.2% | 95.8hPa | 2.7V | 04:23:00 | 01:41:42 | 00:00:00 | |
| OE5MMP-10 | 2026-09-04 23:44:10 | 49.47254 | 13.29067 | 90° | 66km/h | 16808m | 5.3m/s | -56.1°C | 5.4% | 96.4hPa | 2.6V | 00:00:00 | 01:41:34 | 00:00:00 | |
| PETON7-10 | 2026-09-04 23:44:08 | 49.47253 | 13.29014 | 88° | 69km/h | 16798m | 4.0m/s | -56.1°C | 5.3% | 96.5hPa | 2.7V | 04:23:00 | 00:00:00 | 00:00:00 | |
| DL6DJ-15 | 2026-09-04 23:44:07 | 49.47253 | 13.28987 | 89° | 68km/h | 16794m | 5.1m/s | -56.1°C | 2.0% | 96.7hPa | 2.7V | 00:00:00 | 00:00:00 | 00:00:00 | |
| DO3MHA-11 | 2026-09-04 23:44:06 | 49.47253 | 13.28961 | 91° | 64km/h | 16789m | 5.2m/s | -56.0°C | 5.3% | 96.7hPa | 2.7V | 04:23:00 | 01:41:30 | 00:00:00 | |
| OE5DRO-10 | 2026-09-04 23:44:02 | 49.47253 | 13.28861 | 90° | 69km/h | 16770m | 3.7m/s | -55.8°C | 5.3% | 97.0hPa | 2.7V | 04:23:00 | 00:00:00 | 00:00:00 | |
| SONDE2-11 | 2026-09-04 23:44:01 | 49.47253 | 13.28837 | 90° | 60km/h | 16766m | 5.2m/s | -55.8°C | 2.0% | 97.1hPa | 2.7V | 00:00:00 | 00:00:00 | 00:00:00 | |
| EDDB2-11 | 2026-09-04 23:43:56 | 49.47254 | 13.28715 | 89° | 68km/h | 16744m | 3.5m/s | -55.8°C | 2.0% | 97.4hPa | 2.7V | 00:00:00 | 00:00:00 | 00:00:00 | |
| EDDB2-12 | 2026-09-04 23:43:47 | 49.47260 | 13.28467 | 91° | 73km/h | 16703m | 4.2m/s | -55.7°C | 1.9% | 98.0hPa | 2.7V | 00:00:00 | 00:00:00 | 00:00:00 | |
| DO3MHA-11 | 2026-09-04 23:43:46 | 49.47261 | 13.28438 | 91° | 68km/h | 16699m | 4.7m/s | -55.6°C | 5.2% | 98.1hPa | 2.7V | 00:00:00 | 01:41:10 | 00:00:00 | |
| OE3MUC-15 | 2026-09-04 23:43:45 | 49.47260 | 13.28410 | 90° | 66km/h | 16694m | 5.0m/s | -55.6°C | 5.2% | 98.1hPa | 2.7V | 04:23:00 | 00:00:00 | 00:00:00 | |
| OE5MMP-10 | 2026-09-04 23:43:40 | 49.47267 | 13.28275 | 100° | 66km/h | 16673m | 4.5m/s | -55.6°C | 5.2% | 98.4hPa | 2.7V | 00:00:00 | 01:41:04 | 00:00:00 | |
| PG1ADW-2 | 2026-09-04 23:43:38 | 49.47272 | 13.28227 | 99° | 66km/h | 16664m | 3.6m/s | -55.6°C | 5.3% | 98.6hPa | 2.7V | 00:00:00 | 00:00:00 | 00:00:00 | |
| DO3MHA-11 | 2026-09-04 23:43:36 | 49.47277 | 13.28177 | 100° | 68km/h | 16655m | 4.5m/s | -55.6°C | 5.3% | 98.7hPa | 2.7V | 00:00:00 | 01:41:00 | 00:00:00 | |
| OE5MMP-10 | 2026-09-04 23:43:30 | 49.47287 | 13.28020 | 94° | 66km/h | 16630m | 4.7m/s | -55.4°C | 5.1% | 99.1hPa | 2.7V | 00:00:00 | 01:40:54 | 00:00:00 | |
| DO3MHA-11 | 2026-09-04 23:43:26 | 49.47293 | 13.27916 | 95° | 64km/h | 16614m | 3.7m/s | -55.6°C | 5.1% | 99.4hPa | 2.7V | 00:00:00 | 01:40:50 | 00:00:00 | |
| EDDB2-11 | 2026-09-04 23:43:25 | 49.47297 | 13.27866 | 98° | 64km/h | 16605m | 4.2m/s | -55.9°C | 2.1% | 99.5hPa | 2.7V | 00:00:00 | 00:00:00 | 00:00:00 | |
| OE5DRO-10 | 2026-09-04 23:43:24 | 49.47297 | 13.27866 | 99° | 62km/h | 16606m | 4.2m/s | -55.9°C | 5.3% | 99.5hPa | 2.7V | 00:00:00 | 00:00:00 | 00:00:00 | |
| OE5MMP-10 | 2026-09-04 23:43:20 | 49.47305 | 13.27768 | 96° | 62km/h | 16590m | 3.8m/s | -56.2°C | 5.6% | 99.8hPa | 2.7V | 00:00:00 | 01:40:44 | 00:00:00 | |
| PG1ADW-2 | 2026-09-04 23:43:18 | 49.47308 | 13.27719 | 96° | 64km/h | 16581m | 3.5m/s | -56.3°C | 5.7% | 99.9hPa | 2.7V | 00:00:00 | 00:00:00 | 00:00:00 | |
| DO3MHA-11 | 2026-09-04 23:43:16 | 49.47310 | 13.27670 | 94° | 62km/h | 16574m | 4.7m/s | -56.4°C | 5.7% | 100.0hPa | 2.6V | 04:24:00 | 01:40:40 | 00:00:00 | |
| OE3MUC-15 | 2026-09-04 23:43:15 | 49.47311 | 13.27647 | 93° | 60km/h | 16570m | 3.9m/s | -56.4°C | 5.6% | 100.0hPa | 2.6V | 00:00:00 | 00:00:00 | 00:00:00 | |
| S52SK | 2026-09-04 23:43:14 | 49.47311 | 13.27647 | 94° | 60km/h | 16570m | 3.9m/s | 0°C | 0% | 100.1hPa | 2.6V | 00:00:00 | 00:00:00 | 00:00:00 | |
| OE5MMP-10 | 2026-09-04 23:43:10 | 49.47318 | 13.27529 | 95° | 66km/h | 16549m | 4.9m/s | -56.3°C | 5.6% | 100.3hPa | 2.6V | 04:24:00 | 01:40:34 | 00:00:00 | |
| OE3MUC-15 | 2026-09-04 23:43:08 | 49.47319 | 13.27482 | 91° | 66km/h | 16542m | 3.1m/s | -56.3°C | 5.5% | 100.5hPa | 2.7V | 00:00:00 | 00:00:00 | 00:00:00 | |
| SP3BTT-10 | 2026-09-04 23:43:07 | 49.47319 | 13.27458 | 90° | 66km/h | 16538m | 4.4m/s | -56.3°C | 5.5% | 100.6hPa | 2.7V | 00:00:00 | 00:00:00 | 00:00:00 | |
| DO3MHA-11 | 2026-09-04 23:43:06 | 49.47319 | 13.27432 | 88° | 68km/h | 16534m | 3.4m/s | -56.3°C | 5.5% | 100.7hPa | 2.7V | 00:00:00 | 01:40:30 | 00:00:00 | |
| DL6DJ-15 | 2026-09-04 23:43:05 | 49.47318 | 13.27406 | 86° | 66km/h | 16531m | 3.3m/s | -56.4°C | 2.2% | 100.7hPa | 2.7V | 00:00:00 | 00:00:00 | 00:00:00 | |
| OE5DRO-10 | 2026-09-04 23:43:04 | 49.47317 | 13.27380 | 86° | 68km/h | 16527m | 4.3m/s | -56.4°C | 5.5% | 100.7hPa | 2.7V | 00:00:00 | 00:00:00 | 00:00:00 | |
| SONDE2-11 | 2026-09-04 23:42:59 | 49.47312 | 13.27248 | 89° | 68km/h | 16508m | 3.0m/s | -56.5°C | 2.2% | 101.1hPa | 2.7V | 00:00:00 | 00:00:00 | 00:00:00 | |
| EDDB2-11 | 2026-09-04 23:42:54 | 49.47311 | 13.27100 | 90° | 64km/h | 16486m | 2.7m/s | -56.8°C | 2.3% | 101.4hPa | 2.7V | 00:00:00 | 00:00:00 | 00:00:00 | |
| OE3MUC-15 | 2026-09-04 23:42:51 | 49.47310 | 13.27049 | 86° | 69km/h | 16479m | 4.0m/s | -56.9°C | 5.9% | 101.5hPa | 2.7V | 00:00:00 | 00:00:00 | 00:00:00 | |
| OE5MMP-10 | 2026-09-04 23:42:50 | 49.47308 | 13.27023 | 85° | 66km/h | 16475m | 2.7m/s | -56.9°C | 5.9% | 101.5hPa | 2.7V | 00:00:00 | 01:40:14 | 00:00:00 | |
| OE3MUC-15 | 2026-09-04 23:42:47 | 49.47305 | 13.26942 | 90° | 62km/h | 16464m | 3.3m/s | -57.0°C | 5.9% | 101.7hPa | 2.7V | 00:00:00 | 00:00:00 | 00:00:00 | |
| DO3MHA-11 | 2026-09-04 23:42:46 | 49.47305 | 13.26915 | 91° | 64km/h | 16461m | 2.6m/s | -57.0°C | 5.9% | 101.8hPa | 2.7V | 00:00:00 | 01:40:10 | 00:00:00 | |
| OE5DRO-10 | 2026-09-04 23:42:45 | 49.47305 | 13.26889 | 90° | 68km/h | 16458m | 3.9m/s | -57.0°C | 5.8% | 101.8hPa | 2.7V | 00:00:00 | 00:00:00 | 00:00:00 | |
| OE3MUC-15 | 2026-09-04 23:42:41 | 49.47304 | 13.26794 | 91° | 64km/h | 16445m | 4.3m/s | -56.9°C | 5.8% | 102.0hPa | 2.7V | 00:00:00 | 00:00:00 | 00:00:00 | |
| OE5MMP-10 | 2026-09-04 23:42:40 | 49.47304 | 13.26771 | 93° | 68km/h | 16441m | 3.4m/s | -56.9°C | 5.8% | 102.1hPa | 2.7V | 00:00:00 | 01:40:04 | 00:00:00 | |
| PG1ADW-2 | 2026-09-04 23:42:38 | 49.47305 | 13.26721 | 91° | 71km/h | 16434m | 3.6m/s | -56.9°C | 5.7% | 102.2hPa | 2.6V | 04:24:00 | 00:00:00 | 00:00:00 | |
| SP3BTT-10 | 2026-09-04 23:42:37 | 49.47305 | 13.26695 | 88° | 75km/h | 16430m | 4.1m/s | -56.9°C | 5.8% | 102.3hPa | 2.6V | 00:00:00 | 00:00:00 | 00:00:00 | |
| OE3MUC-15 | 2026-09-04 23:42:36 | 49.47304 | 13.26668 | 87° | 71km/h | 16426m | 3.4m/s | -56.9°C | 5.8% | 102.4hPa | 2.6V | 00:00:00 | 00:00:00 | 00:00:00 | |
| DL6DJ-15 | 2026-09-04 23:42:34 | 49.47303 | 13.26612 | 89° | 71km/h | 16419m | 4.1m/s | -57.0°C | 2.3% | 102.5hPa | 2.7V | 00:00:00 | 00:00:00 | 00:00:00 | |
| OE3MUC-15 | 2026-09-04 23:42:32 | 49.47304 | 13.26558 | 96° | 69km/h | 16412m | 3.2m/s | -57.0°C | 5.7% | 102.6hPa | 2.7V | 04:24:00 | 00:00:00 | 00:00:00 | |
| OE3MUC-15 | 2026-09-04 23:42:28 | 49.47312 | 13.26451 | 97° | 71km/h | 16398m | 4.1m/s | -57.2°C | 5.9% | 102.8hPa | 2.7V | 00:00:00 | 00:00:00 | 00:00:00 | |
| DO3MHA-11 | 2026-09-04 23:42:26 | 49.47315 | 13.26395 | 95° | 73km/h | 16391m | 2.7m/s | -57.5°C | 6.0% | 102.9hPa | 2.7V | 04:24:00 | 01:39:50 | 00:00:00 | |
| OE3MUC-15 | 2026-09-04 23:42:24 | 49.47318 | 13.26340 | 93° | 73km/h | 16384m | 3.3m/s | -57.6°C | 6.1% | 103.0hPa | 2.7V | 00:00:00 | 00:00:00 | 00:00:00 | |
| EDDB2-11 | 2026-09-04 23:42:23 | 49.47318 | 13.26285 | 91° | 73km/h | 16378m | 3.9m/s | -57.9°C | 2.5% | 103.1hPa | 2.6V | 00:00:00 | 00:00:00 | 00:00:00 | |
| OE5MMP-10 | 2026-09-04 23:42:20 | 49.47319 | 13.26227 | 93° | 77km/h | 16371m | 2.7m/s | -58.0°C | 6.2% | 103.2hPa | 2.6V | 04:25:00 | 01:39:44 | 00:00:00 | |
| DO3MHA-11 | 2026-09-04 23:42:16 | 49.47323 | 13.26108 | 94° | 78km/h | 16358m | 3.2m/s | -58.0°C | 6.3% | 103.5hPa | 2.6V | 00:00:00 | 01:39:40 | 00:00:00 | |
| EDDB2-12 | 2026-09-04 23:42:14 | 49.47325 | 13.26049 | 93° | 77km/h | 16350m | 3.5m/s | -58.0°C | 2.5% | 103.6hPa | 2.7V | 00:00:00 | 00:00:00 | 00:00:00 | |
| OE3MUC-15 | 2026-09-04 23:42:12 | 49.47327 | 13.25989 | 92° | 78km/h | 16345m | 3.9m/s | -57.9°C | 6.3% | 103.7hPa | 2.7V | 04:25:00 | 00:00:00 | 00:00:00 | |
| OE5MMP-10 | 2026-09-04 23:42:10 | 49.47328 | 13.25929 | 91° | 80km/h | 16337m | 3.2m/s | -57.9°C | 6.3% | 103.8hPa | 2.6V | 00:00:00 | 01:39:34 | 00:00:00 | |
| OE3MUC-15 | 2026-09-04 23:42:08 | 49.47328 | 13.25868 | 88° | 80km/h | 16330m | 2.6m/s | -57.9°C | 6.4% | 103.9hPa | 2.6V | 00:00:00 | 00:00:00 | 00:00:00 | |
| SP3BTT-10 | 2026-09-04 23:42:07 | 49.47326 | 13.25837 | 86° | 77km/h | 16327m | 3.2m/s | -57.8°C | 6.3% | 104.0hPa | 2.6V | 04:25:00 | 00:00:00 | 00:00:00 | |
| DO3MHA-11 | 2026-09-04 23:42:06 | 49.47324 | 13.25806 | 83° | 80km/h | 16324m | 4.2m/s | -57.8°C | 6.3% | 104.0hPa | 2.6V | 00:00:00 | 01:39:30 | 00:00:00 | |
| DL6DJ-15 | 2026-09-04 23:42:04 | 49.47315 | 13.25714 | 82° | 80km/h | 16313m | 4.1m/s | -57.8°C | 2.6% | 104.2hPa | 2.6V | 00:00:00 | 00:00:00 | 00:00:00 | |
| SONDE2-11 | 2026-09-04 23:41:57 | 49.47308 | 13.25526 | 88° | 80km/h | 16292m | 4.5m/s | -57.6°C | 2.6% | 104.6hPa | 2.6V | 00:00:00 | 00:00:00 | 00:00:00 | |
| OE3MUC-15 | 2026-09-04 23:41:56 | 49.47308 | 13.25494 | 89° | 78km/h | 16288m | 2.7m/s | -57.5°C | 6.2% | 104.6hPa | 2.6V | 00:00:00 | 00:00:00 | 00:00:00 | |
| OE3MUC-15 | 2026-09-04 23:41:52 | 49.47301 | 13.25374 | 82° | 78km/h | 16275m | 3.0m/s | -57.4°C | 6.0% | 104.8hPa | 2.6V | 04:25:00 | 00:00:00 | 00:00:00 | |
| OE5MMP-10 | 2026-09-04 23:41:50 | 49.47295 | 13.25315 | 82° | 82km/h | 16266m | 4.3m/s | -57.3°C | 6.1% | 105.0hPa | 2.6V | 00:00:00 | 01:39:14 | 00:00:00 | |
| OE3MUC-15 | 2026-09-04 23:41:48 | 49.47290 | 13.25254 | 86° | 82km/h | 16258m | 5.3m/s | -57.3°C | 6.1% | 105.1hPa | 2.6V | 00:00:00 | 00:00:00 | 00:00:00 | |
| DO3MHA-11 | 2026-09-04 23:41:46 | 49.47289 | 13.25192 | 91° | 80km/h | 16249m | 2.8m/s | -57.2°C | 6.1% | 105.3hPa | 2.7V | 00:00:00 | 01:39:10 | 00:00:00 | |
| OE3MUC-15 | 2026-09-04 23:41:43 | 49.47290 | 13.25094 | 90° | 80km/h | 16237m | 2.9m/s | -57.1°C | 6.1% | 105.5hPa | 2.7V | 00:00:00 | 00:00:00 | 00:00:00 | |
| DL1JEZ-13 | 2026-09-04 23:41:42 | 49.47290 | 13.25094 | 90° | 84km/h | 16237m | 3.0m/s | -57.2°C | 2.5% | 105.5hPa | 2.7V | 00:00:00 | 00:00:00 | 00:00:00 | |
| OE5MMP-10 | 2026-09-04 23:41:40 | 49.47287 | 13.25001 | 84° | 77km/h | 16225m | 3.7m/s | -57.0°C | 6.0% | 105.7hPa | 2.7V | 00:00:00 | 01:39:04 | 00:00:00 | |
| PG1ADW-2 | 2026-09-04 23:41:38 | 49.47282 | 13.24945 | 82° | 78km/h | 16219m | 3.8m/s | -57.0°C | 5.9% | 105.8hPa | 2.7V | 00:00:00 | 01:39:02 | 00:00:00 | |
| DO3MHA-11 | 2026-09-04 23:41:36 | 49.47277 | 13.24886 | 84° | 80km/h | 16210m | 4.2m/s | -57.1°C | 5.9% | 105.9hPa | 2.7V | 04:25:00 | 01:39:00 | 00:00:00 | |
| DL6DJ-15 | 2026-09-04 23:41:32 | 49.47272 | 13.24762 | 87° | 73km/h | 16193m | 5.1m/s | -57.3°C | 2.4% | 106.2hPa | 2.7V | 00:00:00 | 00:00:00 | 00:00:00 | |
| OE5MMP-10 | 2026-09-04 23:41:30 | 49.47270 | 13.24706 | 87° | 78km/h | 16185m | 3.4m/s | -57.4°C | 5.9% | 106.3hPa | 2.7V | 04:25:00 | 01:38:54 | 00:00:00 | |
| OE5DRO-10 | 2026-09-04 23:41:29 | 49.47269 | 13.24677 | 87° | 78km/h | 16182m | 4.5m/s | -57.6°C | 6.0% | 106.4hPa | 2.7V | 00:00:00 | 00:00:00 | 00:00:00 | |
| SP3BTT-10 | 2026-09-04 23:41:28 | 49.47267 | 13.24648 | 87° | 78km/h | 16177m | 5.0m/s | -57.7°C | 6.1% | 106.5hPa | 2.6V | 00:00:00 | 00:00:00 | 00:00:00 | |
| NBG1-10 | 2026-09-04 23:41:27 | 49.47266 | 13.24618 | 88° | 93km/h | 16172m | 3.4m/s | -57.7°C | 6.2% | 106.6hPa | 2.6V | 00:00:00 | 01:38:51 | 00:00:00 | |
| SONDE2-11 | 2026-09-04 23:41:26 | 49.47265 | 13.24587 | 87° | 80km/h | 16169m | 3.5m/s | -57.8°C | 2.5% | 106.7hPa | 2.6V | 00:00:00 | 00:00:00 | 00:00:00 | |
| DO3MHA-11 | 2026-09-04 23:41:25 | 49.47265 | 13.24556 | 89° | 80km/h | 16164m | 5.4m/s | -57.7°C | 6.2% | 106.7hPa | 2.6V | 00:00:00 | 01:38:49 | 00:00:00 | |
| EDDB2-11 | 2026-09-04 23:41:21 | 49.47270 | 13.24402 | 96° | 80km/h | 16143m | 3.0m/s | -57.6°C | 2.6% | 107.1hPa | 2.6V | 00:00:00 | 00:00:00 | 00:00:00 | |
| OE5MMP-10 | 2026-09-04 23:41:20 | 49.47270 | 13.24402 | 97° | 80km/h | 16143m | 2.9m/s | -57.5°C | 6.3% | 107.0hPa | 2.6V | 00:00:00 | 01:38:44 | 00:00:00 | |
| OE3MUC-15 | 2026-09-04 23:41:18 | 49.47275 | 13.24340 | 98° | 78km/h | 16135m | 4.1m/s | -57.5°C | 6.2% | 107.2hPa | 2.6V | 00:00:00 | 00:00:00 | 00:00:00 | |
| DO3MHA-11 | 2026-09-04 23:41:15 | 49.47281 | 13.24249 | 96° | 77km/h | 16124m | 4.0m/s | -57.5°C | 6.2% | 107.4hPa | 2.6V | 00:00:00 | 01:38:39 | 00:00:00 | |
| EDDB2-12 | 2026-09-04 23:41:12 | 49.47286 | 13.24156 | 93° | 78km/h | 16113m | 4.4m/s | -57.4°C | 2.6% | 107.6hPa | 2.6V | 00:00:00 | 00:00:00 | 00:00:00 | |
| OE5MMP-10 | 2026-09-04 23:41:10 | 49.47288 | 13.24096 | 94° | 77km/h | 16105m | 3.7m/s | -57.3°C | 6.2% | 107.7hPa | 2.6V | 00:00:00 | 01:38:34 | 00:00:00 | |
| OE3MUC-15 | 2026-09-04 23:41:07 | 49.47290 | 13.24005 | 92° | 77km/h | 16093m | 3.4m/s | -57.2°C | 6.2% | 107.9hPa | 2.7V | 00:00:00 | 00:00:00 | 00:00:00 | |
| OE3MUC-15 | 2026-09-04 23:41:02 | 49.47290 | 13.23858 | 90° | 77km/h | 16073m | 3.5m/s | -57.1°C | 6.2% | 108.3hPa | 2.7V | 04:26:00 | 00:00:00 | 00:00:00 | |
| DL6DJ-15 | 2026-09-04 23:41:01 | 49.47290 | 13.23828 | 88° | 77km/h | 16069m | 3.7m/s | -57.1°C | 2.5% | 108.4hPa | 2.6V | 00:00:00 | 00:00:00 | 00:00:00 | |
| SONDE2-11 | 2026-09-04 23:40:55 | 49.47290 | 13.23644 | 92° | 78km/h | 16045m | 4.1m/s | -57.0°C | 2.5% | 108.8hPa | 2.6V | 00:00:00 | 00:00:00 | 00:00:00 | |
| EDDB2-11 | 2026-09-04 23:40:50 | 49.47294 | 13.23468 | 88° | 75km/h | 16021m | 3.6m/s | -56.8°C | 2.5% | 109.2hPa | 2.6V | 00:00:00 | 00:00:00 | 00:00:00 | |
| OE3MUC-15 | 2026-09-04 23:40:47 | 49.47292 | 13.23411 | 86° | 73km/h | 16013m | 4.6m/s | -56.7°C | 6.1% | 109.3hPa | 2.6V | 00:00:00 | 00:00:00 | 00:00:00 | |
| OE3MUC-15 | 2026-09-04 23:40:43 | 49.47284 | 13.23298 | 84° | 75km/h | 15997m | 3.5m/s | -56.6°C | 6.1% | 109.5hPa | 2.6V | 00:00:00 | 00:00:00 | 00:00:00 | |
| DO3MHA-11 | 2026-09-04 23:40:41 | 49.47281 | 13.23241 | 88° | 71km/h | 15989m | 4.5m/s | -56.6°C | 6.0% | 109.7hPa | 2.6V | 04:26:00 | 01:38:05 | 00:00:00 | |
| OE5MMP-10 | 2026-09-04 23:40:40 | 49.47281 | 13.23212 | 89° | 71km/h | 15984m | 3.6m/s | -56.5°C | 6.0% | 109.7hPa | 2.6V | 04:26:00 | 01:38:04 | 00:00:00 | |
| OE3MUC-15 | 2026-09-04 23:40:39 | 49.47280 | 13.23184 | 90° | 73km/h | 15980m | 4.9m/s | -56.5°C | 6.0% | 109.8hPa | 2.6V | 04:26:00 | 00:00:00 | 00:00:00 | |
| OE3MUC-15 | 2026-09-04 23:40:35 | 49.47281 | 13.23072 | 91° | 71km/h | 15963m | 3.8m/s | -56.4°C | 6.0% | 110.1hPa | 2.6V | 00:00:00 | 00:00:00 | 00:00:00 | |
| OE5DRO-10 | 2026-09-04 23:40:32 | 49.47278 | 13.22990 | 86° | 71km/h | 15950m | 3.8m/s | -56.3°C | 6.0% | 110.3hPa | 2.6V | 00:00:00 | 00:00:00 | 00:00:00 | |
| DO3MHA-11 | 2026-09-04 23:40:31 | 49.47276 | 13.22962 | 84° | 71km/h | 15946m | 3.4m/s | -56.3°C | 6.0% | 110.4hPa | 2.7V | 00:00:00 | 01:37:55 | 00:00:00 | |
| OE5DXL-15 | 2026-09-04 23:40:30 | 49.47274 | 13.22934 | 84° | 71km/h | 15942m | 4.7m/s | -56.2°C | 5.9% | 110.5hPa | 2.7V | 00:00:00 | 00:00:00 | 00:00:00 | |
| SP3BTT-10 | 2026-09-04 23:40:28 | 49.47271 | 13.22879 | 86° | 71km/h | 15934m | 3.5m/s | -56.2°C | 6.0% | 110.6hPa | 2.6V | 00:00:00 | 00:00:00 | 00:00:00 | |
| OE3MUC-15 | 2026-09-04 23:40:27 | 49.47269 | 13.22851 | 86° | 71km/h | 15930m | 4.8m/s | -56.2°C | 6.0% | 110.7hPa | 2.6V | 00:00:00 | 00:00:00 | 00:00:00 | |
| PG1ADW-2 | 2026-09-04 23:40:26 | 49.47268 | 13.22824 | 86° | 69km/h | 15925m | 3.6m/s | -56.1°C | 5.9% | 110.8hPa | 2.6V | 00:00:00 | 00:00:00 | 00:00:00 | |
| SONDE2-11 | 2026-09-04 23:40:24 | 49.47265 | 13.22742 | 88° | 68km/h | 15914m | 3.6m/s | -56.1°C | 2.5% | 111.0hPa | 2.6V | 00:00:00 | 00:00:00 | 00:00:00 | |
| OE3MUC-15 | 2026-09-04 23:40:23 | 49.47265 | 13.22742 | 89° | 69km/h | 15914m | 3.6m/s | -56.1°C | 5.9% | 111.0hPa | 2.6V | 00:00:00 | 00:00:00 | 00:00:00 | |
| OE5MMP-10 | 2026-09-04 23:40:20 | 49.47263 | 13.22661 | 87° | 69km/h | 15901m | 4.0m/s | -56.0°C | 5.9% | 111.2hPa | 2.7V | 00:00:00 | 01:37:44 | 00:00:00 | |
| OE3MUC-15 | 2026-09-04 23:40:19 | 49.47262 | 13.22633 | 86° | 71km/h | 15898m | 3.5m/s | -56.0°C | 5.8% | 111.3hPa | 2.7V | 04:27:00 | 00:00:00 | 00:00:00 | |
| EDDB2-11 | 2026-09-04 23:40:18 | 49.47260 | 13.22605 | 85° | 71km/h | 15893m | 4.4m/s | -56.1°C | 2.5% | 111.4hPa | 2.7V | 00:00:00 | 00:00:00 | 00:00:00 | |
| OE5DRO-10 | 2026-09-04 23:40:15 | 49.47253 | 13.22468 | 86° | 69km/h | 15873m | 3.8m/s | -56.3°C | 5.9% | 111.7hPa | 2.7V | 00:00:00 | 00:00:00 | 00:00:00 | |
| OE3MUC-15 | 2026-09-04 23:40:14 | 49.47253 | 13.22468 | 86° | 68km/h | 15873m | 3.8m/s | -56.3°C | 5.9% | 111.7hPa | 2.7V | 00:00:00 | 00:00:00 | 00:00:00 | |
| OE5MMP-10 | 2026-09-04 23:40:10 | 49.47248 | 13.22393 | 83° | 71km/h | 15860m | 4.5m/s | -56.3°C | 6.0% | 111.9hPa | 2.7V | 00:00:00 | 01:37:34 | 00:00:00 | |
| OE3MUC-15 | 2026-09-04 23:40:07 | 49.47241 | 13.22317 | 82° | 73km/h | 15847m | 3.1m/s | -56.2°C | 6.0% | 112.2hPa | 2.6V | 00:00:00 | 00:00:00 | 00:00:00 | |
| PG1ADW-2 | 2026-09-04 23:40:06 | 49.47238 | 13.22290 | 83° | 71km/h | 15843m | 4.5m/s | -56.2°C | 6.0% | 112.2hPa | 2.6V | 00:00:00 | 01:37:30 | 00:00:00 | |
| DO3MHA-11 | 2026-09-04 23:40:04 | 49.47234 | 13.22236 | 85° | 71km/h | 15835m | 3.5m/s | -56.2°C | 6.0% | 112.4hPa | 2.7V | 00:00:00 | 01:37:28 | 00:00:00 | |
| S52SK | 2026-09-04 23:40:03 | 49.47234 | 13.22235 | 85° | 73km/h | 15835m | 3.6m/s | 0°C | 0% | 112.4hPa | 2.6V | 00:00:00 | 00:00:00 | 00:00:00 | |
| OE3MUC-15 | 2026-09-04 23:40:02 | 49.47230 | 13.22177 | 86° | 75km/h | 15826m | 3.8m/s | -56.3°C | 6.0% | 112.5hPa | 2.6V | 00:00:00 | 00:00:00 | 00:00:00 | |
| DL6DJ-15 | 2026-09-04 23:39:59 | 49.47224 | 13.22065 | 82° | 66km/h | 15810m | 4.0m/s | -56.6°C | 2.5% | 112.9hPa | 2.6V | 00:00:00 | 00:00:00 | 00:00:00 | |
| SONDE2-11 | 2026-09-04 23:39:53 | 49.47204 | 13.21911 | 78° | 69km/h | 15786m | 4.0m/s | -56.6°C | 2.6% | 113.3hPa | 2.6V | 00:00:00 | 00:00:00 | 00:00:00 | |
| EDDB2-11 | 2026-09-04 23:39:47 | 49.47191 | 13.21771 | 87° | 71km/h | 15766m | 4.0m/s | -56.7°C | 2.6% | 113.7hPa | 2.6V | 00:00:00 | 00:00:00 | 00:00:00 | |
| PG1ADW-2 | 2026-09-04 23:39:46 | 49.47190 | 13.21744 | 88° | 71km/h | 15763m | 3.4m/s | -56.7°C | 5.9% | 113.7hPa | 2.6V | 00:00:00 | 00:00:00 | 00:00:00 | |
| DO3MHA-11 | 2026-09-04 23:39:44 | 49.47188 | 13.21690 | 84° | 69km/h | 15755m | 3.9m/s | -57.4°C | 6.3% | 113.8hPa | 2.6V | 04:27:00 | 01:37:08 | 00:00:00 | |
| OE5MMP-10 | 2026-09-04 23:39:40 | 49.47177 | 13.21581 | 83° | 71km/h | 15740m | 4.2m/s | -57.6°C | 6.4% | 114.1hPa | 2.6V | 00:00:00 | 01:37:04 | 00:00:00 | |
| EDDB2-12 | 2026-09-04 23:39:39 | 49.47175 | 13.21553 | 85° | 69km/h | 15736m | 3.6m/s | -57.6°C | 2.8% | 114.2hPa | 2.7V | 00:00:00 | 00:00:00 | 00:00:00 | |
| SP3BTT-10 | 2026-09-04 23:39:37 | 49.47173 | 13.21500 | 88° | 86km/h | 15729m | 4.3m/s | -57.6°C | 6.3% | 114.3hPa | 2.7V | 00:00:00 | 00:00:00 | 00:00:00 | |
| OE5DRO-10 | 2026-09-04 23:39:35 | 49.47172 | 13.21449 | 90° | 77km/h | 15721m | 3.5m/s | -57.7°C | 6.4% | 114.4hPa | 2.6V | 00:00:00 | 00:00:00 | 00:00:00 | |
| DO3MHA-11 | 2026-09-04 23:39:34 | 49.47172 | 13.21422 | 91° | 75km/h | 15717m | 4.0m/s | -57.8°C | 6.4% | 114.5hPa | 2.6V | 00:00:00 | 01:36:58 | 00:00:00 | |
| OE5MMP-10 | 2026-09-04 23:39:30 | 49.47174 | 13.21307 | 91° | 75km/h | 15700m | 4.5m/s | -58.3°C | 6.7% | 114.8hPa | 2.7V | 00:00:00 | 01:36:54 | 00:00:00 | |
| DL6DJ-15 | 2026-09-04 23:39:28 | 49.47173 | 13.21220 | 87° | 73km/h | 15687m | 4.4m/s | -58.4°C | 3.0% | 115.1hPa | 2.7V | 00:00:00 | 00:00:00 | 00:00:00 | |
| PG1ADW-2 | 2026-09-04 23:39:26 | 49.47172 | 13.21191 | 89° | 82km/h | 15683m | 4.1m/s | -58.5°C | 6.8% | 115.1hPa | 2.7V | 00:00:00 | 00:00:00 | 00:00:00 | |
| DO3MHA-11 | 2026-09-04 23:39:24 | 49.47171 | 13.21134 | 89° | 82km/h | 15676m | 4.3m/s | -58.6°C | 6.9% | 115.2hPa | 2.7V | 00:00:00 | 01:36:48 | 00:00:00 | |
| SONDE2-11 | 2026-09-04 23:39:22 | 49.47170 | 13.21045 | 91° | 78km/h | 15663m | 4.9m/s | -58.8°C | 3.1% | 115.5hPa | 2.7V | 00:00:00 | 00:00:00 | 00:00:00 | |
| OE5MMP-10 | 2026-09-04 23:39:20 | 49.47171 | 13.21014 | 94° | 86km/h | 15659m | 4.3m/s | -58.8°C | 7.0% | 115.6hPa | 2.7V | 00:00:00 | 01:36:44 | 00:00:00 | |
| EDDB2-11 | 2026-09-04 23:39:17 | 49.47176 | 13.20882 | 94° | 88km/h | 15642m | 5.0m/s | -58.9°C | 3.1% | 115.9hPa | 2.7V | 00:00:00 | 00:00:00 | 00:00:00 | |
| OE5DRO-10 | 2026-09-04 23:39:16 | 49.47176 | 13.20882 | 95° | 88km/h | 15642m | 5.0m/s | -58.8°C | 7.0% | 115.9hPa | 2.7V | 04:28:00 | 00:00:00 | 00:00:00 | |
| DO3MHA-11 | 2026-09-04 23:39:14 | 49.47180 | 13.20814 | 94° | 84km/h | 15633m | 3.7m/s | -59.0°C | 7.1% | 116.1hPa | 2.7V | 00:00:00 | 01:36:38 | 00:00:00 | |
| OE5MMP-10 | 2026-09-04 23:39:10 | 49.47182 | 13.20683 | 91° | 89km/h | 15616m | 4.3m/s | -59.3°C | 7.5% | 116.3hPa | 2.7V | 00:00:00 | 01:36:34 | 00:00:00 | |
| PETON7-10 | 2026-09-04 23:39:09 | 49.47182 | 13.20651 | 91° | 84km/h | 15612m | 3.3m/s | -59.3°C | 7.5% | 116.4hPa | 2.7V | 00:00:00 | 00:00:00 | 00:00:00 | |
| EDDB2-12 | 2026-09-04 23:39:08 | 49.47182 | 13.20619 | 89° | 80km/h | 15608m | 4.5m/s | -59.3°C | 3.4% | 116.5hPa | 2.6V | 00:00:00 | 00:00:00 | 00:00:00 | |
| PG1ADW-2 | 2026-09-04 23:39:06 | 49.47182 | 13.20554 | 90° | 89km/h | 15600m | 3.2m/s | -59.2°C | 7.5% | 116.7hPa | 2.6V | 04:28:00 | 00:00:00 | 00:00:00 | |
| DO3MHA-11 | 2026-09-04 23:39:04 | 49.47182 | 13.20485 | 92° | 95km/h | 15592m | 3.8m/s | -59.2°C | 7.5% | 116.8hPa | 2.6V | 00:00:00 | 01:36:28 | 00:00:00 | |
| DL6DJ-15 | 2026-09-04 23:38:57 | 49.47186 | 13.20196 | 92° | 88km/h | 15561m | 4.1m/s | -59.0°C | 3.4% | 117.5hPa | 2.6V | 00:00:00 | 00:00:00 | 00:00:00 | |
| SONDE2-11 | 2026-09-04 23:38:51 | 49.47191 | 13.19990 | 91° | 86km/h | 15536m | 4.7m/s | -58.8°C | 3.3% | 117.9hPa | 2.6V | 00:00:00 | 00:00:00 | 00:00:00 | |
| EDDB2-11 | 2026-09-04 23:38:46 | 49.47194 | 13.19828 | 89° | 82km/h | 15516m | 4.7m/s | -58.8°C | 3.4% | 118.3hPa | 2.6V | 00:00:00 | 00:00:00 | 00:00:00 | |
| DO3MHA-11 | 2026-09-04 23:38:43 | 49.47193 | 13.19763 | 91° | 78km/h | 15508m | 3.1m/s | -58.8°C | 7.3% | 118.4hPa | 2.6V | 00:00:00 | 01:36:07 | 00:00:00 | |
| OE5MMP-10 | 2026-09-04 23:38:40 | 49.47196 | 13.19664 | 94° | 78km/h | 15496m | 2.7m/s | -58.8°C | 7.6% | 118.6hPa | 2.6V | 00:00:00 | 01:36:04 | 00:00:00 | |
| OE5DRO-10 | 2026-09-04 23:38:38 | 49.47198 | 13.19599 | 92° | 78km/h | 15489m | 4.4m/s | -58.8°C | 7.6% | 118.8hPa | 2.6V | 00:00:00 | 00:00:00 | 00:00:00 | |
| EDDB2-12 | 2026-09-04 23:38:37 | 49.47198 | 13.19566 | 89° | 84km/h | 15484m | 3.7m/s | -58.8°C | 3.6% | 118.9hPa | 2.6V | 00:00:00 | 00:00:00 | 00:00:00 | |
| OE5DXL-15 | 2026-09-04 23:38:31 | 49.47195 | 13.19359 | 85° | 84km/h | 15458m | 3.1m/s | -58.9°C | 7.4% | 119.3hPa | 2.6V | 00:00:00 | 00:00:00 | 00:00:00 | |
| OE5MMP-10 | 2026-09-04 23:38:30 | 49.47195 | 13.19359 | 85° | 78km/h | 15458m | 3.1m/s | -58.9°C | 7.4% | 119.3hPa | 2.6V | 00:00:00 | 01:35:54 | 00:00:00 | |
| PETON7-10 | 2026-09-04 23:38:28 | 49.47192 | 13.19303 | 89° | 82km/h | 15451m | 4.6m/s | -59.0°C | 7.4% | 119.5hPa | 2.6V | 00:00:00 | 01:35:52 | 00:00:00 | |
| DL6DJ-15 | 2026-09-04 23:38:26 | 49.47198 | 13.19210 | 99° | 82km/h | 15434m | 5.1m/s | -59.0°C | 3.5% | 119.8hPa | 2.6V | 00:00:00 | 00:00:00 | 00:00:00 | |
| SP3BTT-10 | 2026-09-04 23:38:21 | 49.47210 | 13.19085 | 95° | 86km/h | 15416m | 3.6m/s | -59.2°C | 7.4% | 120.1hPa | 2.6V | 00:00:00 | 00:00:00 | 00:00:00 | |
| SONDE2-11 | 2026-09-04 23:38:20 | 49.47213 | 13.19021 | 91° | 84km/h | 15408m | 5.0m/s | -59.3°C | 3.6% | 120.3hPa | 2.6V | 00:00:00 | 00:00:00 | 00:00:00 | |
| OE5DRO-10 | 2026-09-04 23:38:19 | 49.47212 | 13.19021 | 92° | 86km/h | 15408m | 4.9m/s | -59.3°C | 7.5% | 120.3hPa | 2.6V | 00:00:00 | 00:00:00 | 00:00:00 | |
| DO3MHA-11 | 2026-09-04 23:38:17 | 49.47214 | 13.18954 | 93° | 86km/h | 15400m | 3.3m/s | -59.4°C | 7.6% | 120.5hPa | 2.6V | 00:00:00 | 01:35:41 | 00:00:00 | |
| EDDB2-11 | 2026-09-04 23:38:14 | 49.47218 | 13.18854 | 94° | 86km/h | 15388m | 3.4m/s | -59.7°C | 3.7% | 120.7hPa | 2.6V | 00:00:00 | 00:00:00 | 00:00:00 | |
| PETON7-10 | 2026-09-04 23:38:13 | 49.47220 | 13.18820 | 96° | 84km/h | 15385m | 4.0m/s | -59.7°C | 7.7% | 120.8hPa | 2.6V | 04:29:00 | 00:00:00 | 00:00:00 | |
| OE5MMP-10 | 2026-09-04 23:38:10 | 49.47226 | 13.18717 | 95° | 86km/h | 15374m | 4.0m/s | -60.1°C | 8.1% | 121.0hPa | 2.7V | 04:29:00 | 01:35:34 | 00:00:00 | |
| DO3MHA-11 | 2026-09-04 23:38:07 | 49.47232 | 13.18617 | 95° | 88km/h | 15363m | 3.3m/s | -60.3°C | 8.5% | 121.2hPa | 2.6V | 00:00:00 | 01:35:31 | 00:00:00 | |
| PG1ADW-2 | 2026-09-04 23:38:06 | 49.47233 | 13.18584 | 95° | 84km/h | 15359m | 4.3m/s | -60.4°C | 8.5% | 121.3hPa | 2.6V | 00:00:00 | 00:00:00 | 00:00:00 | |
| DL6DJ-15 | 2026-09-04 23:37:54 | 49.47269 | 13.18199 | 99° | 82km/h | 15312m | 4.5m/s | -60.4°C | 4.0% | 122.2hPa | 2.6V | 00:00:00 | 00:00:00 | 00:00:00 | |
| SONDE2-11 | 2026-09-04 23:37:49 | 49.47286 | 13.18003 | 98° | 88km/h | 15286m | 4.9m/s | -60.3°C | 4.0% | 122.8hPa | 2.6V | 00:00:00 | 00:00:00 | 00:00:00 | |
| PG1ADW-2 | 2026-09-04 23:37:46 | 49.47293 | 13.17934 | 101° | 89km/h | 15278m | 3.5m/s | -60.3°C | 8.4% | 122.8hPa | 2.6V | 00:00:00 | 00:00:00 | 00:00:00 | |
| DO3MHA-11 | 2026-09-04 23:37:45 | 49.47297 | 13.17900 | 101° | 89km/h | 15274m | 4.4m/s | -60.3°C | 8.4% | 122.9hPa | 2.6V | 04:29:00 | 01:35:09 | 00:00:00 | |
| EDDB2-11 | 2026-09-04 23:37:44 | 49.47305 | 13.17833 | 97° | 88km/h | 15266m | 3.5m/s | -60.3°C | 4.1% | 123.2hPa | 2.7V | 00:00:00 | 00:00:00 | 00:00:00 | |
| PETON7-10 | 2026-09-04 23:37:42 | 49.47307 | 13.17798 | 96° | 89km/h | 15262m | 4.1m/s | -60.3°C | 8.4% | 123.2hPa | 2.7V | 00:00:00 | 01:35:06 | 00:00:00 | |
| OE5DRO-10 | 2026-09-04 23:37:41 | 49.47309 | 13.17763 | 95° | 89km/h | 15258m | 4.7m/s | -60.2°C | 8.4% | 123.3hPa | 2.7V | 04:29:00 | 00:00:00 | 00:00:00 | |
| OE5MMP-10 | 2026-09-04 23:37:40 | 49.47311 | 13.17727 | 94° | 89km/h | 15254m | 3.4m/s | -60.2°C | 8.5% | 123.3hPa | 2.6V | 00:00:00 | 01:35:04 | 00:00:00 | |
| EDDB2-12 | 2026-09-04 23:37:35 | 49.47320 | 13.17553 | 94° | 88km/h | 15233m | 4.6m/s | -60.2°C | 4.0% | 123.8hPa | 2.6V | 00:00:00 | 00:00:00 | 00:00:00 | |
| DO3MHA-11 | 2026-09-04 23:37:34 | 49.47321 | 13.17519 | 94° | 89km/h | 15229m | 4.2m/s | -60.1°C | 8.4% | 123.8hPa | 2.6V | 00:00:00 | 01:34:58 | 00:00:00 | |
| OE5MMP-10 | 2026-09-04 23:37:30 | 49.47329 | 13.17379 | 97° | 89km/h | 15213m | 3.6m/s | -60.0°C | 8.4% | 124.2hPa | 2.6V | 00:00:00 | 01:34:54 | 00:00:00 | |
| PETON7-10 | 2026-09-04 23:37:27 | 49.47336 | 13.17277 | 96° | 91km/h | 15200m | 3.5m/s | -59.9°C | 8.4% | 124.4hPa | 2.6V | 00:00:00 | 00:00:00 | 00:00:00 | |
| PG1ADW-2 | 2026-09-04 23:37:26 | 49.47338 | 13.17244 | 97° | 89km/h | 15196m | 3.9m/s | -59.9°C | 8.3% | 124.5hPa | 2.7V | 04:29:00 | 01:34:50 | 00:00:00 | |
| DO3MHA-11 | 2026-09-04 23:37:24 | 49.47344 | 13.17174 | 98° | 93km/h | 15187m | 3.6m/s | -59.8°C | 8.2% | 124.7hPa | 2.7V | 00:00:00 | 01:34:48 | 00:00:00 | |
| OE5DRO-10 | 2026-09-04 23:37:22 | 49.47350 | 13.17102 | 97° | 89km/h | 15179m | 4.5m/s | -59.8°C | 8.1% | 124.8hPa | 2.7V | 00:00:00 | 00:00:00 | 00:00:00 | |
| OE5MMP-10 | 2026-09-04 23:37:20 | 49.47355 | 13.17031 | 96° | 89km/h | 15171m | 3.8m/s | -59.7°C | 8.1% | 125.0hPa | 2.7V | 04:30:00 | 01:34:44 | 00:00:00 | |
| SONDE2-11 | 2026-09-04 23:37:17 | 49.47363 | 13.16925 | 96° | 89km/h | 15158m | 3.7m/s | -59.7°C | 3.9% | 125.3hPa | 2.7V | 00:00:00 | 00:00:00 | 00:00:00 | |
| PETON7-10 | 2026-09-04 23:37:12 | 49.47376 | 13.16753 | 100° | 89km/h | 15136m | 3.8m/s | -59.7°C | 8.0% | 125.7hPa | 2.7V | 00:00:00 | 00:00:00 | 00:00:00 | |
| OE5MMP-10 | 2026-09-04 23:37:10 | 49.47384 | 13.16685 | 101° | 89km/h | 15127m | 5.0m/s | -59.7°C | 8.0% | 125.9hPa | 2.7V | 00:00:00 | 01:34:34 | 00:00:00 | |
| S52SK | 2026-09-04 23:37:07 | 49.47392 | 13.16619 | 102° | 88km/h | 15118m | 4.3m/s | 0°C | 0% | 126.1hPa | 2.7V | 00:00:00 | 00:00:00 | 00:00:00 | |
| PG1ADW-2 | 2026-09-04 23:37:06 | 49.47399 | 13.16551 | 100° | 89km/h | 15110m | 3.5m/s | -59.8°C | 8.2% | 126.2hPa | 2.7V | 00:00:00 | 00:00:00 | 00:00:00 | |
| EDDB2-12 | 2026-09-04 23:37:04 | 49.47410 | 13.16449 | 97° | 88km/h | 15097m | 3.6m/s | -59.9°C | 4.0% | 126.5hPa | 2.6V | 00:00:00 | 00:00:00 | 00:00:00 | |
| OE5DRO-10 | 2026-09-04 23:37:03 | 49.47410 | 13.16449 | 98° | 88km/h | 15097m | 3.6m/s | -59.8°C | 8.2% | 126.5hPa | 2.6V | 00:00:00 | 00:00:00 | 00:00:00 | |
| DO3MHA-11 | 2026-09-04 23:37:02 | 49.47413 | 13.16414 | 98° | 88km/h | 15093m | 4.4m/s | -59.9°C | 8.1% | 126.6hPa | 2.6V | 00:00:00 | 01:34:26 | 00:00:00 | |
| S52SK | 2026-09-04 23:37:01 | 49.47413 | 13.16414 | 99° | 89km/h | 15093m | 4.4m/s | 0°C | 0% | 126.6hPa | 2.6V | 00:00:00 | 00:00:00 | 00:00:00 | |
| DL6DJ-15 | 2026-09-04 23:36:52 | 49.47433 | 13.16073 | 95° | 88km/h | 15049m | 4.1m/s | -60.1°C | 4.1% | 127.5hPa | 2.6V | 00:00:00 | 00:00:00 | 00:00:00 | |
| DO3MHA-11 | 2026-09-04 23:36:51 | 49.47435 | 13.16038 | 97° | 86km/h | 15045m | 4.6m/s | -60.0°C | 8.4% | 127.6hPa | 2.6V | 04:30:00 | 01:34:15 | 00:00:00 | |
| OE5MMP-10 | 2026-09-04 23:36:50 | 49.47438 | 13.16004 | 97° | 86km/h | 15040m | 4.7m/s | -60.0°C | 8.4% | 127.7hPa | 2.6V | 00:00:00 | 01:34:14 | 00:00:00 | |
| PG1ADW-2 | 2026-09-04 23:36:46 | 49.47449 | 13.15869 | 98° | 89km/h | 15022m | 4.0m/s | -59.9°C | 8.5% | 128.1hPa | 2.6V | 00:00:00 | 00:00:00 | 00:00:00 | |
| OE5DRO-10 | 2026-09-04 23:36:44 | 49.47454 | 13.15803 | 96° | 89km/h | 15013m | 3.9m/s | -59.9°C | 8.5% | 128.2hPa | 2.6V | 00:00:00 | 00:00:00 | 00:00:00 | |
| PETON7-10 | 2026-09-04 23:36:42 | 49.47458 | 13.15739 | 97° | 89km/h | 15004m | 4.9m/s | 0°C | 0% | 0hPa | 2.6V | 00:00:00 | 00:00:00 | 00:00:00 | |
| DO3MHA-11 | 2026-09-04 23:36:41 | 49.47460 | 13.15706 | 98° | 91km/h | 15000m | 4.4m/s | -59.8°C | 8.6% | 128.5hPa | 2.6V | 00:00:00 | 01:34:05 | 00:00:00 | |
| OE5MMP-10 | 2026-09-04 23:36:40 | 49.47464 | 13.15671 | 98° | 91km/h | 14996m | 3.8m/s | -59.8°C | 8.6% | 128.6hPa | 2.6V | 00:00:00 | 01:34:04 | 00:00:00 | |
| EDDB2-12 | 2026-09-04 23:36:33 | 49.47491 | 13.15387 | 96° | 84km/h | 14959m | 4.8m/s | -59.5°C | 4.2% | 129.4hPa | 2.7V | 00:00:00 | 00:00:00 | 00:00:00 | |
| DO3MHA-11 | 2026-09-04 23:36:31 | 49.47492 | 13.15354 | 95° | 89km/h | 14955m | 3.7m/s | -59.4°C | 8.5% | 129.4hPa | 2.7V | 00:00:00 | 01:33:55 | 00:00:00 | |
| PETON7-10 | 2026-09-04 23:36:27 | 49.47504 | 13.15219 | 102° | 91km/h | 14937m | 4.5m/s | 0°C | 0% | 0hPa | 2.7V | 00:00:00 | 00:00:00 | 00:00:00 | |
| PG1ADW-2 | 2026-09-04 23:36:26 | 49.47509 | 13.15183 | 102° | 91km/h | 14932m | 5.1m/s | -59.2°C | 8.4% | 129.9hPa | 2.7V | 00:00:00 | 00:00:00 | 00:00:00 | |
| DO8TBO-1 | 2026-09-04 23:36:25 | 49.47514 | 13.15148 | 102° | 95km/h | 14927m | 5.9m/s | -59.2°C | 8.4% | 130.0hPa | 2.7V | 00:00:00 | 01:33:49 | 00:00:00 | |
| DL6DJ-15 | 2026-09-04 23:36:21 | 49.47533 | 13.15003 | 100° | 95km/h | 14907m | 4.3m/s | -59.1°C | 4.2% | 130.5hPa | 2.7V | 00:00:00 | 00:00:00 | 00:00:00 | |
| OE5MMP-10 | 2026-09-04 23:36:20 | 49.47537 | 13.14966 | 99° | 91km/h | 14902m | 5.4m/s | -59.0°C | 8.3% | 130.5hPa | 2.7V | 00:00:00 | 01:33:44 | 00:00:00 | |
| DL1JEZ-13 | 2026-09-04 23:36:17 | 49.47542 | 13.14897 | 96° | 88km/h | 14893m | 3.8m/s | -59.0°C | 4.3% | 130.8hPa | 2.7V | 04:31:00 | 00:00:00 | 00:00:00 | |
| SONDE2-11 | 2026-09-04 23:36:15 | 49.47549 | 13.14794 | 96° | 89km/h | 14879m | 4.7m/s | -58.9°C | 4.2% | 131.0hPa | 2.7V | 00:00:00 | 00:00:00 | 00:00:00 | |
| PETON7-10 | 2026-09-04 23:36:12 | 49.47558 | 13.14688 | 99° | 91km/h | 14866m | 4.9m/s | 0°C | 0% | 0hPa | 2.7V | 00:00:00 | 01:33:36 | 00:00:00 | |
| SP3BTT-10 | 2026-09-04 23:36:11 | 49.47561 | 13.14653 | 99° | 91km/h | 14861m | 5.0m/s | -58.9°C | 8.5% | 131.4hPa | 2.7V | 00:00:00 | 00:00:00 | 00:00:00 | |
| OE5MMP-10 | 2026-09-04 23:36:10 | 49.47564 | 13.14619 | 100° | 91km/h | 14856m | 4.4m/s | -58.9°C | 8.4% | 131.5hPa | 2.7V | 00:00:00 | 01:33:34 | 00:00:00 | |
| DO3MHA-11 | 2026-09-04 23:36:08 | 49.47572 | 13.14550 | 101° | 91km/h | 14846m | 3.9m/s | -58.9°C | 8.5% | 131.7hPa | 2.6V | 00:00:00 | 01:33:32 | 00:00:00 | |
| PG1ADW-2 | 2026-09-04 23:36:06 | 49.47580 | 13.14480 | 98° | 91km/h | 14837m | 5.7m/s | -58.9°C | 8.5% | 131.9hPa | 2.6V | 00:00:00 | 01:33:30 | 00:00:00 | |
| EDDB2-12 | 2026-09-04 23:36:02 | 49.47591 | 13.14302 | 95° | 91km/h | 14814m | 4.1m/s | -58.9°C | 4.5% | 132.4hPa | 2.7V | 00:00:00 | 00:00:00 | 00:00:00 | |
| DL6DJ-15 | 2026-09-04 23:35:50 | 49.47616 | 13.13910 | 93° | 93km/h | 14767m | 4.2m/s | -59.0°C | 4.7% | 133.4hPa | 2.7V | 00:00:00 | 00:00:00 | 00:00:00 | |
| SONDE2-11 | 2026-09-04 23:35:44 | 49.47624 | 13.13694 | 95° | 91km/h | 14742m | 4.3m/s | -59.0°C | 4.7% | 134.0hPa | 2.7V | 00:00:00 | 00:00:00 | 00:00:00 | |
| PETON7-10 | 2026-09-04 23:35:42 | 49.47629 | 13.13624 | 98° | 93km/h | 14733m | 3.9m/s | 0°C | 0% | 0hPa | 2.7V | 04:31:00 | 00:00:00 | 00:00:00 | |
| SP3BTT-10 | 2026-09-04 23:35:41 | 49.47632 | 13.13589 | 98° | 93km/h | 14729m | 4.5m/s | -59.0°C | 9.0% | 134.2hPa | 2.7V | 04:31:00 | 00:00:00 | 00:00:00 | |
| OE5MMP-10 | 2026-09-04 23:35:40 | 49.47635 | 13.13553 | 97° | 93km/h | 14724m | 3.9m/s | -59.0°C | 9.0% | 134.3hPa | 2.6V | 04:31:00 | 01:33:04 | 00:00:00 | |
| EDDB2-11 | 2026-09-04 23:35:39 | 49.47637 | 13.13516 | 95° | 95km/h | 14720m | 4.2m/s | -59.1°C | 4.8% | 134.4hPa | 2.6V | 00:00:00 | 00:00:00 | 00:00:00 | |
| DO3MHA-11 | 2026-09-04 23:35:38 | 49.47639 | 13.13479 | 94° | 106km/h | 14716m | 4.6m/s | -59.1°C | 9.1% | 134.5hPa | 2.6V | 00:00:00 | 01:33:02 | 00:00:00 | |
| EDDB2-12 | 2026-09-04 23:35:31 | 49.47649 | 13.13192 | 93° | 88km/h | 14683m | 3.5m/s | -59.2°C | 4.9% | 135.2hPa | 2.6V | 00:00:00 | 00:00:00 | 00:00:00 | |
| OE5MMP-10 | 2026-09-04 23:35:30 | 49.47649 | 13.13192 | 94° | 91km/h | 14683m | 3.5m/s | -59.2°C | 9.2% | 135.2hPa | 2.6V | 00:00:00 | 01:32:54 | 00:00:00 | |
| OE5DRO-10 | 2026-09-04 23:35:28 | 49.47651 | 13.13121 | 93° | 93km/h | 14675m | 4.3m/s | -59.2°C | 9.3% | 135.4hPa | 2.6V | 00:00:00 | 00:00:00 | 00:00:00 | |
| PETON7-10 | 2026-09-04 23:35:27 | 49.47652 | 13.13086 | 93° | 95km/h | 14670m | 4.0m/s | 0°C | 0% | 0hPa | 2.6V | 00:00:00 | 01:32:51 | 00:00:00 | |
| PG1ADW-2 | 2026-09-04 23:35:26 | 49.47653 | 13.13050 | 92° | 95km/h | 14666m | 5.0m/s | -59.1°C | 9.3% | 135.6hPa | 2.6V | 00:00:00 | 00:00:00 | 00:00:00 | |
| OM5KV | 2026-09-04 23:35:21 | 49.47654 | 13.12907 | 91° | 93km/h | 14649m | 4.3m/s | 0°C | 0% | 0hPa | 2.6V | 04:32:00 | 00:00:00 | 00:00:00 | |
| OE5MMP-10 | 2026-09-04 23:35:20 | 49.47654 | 13.12836 | 91° | 95km/h | 14640m | 3.6m/s | -59.1°C | 9.5% | 136.1hPa | 2.6V | 00:00:00 | 01:32:44 | 00:00:00 | |
| DL6DJ-15 | 2026-09-04 23:35:19 | 49.47655 | 13.12800 | 91° | 91km/h | 14636m | 3.4m/s | -59.1°C | 5.0% | 136.2hPa | 2.6V | 00:00:00 | 00:00:00 | 00:00:00 | |
| DO8TBO-1 | 2026-09-04 23:35:16 | 49.47659 | 13.12689 | 95° | 110km/h | 14624m | 3.4m/s | -59.0°C | 9.4% | 136.5hPa | 2.6V | 00:00:00 | 01:32:40 | 00:00:00 | |
| OM5KV | 2026-09-04 23:35:15 | 49.47659 | 13.12689 | 96° | 97km/h | 14624m | 3.4m/s | 0°C | 0% | 0hPa | 2.6V | 04:32:00 | 00:00:00 | 00:00:00 | |
| SONDE2-11 | 2026-09-04 23:35:14 | 49.47664 | 13.12579 | 93° | 91km/h | 14612m | 3.3m/s | -59.0°C | 5.2% | 136.8hPa | 2.6V | 00:00:00 | 00:00:00 | 00:00:00 | |
| PETON7-10 | 2026-09-04 23:35:12 | 49.47665 | 13.12543 | 93° | 97km/h | 14608m | 3.9m/s | 0°C | 0% | 0hPa | 2.6V | 00:00:00 | 00:00:00 | 00:00:00 | |
| OE5MMP-10 | 2026-09-04 23:35:10 | 49.47666 | 13.12467 | 91° | 99km/h | 14600m | 3.6m/s | -58.9°C | 9.7% | 137.0hPa | 2.6V | 00:00:00 | 01:32:34 | 00:00:00 | |
| SP3BTT-10 | 2026-09-04 23:35:09 | 49.47666 | 13.12429 | 90° | 104km/h | 14596m | 4.4m/s | -58.9°C | 9.7% | 137.1hPa | 2.7V | 00:00:00 | 00:00:00 | 00:00:00 | |
| EDDB2-11 | 2026-09-04 23:35:08 | 49.47666 | 13.12391 | 89° | 97km/h | 14591m | 4.8m/s | -58.9°C | 5.2% | 137.2hPa | 2.7V | 00:00:00 | 00:00:00 | 00:00:00 | |
| OM5KV | 2026-09-04 23:35:07 | 49.47667 | 13.12391 | 91° | 97km/h | 14591m | 4.8m/s | 0°C | 0% | 0hPa | 2.7V | 00:00:00 | 00:00:00 | 00:00:00 | |
| PG1ADW-2 | 2026-09-04 23:35:06 | 49.47666 | 13.12316 | 90° | 97km/h | 14583m | 3.4m/s | -58.8°C | 9.6% | 137.4hPa | 2.7V | 00:00:00 | 00:00:00 | 00:00:00 | |
| OM5KV | 2026-09-04 23:35:01 | 49.47669 | 13.12163 | 94° | 99km/h | 14566m | 3.5m/s | 0°C | 0% | 0hPa | 2.6V | 00:00:00 | 00:00:00 | 00:00:00 | |
| EDDB2-12 | 2026-09-04 23:35:00 | 49.47673 | 13.12054 | 92° | 89km/h | 14554m | 3.7m/s | -58.8°C | 5.2% | 138.1hPa | 2.6V | 00:00:00 | 00:00:00 | 00:00:00 | |
| DL6DJ-15 | 2026-09-04 23:34:48 | 49.47659 | 13.11636 | 86° | 97km/h | 14508m | 5.4m/s | -58.7°C | 5.4% | 139.1hPa | 2.6V | 00:00:00 | 00:00:00 | 00:00:00 | |
| PG1ADW-2 | 2026-09-04 23:34:46 | 49.47657 | 13.11562 | 89° | 100km/h | 14496m | 6.3m/s | -58.6°C | 9.8% | 139.2hPa | 2.6V | 00:00:00 | 01:32:10 | 00:00:00 | |
| PETON7-10 | 2026-09-04 23:34:42 | 49.47650 | 13.11406 | 85° | 106km/h | 14474m | 6.2m/s | 0°C | 0% | 0hPa | 2.6V | 00:00:00 | 01:32:06 | 00:00:00 | |
| OE5MMP-10 | 2026-09-04 23:34:40 | 49.47645 | 13.11328 | 84° | 100km/h | 14463m | 4.1m/s | -58.6°C | 9.9% | 140.0hPa | 2.6V | 00:00:00 | 01:32:04 | 00:00:00 | |
| EDDB2-11 | 2026-09-04 23:34:37 | 49.47634 | 13.11213 | 79° | 102km/h | 14448m | 4.9m/s | -58.6°C | 5.7% | 140.4hPa | 2.6V | 00:00:00 | 00:00:00 | 00:00:00 | |
| DG1MFX-10 | 2026-09-04 23:34:34 | 49.47625 | 13.11135 | 81° | 100km/h | 14438m | 5.5m/s | -58.6°C | 0% | 0hPa | 2.6V | 04:32:00 | 00:00:00 | 00:00:00 | |
| DL1JEZ-13 | 2026-09-04 23:34:32 | 49.47617 | 13.11059 | 83° | 99km/h | 14429m | 4.4m/s | -58.6°C | 5.8% | 140.8hPa | 2.6V | 00:00:00 | 00:00:00 | 00:00:00 | |
| OE5DRO-10 | 2026-09-04 23:34:31 | 49.47610 | 13.10982 | 83° | 100km/h | 14420m | 3.9m/s | -58.5°C | 10.2% | 141.0hPa | 2.6V | 04:32:00 | 00:00:00 | 00:00:00 | |
| OE5DXL-15 | 2026-09-04 23:34:30 | 49.47607 | 13.10944 | 84° | 102km/h | 14416m | 4.3m/s | -58.5°C | 10.2% | 141.1hPa | 2.6V | 00:00:00 | 00:00:00 | 00:00:00 | |
| EDDB2-12 | 2026-09-04 23:34:29 | 49.47603 | 13.10867 | 85° | 99km/h | 14406m | 4.3m/s | -58.6°C | 6.0% | 141.3hPa | 2.6V | 00:00:00 | 00:00:00 | 00:00:00 | |
| PG1ADW-2 | 2026-09-04 23:34:26 | 49.47598 | 13.10788 | 84° | 102km/h | 14398m | 4.9m/s | -58.7°C | 10.5% | 141.5hPa | 2.6V | 00:00:00 | 00:00:00 | 00:00:00 | |
| OM5KV | 2026-09-04 23:34:25 | 49.47598 | 13.10788 | 85° | 104km/h | 14398m | 5.0m/s | 0°C | 0% | 0hPa | 2.6V | 00:00:00 | 00:00:00 | 00:00:00 | |
| OE5MMP-10 | 2026-09-04 23:34:20 | 49.47575 | 13.10550 | 83° | 100km/h | 14373m | 4.1m/s | -58.9°C | 11.0% | 142.0hPa | 2.6V | 00:00:00 | 01:31:44 | 00:00:00 | |
| DL6DJ-15 | 2026-09-04 23:34:17 | 49.47566 | 13.10435 | 83° | 99km/h | 14360m | 4.2m/s | -59.0°C | 6.7% | 142.3hPa | 2.6V | 00:00:00 | 00:00:00 | 00:00:00 | |
| S52SK | 2026-09-04 23:34:15 | 49.47563 | 13.10397 | 85° | 99km/h | 14355m | 4.6m/s | 0°C | 0% | 142.5hPa | 2.6V | 00:00:00 | 00:00:00 | 00:00:00 | |
| DG1MFX-10 | 2026-09-04 23:34:14 | 49.47560 | 13.10359 | 84° | 99km/h | 14351m | 3.7m/s | 0°C | 0% | 0hPa | 2.6V | 00:00:00 | 00:00:00 | 00:00:00 | |
| OE5DRO-10 | 2026-09-04 23:34:12 | 49.47549 | 13.10242 | 80° | 104km/h | 14338m | 3.7m/s | -59.3°C | 11.8% | 142.8hPa | 2.6V | 00:00:00 | 00:00:00 | 00:00:00 | |
| SONDE2-11 | 2026-09-04 23:34:11 | 49.47544 | 13.10203 | 79° | 102km/h | 14334m | 4.6m/s | -59.4°C | 7.1% | 142.9hPa | 2.6V | 00:00:00 | 00:00:00 | 00:00:00 | |
| OE5MMP-10 | 2026-09-04 23:34:10 | 49.47539 | 13.10164 | 81° | 102km/h | 14329m | 4.8m/s | -59.4°C | 12.0% | 143.0hPa | 2.6V | 00:00:00 | 01:31:34 | 00:00:00 | |
| S52SK | 2026-09-04 23:34:09 | 49.47540 | 13.10164 | 81° | 102km/h | 14329m | 4.9m/s | 0°C | 0% | 143.0hPa | 2.7V | 00:00:00 | 00:00:00 | 00:00:00 | |
| OM5KV | 2026-09-04 23:34:07 | 49.47532 | 13.10085 | 83° | 102km/h | 14320m | 4.7m/s | 0°C | 0% | 0hPa | 2.7V | 00:00:00 | 00:00:00 | 00:00:00 | |
| PG1ADW-2 | 2026-09-04 23:34:06 | 49.47525 | 13.10006 | 83° | 106km/h | 14312m | 3.2m/s | -59.6°C | 12.4% | 143.4hPa | 2.7V | 04:33:00 | 00:00:00 | 00:00:00 | |
| EDDB2-12 | 2026-09-04 23:33:58 | 49.47498 | 13.09649 | 83° | 108km/h | 14274m | 3.6m/s | -59.9°C | 8.3% | 144.3hPa | 2.6V | 00:00:00 | 00:00:00 | 00:00:00 | |
| SP3BTT-10 | 2026-09-04 23:33:54 | 49.47486 | 13.09523 | 82° | 111km/h | 14261m | 4.9m/s | -59.9°C | 13.7% | 144.5hPa | 2.6V | 00:00:00 | 00:00:00 | 00:00:00 | |
| OE5DRO-10 | 2026-09-04 23:33:53 | 49.47482 | 13.09482 | 82° | 110km/h | 14257m | 4.2m/s | -59.9°C | 13.9% | 144.7hPa | 2.6V | 00:00:00 | 00:00:00 | 00:00:00 | |
| OE5MMP-10 | 2026-09-04 23:33:50 | 49.47469 | 13.09359 | 80° | 110km/h | 14244m | 3.7m/s | -60.0°C | 14.1% | 144.9hPa | 2.6V | 00:00:00 | 01:31:14 | 00:00:00 | |
| PG1ADW-2 | 2026-09-04 23:33:46 | 49.47449 | 13.09197 | 80° | 113km/h | 14227m | 5.0m/s | -60.2°C | 14.6% | 145.3hPa | 2.6V | 00:00:00 | 00:00:00 | 00:00:00 | |
| AM1SDL-15 | 2026-09-04 23:33:41 | 49.47425 | 13.08980 | 82° | 111km/h | 14206m | 3.4m/s | -60.3°C | 14.8% | 145.8hPa | 2.6V | 00:00:00 | 01:31:05 | 00:00:00 | |
| OE5MMP-10 | 2026-09-04 23:33:40 | 49.47421 | 13.08938 | 82° | 111km/h | 14202m | 4.1m/s | -60.3°C | 14.8% | 145.9hPa | 2.6V | 00:00:00 | 01:31:04 | 00:00:00 | |
| EDDB2-11 | 2026-09-04 23:33:35 | 49.47398 | 13.08730 | 79° | 108km/h | 14181m | 3.5m/s | -60.3°C | 9.3% | 146.5hPa | 2.7V | 00:00:00 | 00:00:00 | 00:00:00 | |
| OE5DRO-10 | 2026-09-04 23:33:34 | 49.47393 | 13.08688 | 79° | 117km/h | 14177m | 4.7m/s | -60.2°C | 14.7% | 146.5hPa | 2.7V | 00:00:00 | 00:00:00 | 00:00:00 | |
| OE5MMP-10 | 2026-09-04 23:33:30 | 49.47368 | 13.08513 | 79° | 115km/h | 14160m | 4.0m/s | -60.3°C | 14.9% | 146.9hPa | 2.7V | 00:00:00 | 01:30:54 | 00:00:00 | |
| AM1SDL-15 | 2026-09-04 23:33:29 | 49.47362 | 13.08467 | 79° | 120km/h | 14157m | 3.1m/s | -60.4°C | 14.9% | 147.0hPa | 2.7V | 04:33:00 | 01:30:53 | 00:00:00 | |
| EDDB2-12 | 2026-09-04 23:33:27 | 49.47343 | 13.08331 | 78° | 117km/h | 14144m | 4.1m/s | -60.5°C | 9.6% | 147.3hPa | 2.7V | 00:00:00 | 00:00:00 | 00:00:00 | |
| PG1ADW-2 | 2026-09-04 23:33:26 | 49.47343 | 13.08331 | 79° | 117km/h | 14144m | 4.0m/s | -60.5°C | 15.1% | 147.3hPa | 2.7V | 00:00:00 | 01:30:50 | 00:00:00 | |
| DO8TBO-1 | 2026-09-04 23:33:25 | 49.47338 | 13.08286 | 79° | 115km/h | 14140m | 4.5m/s | -60.5°C | 15.3% | 147.4hPa | 2.7V | 04:33:00 | 01:30:49 | 00:00:00 | |
| SP3BTT-10 | 2026-09-04 23:33:24 | 49.47332 | 13.08242 | 79° | 113km/h | 14136m | 3.3m/s | -60.5°C | 15.4% | 147.5hPa | 2.7V | 00:00:00 | 00:00:00 | 00:00:00 | |
| OE5MMP-10 | 2026-09-04 23:33:20 | 49.47310 | 13.08073 | 81° | 119km/h | 14120m | 4.0m/s | -60.5°C | 15.8% | 147.8hPa | 2.6V | 00:00:00 | 01:30:44 | 00:00:00 | |
| DL1JEZ-13 | 2026-09-04 23:33:18 | 49.47306 | 13.08030 | 83° | 115km/h | 14116m | 3.8m/s | -60.6°C | 10.1% | 148.0hPa | 2.6V | 00:00:00 | 00:00:00 | 00:00:00 | |
| OE5DRO-10 | 2026-09-04 23:33:15 | 49.47289 | 13.07847 | 83° | 117km/h | 14099m | 4.9m/s | -60.5°C | 15.5% | 148.3hPa | 2.6V | 00:00:00 | 00:00:00 | 00:00:00 | |
| OE5MMP-10 | 2026-09-04 23:33:10 | 49.47269 | 13.07618 | 81° | 117km/h | 14079m | 3.7m/s | -60.6°C | 15.6% | 148.8hPa | 2.6V | 04:34:00 | 01:30:34 | 00:00:00 | |
| SONDE2-11 | 2026-09-04 23:33:09 | 49.47264 | 13.07572 | 81° | 117km/h | 14074m | 5.0m/s | -60.6°C | 9.9% | 149.0hPa | 2.6V | 00:00:00 | 00:00:00 | 00:00:00 | |
| PG1ADW-2 | 2026-09-04 23:33:06 | 49.47251 | 13.07438 | 82° | 111km/h | 14062m | 4.6m/s | -60.5°C | 15.3% | 149.2hPa | 2.6V | 00:00:00 | 00:00:00 | 00:00:00 | |
| EDDB2-11 | 2026-09-04 23:33:04 | 49.47242 | 13.07347 | 80° | 117km/h | 14054m | 3.0m/s | -60.6°C | 9.9% | 149.4hPa | 2.6V | 00:00:00 | 00:00:00 | 00:00:00 | |
| OE3MUC-15 | 2026-09-04 23:33:01 | 49.47227 | 13.07215 | 80° | 111km/h | 14043m | 3.5m/s | -60.4°C | 15.6% | 149.7hPa | 2.6V | 00:00:00 | 00:00:00 | 00:00:00 | |
| OE5MMP-10 | 2026-09-04 23:33:00 | 49.47222 | 13.07173 | 79° | 111km/h | 14038m | 4.8m/s | -60.4°C | 15.8% | 149.8hPa | 2.6V | 00:00:00 | 01:30:24 | 00:00:00 | |
| S52SK | 2026-09-04 23:32:59 | 49.47222 | 13.07173 | 79° | 113km/h | 14038m | 4.8m/s | 0°C | 0% | 149.8hPa | 2.6V | 00:00:00 | 00:00:00 | 00:00:00 | |
| OE3MUC-15 | 2026-09-04 23:32:57 | 49.47202 | 13.07045 | 76° | 110km/h | 14026m | 5.0m/s | -60.4°C | 16.0% | 150.1hPa | 2.6V | 00:00:00 | 00:00:00 | 00:00:00 | |
| OE5DRO-10 | 2026-09-04 23:32:56 | 49.47195 | 13.07004 | 76° | 108km/h | 14021m | 4.4m/s | -60.4°C | 16.1% | 150.2hPa | 2.7V | 04:34:00 | 00:00:00 | 00:00:00 | |
| DO8TBO-1 | 2026-09-04 23:32:55 | 49.47188 | 13.06964 | 76° | 108km/h | 14017m | 2.6m/s | -60.4°C | 16.3% | 150.3hPa | 2.7V | 00:00:00 | 01:30:19 | 00:00:00 | |
| S52SK | 2026-09-04 23:32:54 | 49.47181 | 13.06923 | 77° | 110km/h | 14014m | 3.1m/s | 0°C | 0% | 150.4hPa | 2.7V | 00:00:00 | 00:00:00 | 00:00:00 | |
| OE3MUC-15 | 2026-09-04 23:32:53 | 49.47174 | 13.06882 | 76° | 111km/h | 14010m | 4.8m/s | -60.4°C | 16.2% | 150.4hPa | 2.7V | 00:00:00 | 00:00:00 | 00:00:00 | |
| DM0DOS-11 | 2026-09-04 23:32:51 | 49.47145 | 13.06715 | 74° | 110km/h | 13994m | 4.3m/s | 0°C | 0% | 0hPa | 2.7V | 00:00:00 | 01:30:13 | 00:00:00 | |
| OE5MMP-10 | 2026-09-04 23:32:50 | 49.47152 | 13.06756 | 75° | 108km/h | 13999m | 4.6m/s | -60.3°C | 16.2% | 150.7hPa | 2.7V | 00:00:00 | 01:30:14 | 00:00:00 | |
| OE3MUC-15 | 2026-09-04 23:32:49 | 49.47145 | 13.06715 | 75° | 108km/h | 13994m | 4.3m/s | -60.3°C | 16.2% | 150.8hPa | 2.7V | 04:34:00 | 00:00:00 | 00:00:00 | |
| PG1ADW-2 | 2026-09-04 23:32:46 | 49.47123 | 13.06594 | 74° | 106km/h | 13983m | 3.5m/s | -60.4°C | 16.4% | 151.1hPa | 2.7V | 00:00:00 | 00:00:00 | 00:00:00 | |
| OE3MUC-15 | 2026-09-04 23:32:44 | 49.47107 | 13.06514 | 74° | 106km/h | 13975m | 5.0m/s | -60.5°C | 16.4% | 151.3hPa | 2.7V | 00:00:00 | 00:00:00 | 00:00:00 | |
| OE3MUC-15 | 2026-09-04 23:32:40 | 49.47075 | 13.06358 | 72° | 108km/h | 13959m | 3.5m/s | -60.4°C | 16.6% | 151.7hPa | 2.7V | 00:00:00 | 00:00:00 | 00:00:00 | |
| SONDE2-11 | 2026-09-04 23:32:38 | 49.47057 | 13.06278 | 71° | 108km/h | 13951m | 4.6m/s | -60.3°C | 11.0% | 151.9hPa | 2.7V | 00:00:00 | 00:00:00 | 00:00:00 | |
| OE5DRO-10 | 2026-09-04 23:32:37 | 49.47049 | 13.06239 | 73° | 106km/h | 13947m | 3.7m/s | -60.3°C | 16.9% | 152.0hPa | 2.7V | 00:00:00 | 00:00:00 | 00:00:00 | |
| OE3MUC-15 | 2026-09-04 23:32:36 | 49.47040 | 13.06199 | 72° | 106km/h | 13944m | 2.8m/s | -60.3°C | 17.0% | 152.0hPa | 2.7V | 00:00:00 | 00:00:00 | 00:00:00 | |
| EDDB2-11 | 2026-09-04 23:32:33 | 49.47005 | 13.06044 | 71° | 106km/h | 13929m | 4.7m/s | -60.4°C | 11.7% | 152.5hPa | 2.7V | 00:00:00 | 00:00:00 | 00:00:00 | |
| OE3MUC-15 | 2026-09-04 23:32:32 | 49.47005 | 13.06043 | 72° | 106km/h | 13929m | 4.7m/s | -60.4°C | 17.6% | 152.4hPa | 2.7V | 00:00:00 | 00:00:00 | 00:00:00 | |
| OE5MMP-10 | 2026-09-04 23:32:30 | 49.46988 | 13.05966 | 72° | 106km/h | 13922m | 3.1m/s | -60.7°C | 18.2% | 152.6hPa | 2.7V | 00:00:00 | 01:29:54 | 00:00:00 | |
| OE3MUC-15 | 2026-09-04 23:32:28 | 49.46971 | 13.05888 | 71° | 104km/h | 13914m | 3.1m/s | -60.8°C | 18.8% | 152.8hPa | 2.7V | 04:34:00 | 00:00:00 | 00:00:00 | |
| PG1ADW-2 | 2026-09-04 23:32:26 | 49.46954 | 13.05812 | 72° | 106km/h | 13907m | 3.8m/s | -60.8°C | 18.8% | 152.9hPa | 2.7V | 04:34:00 | 00:00:00 | 00:00:00 | |
| DO8TBO-1 | 2026-09-04 23:32:25 | 49.46946 | 13.05774 | 72° | 106km/h | 13903m | 3.0m/s | -60.8°C | 19.0% | 153.0hPa | 2.7V | 00:00:00 | 01:29:49 | 00:00:00 | |
| OE3MUC-15 | 2026-09-04 23:32:24 | 49.46937 | 13.05736 | 71° | 106km/h | 13900m | 4.4m/s | -60.8°C | 19.0% | 153.1hPa | 2.7V | 00:00:00 | 00:00:00 | 00:00:00 | |
| SP3BTT-10 | 2026-09-04 23:32:21 | 49.46911 | 13.05618 | 73° | 113km/h | 13888m | 4.1m/s | 0°C | 0% | 0hPa | 2.7V | 04:35:00 | 00:00:00 | 00:00:00 | |
| OE5MMP-10 | 2026-09-04 23:32:20 | 49.46903 | 13.05578 | 74° | 108km/h | 13885m | 2.7m/s | -60.9°C | 19.7% | 153.5hPa | 2.7V | 04:35:00 | 01:29:44 | 00:00:00 | |
| OE5DRO-10 | 2026-09-04 23:32:18 | 49.46887 | 13.05497 | 74° | 106km/h | 13878m | 4.2m/s | -60.9°C | 20.1% | 153.7hPa | 2.7V | 00:00:00 | 00:00:00 | 00:00:00 | |
| OE3MUC-15 | 2026-09-04 23:32:16 | 49.46872 | 13.05418 | 75° | 108km/h | 13871m | 2.4m/s | -60.9°C | 20.2% | 153.8hPa | 2.7V | 00:00:00 | 00:00:00 | 00:00:00 | |
| DL6DJ-15 | 2026-09-04 23:32:13 | 49.46846 | 13.05257 | 75° | 106km/h | 13856m | 4.5m/s | -61.0°C | 13.9% | 154.2hPa | 2.7V | 00:00:00 | 00:00:00 | 00:00:00 | |
| OE3MUC-15 | 2026-09-04 23:32:12 | 49.46845 | 13.05257 | 76° | 104km/h | 13856m | 4.5m/s | -61.0°C | 20.2% | 154.2hPa | 2.7V | 00:00:00 | 00:00:00 | 00:00:00 | |
| OE5MMP-10 | 2026-09-04 23:32:10 | 49.46833 | 13.05179 | 77° | 106km/h | 13849m | 3.1m/s | -61.0°C | 20.6% | 154.4hPa | 2.7V | 00:00:00 | 01:29:34 | 00:00:00 | |
| OE3MUC-15 | 2026-09-04 23:32:08 | 49.46821 | 13.05100 | 79° | 104km/h | 13842m | 2.9m/s | -60.9°C | 20.6% | 154.5hPa | 2.6V | 04:35:00 | 00:00:00 | 00:00:00 | |
| SONDE2-11 | 2026-09-04 23:32:07 | 49.46816 | 13.05061 | 77° | 102km/h | 13839m | 3.2m/s | -61.0°C | 14.2% | 154.7hPa | 2.6V | 00:00:00 | 00:00:00 | 00:00:00 | |
| PG1ADW-2 | 2026-09-04 23:32:06 | 49.46810 | 13.05022 | 78° | 108km/h | 13835m | 3.9m/s | -61.0°C | 20.9% | 154.7hPa | 2.6V | 00:00:00 | 01:29:30 | 00:00:00 | |
| OE3MUC-15 | 2026-09-04 23:32:04 | 49.46798 | 13.04943 | 77° | 108km/h | 13829m | 2.5m/s | -61.0°C | 21.2% | 154.8hPa | 2.6V | 00:00:00 | 00:00:00 | 00:00:00 | |
| EDDB2-11 | 2026-09-04 23:32:02 | 49.46786 | 13.04862 | 77° | 110km/h | 13822m | 2.8m/s | -61.1°C | 14.9% | 155.1hPa | 2.6V | 00:00:00 | 00:00:00 | 00:00:00 | |
| OE5MMP-10 | 2026-09-04 23:32:00 | 49.46774 | 13.04778 | 78° | 108km/h | 13816m | 4.0m/s | -61.1°C | 21.9% | 155.2hPa | 2.6V | 00:00:00 | 01:29:24 | 00:00:00 | |
| OE5DRO-10 | 2026-09-04 23:31:59 | 49.46768 | 13.04737 | 79° | 106km/h | 13812m | 2.8m/s | -61.2°C | 22.2% | 155.3hPa | 2.6V | 00:00:00 | 00:00:00 | 00:00:00 | |
| OE3MUC-15 | 2026-09-04 23:31:56 | 49.46754 | 13.04613 | 82° | 106km/h | 13803m | 2.8m/s | -61.3°C | 23.0% | 155.5hPa | 2.7V | 00:00:00 | 00:00:00 | 00:00:00 | |
| OE5WHR-10 | 2026-09-04 23:31:53 | 49.46740 | 13.04490 | 80° | 108km/h | 13793m | 2.6m/s | -61.4°C | 23.1% | 155.8hPa | 2.6V | 00:00:00 | 00:00:00 | 00:00:00 | |
| OE3MUC-15 | 2026-09-04 23:31:52 | 49.46736 | 13.04450 | 80° | 106km/h | 13790m | 3.5m/s | -61.4°C | 23.2% | 155.8hPa | 2.6V | 00:00:00 | 00:00:00 | 00:00:00 | |
| OE5MMP-10 | 2026-09-04 23:31:50 | 49.46727 | 13.04369 | 82° | 106km/h | 13783m | 2.5m/s | -61.4°C | 23.4% | 156.0hPa | 2.6V | 00:00:00 | 01:29:14 | 00:00:00 | |
| OE3MUC-15 | 2026-09-04 23:31:48 | 49.46718 | 13.04287 | 81° | 106km/h | 13777m | 3.1m/s | -61.5°C | 23.7% | 156.2hPa | 2.6V | 04:35:00 | 00:00:00 | 00:00:00 | |
| PG1ADW-2 | 2026-09-04 23:31:46 | 49.46710 | 13.04205 | 83° | 111km/h | 13770m | 3.7m/s | -61.6°C | 24.2% | 156.3hPa | 2.6V | 00:00:00 | 00:00:00 | 00:00:00 | |
| S52SK | 2026-09-04 23:31:44 | 49.46703 | 13.04124 | 85° | 106km/h | 13763m | 3.5m/s | 0°C | 0% | 156.5hPa | 2.6V | 00:00:00 | 00:00:00 | 00:00:00 | |
| DL6DJ-15 | 2026-09-04 23:31:42 | 49.46694 | 13.04001 | 84° | 106km/h | 13754m | 3.6m/s | -61.8°C | 17.6% | 156.8hPa | 2.6V | 00:00:00 | 00:00:00 | 00:00:00 | |
| OE5DRO-10 | 2026-09-04 23:31:40 | 49.46692 | 13.03959 | 86° | 115km/h | 13750m | 3.7m/s | -61.8°C | 25.1% | 156.8hPa | 2.6V | 00:00:00 | 00:00:00 | 00:00:00 | |
| S52SK | 2026-09-04 23:31:37 | 49.46688 | 13.03875 | 87° | 108km/h | 13743m | 3.7m/s | 0°C | 0% | 0hPa | 2.6V | 00:00:00 | 00:00:00 | 00:00:00 | |
| SONDE2-11 | 2026-09-04 23:31:36 | 49.46682 | 13.03750 | 85° | 108km/h | 13734m | 4.0m/s | -61.9°C | 17.9% | 157.3hPa | 2.6V | 00:00:00 | 00:00:00 | 00:00:00 | |
| EDDB2-11 | 2026-09-04 23:31:31 | 49.46671 | 13.03577 | 83° | 113km/h | 13720m | 3.1m/s | -61.9°C | 17.5% | 157.6hPa | 2.6V | 00:00:00 | 00:00:00 | 00:00:00 | |
| OE5WHR-10 | 2026-09-04 23:31:30 | 49.46668 | 13.03533 | 83° | 122km/h | 13717m | 2.5m/s | -61.9°C | 24.6% | 157.7hPa | 2.6V | 00:00:00 | 01:28:54 | 00:00:00 | |
| PG1ADW-2 | 2026-09-04 23:31:26 | 49.46655 | 13.03349 | 86° | 122km/h | 13703m | 4.5m/s | -61.8°C | 24.4% | 158.0hPa | 2.6V | 00:00:00 | 00:00:00 | 00:00:00 | |
| PETON7-10 | 2026-09-04 23:31:23 | 49.46650 | 13.03210 | 89° | 124km/h | 13692m | 3.3m/s | 0°C | 0% | 0hPa | 2.6V | 04:35:00 | 00:00:00 | 00:00:00 | |
| EDDB2-12 | 2026-09-04 23:31:22 | 49.46649 | 13.03163 | 88° | 120km/h | 13688m | 4.0m/s | -61.8°C | 17.4% | 158.4hPa | 2.6V | 00:00:00 | 00:00:00 | 00:00:00 | |
| OE5DRO-10 | 2026-09-04 23:31:21 | 49.46649 | 13.03116 | 90° | 122km/h | 13685m | 2.9m/s | -61.7°C | 24.8% | 158.5hPa | 2.6V | 04:36:00 | 00:00:00 | 00:00:00 | |
| OE5MMP-10 | 2026-09-04 23:31:20 | 49.46649 | 13.03068 | 90° | 122km/h | 13682m | 2.9m/s | -61.7°C | 24.7% | 158.6hPa | 2.6V | 00:00:00 | 01:28:44 | 00:00:00 | |
| OE3MUC-15 | 2026-09-04 23:31:16 | 49.46649 | 13.02880 | 91° | 124km/h | 13669m | 4.0m/s | 0°C | 0% | 0hPa | 2.6V | 00:00:00 | 00:00:00 | 00:00:00 | |
| OE3MUC-15 | 2026-09-04 23:31:12 | 49.46647 | 13.02689 | 88° | 122km/h | 13655m | 3.3m/s | 0°C | 0% | 0hPa | 2.6V | 00:00:00 | 00:00:00 | 00:00:00 | |
| DL6DJ-15 | 2026-09-04 23:31:11 | 49.46643 | 13.02594 | 86° | 122km/h | 13648m | 3.8m/s | -61.7°C | 17.5% | 159.5hPa | 2.6V | 00:00:00 | 00:00:00 | 00:00:00 | |
| OE5MMP-10 | 2026-09-04 23:31:10 | 49.46643 | 13.02594 | 87° | 124km/h | 13648m | 3.8m/s | -61.7°C | 24.8% | 159.4hPa | 2.6V | 00:00:00 | 01:28:34 | 00:00:00 | |
| OE3MUC-15 | 2026-09-04 23:31:08 | 49.46639 | 13.02498 | 87° | 122km/h | 13641m | 3.8m/s | 0°C | 0% | 0hPa | 2.6V | 04:36:00 | 00:00:00 | 00:00:00 | |
| PG1ADW-2 | 2026-09-04 23:31:06 | 49.46635 | 13.02403 | 87° | 126km/h | 13634m | 2.8m/s | -61.7°C | 25.3% | 159.8hPa | 2.6V | 00:00:00 | 00:00:00 | 00:00:00 | |
| SONDE2-11 | 2026-09-04 23:31:05 | 49.46632 | 13.02307 | 87° | 126km/h | 13626m | 3.4m/s | -61.7°C | 18.0% | 160.1hPa | 2.7V | 00:00:00 | 00:00:00 | 00:00:00 | |
| OE3MUC-15 | 2026-09-04 23:31:04 | 49.46632 | 13.02307 | 88° | 126km/h | 13626m | 3.4m/s | 0°C | 0% | 0hPa | 2.7V | 00:00:00 | 00:00:00 | 00:00:00 | |
| OE5DRO-10 | 2026-09-04 23:31:02 | 49.46630 | 13.02209 | 89° | 126km/h | 13619m | 4.1m/s | -61.6°C | 25.5% | 160.2hPa | 2.7V | 00:00:00 | 00:00:00 | 00:00:00 | |
| EDDB2-11 | 2026-09-04 23:31:00 | 49.46628 | 13.02112 | 88° | 126km/h | 13611m | 4.3m/s | -61.6°C | 18.1% | 160.4hPa | 2.7V | 00:00:00 | 00:00:00 | 00:00:00 | |
| EDDB2-12 | 2026-09-04 23:30:51 | 49.46615 | 13.01672 | 84° | 126km/h | 13579m | 4.5m/s | -61.4°C | 17.8% | 161.2hPa | 2.7V | 00:00:00 | 00:00:00 | 00:00:00 | |
| OE5MMP-10 | 2026-09-04 23:30:50 | 49.46612 | 13.01623 | 85° | 124km/h | 13575m | 3.9m/s | -61.3°C | 25.1% | 161.4hPa | 2.7V | 00:00:00 | 01:28:14 | 00:00:00 | |
| OE5WHR-10 | 2026-09-04 23:30:49 | 49.46609 | 13.01575 | 86° | 126km/h | 13571m | 3.0m/s | -61.3°C | 25.3% | 161.4hPa | 2.7V | 04:36:00 | 00:00:00 | 00:00:00 | |
| OE3MUC-15 | 2026-09-04 23:30:48 | 49.46607 | 13.01527 | 86° | 124km/h | 13568m | 3.1m/s | 0°C | 0% | 0hPa | 2.6V | 00:00:00 | 00:00:00 | 00:00:00 | |
| PG1ADW-2 | 2026-09-04 23:30:46 | 49.46602 | 13.01430 | 87° | 126km/h | 13561m | 3.2m/s | -61.2°C | 25.2% | 161.7hPa | 2.6V | 04:36:00 | 01:28:10 | 00:00:00 | |
| OE3MUC-15 | 2026-09-04 23:30:44 | 49.46599 | 13.01334 | 89° | 122km/h | 13553m | 3.9m/s | 0°C | 0% | 0hPa | 2.6V | 00:00:00 | 00:00:00 | 00:00:00 | |
| OE5DRO-10 | 2026-09-04 23:30:43 | 49.46599 | 13.01287 | 89° | 126km/h | 13550m | 2.7m/s | -61.1°C | 25.4% | 162.0hPa | 2.6V | 00:00:00 | 00:00:00 | 00:00:00 | |
| DL6DJ-15 | 2026-09-04 23:30:40 | 49.46592 | 13.01092 | 85° | 128km/h | 13535m | 3.5m/s | -61.2°C | 18.1% | 162.4hPa | 2.6V | 00:00:00 | 00:00:00 | 00:00:00 | |
| OE3MUC-15 | 2026-09-04 23:30:36 | 49.46584 | 13.00943 | 86° | 128km/h | 13523m | 3.1m/s | 0°C | 0% | 0hPa | 2.6V | 00:00:00 | 00:00:00 | 00:00:00 | |
| SONDE2-11 | 2026-09-04 23:30:34 | 49.46576 | 13.00795 | 85° | 126km/h | 13511m | 4.5m/s | -61.4°C | 19.4% | 163.0hPa | 2.6V | 00:00:00 | 00:00:00 | 00:00:00 | |
| OE3MUC-15 | 2026-09-04 23:30:32 | 49.46574 | 13.00746 | 87° | 122km/h | 13507m | 4.2m/s | 0°C | 0% | 0hPa | 2.6V | 00:00:00 | 00:00:00 | 00:00:00 | |
| OE5MMP-10 | 2026-09-04 23:30:30 | 49.46571 | 13.00651 | 87° | 130km/h | 13500m | 4.5m/s | -61.6°C | 27.3% | 163.3hPa | 2.6V | 00:00:00 | 01:27:54 | 00:00:00 | |
| EDDB2-11 | 2026-09-04 23:30:29 | 49.46566 | 13.00556 | 85° | 122km/h | 13491m | 4.6m/s | -61.9°C | 20.1% | 163.6hPa | 2.6V | 00:00:00 | 00:00:00 | 00:00:00 | |
| OE3MUC-15 | 2026-09-04 23:30:28 | 49.46566 | 13.00556 | 86° | 128km/h | 13491m | 4.5m/s | 0°C | 0% | 0hPa | 2.6V | 00:00:00 | 00:00:00 | 00:00:00 | |
| OE5WHR-10 | 2026-09-04 23:30:27 | 49.46564 | 13.00508 | 87° | 124km/h | 13487m | 3.8m/s | -61.9°C | 28.1% | 163.6hPa | 2.6V | 00:00:00 | 00:00:00 | 00:00:00 | |
| PG1ADW-2 | 2026-09-04 23:30:26 | 49.46562 | 13.00459 | 86° | 126km/h | 13483m | 3.7m/s | -61.9°C | 27.7% | 163.7hPa | 2.6V | 00:00:00 | 00:00:00 | 00:00:00 | |
| OE3MUC-15 | 2026-09-04 23:30:24 | 49.46556 | 13.00357 | 84° | 135km/h | 13474m | 3.4m/s | 0°C | 0% | 0hPa | 2.6V | 00:00:00 | 00:00:00 | 00:00:00 | |
| OE5MMP-10 | 2026-09-04 23:30:20 | 49.46543 | 13.00150 | 86° | 120km/h | 13459m | 3.2m/s | -61.7°C | 27.7% | 164.3hPa | 2.6V | 00:00:00 | 01:27:44 | 00:00:00 | |
| S52SK | 2026-09-04 23:30:18 | 49.46541 | 13.00101 | 85° | 126km/h | 13455m | 4.7m/s | 0°C | 0% | 0hPa | 2.6V | 00:00:00 | 00:00:00 | 00:00:00 | |
| OE3MUC-15 | 2026-09-04 23:30:16 | 49.46531 | 12.99960 | 85° | 119km/h | 13444m | 4.3m/s | 0°C | 0% | 0hPa | 2.6V | 00:00:00 | 00:00:00 | 00:00:00 | |
| DO8TBO-1 | 2026-09-04 23:30:13 | 49.46525 | 12.99824 | 87° | 122km/h | 13431m | 3.5m/s | -61.6°C | 28.0% | 165.1hPa | 2.6V | 00:00:00 | 01:27:37 | 00:00:00 | |
| OE3MUC-15 | 2026-09-04 23:30:12 | 49.46523 | 12.99777 | 86° | 119km/h | 13427m | 4.6m/s | 0°C | 0% | 0hPa | 2.6V | 00:00:00 | 01:27:36 | 00:00:00 | |
| OE5MMP-10 | 2026-09-04 23:30:10 | 49.46519 | 12.99683 | 86° | 122km/h | 13418m | 4.8m/s | -61.5°C | 28.1% | 165.4hPa | 2.6V | 00:00:00 | 01:27:34 | 00:00:00 | |
| SP3BTT-10 | 2026-09-04 23:30:08 | 49.46514 | 12.99586 | 86° | 122km/h | 13410m | 2.9m/s | 0°C | 0% | 0hPa | 2.7V | 00:00:00 | 00:00:00 | 00:00:00 | |
| PG1ADW-2 | 2026-09-04 23:30:06 | 49.46508 | 12.99489 | 85° | 122km/h | 13402m | 3.6m/s | -61.4°C | 28.1% | 165.9hPa | 2.7V | 00:00:00 | 00:00:00 | 00:00:00 | |
| OE5WHR-10 | 2026-09-04 23:30:05 | 49.46506 | 12.99442 | 85° | 120km/h | 13398m | 3.6m/s | -61.4°C | 27.9% | 165.9hPa | 2.7V | 00:00:00 | 01:27:29 | 00:00:00 | |
| OE5DXL-15 | 2026-09-04 23:30:00 | 49.46495 | 12.99213 | 87° | 122km/h | 13377m | 4.5m/s | -61.5°C | 28.5% | 166.6hPa | 2.7V | 00:00:00 | 00:00:00 | 00:00:00 | |
| OE3MUC-15 | 2026-09-04 23:29:58 | 49.46492 | 12.99122 | 87° | 124km/h | 13369m | 4.0m/s | 0°C | 0% | 0hPa | 2.6V | 00:00:00 | 00:00:00 | 00:00:00 | |
| OE5MMP-10 | 2026-09-04 23:29:50 | 49.46473 | 12.98736 | 87° | 119km/h | 13336m | 3.7m/s | -61.2°C | 28.9% | 167.7hPa | 2.6V | 04:37:00 | 01:27:14 | 00:00:00 | |
| PG1ADW-2 | 2026-09-04 23:29:46 | 49.46466 | 12.98550 | 86° | 120km/h | 13319m | 3.9m/s | -61.1°C | 29.0% | 168.1hPa | 2.6V | 00:00:00 | 00:00:00 | 00:00:00 | |
| OE5WHR-10 | 2026-09-04 23:29:42 | 49.46460 | 12.98368 | 89° | 122km/h | 13303m | 3.6m/s | -60.9°C | 29.0% | 168.5hPa | 2.6V | 00:00:00 | 00:00:00 | 00:00:00 | |
| OE5MMP-10 | 2026-09-04 23:29:40 | 49.46458 | 12.98273 | 87° | 122km/h | 13295m | 3.9m/s | -60.9°C | 28.9% | 168.8hPa | 2.6V | 00:00:00 | 01:27:04 | 00:00:00 | |
| DL6DJ-15 | 2026-09-04 23:29:37 | 49.46450 | 12.98129 | 85° | 124km/h | 13281m | 4.5m/s | -60.8°C | 21.4% | 169.2hPa | 2.7V | 00:00:00 | 00:00:00 | 00:00:00 | |
| SONDE2-11 | 2026-09-04 23:29:32 | 49.46437 | 12.97845 | 88° | 119km/h | 13255m | 3.9m/s | -60.6°C | 21.1% | 169.9hPa | 2.7V | 00:00:00 | 00:00:00 | 00:00:00 | |
| OE5MMP-10 | 2026-09-04 23:29:30 | 49.46436 | 12.97799 | 88° | 122km/h | 13251m | 4.3m/s | -60.5°C | 28.6% | 170.0hPa | 2.7V | 00:00:00 | 01:26:54 | 00:00:00 | |
| EDDB2-11 | 2026-09-04 23:29:27 | 49.46431 | 12.97614 | 88° | 120km/h | 13233m | 5.1m/s | -60.4°C | 21.6% | 170.5hPa | 2.7V | 00:00:00 | 00:00:00 | 00:00:00 | |
| PG1ADW-2 | 2026-09-04 23:29:26 | 49.46431 | 12.97614 | 89° | 122km/h | 13233m | 5.1m/s | -60.3°C | 29.2% | 170.4hPa | 2.7V | 00:00:00 | 01:26:50 | 00:00:00 | |
| OE5MMP-10 | 2026-09-04 23:29:20 | 49.46418 | 12.97325 | 86° | 122km/h | 13207m | 4.8m/s | -60.1°C | 30.2% | 171.1hPa | 2.7V | 00:00:00 | 01:26:44 | 00:00:00 | |
| SP3BTT-10 | 2026-09-04 23:29:19 | 49.46416 | 12.97276 | 87° | 124km/h | 13202m | 3.6m/s | 0°C | 0% | 0hPa | 2.7V | 00:00:00 | 00:00:00 | 00:00:00 | |
| EDDB2-12 | 2026-09-04 23:29:18 | 49.46414 | 12.97228 | 86° | 122km/h | 13198m | 5.1m/s | -60.1°C | 22.5% | 171.4hPa | 2.7V | 00:00:00 | 00:00:00 | 00:00:00 | |
| DO8TBO-1 | 2026-09-04 23:29:17 | 49.46412 | 12.97181 | 88° | 122km/h | 13193m | 4.7m/s | -60.0°C | 30.4% | 171.5hPa | 2.7V | 04:38:00 | 01:26:41 | 00:00:00 | |
| OE5MMP-10 | 2026-09-04 23:29:10 | 49.46405 | 12.96856 | 87° | 122km/h | 13163m | 4.8m/s | -60.0°C | 32.2% | 172.4hPa | 2.7V | 00:00:00 | 01:26:34 | 00:00:00 | |
| OE5DRO-10 | 2026-09-04 23:29:08 | 49.46401 | 12.96761 | 87° | 122km/h | 13155m | 3.2m/s | -60.0°C | 32.7% | 172.7hPa | 2.6V | 00:00:00 | 00:00:00 | 00:00:00 | |
| DL6DJ-15 | 2026-09-04 23:29:06 | 49.46397 | 12.96664 | 84° | 122km/h | 13146m | 4.4m/s | -60.0°C | 25.0% | 172.9hPa | 2.7V | 00:00:00 | 00:00:00 | 00:00:00 | |
| S52SK | 2026-09-04 23:29:02 | 49.46390 | 12.96521 | 89° | 122km/h | 13132m | 4.5m/s | 0°C | 0% | 0hPa | 2.7V | 00:00:00 | 00:00:00 | 00:00:00 | |
| SONDE2-11 | 2026-09-04 23:29:01 | 49.46389 | 12.96381 | 89° | 117km/h | 13118m | 3.7m/s | -60.2°C | 27.2% | 173.7hPa | 2.7V | 00:00:00 | 00:00:00 | 00:00:00 | |
| EDDB2-11 | 2026-09-04 23:28:56 | 49.46389 | 12.96148 | 89° | 120km/h | 13097m | 4.7m/s | -60.2°C | 27.7% | 174.3hPa | 2.7V | 00:00:00 | 00:00:00 | 00:00:00 | |
| EDDB2-12 | 2026-09-04 23:28:47 | 49.46377 | 12.95758 | 86° | 124km/h | 13062m | 5.1m/s | -60.0°C | 27.8% | 175.2hPa | 2.7V | 00:00:00 | 00:00:00 | 00:00:00 | |
| DO8TBO-1 | 2026-09-04 23:28:44 | 49.46372 | 12.95616 | 87° | 119km/h | 13048m | 5.1m/s | -59.9°C | 36.7% | 175.6hPa | 2.7V | 00:00:00 | 01:26:08 | 00:00:00 | |
| PG1ADW-2 | 2026-09-04 23:28:42 | 49.46369 | 12.95524 | 88° | 120km/h | 13039m | 5.4m/s | -60.0°C | 37.4% | 175.8hPa | 2.6V | 04:38:00 | 00:00:00 | 00:00:00 | |
| OE5MMP-10 | 2026-09-04 23:28:40 | 49.46366 | 12.95432 | 88° | 122km/h | 13030m | 3.6m/s | -60.0°C | 38.0% | 176.1hPa | 2.7V | 00:00:00 | 01:26:04 | 00:00:00 | |
| DO3MHA-11 | 2026-09-04 23:28:36 | 49.46359 | 12.95243 | 88° | 124km/h | 13013m | 4.6m/s | -60.5°C | 40.4% | 176.6hPa | 2.6V | 00:00:00 | 01:26:00 | 00:00:00 | |
| DL6DJ-15 | 2026-09-04 23:28:35 | 49.46358 | 12.95194 | 87° | 124km/h | 13008m | 3.8m/s | -60.6°C | 31.6% | 176.8hPa | 2.7V | 00:00:00 | 00:00:00 | 00:00:00 | |
| SONDE2-11 | 2026-09-04 23:28:30 | 49.46350 | 12.94907 | 89° | 122km/h | 12982m | 3.3m/s | -61.2°C | 35.4% | 177.6hPa | 2.7V | 00:00:00 | 00:00:00 | 00:00:00 | |
| DO3MHA-11 | 2026-09-04 23:28:26 | 49.46349 | 12.94765 | 89° | 120km/h | 12969m | 4.1m/s | -61.5°C | 47.2% | 177.9hPa | 2.7V | 00:00:00 | 01:25:50 | 00:00:00 | |
| EDDB2-11 | 2026-09-04 23:28:25 | 49.46347 | 12.94673 | 88° | 119km/h | 12960m | 4.5m/s | -61.8°C | 38.4% | 178.2hPa | 2.7V | 00:00:00 | 00:00:00 | 00:00:00 | |
| PG1ADW-2 | 2026-09-04 23:28:21 | 49.46344 | 12.94534 | 87° | 119km/h | 12946m | 4.1m/s | -61.8°C | 50.1% | 178.5hPa | 2.7V | 00:00:00 | 00:00:00 | 00:00:00 | |
| OE5MMP-10 | 2026-09-04 23:28:20 | 49.46342 | 12.94488 | 87° | 119km/h | 12943m | 3.0m/s | -61.8°C | 49.5% | 178.6hPa | 2.7V | 00:00:00 | 01:25:44 | 00:00:00 | |
| DO3MHA-11 | 2026-09-04 23:28:16 | 49.46336 | 12.94302 | 87° | 117km/h | 12926m | 5.3m/s | -61.9°C | 49.4% | 179.1hPa | 2.7V | 00:00:00 | 01:25:40 | 00:00:00 | |
| OE5DRO-10 | 2026-09-04 23:28:11 | 49.46327 | 12.94074 | 88° | 115km/h | 12906m | 3.8m/s | -61.7°C | 48.9% | 179.7hPa | 2.7V | 04:39:00 | 00:00:00 | 00:00:00 | |
| OE5MMP-10 | 2026-09-04 23:28:10 | 49.46325 | 12.94029 | 87° | 115km/h | 12901m | 5.1m/s | -61.7°C | 48.6% | 179.8hPa | 2.7V | 04:39:00 | 01:25:34 | 00:00:00 | |
| SP3BTT-10 | 2026-09-04 23:28:08 | 49.46322 | 12.93940 | 87° | 113km/h | 12892m | 3.8m/s | 0°C | 0% | 0hPa | 2.7V | 00:00:00 | 00:00:00 | 00:00:00 | |
| DO3MHA-11 | 2026-09-04 23:28:06 | 49.46319 | 12.93852 | 87° | 115km/h | 12883m | 4.1m/s | -61.6°C | 49.2% | 180.3hPa | 2.7V | 04:39:00 | 01:25:30 | 00:00:00 | |
| DO8TBO-1 | 2026-09-04 23:28:04 | 49.46316 | 12.93763 | 88° | 115km/h | 12874m | 5.0m/s | -61.5°C | 49.0% | 180.6hPa | 2.6V | 00:00:00 | 01:25:28 | 00:00:00 | |
| NBG1-10 | 2026-09-04 23:28:02 | 49.46313 | 12.93675 | 88° | 128km/h | 12866m | 3.4m/s | -61.5°C | 48.9% | 180.8hPa | 2.6V | 04:39:00 | 01:25:26 | 00:00:00 | |
| SONCRA | 2026-09-04 23:27:59 | 49.46306 | 12.93492 | 86° | 115km/h | 12851m | 4.1m/s | -61.5°C | 38.9% | 181.3hPa | 2.6V | 00:00:00 | 00:00:00 | 00:00:00 | |
| SONDE2-11 | 2026-09-04 23:27:58 | 49.46306 | 12.93492 | 86° | 115km/h | 12851m | 4.1m/s | -61.5°C | 38.9% | 181.3hPa | 2.6V | 00:00:00 | 00:00:00 | 00:00:00 | |
| EDDB2-11 | 2026-09-04 23:27:54 | 49.46292 | 12.93278 | 81° | 110km/h | 12830m | 3.8m/s | -61.4°C | 40.5% | 181.9hPa | 2.6V | 00:00:00 | 00:00:00 | 00:00:00 | |
| EDDB2-12 | 2026-09-04 23:27:45 | 49.46268 | 12.92934 | 86° | 113km/h | 12801m | 4.4m/s | -61.4°C | 43.9% | 182.8hPa | 2.6V | 00:00:00 | 00:00:00 | 00:00:00 | |
| OE5MMP-10 | 2026-09-04 23:27:40 | 49.46255 | 12.92715 | 84° | 113km/h | 12781m | 3.4m/s | -61.2°C | 54.8% | 183.3hPa | 2.6V | 00:00:00 | 01:25:04 | 00:00:00 | |
| SP3BTT-10 | 2026-09-04 23:27:39 | 49.46250 | 12.92629 | 85° | 113km/h | 12773m | 4.4m/s | 0°C | 0% | 0hPa | 2.7V | 04:39:00 | 00:00:00 | 00:00:00 | |
| PG1ADW-2 | 2026-09-04 23:27:36 | 49.46245 | 12.92543 | 86° | 111km/h | 12765m | 4.0m/s | -61.2°C | 55.3% | 183.8hPa | 2.7V | 00:00:00 | 01:25:00 | 00:00:00 | |
| DO8TBO-1 | 2026-09-04 23:27:33 | 49.46240 | 12.92411 | 87° | 113km/h | 12753m | 4.1m/s | -61.1°C | 55.6% | 184.1hPa | 2.7V | 00:00:00 | 01:24:57 | 00:00:00 | |
| OE5MMP-10 | 2026-09-04 23:27:30 | 49.46235 | 12.92279 | 88° | 111km/h | 12741m | 4.9m/s | -61.1°C | 57.5% | 184.5hPa | 2.7V | 00:00:00 | 01:24:54 | 00:00:00 | |
| SONCRA | 2026-09-04 23:27:28 | 49.46232 | 12.92146 | 88° | 111km/h | 12729m | 4.6m/s | -61.3°C | 48.7% | 184.9hPa | 2.7V | 00:00:00 | 00:00:00 | 00:00:00 | |
| SONDE2-11 | 2026-09-04 23:27:27 | 49.46232 | 12.92146 | 88° | 111km/h | 12729m | 4.6m/s | -61.3°C | 48.7% | 184.9hPa | 2.7V | 00:00:00 | 00:00:00 | 00:00:00 | |
| EDDB2-11 | 2026-09-04 23:27:23 | 49.46224 | 12.91931 | 86° | 110km/h | 12708m | 4.9m/s | -61.5°C | 52.2% | 185.6hPa | 2.7V | 00:00:00 | 00:00:00 | 00:00:00 | |
| OE5MMP-10 | 2026-09-04 23:27:20 | 49.46220 | 12.91845 | 86° | 115km/h | 12700m | 2.8m/s | -61.4°C | 66.0% | 185.7hPa | 2.7V | 04:40:00 | 01:24:44 | 00:00:00 | |
| OE5DRO-10 | 2026-09-04 23:27:14 | 49.46206 | 12.91575 | 88° | 111km/h | 12676m | 3.4m/s | -61.4°C | 68.7% | 186.4hPa | 2.7V | 00:00:00 | 00:00:00 | 00:00:00 | |
| OE5MMP-10 | 2026-09-04 23:27:10 | 49.46202 | 12.91398 | 90° | 113km/h | 12659m | 4.8m/s | -61.2°C | 69.5% | 186.9hPa | 2.7V | 00:00:00 | 01:24:34 | 00:00:00 | |
| SP3BTT-10 | 2026-09-04 23:27:04 | 49.46197 | 12.91137 | 87° | 108km/h | 12636m | 4.2m/s | 0°C | 0% | 0hPa | 2.7V | 00:00:00 | 00:00:00 | 00:00:00 | |
| DO8TBO-1 | 2026-09-04 23:27:03 | 49.46195 | 12.91093 | 86° | 110km/h | 12632m | 3.2m/s | -61.0°C | 71.4% | 187.7hPa | 2.7V | 00:00:00 | 01:24:27 | 00:00:00 | |
| DL6DJ-15 | 2026-09-04 23:27:02 | 49.46193 | 12.91049 | 85° | 115km/h | 12629m | 4.3m/s | -61.0°C | 59.0% | 187.9hPa | 2.7V | 00:00:00 | 00:00:00 | 00:00:00 | |
| SONCRA | 2026-09-04 23:26:57 | 49.46178 | 12.90792 | 87° | 104km/h | 12606m | 3.7m/s | -61.2°C | 66.5% | 188.6hPa | 2.7V | 00:00:00 | 00:00:00 | 00:00:00 | |
| SONDE2-11 | 2026-09-04 23:26:56 | 49.46178 | 12.90792 | 87° | 104km/h | 12606m | 3.7m/s | -61.2°C | 66.5% | 188.6hPa | 2.7V | 00:00:00 | 00:00:00 | 00:00:00 | |
| EDDB2-11 | 2026-09-04 23:26:52 | 49.46172 | 12.90581 | 85° | 110km/h | 12588m | 3.5m/s | -61.4°C | 70.6% | 189.2hPa | 2.7V | 00:00:00 | 00:00:00 | 00:00:00 | |
| OE5MMP-10 | 2026-09-04 23:26:50 | 49.46170 | 12.90539 | 85° | 110km/h | 12585m | 3.7m/s | -61.3°C | 85.6% | 189.2hPa | 2.7V | 00:00:00 | 01:24:14 | 00:00:00 | |
| EDDB2-12 | 2026-09-04 23:26:43 | 49.46154 | 12.90242 | 85° | 106km/h | 12558m | 3.2m/s | -61.4°C | 73.6% | 190.1hPa | 2.7V | 00:00:00 | 00:00:00 | 00:00:00 | |
| DO3MHA-11 | 2026-09-04 23:26:41 | 49.46151 | 12.90159 | 87° | 106km/h | 12550m | 3.8m/s | -61.3°C | 88.0% | 190.3hPa | 2.7V | 00:00:00 | 01:24:05 | 00:00:00 | |
| OE5MMP-10 | 2026-09-04 23:26:40 | 49.46149 | 12.90117 | 87° | 108km/h | 12546m | 3.5m/s | -61.3°C | 87.7% | 190.4hPa | 2.7V | 00:00:00 | 01:24:04 | 00:00:00 | |
| OE5WHR-10 | 2026-09-04 23:26:37 | 49.46142 | 12.89989 | 86° | 104km/h | 12535m | 3.5m/s | -61.2°C | 88.4% | 190.7hPa | 2.7V | 00:00:00 | 00:00:00 | 00:00:00 | |
| OE5DRO-10 | 2026-09-04 23:26:36 | 49.46140 | 12.89947 | 86° | 106km/h | 12531m | 4.1m/s | -61.1°C | 88.1% | 190.8hPa | 2.7V | 04:40:00 | 00:00:00 | 00:00:00 | |
| PG1ADW-2 | 2026-09-04 23:26:35 | 49.46138 | 12.89906 | 87° | 104km/h | 12527m | 3.8m/s | -61.1°C | 88.2% | 191.0hPa | 2.7V | 04:40:00 | 00:00:00 | 00:00:00 | |
| DO8TBO-1 | 2026-09-04 23:26:33 | 49.46136 | 12.89825 | 88° | 104km/h | 12519m | 4.8m/s | -61.1°C | 87.2% | 191.2hPa | 2.7V | 04:40:00 | 01:23:57 | 00:00:00 | |
| DL6DJ-15 | 2026-09-04 23:26:31 | 49.46133 | 12.89741 | 87° | 108km/h | 12512m | 2.8m/s | -61.0°C | 73.4% | 191.5hPa | 2.7V | 00:00:00 | 00:00:00 | 00:00:00 | |
| OE5MMP-10 | 2026-09-04 23:26:30 | 49.46132 | 12.89699 | 88° | 106km/h | 12509m | 4.0m/s | -61.0°C | 88.1% | 191.5hPa | 2.7V | 04:40:00 | 01:23:54 | 00:00:00 | |
| OE5DXL-15 | 2026-09-04 23:26:29 | 49.46130 | 12.89658 | 87° | 104km/h | 12505m | 3.7m/s | -60.9°C | 88.5% | 191.6hPa | 2.7V | 04:40:00 | 00:00:00 | 00:00:00 | |
| SONCRA | 2026-09-04 23:26:26 | 49.46120 | 12.89495 | 83° | 104km/h | 12489m | 3.7m/s | -60.8°C | 74.5% | 192.2hPa | 2.7V | 00:00:00 | 00:00:00 | 00:00:00 | |
| SONDE2-11 | 2026-09-04 23:26:25 | 49.46120 | 12.89495 | 83° | 104km/h | 12489m | 3.7m/s | -60.8°C | 74.5% | 192.2hPa | 2.7V | 00:00:00 | 00:00:00 | 00:00:00 | |
| OE5MMP-10 | 2026-09-04 23:26:20 | 49.46106 | 12.89292 | 85° | 102km/h | 12471m | 3.3m/s | -60.6°C | 88.9% | 192.7hPa | 2.7V | 00:00:00 | 01:23:44 | 00:00:00 | |
| DO3MHA-11 | 2026-09-04 23:26:19 | 49.46103 | 12.89252 | 85° | 102km/h | 12467m | 4.4m/s | -60.6°C | 88.4% | 192.9hPa | 2.7V | 00:00:00 | 01:23:43 | 00:00:00 | |
| SP3BTT-10 | 2026-09-04 23:26:17 | 49.46099 | 12.89174 | 84° | 102km/h | 12459m | 3.9m/s | 0°C | 0% | 0hPa | 2.7V | 00:00:00 | 00:00:00 | 00:00:00 | |
| PG1ADW-2 | 2026-09-04 23:26:15 | 49.46092 | 12.89097 | 83° | 104km/h | 12451m | 3.2m/s | -60.5°C | 88.9% | 193.4hPa | 2.7V | 00:00:00 | 00:00:00 | 00:00:00 | |
| EDDB2-12 | 2026-09-04 23:26:12 | 49.46083 | 12.88979 | 84° | 102km/h | 12439m | 2.9m/s | -60.4°C | 74.5% | 193.8hPa | 2.7V | 00:00:00 | 00:00:00 | 00:00:00 | |
| OE5MMP-10 | 2026-09-04 23:26:10 | 49.46078 | 12.88897 | 84° | 104km/h | 12432m | 4.2m/s | -60.3°C | 88.0% | 193.9hPa | 2.7V | 00:00:00 | 01:23:34 | 00:00:00 | |
| DO3MHA-11 | 2026-09-04 23:26:09 | 49.46075 | 12.88856 | 84° | 104km/h | 12429m | 3.3m/s | -60.3°C | 88.2% | 194.1hPa | 2.7V | 00:00:00 | 01:23:33 | 00:00:00 | |
| DO8TBO-1 | 2026-09-04 23:26:03 | 49.46060 | 12.88612 | 85° | 102km/h | 12406m | 3.4m/s | -60.1°C | 87.4% | 194.8hPa | 2.7V | 00:00:00 | 01:23:27 | 00:00:00 | |
| DL6DJ-15 | 2026-09-04 23:26:00 | 49.46053 | 12.88495 | 84° | 99km/h | 12395m | 3.4m/s | -60.2°C | 73.2% | 195.2hPa | 2.7V | 00:00:00 | 00:00:00 | 00:00:00 | |
| SONDE2-11 | 2026-09-04 23:25:54 | 49.46033 | 12.88257 | 83° | 100km/h | 12372m | 3.8m/s | -60.0°C | 71.1% | 195.8hPa | 2.7V | 00:00:00 | 00:00:00 | 00:00:00 | |
| EDDB2-11 | 2026-09-04 23:25:50 | 49.46020 | 12.88057 | 85° | 104km/h | 12354m | 4.7m/s | -59.9°C | 69.5% | 196.5hPa | 2.7V | 00:00:00 | 00:00:00 | 00:00:00 | |
| DO3MHA-11 | 2026-09-04 23:25:49 | 49.46019 | 12.88057 | 86° | 102km/h | 12354m | 4.7m/s | -59.8°C | 83.3% | 196.4hPa | 2.7V | 00:00:00 | 01:23:13 | 00:00:00 | |
| SP3BTT-10 | 2026-09-04 23:25:47 | 49.46016 | 12.87976 | 86° | 100km/h | 12346m | 3.2m/s | 0°C | 0% | 0hPa | 2.7V | 00:00:00 | 00:00:00 | 00:00:00 | |
| EDDB2-12 | 2026-09-04 23:25:41 | 49.46001 | 12.87692 | 85° | 99km/h | 12319m | 4.4m/s | -59.6°C | 66.0% | 197.5hPa | 2.7V | 00:00:00 | 00:00:00 | 00:00:00 | |
| OE5MMP-10 | 2026-09-04 23:25:40 | 49.46001 | 12.87692 | 86° | 102km/h | 12319m | 4.4m/s | -59.6°C | 79.2% | 197.4hPa | 2.7V | 04:41:00 | 01:23:04 | 00:00:00 | |
| OE5DRO-10 | 2026-09-04 23:25:39 | 49.45999 | 12.87653 | 85° | 100km/h | 12314m | 4.9m/s | -59.5°C | 78.7% | 197.6hPa | 2.7V | 00:00:00 | 00:00:00 | 00:00:00 | |
| DL1JEZ-13 | 2026-09-04 23:25:37 | 49.45993 | 12.87577 | 85° | 99km/h | 12306m | 4.2m/s | -59.6°C | 65.5% | 197.9hPa | 2.7V | 00:00:00 | 00:00:00 | 00:00:00 | |
| PG1ADW-2 | 2026-09-04 23:25:35 | 49.45989 | 12.87501 | 86° | 102km/h | 12297m | 3.8m/s | -59.5°C | 78.3% | 198.2hPa | 2.7V | 00:00:00 | 00:00:00 | 00:00:00 | |
| DO8TBO-1 | 2026-09-04 23:25:33 | 49.45985 | 12.87420 | 87° | 102km/h | 12288m | 4.0m/s | -59.4°C | 78.6% | 198.4hPa | 2.7V | 00:00:00 | 01:22:57 | 00:00:00 | |
| DO3MHA-11 | 2026-09-04 23:25:32 | 49.45984 | 12.87379 | 88° | 102km/h | 12284m | 3.0m/s | -59.3°C | 78.2% | 198.6hPa | 2.7V | 00:00:00 | 01:22:56 | 00:00:00 | |
| OE5MMP-10 | 2026-09-04 23:25:30 | 49.45982 | 12.87295 | 89° | 100km/h | 12276m | 3.8m/s | -59.3°C | 78.3% | 198.8hPa | 2.7V | 00:00:00 | 01:22:54 | 00:00:00 | |
| DL6DJ-15 | 2026-09-04 23:25:29 | 49.45979 | 12.87214 | 85° | 102km/h | 12269m | 4.7m/s | -59.3°C | 63.7% | 199.1hPa | 2.7V | 00:00:00 | 00:00:00 | 00:00:00 | |
| SONDE2-11 | 2026-09-04 23:25:23 | 49.45968 | 12.87026 | 84° | 95km/h | 12248m | 3.7m/s | -59.1°C | 64.0% | 199.8hPa | 2.7V | 00:00:00 | 00:00:00 | 00:00:00 | |
| DO3MHA-11 | 2026-09-04 23:25:22 | 49.45965 | 12.86988 | 85° | 102km/h | 12244m | 4.4m/s | -59.0°C | 76.3% | 199.8hPa | 2.7V | 00:00:00 | 01:22:46 | 00:00:00 | |
| OE5MMP-10 | 2026-09-04 23:25:20 | 49.45960 | 12.86910 | 85° | 104km/h | 12235m | 3.4m/s | -59.0°C | 77.1% | 200.1hPa | 2.7V | 00:00:00 | 01:22:44 | 00:00:00 | |
| EDDB2-11 | 2026-09-04 23:25:18 | 49.45957 | 12.86828 | 88° | 104km/h | 12227m | 4.4m/s | -59.0°C | 64.4% | 200.4hPa | 2.7V | 00:00:00 | 00:00:00 | 00:00:00 | |
| PG1ADW-2 | 2026-09-04 23:25:15 | 49.45956 | 12.86708 | 89° | 100km/h | 12215m | 3.8m/s | -58.8°C | 76.5% | 200.8hPa | 2.7V | 00:00:00 | 00:00:00 | 00:00:00 | |
| DO3MHA-11 | 2026-09-04 23:25:12 | 49.45953 | 12.86590 | 88° | 102km/h | 12202m | 4.1m/s | -58.7°C | 75.5% | 201.2hPa | 2.7V | 00:00:00 | 01:22:36 | 00:00:00 | |
| OE5MMP-10 | 2026-09-04 23:25:10 | 49.45951 | 12.86510 | 88° | 100km/h | 12194m | 3.8m/s | -58.7°C | 75.1% | 201.5hPa | 2.7V | 00:00:00 | 01:22:34 | 00:00:00 | |
| DO8TBO-1 | 2026-09-04 23:25:03 | 49.45942 | 12.86236 | 90° | 100km/h | 12165m | 3.9m/s | -58.4°C | 73.6% | 202.4hPa | 2.7V | 00:00:00 | 01:22:27 | 00:00:00 | |
| DO3MHA-11 | 2026-09-04 23:25:02 | 49.45942 | 12.86196 | 89° | 97km/h | 12161m | 4.5m/s | -58.4°C | 73.8% | 202.5hPa | 2.7V | 04:42:00 | 01:22:26 | 00:00:00 | |
| DL6DJ-15 | 2026-09-04 23:24:58 | 49.45940 | 12.86004 | 88° | 95km/h | 12139m | 4.8m/s | -58.2°C | 60.9% | 203.3hPa | 2.7V | 00:00:00 | 00:00:00 | 00:00:00 | |
| PG1ADW-2 | 2026-09-04 23:24:55 | 49.45939 | 12.85931 | 88° | 99km/h | 12131m | 3.9m/s | -58.1°C | 73.2% | 203.4hPa | 2.7V | 04:42:00 | 00:00:00 | 00:00:00 | |
| DO3MHA-11 | 2026-09-04 23:24:52 | 49.45937 | 12.85821 | 89° | 102km/h | 12117m | 4.0m/s | -57.9°C | 73.4% | 203.9hPa | 2.7V | 00:00:00 | 01:22:16 | 00:00:00 | |
| OE5MMP-10 | 2026-09-04 23:24:50 | 49.45935 | 12.85743 | 88° | 100km/h | 12107m | 4.3m/s | -57.8°C | 73.8% | 204.2hPa | 2.7V | 04:42:00 | 01:22:14 | 00:00:00 | |
| SP3BTT-10 | 2026-09-04 23:24:47 | 49.45933 | 12.85621 | 91° | 100km/h | 12094m | 3.5m/s | 0°C | 0% | 0hPa | 2.7V | 00:00:00 | 00:00:00 | 00:00:00 | |
| DO3MHA-11 | 2026-09-04 23:24:42 | 49.45934 | 12.85428 | 91° | 99km/h | 12072m | 5.6m/s | -57.5°C | 73.8% | 205.4hPa | 2.7V | 00:00:00 | 01:22:06 | 00:00:00 | |
| OE5MMP-10 | 2026-09-04 23:24:40 | 49.45934 | 12.85352 | 91° | 99km/h | 12062m | 4.8m/s | -57.4°C | 74.0% | 205.7hPa | 2.7V | 00:00:00 | 01:22:04 | 00:00:00 | |
| OE5WHR-10 | 2026-09-04 23:24:39 | 49.45935 | 12.85314 | 91° | 100km/h | 12058m | 5.0m/s | -57.4°C | 74.5% | 205.8hPa | 2.7V | 00:00:00 | 00:00:00 | 00:00:00 | |
| PG1ADW-2 | 2026-09-04 23:24:35 | 49.45935 | 12.85160 | 90° | 100km/h | 12039m | 4.3m/s | -57.3°C | 75.1% | 206.4hPa | 2.7V | 00:00:00 | 01:21:59 | 00:00:00 | |
| DO3MHA-11 | 2026-09-04 23:24:32 | 49.45934 | 12.85044 | 90° | 99km/h | 12026m | 5.6m/s | -57.2°C | 76.4% | 206.9hPa | 2.7V | 00:00:00 | 01:21:56 | 00:00:00 | |
| DO8TBO-1 | 2026-09-04 23:24:31 | 49.45934 | 12.85005 | 90° | 100km/h | 12020m | 4.4m/s | -57.1°C | 77.6% | 207.1hPa | 2.7V | 00:00:00 | 01:21:55 | 00:00:00 | |
| OE5MMP-10 | 2026-09-04 23:24:30 | 49.45933 | 12.84966 | 90° | 99km/h | 12017m | 3.3m/s | -57.1°C | 77.5% | 207.2hPa | 2.7V | 00:00:00 | 01:21:54 | 00:00:00 | |
| OE5DXL-15 | 2026-09-04 23:24:29 | 49.45933 | 12.84927 | 90° | 100km/h | 12012m | 5.4m/s | -57.0°C | 77.1% | 207.3hPa | 2.7V | 00:00:00 | 00:00:00 | 00:00:00 | |
| DL6DJ-15 | 2026-09-04 23:24:27 | 49.45932 | 12.84815 | 89° | 97km/h | 11998m | 5.5m/s | -57.0°C | 64.5% | 207.8hPa | 2.7V | 00:00:00 | 00:00:00 | 00:00:00 | |
| OE5DRO-10 | 2026-09-04 23:24:23 | 49.45932 | 12.84700 | 91° | 100km/h | 11985m | 5.5m/s | -56.8°C | 76.4% | 208.2hPa | 2.7V | 00:00:00 | 00:00:00 | 00:00:00 | |
| DO3MHA-11 | 2026-09-04 23:24:22 | 49.45932 | 12.84663 | 90° | 100km/h | 11980m | 3.8m/s | -56.8°C | 76.6% | 208.3hPa | 2.7V | 00:00:00 | 01:21:46 | 00:00:00 | |
| SONDE2-11 | 2026-09-04 23:24:21 | 49.45932 | 12.84625 | 89° | 99km/h | 11976m | 5.0m/s | -56.8°C | 64.6% | 208.5hPa | 2.7V | 00:00:00 | 00:00:00 | 00:00:00 | |
| OE5MMP-10 | 2026-09-04 23:24:20 | 49.45932 | 12.84586 | 90° | 100km/h | 11971m | 4.7m/s | -56.7°C | 77.3% | 208.7hPa | 2.7V | 00:00:00 | 01:21:44 | 00:00:00 | |
| OE5WHR-10 | 2026-09-04 23:24:17 | 49.45932 | 12.84465 | 92° | 100km/h | 11958m | 5.1m/s | -56.5°C | 76.4% | 209.1hPa | 2.7V | 00:00:00 | 00:00:00 | 00:00:00 | |
| EDDB2-11 | 2026-09-04 23:24:16 | 49.45932 | 12.84426 | 91° | 100km/h | 11953m | 4.1m/s | -56.5°C | 64.7% | 209.3hPa | 2.7V | 00:00:00 | 00:00:00 | 00:00:00 | |
| PG1ADW-2 | 2026-09-04 23:24:15 | 49.45933 | 12.84387 | 92° | 100km/h | 11949m | 4.1m/s | -56.5°C | 75.9% | 209.4hPa | 2.7V | 00:00:00 | 00:00:00 | 00:00:00 | |
| DO3MHA-11 | 2026-09-04 23:24:12 | 49.45931 | 12.84271 | 88° | 100km/h | 11935m | 3.9m/s | -56.3°C | 75.6% | 209.9hPa | 2.7V | 04:43:00 | 01:21:36 | 00:00:00 | |
| OE5MMP-10 | 2026-09-04 23:24:10 | 49.45929 | 12.84194 | 89° | 100km/h | 11926m | 4.9m/s | -56.2°C | 75.1% | 210.2hPa | 2.7V | 00:00:00 | 01:21:34 | 00:00:00 | |
| EDDB2-12 | 2026-09-04 23:24:08 | 49.45927 | 12.84078 | 88° | 102km/h | 11912m | 5.1m/s | -56.2°C | 62.4% | 210.7hPa | 2.7V | 00:00:00 | 00:00:00 | 00:00:00 | |
| SP3BTT-10 | 2026-09-04 23:24:07 | 49.45927 | 12.84078 | 89° | 102km/h | 11912m | 5.0m/s | 0°C | 0% | 0hPa | 2.7V | 00:00:00 | 00:00:00 | 00:00:00 | |
| OE5DRO-10 | 2026-09-04 23:24:04 | 49.45926 | 12.83958 | 90° | 100km/h | 11898m | 4.5m/s | -56.0°C | 74.3% | 211.1hPa | 2.7V | 00:00:00 | 00:00:00 | 00:00:00 | |
| DO3MHA-11 | 2026-09-04 23:24:02 | 49.45925 | 12.83880 | 90° | 102km/h | 11889m | 4.9m/s | -55.9°C | 73.0% | 211.4hPa | 2.7V | 00:00:00 | 01:21:26 | 00:00:00 | |
| DL6DJ-15 | 2026-09-04 23:23:56 | 49.45925 | 12.83604 | 91° | 104km/h | 11855m | 3.7m/s | -55.6°C | 62.6% | 212.6hPa | 2.7V | 00:00:00 | 00:00:00 | 00:00:00 | |
| PG1ADW-2 | 2026-09-04 23:23:55 | 49.45925 | 12.83604 | 92° | 102km/h | 11856m | 3.7m/s | -55.6°C | 74.0% | 212.5hPa | 2.7V | 00:00:00 | 00:00:00 | 00:00:00 | |
| OE5MMP-10 | 2026-09-04 23:23:50 | 49.45927 | 12.83406 | 89° | 100km/h | 11834m | 4.3m/s | -55.4°C | 74.0% | 213.3hPa | 2.7V | 00:00:00 | 01:21:14 | 00:00:00 | |
| OE5DRO-10 | 2026-09-04 23:23:45 | 49.45924 | 12.83211 | 90° | 102km/h | 11812m | 4.8m/s | -55.2°C | 72.9% | 214.0hPa | 2.7V | 00:00:00 | 00:00:00 | 00:00:00 | |
| DO8TBO-1 | 2026-09-04 23:23:44 | 49.45924 | 12.83172 | 89° | 104km/h | 11807m | 4.5m/s | -55.2°C | 73.0% | 214.1hPa | 2.7V | 04:43:00 | 01:21:08 | 00:00:00 | |
| OE5MMP-10 | 2026-09-04 23:23:40 | 49.45923 | 12.83017 | 91° | 104km/h | 11790m | 3.4m/s | -55.0°C | 73.4% | 214.7hPa | 2.7V | 00:00:00 | 01:21:04 | 00:00:00 | |
| EDDB2-12 | 2026-09-04 23:23:37 | 49.45923 | 12.82856 | 90° | 104km/h | 11772m | 4.8m/s | -54.9°C | 62.9% | 215.4hPa | 2.7V | 00:00:00 | 00:00:00 | 00:00:00 | |
| PG1ADW-2 | 2026-09-04 23:23:35 | 49.45923 | 12.82816 | 90° | 104km/h | 11768m | 4.7m/s | -54.8°C | 74.2% | 215.4hPa | 2.7V | 00:00:00 | 00:00:00 | 00:00:00 | |
| OE5MMP-10 | 2026-09-04 23:23:30 | 49.45924 | 12.82616 | 91° | 102km/h | 11745m | 3.8m/s | -54.6°C | 74.0% | 216.2hPa | 2.7V | 00:00:00 | 01:20:54 | 00:00:00 | |
| OE5DXL-15 | 2026-09-04 23:23:29 | 49.45924 | 12.82578 | 91° | 104km/h | 11741m | 5.2m/s | -54.5°C | 73.9% | 216.4hPa | 2.7V | 00:00:00 | 00:00:00 | 00:00:00 | |
| OE5DRO-10 | 2026-09-04 23:23:26 | 49.45924 | 12.82460 | 91° | 104km/h | 11727m | 4.3m/s | -54.4°C | 73.8% | 216.8hPa | 2.7V | 04:43:00 | 00:00:00 | 00:00:00 | |
| DL6DJ-15 | 2026-09-04 23:23:25 | 49.45924 | 12.82382 | 89° | 100km/h | 11717m | 4.0m/s | -54.4°C | 63.2% | 217.2hPa | 2.7V | 00:00:00 | 00:00:00 | 00:00:00 | |
| SONCRA | 2026-09-04 23:23:19 | 49.45922 | 12.82179 | 90° | 104km/h | 11694m | 3.8m/s | -54.2°C | 64.5% | 218.0hPa | 2.7V | 00:00:00 | 00:00:00 | 00:00:00 | |
| PG1ADW-2 | 2026-09-04 23:23:15 | 49.45921 | 12.82014 | 90° | 104km/h | 11677m | 4.2m/s | -54.0°C | 74.9% | 218.5hPa | 2.7V | 04:44:00 | 01:20:39 | 00:00:00 | |
| OE5WHR-10 | 2026-09-04 23:23:14 | 49.45922 | 12.81972 | 92° | 104km/h | 11672m | 5.5m/s | -53.9°C | 74.8% | 218.7hPa | 2.7V | 04:44:00 | 00:00:00 | 00:00:00 | |
| OE5MMP-10 | 2026-09-04 23:23:10 | 49.45924 | 12.81812 | 90° | 102km/h | 11654m | 3.8m/s | -53.7°C | 75.9% | 219.3hPa | 2.7V | 04:44:00 | 01:20:34 | 00:00:00 | |
| DL1JEZ-13 | 2026-09-04 23:23:09 | 49.45924 | 12.81812 | 90° | 100km/h | 11654m | 3.8m/s | -53.8°C | 0% | 219.4hPa | 2.7V | 00:00:00 | 00:00:00 | 00:00:00 | |
| OE5DRO-10 | 2026-09-04 23:23:07 | 49.45923 | 12.81695 | 90° | 104km/h | 11640m | 4.4m/s | -53.6°C | 75.6% | 219.8hPa | 2.7V | 00:00:00 | 00:00:00 | 00:00:00 | |
| EDDB2-12 | 2026-09-04 23:23:06 | 49.45922 | 12.81617 | 88° | 102km/h | 11631m | 5.1m/s | -53.6°C | 64.7% | 220.2hPa | 2.7V | 00:00:00 | 00:00:00 | 00:00:00 | |
| DL6DJ-15 | 2026-09-04 23:22:54 | 49.45920 | 12.81124 | 87° | 106km/h | 11576m | 4.9m/s | -53.1°C | 63.0% | 222.0hPa | 2.7V | 00:00:00 | 00:00:00 | 00:00:00 | |
| OE5WHR-10 | 2026-09-04 23:22:53 | 49.45920 | 12.81124 | 88° | 104km/h | 11576m | 4.8m/s | -53.0°C | 73.6% | 221.9hPa | 2.7V | 00:00:00 | 01:20:17 | 00:00:00 | |
| ANDY1245 | 2026-09-04 23:22:52 | 49.45920 | 12.81124 | 89° | 106km/h | 11576m | 4.9m/s | 0°C | 0% | 0hPa | 2.7V | 00:00:00 | 00:00:00 | 00:00:00 | |
| OE5MMP-10 | 2026-09-04 23:22:50 | 49.45916 | 12.81002 | 88° | 104km/h | 11563m | 4.5m/s | -52.9°C | 74.3% | 222.4hPa | 2.7V | 00:00:00 | 01:20:14 | 00:00:00 | |
| OE5DRO-10 | 2026-09-04 23:22:48 | 49.45914 | 12.80923 | 88° | 102km/h | 11554m | 4.8m/s | -52.8°C | 73.5% | 222.7hPa | 2.7V | 00:00:00 | 00:00:00 | 00:00:00 | |
| DO3MHA-11 | 2026-09-04 23:22:46 | 49.45912 | 12.80844 | 89° | 104km/h | 11545m | 4.2m/s | -52.8°C | 73.6% | 223.1hPa | 2.7V | 00:00:00 | 01:20:10 | 00:00:00 | |
| DO8TBO-1 | 2026-09-04 23:22:44 | 49.45911 | 12.80763 | 91° | 104km/h | 11536m | 3.5m/s | -52.7°C | 73.4% | 223.3hPa | 2.7V | 00:00:00 | 01:20:08 | 00:00:00 | |
| EDDB2-11 | 2026-09-04 23:22:43 | 49.45912 | 12.80723 | 90° | 104km/h | 11532m | 4.1m/s | -52.7°C | 62.2% | 223.5hPa | 2.7V | 00:00:00 | 00:00:00 | 00:00:00 | |
| OE5MMP-10 | 2026-09-04 23:22:40 | 49.45911 | 12.80601 | 89° | 102km/h | 11519m | 3.3m/s | -52.5°C | 71.5% | 223.9hPa | 2.7V | 00:00:00 | 01:20:04 | 00:00:00 | |
| DO3MHA-11 | 2026-09-04 23:22:36 | 49.45909 | 12.80439 | 88° | 102km/h | 11501m | 4.9m/s | -52.4°C | 69.0% | 224.6hPa | 2.7V | 00:00:00 | 01:20:00 | 00:00:00 | |
| PG1ADW-2 | 2026-09-04 23:22:35 | 49.45908 | 12.80400 | 88° | 102km/h | 11497m | 3.7m/s | -52.3°C | 68.8% | 224.8hPa | 2.7V | 00:00:00 | 00:00:00 | 00:00:00 | |
| EDDB2-12 | 2026-09-04 23:22:34 | 49.45906 | 12.80360 | 86° | 102km/h | 11492m | 5.2m/s | -52.3°C | 58.5% | 224.9hPa | 2.7V | 00:00:00 | 00:00:00 | 00:00:00 | |
| OE5WHR-10 | 2026-09-04 23:22:32 | 49.45903 | 12.80281 | 87° | 104km/h | 11484m | 3.7m/s | -52.2°C | 68.0% | 225.2hPa | 2.7V | 00:00:00 | 00:00:00 | 00:00:00 | |
| OE5MMP-10 | 2026-09-04 23:22:30 | 49.45901 | 12.80202 | 88° | 104km/h | 11475m | 4.3m/s | -52.1°C | 67.9% | 225.5hPa | 2.7V | 00:00:00 | 01:19:54 | 00:00:00 | |
| OE5DXL-15 | 2026-09-04 23:22:29 | 49.45900 | 12.80163 | 89° | 104km/h | 11471m | 4.2m/s | -52.1°C | 68.2% | 225.6hPa | 2.7V | 00:00:00 | 00:00:00 | 00:00:00 | |
| DO3MHA-11 | 2026-09-04 23:22:24 | 49.45897 | 12.79961 | 90° | 104km/h | 11449m | 4.2m/s | -51.9°C | 68.5% | 226.4hPa | 2.7V | 00:00:00 | 01:19:48 | 00:00:00 | |
| DL6DJ-15 | 2026-09-04 23:22:22 | 49.45897 | 12.79882 | 89° | 102km/h | 11441m | 4.6m/s | -51.9°C | 58.1% | 226.7hPa | 2.7V | 00:00:00 | 00:00:00 | 00:00:00 | |
| ANDY1245 | 2026-09-04 23:22:21 | 49.45897 | 12.79882 | 91° | 104km/h | 11441m | 4.6m/s | 0°C | 0% | 0hPa | 2.7V | 00:00:00 | 00:00:00 | 00:00:00 | |
| OE5MMP-10 | 2026-09-04 23:22:20 | 49.45896 | 12.79801 | 90° | 104km/h | 11432m | 3.8m/s | -51.7°C | 67.8% | 227.0hPa | 2.7V | 04:45:00 | 01:19:44 | 00:00:00 | |
| SONDE2-11 | 2026-09-04 23:22:17 | 49.45893 | 12.79643 | 86° | 104km/h | 11416m | 4.7m/s | -51.6°C | 57.8% | 227.6hPa | 2.7V | 00:00:00 | 00:00:00 | 00:00:00 | |
| PG1ADW-2 | 2026-09-04 23:22:15 | 49.45891 | 12.79602 | 87° | 104km/h | 11411m | 4.2m/s | -51.5°C | 67.5% | 227.7hPa | 2.7V | 00:00:00 | 00:00:00 | 00:00:00 | |
| DO8TBO-1 | 2026-09-04 23:22:14 | 49.45889 | 12.79560 | 86° | 104km/h | 11407m | 4.1m/s | -51.5°C | 67.4% | 227.9hPa | 2.7V | 00:00:00 | 01:19:38 | 00:00:00 | |
| DO3MHA-11 | 2026-09-04 23:22:13 | 49.45887 | 12.79519 | 86° | 106km/h | 11403m | 4.6m/s | -51.5°C | 67.4% | 228.0hPa | 2.7V | 04:45:00 | 01:19:37 | 00:00:00 | |
| EDDB2-11 | 2026-09-04 23:22:12 | 49.45885 | 12.79478 | 86° | 104km/h | 11398m | 3.5m/s | -51.5°C | 57.6% | 228.2hPa | 2.7V | 00:00:00 | 00:00:00 | 00:00:00 | |
| OE5WHR-10 | 2026-09-04 23:22:11 | 49.45884 | 12.79436 | 88° | 104km/h | 11395m | 3.9m/s | -51.4°C | 66.6% | 228.3hPa | 2.7V | 00:00:00 | 00:00:00 | 00:00:00 | |
| OE5MMP-10 | 2026-09-04 23:22:10 | 49.45883 | 12.79395 | 90° | 104km/h | 11390m | 4.6m/s | -51.3°C | 66.6% | 228.5hPa | 2.7V | 00:00:00 | 01:19:34 | 00:00:00 | |
| DO3MHA-11 | 2026-09-04 23:22:03 | 49.45878 | 12.79111 | 88° | 104km/h | 11360m | 3.9m/s | -51.1°C | 65.6% | 229.5hPa | 2.7V | 00:00:00 | 01:19:27 | 00:00:00 | |
| DL6DJ-15 | 2026-09-04 23:21:51 | 49.45854 | 12.78628 | 85° | 102km/h | 11308m | 5.2m/s | -50.7°C | 55.1% | 231.4hPa | 2.7V | 00:00:00 | 00:00:00 | 00:00:00 | |
| SONDE2-11 | 2026-09-04 23:21:46 | 49.45841 | 12.78385 | 84° | 102km/h | 11282m | 4.5m/s | -50.5°C | 52.8% | 232.3hPa | 2.7V | 00:00:00 | 00:00:00 | 00:00:00 | |
| DO8TBO-1 | 2026-09-04 23:21:44 | 49.45839 | 12.78345 | 85° | 104km/h | 11278m | 3.3m/s | -50.4°C | 61.1% | 232.4hPa | 2.7V | 00:00:00 | 01:19:08 | 00:00:00 | |
| EDDB2-11 | 2026-09-04 23:21:41 | 49.45833 | 12.78222 | 85° | 106km/h | 11266m | 3.3m/s | -50.3°C | 51.0% | 232.9hPa | 2.7V | 00:00:00 | 00:00:00 | 00:00:00 | |
| DO3MHA-11 | 2026-09-04 23:21:40 | 49.45831 | 12.78182 | 86° | 104km/h | 11262m | 5.0m/s | -50.2°C | 58.8% | 233.0hPa | 2.7V | 00:00:00 | 01:19:04 | 00:00:00 | |
| PG1ADW-2 | 2026-09-04 23:21:35 | 49.45821 | 12.77979 | 87° | 104km/h | 11241m | 3.7m/s | -50.0°C | 57.3% | 233.7hPa | 2.7V | 04:45:00 | 00:00:00 | 00:00:00 | |
| OE5DRO-10 | 2026-09-04 23:21:32 | 49.45816 | 12.77859 | 87° | 104km/h | 11228m | 4.1m/s | -49.9°C | 56.9% | 234.2hPa | 2.7V | 00:00:00 | 00:00:00 | 00:00:00 | |
| DO3MHA-11 | 2026-09-04 23:21:30 | 49.45812 | 12.77777 | 87° | 104km/h | 11220m | 3.4m/s | -49.8°C | 57.0% | 234.5hPa | 2.7V | 00:00:00 | 01:18:54 | 00:00:00 | |
| OE5DXL-15 | 2026-09-04 23:21:29 | 49.45810 | 12.77736 | 86° | 106km/h | 11216m | 4.4m/s | -49.8°C | 56.5% | 234.6hPa | 2.7V | 04:45:00 | 00:00:00 | 00:00:00 | |
| OE5WHR-10 | 2026-09-04 23:21:25 | 49.45802 | 12.77574 | 87° | 104km/h | 11199m | 4.0m/s | -49.6°C | 56.5% | 235.3hPa | 2.7V | 04:45:00 | 00:00:00 | 00:00:00 | |
| DO3MHA-11 | 2026-09-04 23:21:20 | 49.45794 | 12.77373 | 88° | 104km/h | 11177m | 4.7m/s | -49.4°C | 55.9% | 236.0hPa | 2.7V | 04:46:00 | 01:18:44 | 00:00:00 | |
| PG1ADW-2 | 2026-09-04 23:21:15 | 49.45789 | 12.77169 | 89° | 104km/h | 11156m | 4.4m/s | -49.2°C | 55.7% | 236.8hPa | 2.7V | 00:00:00 | 00:00:00 | 00:00:00 | |
| DO8TBO-1 | 2026-09-04 23:21:14 | 49.45788 | 12.77129 | 89° | 106km/h | 11151m | 4.8m/s | -49.2°C | 56.2% | 236.9hPa | 2.7V | 04:46:00 | 01:18:38 | 00:00:00 | |
| OE5DRO-10 | 2026-09-04 23:21:13 | 49.45788 | 12.77089 | 89° | 104km/h | 11147m | 3.3m/s | -49.2°C | 56.6% | 237.1hPa | 2.7V | 00:00:00 | 00:00:00 | 00:00:00 | |
| OE5MMP-10 | 2026-09-04 23:21:10 | 49.45785 | 12.76971 | 88° | 108km/h | 11136m | 3.3m/s | -49.0°C | 56.8% | 237.5hPa | 2.7V | 00:00:00 | 01:18:34 | 00:00:00 | |
| OE5WHR-10 | 2026-09-04 23:21:03 | 49.45773 | 12.76679 | 88° | 108km/h | 11106m | 4.3m/s | -48.8°C | 59.8% | 238.6hPa | 2.7V | 00:00:00 | 00:00:00 | 00:00:00 | |
| EDDB2-12 | 2026-09-04 23:21:01 | 49.45771 | 12.76596 | 88° | 106km/h | 11098m | 3.6m/s | -48.7°C | 52.5% | 238.9hPa | 2.7V | 00:00:00 | 00:00:00 | 00:00:00 | |
| DL6DJ-15 | 2026-09-04 23:20:49 | 49.45761 | 12.76109 | 86° | 117km/h | 11049m | 3.9m/s | -48.3°C | 50.4% | 240.7hPa | 2.7V | 00:00:00 | 00:00:00 | 00:00:00 | |
| SONDE2-11 | 2026-09-04 23:20:44 | 49.45751 | 12.75853 | 87° | 100km/h | 11024m | 4.8m/s | -48.0°C | 51.3% | 241.6hPa | 2.7V | 00:00:00 | 00:00:00 | 00:00:00 | |
| OE5WHR-10 | 2026-09-04 23:20:42 | 49.45749 | 12.75814 | 87° | 106km/h | 11019m | 5.0m/s | -47.9°C | 59.3% | 241.7hPa | 2.7V | 00:00:00 | 01:18:06 | 00:00:00 | |
| DO8TBO-1 | 2026-09-04 23:20:41 | 49.45747 | 12.75776 | 86° | 108km/h | 11015m | 3.4m/s | -47.9°C | 59.6% | 241.9hPa | 2.7V | 00:00:00 | 01:18:05 | 00:00:00 | |
| OE5MMP-10 | 2026-09-04 23:20:40 | 49.45746 | 12.75736 | 87° | 108km/h | 11011m | 4.6m/s | -47.9°C | 59.1% | 242.0hPa | 2.7V | 04:46:00 | 01:18:04 | 00:00:00 | |
| EDDB2-11 | 2026-09-04 23:20:39 | 49.45745 | 12.75696 | 87° | 104km/h | 11006m | 4.1m/s | -47.9°C | 51.6% | 242.3hPa | 2.7V | 00:00:00 | 00:00:00 | 00:00:00 | |
| PG1ADW-2 | 2026-09-04 23:20:35 | 49.45740 | 12.75530 | 86° | 106km/h | 10988m | 5.8m/s | -47.6°C | 59.2% | 242.9hPa | 2.7V | 00:00:00 | 01:17:59 | 00:00:00 | |
| OE5MMP-10 | 2026-09-04 23:20:30 | 49.45733 | 12.75320 | 90° | 104km/h | 10965m | 4.6m/s | -47.4°C | 60.1% | 243.7hPa | 2.7V | 00:00:00 | 01:17:54 | 00:00:00 | |
| OE5DXL-15 | 2026-09-04 23:20:29 | 49.45732 | 12.75278 | 90° | 106km/h | 10959m | 5.4m/s | -47.4°C | 60.1% | 243.9hPa | 2.7V | 00:00:00 | 00:00:00 | 00:00:00 | |
| OE5WHR-10 | 2026-09-04 23:20:21 | 49.45728 | 12.74957 | 88° | 106km/h | 10924m | 3.9m/s | -47.0°C | 60.3% | 245.3hPa | 2.7V | 00:00:00 | 00:00:00 | 00:00:00 | |
| OE5MMP-10 | 2026-09-04 23:20:20 | 49.45727 | 12.74917 | 88° | 108km/h | 10920m | 3.4m/s | -47.0°C | 0% | 245.4hPa | 2.7V | 00:00:00 | 01:17:44 | 00:00:00 | |
| DL6DJ-15 | 2026-09-04 23:20:18 | 49.45724 | 12.74835 | 85° | 108km/h | 10911m | 4.1m/s | -47.0°C | 52.4% | 245.8hPa | 2.7V | 00:00:00 | 00:00:00 | 00:00:00 | |
| OE5DRO-10 | 2026-09-04 23:20:16 | 49.45719 | 12.74749 | 86° | 106km/h | 10902m | 4.1m/s | -46.9°C | 60.5% | 246.1hPa | 2.7V | 04:47:00 | 00:00:00 | 00:00:00 | |
| PG1ADW-2 | 2026-09-04 23:20:15 | 49.45718 | 12.74707 | 87° | 106km/h | 10898m | 4.3m/s | -46.8°C | 60.5% | 246.2hPa | 2.7V | 00:00:00 | 00:00:00 | 00:00:00 | |
| SONDE2-11 | 2026-09-04 23:20:13 | 49.45716 | 12.74582 | 90° | 108km/h | 10885m | 3.8m/s | -46.8°C | 52.5% | 246.7hPa | 2.7V | 00:00:00 | 00:00:00 | 00:00:00 | |
| DO8TBO-1 | 2026-09-04 23:20:11 | 49.45716 | 12.74540 | 91° | 117km/h | 10881m | 4.6m/s | -46.7°C | 60.6% | 246.8hPa | 2.7V | 00:00:00 | 01:17:35 | 00:00:00 | |
| OE5MMP-10 | 2026-09-04 23:20:10 | 49.45716 | 12.74497 | 90° | 104km/h | 10877m | 3.3m/s | 0°C | 0% | 0hPa | 2.7V | 00:00:00 | 01:17:34 | 00:00:00 | |
| EDDB2-11 | 2026-09-04 23:20:08 | 49.45714 | 12.74416 | 87° | 102km/h | 10869m | 4.4m/s | -46.6°C | 53.3% | 247.4hPa | 2.7V | 00:00:00 | 00:00:00 | 00:00:00 | |
| EDDB2-12 | 2026-09-04 23:20:00 | 49.45695 | 12.74054 | 85° | 108km/h | 10834m | 3.3m/s | -46.3°C | 54.4% | 248.7hPa | 2.7V | 00:00:00 | 00:00:00 | 00:00:00 | |
| DL6DJ-15 | 2026-09-04 23:19:47 | 49.45670 | 12.73573 | 85° | 102km/h | 10791m | 3.6m/s | -46.0°C | 53.8% | 250.3hPa | 2.7V | 00:00:00 | 00:00:00 | 00:00:00 | |
| SONDE2-11 | 2026-09-04 23:19:42 | 49.45658 | 12.73328 | 85° | 106km/h | 10769m | 4.0m/s | -45.8°C | 54.4% | 251.1hPa | 2.7V | 00:00:00 | 00:00:00 | 00:00:00 | |
| DO3MHA-11 | 2026-09-04 23:19:40 | 49.45655 | 12.73287 | 85° | 106km/h | 10766m | 3.1m/s | -45.7°C | 62.4% | 251.2hPa | 2.7V | 04:47:00 | 01:17:04 | 00:00:00 | |
| OE5DRO-10 | 2026-09-04 23:19:38 | 49.45651 | 12.73206 | 86° | 104km/h | 10758m | 4.1m/s | -45.6°C | 62.8% | 251.5hPa | 2.7V | 00:00:00 | 00:00:00 | 00:00:00 | |
| EDDB2-11 | 2026-09-04 23:19:37 | 49.45649 | 12.73165 | 85° | 104km/h | 10755m | 2.7m/s | -45.7°C | 55.5% | 251.7hPa | 2.7V | 00:00:00 | 00:00:00 | 00:00:00 | |
| PG1ADW-2 | 2026-09-04 23:19:35 | 49.45644 | 12.73083 | 85° | 104km/h | 10748m | 4.2m/s | -45.6°C | 62.8% | 251.8hPa | 2.7V | 00:00:00 | 00:00:00 | 00:00:00 | |
| DO3MHA-11 | 2026-09-04 23:19:30 | 49.45630 | 12.72879 | 84° | 104km/h | 10729m | 3.1m/s | -45.4°C | 64.6% | 252.5hPa | 2.7V | 00:00:00 | 01:16:54 | 00:00:00 | |
| OE5DXL-15 | 2026-09-04 23:19:29 | 49.45627 | 12.72839 | 85° | 104km/h | 10725m | 4.2m/s | -45.4°C | 64.8% | 252.6hPa | 2.7V | 00:00:00 | 00:00:00 | 00:00:00 | |
| EDDB2-12 | 2026-09-04 23:19:28 | 49.45625 | 12.72799 | 85° | 102km/h | 10721m | 3.7m/s | -45.4°C | 57.4% | 252.9hPa | 2.7V | 00:00:00 | 00:00:00 | 00:00:00 | |
| OE5MMP-10 | 2026-09-04 23:19:20 | 49.45609 | 12.72477 | 86° | 104km/h | 10694m | 2.6m/s | 0°C | 0% | 0hPa | 2.7V | 00:00:00 | 01:16:44 | 00:00:00 | |
| OE5DRO-10 | 2026-09-04 23:19:19 | 49.45607 | 12.72436 | 86° | 104km/h | 10691m | 3.2m/s | -45.1°C | 66.1% | 254.0hPa | 2.7V | 00:00:00 | 00:00:00 | 00:00:00 | |
| DL6DJ-15 | 2026-09-04 23:19:16 | 49.45601 | 12.72318 | 84° | 100km/h | 10680m | 4.5m/s | -45.1°C | 58.4% | 254.5hPa | 2.7V | 00:00:00 | 00:00:00 | 00:00:00 | |
| PG1ADW-2 | 2026-09-04 23:19:15 | 49.45599 | 12.72279 | 85° | 104km/h | 10676m | 3.2m/s | -45.0°C | 66.8% | 254.6hPa | 2.7V | 00:00:00 | 01:16:39 | 00:00:00 | |
| ANDY1245 | 2026-09-04 23:19:13 | 49.45596 | 12.72240 | 85° | 102km/h | 10673m | 3.2m/s | 0°C | 0% | 0hPa | 2.7V | 00:00:00 | 00:00:00 | 00:00:00 | |
| SONCRA | 2026-09-04 23:19:11 | 49.45587 | 12.72078 | 85° | 106km/h | 10659m | 4.0m/s | -44.9°C | 59.1% | 255.3hPa | 2.7V | 00:00:00 | 00:00:00 | 00:00:00 | |
| DO3MHA-11 | 2026-09-04 23:19:10 | 49.45587 | 12.72078 | 86° | 104km/h | 10659m | 4.0m/s | -44.9°C | 66.9% | 255.2hPa | 2.7V | 00:00:00 | 01:16:34 | 00:00:00 | |
| EDDB2-11 | 2026-09-04 23:19:06 | 49.45577 | 12.71914 | 86° | 104km/h | 10645m | 3.5m/s | -44.8°C | 59.5% | 255.8hPa | 2.7V | 00:00:00 | 00:00:00 | 00:00:00 | |
| OE5MMP-10 | 2026-09-04 23:19:03 | 49.45573 | 12.71794 | 87° | 104km/h | 10635m | 3.2m/s | 0°C | 0% | 0hPa | 2.7V | 00:00:00 | 01:16:27 | 00:00:00 | |
| EDDB2-12 | 2026-09-04 23:18:58 | 49.45561 | 12.71554 | 84° | 102km/h | 10615m | 2.8m/s | -44.5°C | 58.2% | 257.0hPa | 2.7V | 00:00:00 | 00:00:00 | 00:00:00 | |
| PG1ADW-2 | 2026-09-04 23:18:55 | 49.45556 | 12.71473 | 86° | 106km/h | 10608m | 3.4m/s | -44.4°C | 65.7% | 257.2hPa | 2.7V | 00:00:00 | 00:00:00 | 00:00:00 | |
| AM1SDL-15 | 2026-09-04 23:18:51 | 49.45548 | 12.71307 | 87° | 106km/h | 10593m | 4.5m/s | -44.3°C | 64.8% | 257.7hPa | 2.7V | 00:00:00 | 01:16:15 | 00:00:00 | |
| DO3MHA-11 | 2026-09-04 23:18:50 | 49.45547 | 12.71266 | 87° | 106km/h | 10590m | 2.3m/s | -44.2°C | 64.8% | 257.9hPa | 2.7V | 04:48:00 | 01:16:14 | 00:00:00 | |
| OE5MMP-10 | 2026-09-04 23:18:45 | 49.45535 | 12.71062 | 86° | 108km/h | 10574m | 3.7m/s | 0°C | 0% | 0hPa | 2.7V | 04:48:00 | 01:16:09 | 00:00:00 | |
| OE5DRO-10 | 2026-09-04 23:18:41 | 49.45529 | 12.70897 | 88° | 106km/h | 10559m | 3.1m/s | -43.9°C | 61.6% | 259.1hPa | 2.7V | 04:48:00 | 00:00:00 | 00:00:00 | |
| DO3MHA-11 | 2026-09-04 23:18:40 | 49.45528 | 12.70856 | 88° | 108km/h | 10556m | 3.3m/s | -43.9°C | 61.1% | 259.3hPa | 2.7V | 00:00:00 | 01:16:04 | 00:00:00 | |
| SONDE2-11 | 2026-09-04 23:18:39 | 49.45527 | 12.70815 | 87° | 106km/h | 10552m | 3.8m/s | -43.9°C | 53.9% | 259.5hPa | 2.7V | 00:00:00 | 00:00:00 | 00:00:00 | |
| ANDY1245 | 2026-09-04 23:18:38 | 49.45527 | 12.70815 | 89° | 108km/h | 10552m | 3.8m/s | 0°C | 0% | 0hPa | 2.7V | 00:00:00 | 00:00:00 | 00:00:00 | |
| PG1ADW-2 | 2026-09-04 23:18:35 | 49.45523 | 12.70650 | 88° | 104km/h | 10538m | 2.7m/s | -43.7°C | 59.6% | 259.9hPa | 2.7V | 00:00:00 | 00:00:00 | 00:00:00 | |
| ANDY1245 | 2026-09-04 23:18:33 | 49.45522 | 12.70608 | 88° | 108km/h | 10535m | 3.9m/s | 0°C | 0% | 0hPa | 2.7V | 00:00:00 | 00:00:00 | 00:00:00 | |
| DO3MHA-11 | 2026-09-04 23:18:30 | 49.45516 | 12.70440 | 86° | 104km/h | 10520m | 4.1m/s | -43.6°C | 57.8% | 260.6hPa | 2.7V | 00:00:00 | 01:15:54 | 00:00:00 | |
| OE5DXL-15 | 2026-09-04 23:18:29 | 49.45514 | 12.70400 | 85° | 104km/h | 10517m | 2.9m/s | -43.6°C | 57.7% | 260.7hPa | 2.7V | 00:00:00 | 00:00:00 | 00:00:00 | |
| ANDY1245 | 2026-09-04 23:18:28 | 49.45514 | 12.70400 | 86° | 102km/h | 10517m | 2.9m/s | 0°C | 0% | 0hPa | 2.7V | 00:00:00 | 00:00:00 | 00:00:00 | |
| EDDB2-12 | 2026-09-04 23:18:26 | 49.45508 | 12.70282 | 86° | 102km/h | 10506m | 2.8m/s | -43.5°C | 51.1% | 261.2hPa | 2.7V | 00:00:00 | 00:00:00 | 00:00:00 | |
| OE5DRO-10 | 2026-09-04 23:18:22 | 49.45501 | 12.70123 | 85° | 108km/h | 10492m | 4.3m/s | -43.3°C | 58.5% | 261.7hPa | 2.7V | 00:00:00 | 00:00:00 | 00:00:00 | |
| DO3MHA-11 | 2026-09-04 23:18:20 | 49.45495 | 12.70039 | 84° | 104km/h | 10485m | 2.6m/s | -43.3°C | 59.1% | 261.9hPa | 2.7V | 00:00:00 | 01:15:44 | 00:00:00 | |
| PG1ADW-2 | 2026-09-04 23:18:15 | 49.45484 | 12.69840 | 88° | 104km/h | 10467m | 3.4m/s | -43.1°C | 59.9% | 262.7hPa | 2.7V | 04:49:00 | 00:00:00 | 00:00:00 | |
| DL6DJ-15 | 2026-09-04 23:18:14 | 49.45483 | 12.69802 | 86° | 99km/h | 10463m | 3.6m/s | -43.1°C | 53.4% | 262.9hPa | 2.7V | 00:00:00 | 00:00:00 | 00:00:00 | |
| DO3MHA-11 | 2026-09-04 23:18:10 | 49.45476 | 12.69634 | 87° | 108km/h | 10447m | 5.0m/s | -43.0°C | 62.1% | 263.5hPa | 2.7V | 00:00:00 | 01:15:34 | 00:00:00 | |
| SONDE2-11 | 2026-09-04 23:18:09 | 49.45472 | 12.69547 | 85° | 110km/h | 10438m | 5.0m/s | -43.1°C | 57.7% | 263.9hPa | 2.7V | 00:00:00 | 00:00:00 | 00:00:00 | |
| OE5MMP-10 | 2026-09-04 23:18:06 | 49.45467 | 12.69462 | 84° | 110km/h | 10431m | 3.5m/s | 0°C | 0% | 0hPa | 2.7V | 00:00:00 | 01:15:30 | 00:00:00 | |
| EDDB2-11 | 2026-09-04 23:18:04 | 49.45460 | 12.69378 | 83° | 106km/h | 10421m | 3.3m/s | -42.9°C | 58.4% | 264.5hPa | 2.7V | 00:00:00 | 00:00:00 | 00:00:00 | |
| DO3MHA-11 | 2026-09-04 23:18:00 | 49.45452 | 12.69225 | 89° | 104km/h | 10405m | 2.7m/s | -42.7°C | 65.2% | 265.1hPa | 2.7V | 04:49:00 | 01:15:24 | 00:00:00 | |
| OE5DXL-15 | 2026-09-04 23:17:59 | 49.45451 | 12.69188 | 90° | 104km/h | 10402m | 5.0m/s | -42.7°C | 64.6% | 265.2hPa | 2.7V | 00:00:00 | 00:00:00 | 00:00:00 | |
| PG1ADW-2 | 2026-09-04 23:17:55 | 49.45452 | 12.69026 | 87° | 102km/h | 10385m | 4.3m/s | -42.6°C | 62.2% | 265.9hPa | 2.7V | 00:00:00 | 01:15:19 | 00:00:00 | |
| OE5MMP-10 | 2026-09-04 23:17:54 | 49.45449 | 12.68983 | 83° | 104km/h | 10380m | 6.0m/s | 0°C | 0% | 0hPa | 2.7V | 00:00:00 | 01:15:18 | 00:00:00 | |
| DO3MHA-11 | 2026-09-04 23:17:50 | 49.45429 | 12.68821 | 80° | 102km/h | 10359m | 5.5m/s | -42.3°C | 59.2% | 266.9hPa | 2.7V | 00:00:00 | 01:15:14 | 00:00:00 | |
| AM1SDL-15 | 2026-09-04 23:17:47 | 49.45418 | 12.68701 | 87° | 100km/h | 10346m | 4.0m/s | -42.2°C | 58.4% | 267.4hPa | 2.7V | 00:00:00 | 01:15:11 | 00:00:00 | |
| OE5DRO-10 | 2026-09-04 23:17:44 | 49.45415 | 12.68583 | 87° | 104km/h | 10334m | 4.7m/s | -42.1°C | 57.2% | 267.8hPa | 2.7V | 00:00:00 | 00:00:00 | 00:00:00 | |
| DL6DJ-15 | 2026-09-04 23:17:43 | 49.45411 | 12.68507 | 83° | 99km/h | 10325m | 5.2m/s | -42.1°C | 50.8% | 268.3hPa | 2.7V | 00:00:00 | 00:00:00 | 00:00:00 | |
| OE5MMP-10 | 2026-09-04 23:17:42 | 49.45410 | 12.68507 | 84° | 108km/h | 10325m | 5.1m/s | 0°C | 0% | 0hPa | 2.7V | 00:00:00 | 01:15:06 | 00:00:00 | |
| DO3MHA-11 | 2026-09-04 23:17:40 | 49.45403 | 12.68429 | 80° | 104km/h | 10316m | 4.1m/s | -41.9°C | 57.6% | 268.6hPa | 2.7V | 00:00:00 | 01:15:04 | 00:00:00 | |
| SONCRA | 2026-09-04 23:17:38 | 49.45387 | 12.68314 | 78° | 97km/h | 10306m | 4.3m/s | -41.9°C | 51.6% | 269.1hPa | 2.7V | 00:00:00 | 00:00:00 | 00:00:00 | |
| SONDE2-11 | 2026-09-04 23:17:37 | 49.45387 | 12.68314 | 78° | 97km/h | 10306m | 4.3m/s | -41.9°C | 51.6% | 269.1hPa | 2.7V | 00:00:00 | 00:00:00 | 00:00:00 | |
| PG1ADW-2 | 2026-09-04 23:17:35 | 49.45380 | 12.68238 | 87° | 104km/h | 10298m | 3.1m/s | -41.8°C | 57.4% | 269.3hPa | 2.7V | 00:00:00 | 00:00:00 | 00:00:00 | |
| EDDB2-11 | 2026-09-04 23:17:33 | 49.45379 | 12.68158 | 89° | 108km/h | 10290m | 5.5m/s | -41.8°C | 49.0% | 269.6hPa | 2.7V | 00:00:00 | 00:00:00 | 00:00:00 | |
| DO3MHA-11 | 2026-09-04 23:17:30 | 49.45375 | 12.68027 | 85° | 104km/h | 10276m | 5.1m/s | -41.6°C | 54.2% | 270.2hPa | 2.7V | 00:00:00 | 01:14:54 | 00:00:00 | |
| OE5DXL-15 | 2026-09-04 23:17:29 | 49.45372 | 12.67984 | 82° | 102km/h | 10271m | 4.7m/s | -41.5°C | 53.8% | 270.4hPa | 2.7V | 00:00:00 | 00:00:00 | 00:00:00 | |
| OE5DRO-10 | 2026-09-04 23:17:25 | 49.45347 | 12.67825 | 75° | 102km/h | 10251m | 4.8m/s | -41.4°C | 52.8% | 271.1hPa | 2.7V | 00:00:00 | 00:00:00 | 00:00:00 | |
| EDDB2-12 | 2026-09-04 23:17:24 | 49.45340 | 12.67786 | 76° | 102km/h | 10247m | 3.0m/s | -41.4°C | 47.0% | 271.4hPa | 2.7V | 00:00:00 | 00:00:00 | 00:00:00 | |
| AM1SDL-15 | 2026-09-04 23:17:23 | 49.45335 | 12.67747 | 79° | 102km/h | 10244m | 4.0m/s | -41.3°C | 52.7% | 271.5hPa | 2.7V | 00:00:00 | 01:14:47 | 00:00:00 | |
| DO3MHA-11 | 2026-09-04 23:17:20 | 49.45324 | 12.67636 | 84° | 104km/h | 10231m | 5.1m/s | -41.2°C | 51.8% | 272.0hPa | 2.7V | 00:00:00 | 01:14:44 | 00:00:00 | |
| OE5WHR-10 | 2026-09-04 23:17:17 | 49.45316 | 12.67521 | 83° | 102km/h | 10219m | 3.5m/s | -41.1°C | 51.9% | 272.4hPa | 2.7V | 00:00:00 | 00:00:00 | 00:00:00 | |
| PG1ADW-2 | 2026-09-04 23:17:15 | 49.45308 | 12.67440 | 79° | 102km/h | 10209m | 3.8m/s | -41.0°C | 51.7% | 272.8hPa | 2.7V | 00:00:00 | 00:00:00 | 00:00:00 | |
| DL6DJ-15 | 2026-09-04 23:17:12 | 49.45286 | 12.67279 | 81° | 106km/h | 10192m | 5.9m/s | -40.9°C | 43.2% | 273.6hPa | 2.7V | 00:00:00 | 00:00:00 | 00:00:00 | |
| AM1SDL-15 | 2026-09-04 23:17:11 | 49.45286 | 12.67279 | 82° | 102km/h | 10192m | 5.9m/s | -40.8°C | 48.9% | 273.5hPa | 2.7V | 00:00:00 | 01:14:35 | 00:00:00 | |
| DO3MHA-11 | 2026-09-04 23:17:10 | 49.45282 | 12.67239 | 83° | 100km/h | 10187m | 5.3m/s | -40.8°C | 48.5% | 273.8hPa | 2.7V | 04:50:00 | 01:14:34 | 00:00:00 | |
| ANDY1245 | 2026-09-04 23:17:09 | 49.45282 | 12.67239 | 84° | 104km/h | 10187m | 5.3m/s | 0°C | 0% | 0hPa | 2.7V | 00:00:00 | 00:00:00 | 00:00:00 | |
| SONCRA | 2026-09-04 23:17:07 | 49.45271 | 12.67082 | 81° | 99km/h | 10168m | 4.6m/s | -40.6°C | -1.0% | -1.0hPa | 2.7V | 00:00:00 | 00:00:00 | 00:00:00 | |
| OE5DRO-10 | 2026-09-04 23:17:06 | 49.45271 | 12.67082 | 82° | 100km/h | 10168m | 4.5m/s | -40.6°C | 46.7% | 274.5hPa | 2.7V | 04:50:00 | 00:00:00 | 00:00:00 | |
| EDDB2-11 | 2026-09-04 23:17:02 | 49.45246 | 12.66891 | 80° | 100km/h | 10147m | 3.3m/s | -40.5°C | 38.1% | 275.4hPa | 2.7V | 00:00:00 | 00:00:00 | 00:00:00 | |
| EDDB2-12 | 2026-09-04 23:16:53 | 49.45212 | 12.66587 | 80° | 104km/h | 10115m | 2.6m/s | -40.2°C | 32.4% | 276.7hPa | 2.7V | 00:00:00 | 00:00:00 | 00:00:00 | |
| DO3MHA-11 | 2026-09-04 23:16:50 | 49.45196 | 12.66468 | 77° | 100km/h | 10104m | 4.7m/s | -40.1°C | 34.2% | 277.0hPa | 2.7V | 00:00:00 | 01:14:14 | 00:00:00 | |
| OE5DRO-10 | 2026-09-04 23:16:47 | 49.45178 | 12.66356 | 76° | 100km/h | 10093m | 3.8m/s | -40.0°C | 32.9% | 277.6hPa | 2.7V | 00:00:00 | 00:00:00 | 00:00:00 | |
| AM1SDL-15 | 2026-09-04 23:16:45 | 49.45166 | 12.66281 | 77° | 102km/h | 10087m | 2.6m/s | -40.0°C | 32.3% | 277.8hPa | 2.7V | 00:00:00 | 01:14:09 | 00:00:00 | |
| DL6DJ-15 | 2026-09-04 23:16:41 | 49.45137 | 12.66093 | 78° | 100km/h | 10069m | 3.7m/s | -39.9°C | 26.6% | 278.6hPa | 2.7V | 00:00:00 | 00:00:00 | 00:00:00 | |
| DL1JEZ-13 | 2026-09-04 23:16:36 | 49.45121 | 12.65974 | 78° | 104km/h | 10059m | 2.5m/s | 0°C | 0% | 279.0hPa | 2.7V | 00:00:00 | 00:00:00 | 00:00:00 | |
| PG1ADW-2 | 2026-09-04 23:16:35 | 49.45108 | 12.65897 | 75° | 102km/h | 10052m | 2.6m/s | -39.7°C | 29.3% | 279.2hPa | 2.7V | 04:50:00 | 01:13:59 | 00:00:00 | |
| AM1SDL-15 | 2026-09-04 23:16:33 | 49.45095 | 12.65822 | 77° | 100km/h | 10047m | 4.4m/s | -39.7°C | 28.5% | 279.5hPa | 2.7V | 04:50:00 | 01:13:57 | 00:00:00 | |
| EDDB2-11 | 2026-09-04 23:16:31 | 49.45085 | 12.65747 | 80° | 97km/h | 10040m | 1.9m/s | -39.6°C | 24.3% | 279.8hPa | 2.7V | 00:00:00 | 00:00:00 | 00:00:00 | |
| OE5DXL-15 | 2026-09-04 23:16:29 | 49.45077 | 12.65672 | 81° | 104km/h | 10032m | 3.7m/s | -39.5°C | 27.3% | 280.0hPa | 2.7V | 04:50:00 | 00:00:00 | 00:00:00 | |
| OE5DRO-10 | 2026-09-04 23:16:28 | 49.45073 | 12.65635 | 80° | 102km/h | 10029m | 3.2m/s | -39.5°C | 27.0% | 280.1hPa | 2.7V | 00:00:00 | 00:00:00 | 00:00:00 | |
| OE5WHR-10 | 2026-09-04 23:16:23 | 49.45050 | 12.65441 | 80° | 104km/h | 10012m | 2.6m/s | 0°C | 0% | 0hPa | 2.7V | 00:00:00 | 00:00:00 | 00:00:00 | |
| EDDB2-12 | 2026-09-04 23:16:22 | 49.45044 | 12.65401 | 78° | 106km/h | 10009m | 4.1m/s | -39.4°C | 20.7% | 281.1hPa | 2.7V | 00:00:00 | 00:00:00 | 00:00:00 | |
| AM1SDL-15 | 2026-09-04 23:16:20 | 49.45032 | 12.65319 | 76° | 102km/h | 10001m | 2.8m/s | -39.3°C | 22.7% | 281.3hPa | 2.7V | 00:00:00 | 01:13:44 | 00:00:00 | |
| PG1ADW-2 | 2026-09-04 23:16:15 | 49.45008 | 12.65123 | 82° | 106km/h | 9985m | 4.9m/s | -39.3°C | 19.0% | 281.9hPa | 2.7V | 00:00:00 | 00:00:00 | 00:00:00 | |
| DL6DJ-15 | 2026-09-04 23:16:10 | 49.44977 | 12.64893 | 79° | 108km/h | 9964m | 1.6m/s | -39.2°C | 15.6% | 282.9hPa | 2.7V | 00:00:00 | 00:00:00 | 00:00:00 | |
| DO3MHA-11 | 2026-09-04 23:16:09 | 49.44977 | 12.64893 | 80° | 108km/h | 9964m | 1.6m/s | -39.2°C | 18.5% | 282.8hPa | 2.7V | 00:00:00 | 01:13:33 | 00:00:00 | |
| AM1SDL-15 | 2026-09-04 23:16:08 | 49.44973 | 12.64851 | 81° | 108km/h | 9961m | 4.7m/s | -39.2°C | 18.0% | 282.9hPa | 2.7V | 00:00:00 | 01:13:32 | 00:00:00 | |
| SONDE2-11 | 2026-09-04 23:16:04 | 49.44959 | 12.64690 | 83° | 102km/h | 9944m | 3.1m/s | -39.2°C | 14.3% | 283.8hPa | 2.7V | 00:00:00 | 00:00:00 | 00:00:00 | |
| EDDB2-11 | 2026-09-04 23:16:00 | 49.44941 | 12.64482 | 79° | 113km/h | 9925m | 3.0m/s | -39.3°C | 14.6% | 284.6hPa | 2.7V | 00:00:00 | 00:00:00 | 00:00:00 | |
| EDDB2-12 | 2026-09-04 23:15:51 | 49.44908 | 12.64149 | 82° | 108km/h | 9893m | 5.3m/s | -39.2°C | 14.9% | 285.8hPa | 2.7V | 00:00:00 | 00:00:00 | 00:00:00 | |
| OE5DRO-10 | 2026-09-04 23:15:50 | 49.44903 | 12.64107 | 82° | 113km/h | 9888m | 5.2m/s | -39.2°C | 17.8% | 285.9hPa | 2.7V | 00:00:00 | 00:00:00 | 00:00:00 | |
| DO3MHA-11 | 2026-09-04 23:15:47 | 49.44888 | 12.63977 | 79° | 111km/h | 9874m | 3.3m/s | -39.1°C | 18.2% | 286.5hPa | 2.7V | 00:00:00 | 01:13:11 | 00:00:00 | |
| AM1SDL-15 | 2026-09-04 23:15:44 | 49.44872 | 12.63849 | 80° | 113km/h | 9861m | 4.0m/s | -39.0°C | 18.4% | 287.2hPa | 2.7V | 00:00:00 | 01:13:08 | 00:00:00 | |
| OE5WHR-10 | 2026-09-04 23:15:38 | 49.44847 | 12.63594 | 82° | 122km/h | 9833m | 5.4m/s | 0°C | 0% | 0hPa | 2.7V | 00:00:00 | 00:00:00 | 00:00:00 | |
| DO3MHA-11 | 2026-09-04 23:15:37 | 49.44842 | 12.63548 | 82° | 119km/h | 9828m | 4.3m/s | -38.9°C | 20.0% | 288.5hPa | 2.7V | 00:00:00 | 01:13:01 | 00:00:00 | |
| PG1ADW-2 | 2026-09-04 23:15:35 | 49.44833 | 12.63457 | 81° | 122km/h | 9818m | 5.4m/s | -38.9°C | 20.0% | 288.9hPa | 2.7V | 00:00:00 | 00:00:00 | 00:00:00 | |
| SONDE2-11 | 2026-09-04 23:15:33 | 49.44823 | 12.63369 | 79° | 117km/h | 9809m | 3.7m/s | -38.9°C | 17.2% | 289.3hPa | 2.7V | 00:00:00 | 00:00:00 | 00:00:00 | |
| AM1SDL-15 | 2026-09-04 23:15:32 | 49.44818 | 12.63323 | 81° | 120km/h | 9804m | 6.1m/s | -38.8°C | 20.4% | 289.5hPa | 2.7V | 04:51:00 | 01:12:56 | 00:00:00 | |
| OE5DRO-10 | 2026-09-04 23:15:31 | 49.44813 | 12.63277 | 81° | 124km/h | 9799m | 3.5m/s | -38.8°C | 20.4% | 289.6hPa | 2.7V | 04:51:00 | 00:00:00 | 00:00:00 | |
| OE5DXL-15 | 2026-09-04 23:15:29 | 49.44805 | 12.63184 | 84° | 124km/h | 9790m | 5.7m/s | -38.7°C | 20.4% | 290.0hPa | 2.7V | 00:00:00 | 00:00:00 | 00:00:00 | |
| DO3MHA-11 | 2026-09-04 23:15:27 | 49.44800 | 12.63093 | 87° | 124km/h | 9780m | 4.2m/s | -38.6°C | 20.7% | 290.5hPa | 2.7V | 00:00:00 | 01:12:51 | 00:00:00 | |
| EDDB2-12 | 2026-09-04 23:15:20 | 49.44779 | 12.62764 | 83° | 130km/h | 9750m | 4.4m/s | -38.5°C | 17.9% | 291.9hPa | 2.7V | 00:00:00 | 00:00:00 | 00:00:00 | |
| DO3MHA-11 | 2026-09-04 23:15:17 | 49.44770 | 12.62612 | 86° | 124km/h | 9738m | 3.8m/s | -38.5°C | 22.2% | 292.3hPa | 2.7V | 00:00:00 | 01:12:41 | 00:00:00 | |
| PG1ADW-2 | 2026-09-04 23:15:15 | 49.44765 | 12.62513 | 85° | 126km/h | 9727m | 5.5m/s | -38.4°C | 22.7% | 292.7hPa | 2.7V | 00:00:00 | 01:12:39 | 00:00:00 | |
| DH8WE-5 | 2026-09-04 23:15:12 | 49.44757 | 12.62370 | 87° | 119km/h | 9714m | 3.8m/s | -38.4°C | 19.3% | 293.4hPa | 2.7V | 00:00:00 | 00:00:00 | 00:00:00 | |
| AM1SDL-15 | 2026-09-04 23:15:08 | 49.44750 | 12.62182 | 88° | 128km/h | 9695m | 5.8m/s | -38.1°C | 22.3% | 294.2hPa | 2.7V | 00:00:00 | 01:12:32 | 00:00:00 | |
| DO3MHA-11 | 2026-09-04 23:15:07 | 49.44749 | 12.62132 | 88° | 128km/h | 9690m | 4.7m/s | -38.1°C | 22.1% | 294.4hPa | 2.7V | 04:52:00 | 01:12:31 | 00:00:00 | |
| OE5DXL-15 | 2026-09-04 23:14:59 | 49.44736 | 12.61737 | 86° | 128km/h | 9652m | 4.8m/s | -37.8°C | 21.5% | 295.9hPa | 2.9V | 00:00:00 | 00:00:00 | 00:00:00 | |
| AM1SDL-15 | 2026-09-04 23:14:56 | 49.44727 | 12.61587 | 85° | 130km/h | 9639m | 5.3m/s | -37.6°C | 21.1% | 296.5hPa | 2.7V | 00:00:00 | 01:12:20 | 00:00:00 | |
| PG1ADW-2 | 2026-09-04 23:14:55 | 49.44724 | 12.61535 | 85° | 128km/h | 9634m | 3.5m/s | -37.6°C | 21.3% | 296.8hPa | 2.7V | 04:52:00 | 00:00:00 | 00:00:00 | |
| OE5DRO-10 | 2026-09-04 23:14:53 | 49.44719 | 12.61433 | 87° | 126km/h | 9625m | 2.7m/s | -37.5°C | 21.4% | 297.2hPa | 2.7V | 00:00:00 | 00:00:00 | 00:00:00 | |
| DH8WE-5 | 2026-09-04 23:14:51 | 49.44717 | 12.61384 | 88° | 126km/h | 9621m | 4.5m/s | 0°C | 0% | 297.3hPa | 2.7V | 00:00:00 | 00:00:00 | 00:00:00 | |
| DO3MHA-11 | 2026-09-04 23:14:47 | 49.44712 | 12.61138 | 88° | 128km/h | 9596m | 5.5m/s | -37.3°C | 21.0% | 298.3hPa | 2.7V | 00:00:00 | 01:12:11 | 00:00:00 | |
| AM1SDL-15 | 2026-09-04 23:14:45 | 49.44703 | 12.60984 | 83° | 126km/h | 9581m | 5.8m/s | -37.2°C | 21.0% | 299.0hPa | 2.7V | 00:00:00 | 01:12:08 | 00:00:00 | |
| DO3MHA-11 | 2026-09-04 23:14:37 | 49.44669 | 12.60651 | 79° | 128km/h | 9545m | 4.1m/s | -36.8°C | 21.1% | 300.5hPa | 2.7V | 00:00:00 | 01:12:01 | 00:00:00 | |
| DL6DJ-15 | 2026-09-04 23:14:36 | 49.44663 | 12.60604 | 79° | 122km/h | 9540m | 4.7m/s | -36.9°C | 18.1% | 300.8hPa | 2.7V | 00:00:00 | 00:00:00 | 00:00:00 | |
| PG1ADW-2 | 2026-09-04 23:14:35 | 49.44658 | 12.60556 | 81° | 128km/h | 9534m | 7.0m/s | -36.8°C | 20.9% | 301.0hPa | 2.7V | 00:00:00 | 00:00:00 | 00:00:00 | |
| OE5DRO-10 | 2026-09-04 23:14:34 | 49.44653 | 12.60507 | 83° | 128km/h | 9527m | 6.0m/s | -36.7°C | 20.9% | 301.3hPa | 2.7V | 00:00:00 | 00:00:00 | 00:00:00 | |
| AM1SDL-15 | 2026-09-04 23:14:32 | 49.44646 | 12.60406 | 86° | 128km/h | 9516m | 7.3m/s | -36.6°C | 20.6% | 301.8hPa | 2.7V | 04:52:00 | 01:11:56 | 00:00:00 | |
| DO8TBO-1 | 2026-09-04 23:14:31 | 49.44644 | 12.60356 | 88° | 124km/h | 9510m | 6.0m/s | -36.6°C | 20.6% | 302.1hPa | 2.7V | 00:00:00 | 01:11:55 | 00:00:00 | |
| OE5DXL-15 | 2026-09-04 23:14:29 | 49.44641 | 12.60256 | 88° | 124km/h | 9499m | 5.1m/s | -36.5°C | 20.8% | 302.6hPa | 2.7V | 00:00:00 | 00:00:00 | 00:00:00 | |
| EDDB2-11 | 2026-09-04 23:14:27 | 49.44633 | 12.60108 | 82° | 128km/h | 9483m | 4.9m/s | -36.4°C | 18.3% | 303.4hPa | 2.7V | 00:00:00 | 00:00:00 | 00:00:00 | |
| AM1SDL-15 | 2026-09-04 23:14:20 | 49.44604 | 12.59817 | 82° | 124km/h | 9454m | 5.5m/s | -36.1°C | 21.0% | 304.5hPa | 2.7V | 00:00:00 | 01:11:44 | 00:00:00 | |
| EDDB2-12 | 2026-09-04 23:14:18 | 49.44595 | 12.59722 | 81° | 124km/h | 9444m | 7.8m/s | 0°C | -1.0% | -1.0hPa | 2.7V | 00:00:00 | 00:00:00 | 00:00:00 | |
| DO3MHA-11 | 2026-09-04 23:14:17 | 49.44590 | 12.59673 | 82° | 126km/h | 9438m | 4.8m/s | -36.0°C | 21.0% | 305.2hPa | 2.7V | 04:53:00 | 01:11:41 | 00:00:00 | |
| PG1ADW-2 | 2026-09-04 23:14:15 | 49.44581 | 12.59573 | 82° | 124km/h | 9426m | 6.1m/s | 0°C | 0% | 0hPa | 2.7V | 00:00:00 | 00:00:00 | 00:00:00 | |
| DH8WE-5 | 2026-09-04 23:14:09 | 49.44558 | 12.59332 | 83° | 120km/h | 9401m | 5.5m/s | 0°C | 0% | 0hPa | 2.7V | 00:00:00 | 00:00:00 | 00:00:00 | |
| AM1SDL-15 | 2026-09-04 23:14:08 | 49.44549 | 12.59238 | 82° | 124km/h | 9391m | 5.8m/s | -35.6°C | 21.2% | 307.3hPa | 2.7V | 00:00:00 | 01:11:32 | 00:00:00 | |
| DO3MHA-11 | 2026-09-04 23:14:07 | 49.44545 | 12.59192 | 82° | 124km/h | 9385m | 4.6m/s | -35.6°C | 21.0% | 307.5hPa | 2.7V | 00:00:00 | 01:11:31 | 00:00:00 | |
| DL6DJ-15 | 2026-09-04 23:14:05 | 49.44536 | 12.59100 | 82° | 117km/h | 9376m | 6.9m/s | -35.5°C | 18.1% | 308.0hPa | 2.7V | 00:00:00 | 00:00:00 | 00:00:00 | |
| SONDE2-11 | 2026-09-04 23:14:00 | 49.44520 | 12.58865 | 84° | 130km/h | 9350m | 5.3m/s | 0°C | -1.0% | 309.1hPa | 2.7V | 00:00:00 | 00:00:00 | 00:00:00 | |
| EDDB2-11 | 2026-09-04 23:13:56 | 49.44504 | 12.58613 | 85° | 120km/h | 9323m | 4.1m/s | 0°C | -1.0% | 310.4hPa | 2.7V | 00:00:00 | 00:00:00 | 00:00:00 | |
| PG1ADW-2 | 2026-09-04 23:13:55 | 49.44504 | 12.58612 | 86° | 126km/h | 9323m | 4.1m/s | 0°C | 0% | 0hPa | 2.7V | 00:00:00 | 01:11:19 | 00:00:00 | |
| DO3MHA-11 | 2026-09-04 23:13:47 | 49.44482 | 12.58230 | 85° | 126km/h | 9278m | 3.6m/s | -34.8°C | 19.6% | 312.4hPa | 2.7V | 00:00:00 | 01:11:11 | 00:00:00 | |
| DL1JEZ-13 | 2026-09-04 23:13:45 | 49.44479 | 12.58181 | 85° | 128km/h | 9274m | 5.8m/s | 0°C | 0% | 0hPa | 2.7V | 00:00:00 | 00:00:00 | 00:00:00 | |
| AM1SDL-15 | 2026-09-04 23:13:44 | 49.44472 | 12.58082 | 84° | 128km/h | 9265m | 3.2m/s | -34.7°C | 17.9% | 313.0hPa | 2.7V | 00:00:00 | 01:11:08 | 00:00:00 | |
| DO3MHA-11 | 2026-09-04 23:13:37 | 49.44459 | 12.57740 | 85° | 128km/h | 9232m | 4.5m/s | -34.5°C | 15.1% | 314.5hPa | 2.7V | 00:00:00 | 01:11:01 | 00:00:00 | |
| PG1ADW-2 | 2026-09-04 23:13:35 | 49.44450 | 12.57638 | 80° | 126km/h | 9224m | 4.0m/s | 0°C | 0% | 0hPa | 2.9V | 00:00:00 | 00:00:00 | 00:00:00 | |
| DL6DJ-15 | 2026-09-04 23:13:34 | 49.44444 | 12.57587 | 79° | 133km/h | 9220m | 3.8m/s | -34.4°C | 12.3% | 315.1hPa | 2.9V | 00:00:00 | 00:00:00 | 00:00:00 | |
| AM1SDL-15 | 2026-09-04 23:13:32 | 49.44432 | 12.57484 | 81° | 120km/h | 9212m | 4.5m/s | -34.3°C | 14.4% | 315.4hPa | 2.9V | 04:53:00 | 01:10:56 | 00:00:00 | |
| DO8TBO-1 | 2026-09-04 23:13:31 | 49.44427 | 12.57435 | 83° | 122km/h | 9207m | 4.7m/s | -34.3°C | 14.4% | 315.6hPa | 2.9V | 04:53:00 | 01:10:55 | 00:00:00 | |
| OE5DXL-15 | 2026-09-04 23:13:29 | 49.44420 | 12.57340 | 87° | 124km/h | 9196m | 6.1m/s | -34.2°C | 14.2% | 316.1hPa | 2.9V | 00:00:00 | 00:00:00 | 00:00:00 | |
| DO3MHA-11 | 2026-09-04 23:13:27 | 49.44419 | 12.57251 | 90° | 122km/h | 9184m | 5.0m/s | -34.0°C | 14.2% | 316.6hPa | 2.9V | 04:53:00 | 01:10:51 | 00:00:00 | |
| AM1SDL-15 | 2026-09-04 23:13:20 | 49.44402 | 12.56931 | 81° | 128km/h | 9143m | 8.5m/s | -33.7°C | 12.5% | 318.4hPa | 2.9V | 00:00:00 | 01:10:44 | 00:00:00 | |
| OE5DRO-10 | 2026-09-04 23:13:18 | 49.44392 | 12.56827 | 84° | 124km/h | 9129m | 5.7m/s | -33.6°C | 12.4% | 319.1hPa | 2.9V | 00:00:00 | 00:00:00 | 00:00:00 | |
| DO3MHA-11 | 2026-09-04 23:13:17 | 49.44389 | 12.56773 | 85° | 124km/h | 9123m | 6.0m/s | -33.5°C | 12.3% | 319.4hPa | 2.9V | 00:00:00 | 01:10:41 | 00:00:00 | |
| PG1ADW-2 | 2026-09-04 23:13:15 | 49.44383 | 12.56670 | 87° | 120km/h | 9110m | 6.5m/s | 0°C | 0% | 0hPa | 2.9V | 00:00:00 | 00:00:00 | 00:00:00 | |
| AM1SDL-15 | 2026-09-04 23:13:08 | 49.44382 | 12.56342 | 90° | 124km/h | 9069m | 5.1m/s | -33.2°C | 11.5% | 321.8hPa | 2.9V | 00:00:00 | 01:10:32 | 00:00:00 | |
| DO3MHA-11 | 2026-09-04 23:13:07 | 49.44382 | 12.56293 | 90° | 124km/h | 9063m | 6.5m/s | -33.2°C | 11.4% | 322.1hPa | 2.7V | 00:00:00 | 01:10:31 | 00:00:00 | |
| DL6DJ-15 | 2026-09-04 23:13:03 | 49.44380 | 12.56103 | 89° | 120km/h | 9040m | 4.4m/s | -33.2°C | 9.9% | 323.2hPa | 2.7V | 00:00:00 | 00:00:00 | 00:00:00 | |
| SONCRA | 2026-09-04 23:12:58 | 49.44368 | 12.55471 | 89° | 124km/h | 8978m | 4.1m/s | 0°C | -1.0% | -1.0hPa | 2.7V | 00:00:00 | 00:00:00 | 00:00:00 | |
| DH8WE-5 | 2026-09-04 23:12:57 | 49.44374 | 12.55811 | 89° | 126km/h | 9012m | 5.6m/s | 0°C | 0% | 0hPa | 2.7V | 00:00:00 | 00:00:00 | 00:00:00 | |
| AM1SDL-15 | 2026-09-04 23:12:56 | 49.44373 | 12.55762 | 88° | 126km/h | 9007m | 4.9m/s | -32.9°C | 11.9% | 324.7hPa | 2.7V | 00:00:00 | 01:10:20 | 00:00:00 | |
| DO3MHA-11 | 2026-09-04 23:12:47 | 49.44368 | 12.55326 | 90° | 128km/h | 8964m | 4.3m/s | -32.6°C | 11.7% | 326.7hPa | 2.7V | 00:00:00 | 01:10:11 | 00:00:00 | |
| AM1SDL-15 | 2026-09-04 23:12:44 | 49.44367 | 12.55175 | 90° | 128km/h | 8951m | 2.9m/s | -32.5°C | 11.7% | 327.3hPa | 2.7V | 00:00:00 | 01:10:08 | 00:00:00 | |
| OE5DRO-10 | 2026-09-04 23:12:40 | 49.44364 | 12.54973 | 89° | 126km/h | 8933m | 4.9m/s | -32.4°C | 11.7% | 328.1hPa | 2.7V | 00:00:00 | 00:00:00 | 00:00:00 | |
| DO3MHA-11 | 2026-09-04 23:12:37 | 49.44362 | 12.54827 | 89° | 128km/h | 8919m | 5.5m/s | -32.3°C | 11.7% | 328.7hPa | 2.7V | 04:54:00 | 01:10:01 | 00:00:00 | |
| DL6DJ-15 | 2026-09-04 23:12:32 | 49.44359 | 12.54582 | 89° | 126km/h | 8895m | 4.3m/s | -32.1°C | 10.0% | 329.9hPa | 2.9V | 00:00:00 | 00:00:00 | 00:00:00 | |
| DO8TBO-1 | 2026-09-04 23:12:31 | 49.44359 | 12.54532 | 90° | 128km/h | 8890m | 5.1m/s | -32.0°C | 11.7% | 330.0hPa | 2.9V | 00:00:00 | 01:09:55 | 00:00:00 | |
| OE5DXL-15 | 2026-09-04 23:12:29 | 49.44357 | 12.54432 | 88° | 126km/h | 8881m | 4.8m/s | -31.9°C | 11.7% | 330.5hPa | 2.9V | 00:00:00 | 00:00:00 | 00:00:00 | |
| DO3MHA-11 | 2026-09-04 23:12:27 | 49.44355 | 12.54335 | 89° | 126km/h | 8870m | 5.6m/s | -31.8°C | 11.7% | 331.0hPa | 2.9V | 00:00:00 | 01:09:51 | 00:00:00 | |
| OE5DRO-10 | 2026-09-04 23:12:21 | 49.44350 | 12.54045 | 90° | 128km/h | 8841m | 4.5m/s | -31.6°C | 11.8% | 332.4hPa | 2.9V | 04:55:00 | 00:00:00 | 00:00:00 | |
| OE5WHR-10 | 2026-09-04 23:12:20 | 49.44350 | 12.53994 | 90° | 128km/h | 8836m | 5.0m/s | 0°C | 0% | 0hPa | 2.9V | 04:55:00 | 00:00:00 | 00:00:00 | |
| DO3MHA-11 | 2026-09-04 23:12:17 | 49.44349 | 12.53844 | 90° | 126km/h | 8822m | 5.0m/s | -31.4°C | 11.6% | 333.3hPa | 2.9V | 00:00:00 | 01:09:41 | 00:00:00 | |
| DL1JEZ-13 | 2026-09-04 23:12:16 | 49.44349 | 12.53844 | 90° | 128km/h | 8822m | 5.1m/s | 0°C | 0% | 0hPa | 2.9V | 00:00:00 | 00:00:00 | 00:00:00 | |
| DO9HM | 2026-09-04 23:12:08 | 49.44343 | 12.53402 | 91° | 128km/h | 8778m | 5.1m/s | -31.1°C | 9.9% | 335.4hPa | 2.9V | 04:55:00 | 00:00:00 | 00:00:00 | |
| DO3MHA-11 | 2026-09-04 23:12:07 | 49.44344 | 12.53352 | 91° | 126km/h | 8773m | 5.6m/s | -31.0°C | 11.5% | 335.6hPa | 2.9V | 00:00:00 | 01:09:31 | 00:00:00 | |
| DH8WE-5 | 2026-09-04 23:12:04 | 49.44345 | 12.53253 | 93° | 126km/h | 8763m | 5.2m/s | 0°C | 0% | 0hPa | 2.9V | 00:00:00 | 00:00:00 | 00:00:00 | |
| OE5DRO-10 | 2026-09-04 23:12:02 | 49.44348 | 12.53108 | 92° | 126km/h | 8748m | 5.4m/s | -30.8°C | 11.6% | 336.8hPa | 2.9V | 00:00:00 | 00:00:00 | 00:00:00 | |
| DO8TBO-1 | 2026-09-04 23:12:01 | 49.44349 | 12.53060 | 91° | 128km/h | 8743m | 5.2m/s | -30.7°C | 11.8% | 337.0hPa | 2.9V | 00:00:00 | 01:09:25 | 00:00:00 | |
| OE5DXL-15 | 2026-09-04 23:11:59 | 49.44349 | 12.52962 | 89° | 128km/h | 8733m | 5.4m/s | -30.6°C | 12.0% | 337.5hPa | 2.9V | 00:00:00 | 00:00:00 | 00:00:00 | |
| DO3MHA-11 | 2026-09-04 23:11:57 | 49.44347 | 12.52864 | 89° | 128km/h | 8723m | 5.9m/s | -30.6°C | 12.7% | 337.9hPa | 2.9V | 00:00:00 | 01:09:21 | 00:00:00 | |
| AM1SDL-15 | 2026-09-04 23:11:56 | 49.44346 | 12.52814 | 89° | 128km/h | 8718m | 5.2m/s | 0°C | 0% | 0hPa | 2.9V | 00:00:00 | 01:09:20 | 00:00:00 | |
| DO3MHA-11 | 2026-09-04 23:11:47 | 49.44351 | 12.52369 | 93° | 126km/h | 8676m | 4.5m/s | -30.2°C | 16.1% | 340.2hPa | 2.9V | 04:55:00 | 01:09:11 | 00:00:00 | |
| DO9HM | 2026-09-04 23:11:45 | 49.44352 | 12.52320 | 93° | 128km/h | 8671m | 4.9m/s | -30.3°C | 14.7% | 340.5hPa | 2.9V | 04:55:00 | 00:00:00 | 00:00:00 | |
| AM1SDL-15 | 2026-09-04 23:11:44 | 49.44354 | 12.52222 | 92° | 128km/h | 8661m | 4.7m/s | 0°C | 0% | 0hPa | 2.9V | 00:00:00 | 01:09:08 | 00:00:00 | |
| OE5DRO-10 | 2026-09-04 23:11:43 | 49.44355 | 12.52173 | 91° | 128km/h | 8656m | 5.4m/s | -30.1°C | 17.4% | 341.1hPa | 2.9V | 00:00:00 | 00:00:00 | 00:00:00 | |
| DO3MHA-11 | 2026-09-04 23:11:37 | 49.44358 | 12.51880 | 91° | 131km/h | 8626m | 5.4m/s | -29.9°C | 20.2% | 342.6hPa | 2.9V | 00:00:00 | 01:09:01 | 00:00:00 | |
| AM1SDL-15 | 2026-09-04 23:11:32 | 49.44362 | 12.51622 | 92° | 128km/h | 8603m | 4.5m/s | 0°C | 0% | 0hPa | 2.9V | 04:55:00 | 01:08:56 | 00:00:00 | |
| DO8TBO-1 | 2026-09-04 23:11:31 | 49.44362 | 12.51572 | 91° | 133km/h | 8597m | 5.5m/s | -29.7°C | 22.6% | 344.0hPa | 2.9V | 00:00:00 | 01:08:55 | 00:00:00 | |
| DL6DJ-15 | 2026-09-04 23:11:30 | 49.44362 | 12.51522 | 88° | 128km/h | 8592m | 4.9m/s | -29.7°C | 20.8% | 344.3hPa | 2.9V | 00:00:00 | 00:00:00 | 00:00:00 | |
| OE5DXL-15 | 2026-09-04 23:11:29 | 49.44361 | 12.51472 | 89° | 131km/h | 8588m | 3.8m/s | -29.7°C | 23.5% | 344.5hPa | 2.9V | 04:55:00 | 00:00:00 | 00:00:00 | |
| DO3MHA-11 | 2026-09-04 23:11:27 | 49.44360 | 12.51374 | 90° | 130km/h | 8579m | 4.5m/s | -29.6°C | 23.9% | 345.0hPa | 2.9V | 00:00:00 | 01:08:51 | 00:00:00 | |
| DO9HM | 2026-09-04 23:11:25 | 49.44360 | 12.51276 | 91° | 128km/h | 8569m | 5.2m/s | -29.5°C | 21.9% | 345.4hPa | 2.9V | 04:56:00 | 00:00:00 | 00:00:00 | |
| OE5DRO-10 | 2026-09-04 23:11:24 | 49.44360 | 12.51225 | 91° | 131km/h | 8564m | 4.8m/s | -29.5°C | 24.9% | 345.6hPa | 2.9V | 00:00:00 | 00:00:00 | 00:00:00 | |
| AM1SDL-15 | 2026-09-04 23:11:20 | 49.44363 | 12.51025 | 92° | 131km/h | 8545m | 4.5m/s | 0°C | 0% | 0hPa | 2.9V | 00:00:00 | 01:08:44 | 00:00:00 | |
| DO3MHA-11 | 2026-09-04 23:11:17 | 49.44363 | 12.50873 | 89° | 133km/h | 8531m | 4.6m/s | -29.2°C | 25.8% | 347.2hPa | 2.9V | 00:00:00 | 01:08:41 | 00:00:00 | |
| AM1SDL-15 | 2026-09-04 23:11:08 | 49.44358 | 12.50409 | 91° | 133km/h | 8484m | 5.4m/s | 0°C | 0% | 0hPa | 2.9V | 00:00:00 | 01:08:32 | 00:00:00 | |
| DO3MHA-11 | 2026-09-04 23:11:07 | 49.44358 | 12.50356 | 91° | 133km/h | 8479m | 4.8m/s | -28.7°C | 23.4% | 349.8hPa | 2.9V | 00:00:00 | 01:08:31 | 00:00:00 | |
| OE5DRO-10 | 2026-09-04 23:11:05 | 49.44357 | 12.50251 | 89° | 133km/h | 8468m | 5.7m/s | -28.6°C | 23.1% | 350.3hPa | 2.9V | 00:00:00 | 00:00:00 | 00:00:00 | |
| DO9HM | 2026-09-04 23:11:03 | 49.44353 | 12.50150 | 87° | 130km/h | 8459m | 4.1m/s | -28.6°C | 20.8% | 350.8hPa | 2.7V | 04:56:00 | 00:00:00 | 00:00:00 | |
| NBG1-10 | 2026-09-04 23:11:00 | 49.44349 | 12.49999 | 90° | 135km/h | 8443m | 5.6m/s | -28.4°C | 23.9% | 351.5hPa | 2.7V | 00:00:00 | 01:08:24 | 00:00:00 | |
| OE5DXL-15 | 2026-09-04 23:10:59 | 49.44348 | 12.49946 | 91° | 131km/h | 8438m | 4.3m/s | -28.4°C | 24.6% | 351.8hPa | 2.7V | 00:00:00 | 00:00:00 | 00:00:00 | |
| DO3MHA-11 | 2026-09-04 23:10:57 | 49.44349 | 12.49840 | 91° | 131km/h | 8428m | 5.9m/s | -28.3°C | 25.4% | 352.2hPa | 2.7V | 04:56:00 | 01:08:21 | 00:00:00 | |
| DF2AP-13 | 2026-09-04 23:10:48 | 49.44341 | 12.49383 | 88° | 130km/h | 8376m | 6.6m/s | -27.9°C | 26.6% | 354.7hPa | 2.7V | 00:00:00 | 01:08:12 | 00:00:00 | |
| DO3MHA-11 | 2026-09-04 23:10:47 | 49.44340 | 12.49329 | 87° | 128km/h | 8370m | 4.8m/s | -27.8°C | 26.7% | 355.0hPa | 2.7V | 00:00:00 | 01:08:11 | 00:00:00 | |
| OE5DRO-10 | 2026-09-04 23:10:46 | 49.44338 | 12.49276 | 87° | 128km/h | 8365m | 5.6m/s | -27.8°C | 26.8% | 355.3hPa | 2.7V | 04:56:00 | 00:00:00 | 00:00:00 | |
| AM1SDL-15 | 2026-09-04 23:10:44 | 49.44335 | 12.49173 | 89° | 126km/h | 8354m | 5.0m/s | 0°C | 0% | 0hPa | 2.7V | 00:00:00 | 01:08:08 | 00:00:00 | |
| DO9HM | 2026-09-04 23:10:42 | 49.44335 | 12.49123 | 91° | 128km/h | 8348m | 7.2m/s | -27.7°C | 24.7% | 356.2hPa | 2.7V | 04:56:00 | 00:00:00 | 00:00:00 | |
| DO3MHA-11 | 2026-09-04 23:10:37 | 49.44335 | 12.48836 | 90° | 131km/h | 8307m | 6.4m/s | -27.2°C | 28.4% | 358.1hPa | 2.7V | 00:00:00 | 01:08:01 | 00:00:00 | |
| AM1SDL-15 | 2026-09-04 23:10:32 | 49.44336 | 12.48584 | 93° | 130km/h | 8279m | 7.3m/s | 0°C | 0% | 0hPa | 2.9V | 04:56:00 | 01:07:56 | 00:00:00 | |
| OE5DXL-15 | 2026-09-04 23:10:29 | 49.44337 | 12.48427 | 89° | 126km/h | 8258m | 7.1m/s | -26.9°C | 32.1% | 360.5hPa | 2.9V | 00:00:00 | 00:00:00 | 00:00:00 | |
| DL6DJ-15 | 2026-09-04 23:10:28 | 49.44333 | 12.48327 | 85° | 126km/h | 8244m | 6.8m/s | -26.8°C | 28.9% | 361.4hPa | 2.9V | 00:00:00 | 00:00:00 | 00:00:00 | |
| DO3MHA-11 | 2026-09-04 23:10:27 | 49.44332 | 12.48327 | 86° | 126km/h | 8245m | 6.8m/s | -26.8°C | 31.6% | 361.3hPa | 2.9V | 00:00:00 | 01:07:51 | 00:00:00 | |
| OE5DRO-10 | 2026-09-04 23:10:26 | 49.44330 | 12.48278 | 86° | 126km/h | 8238m | 6.4m/s | -26.7°C | 31.6% | 361.6hPa | 2.9V | 00:00:00 | 00:00:00 | 00:00:00 | |
| DO8TBO-1 | 2026-09-04 23:10:24 | 49.44327 | 12.48180 | 89° | 126km/h | 8225m | 6.1m/s | -26.6°C | 31.5% | 362.3hPa | 2.9V | 00:00:00 | 01:07:48 | 00:00:00 | |
| DO9HM | 2026-09-04 23:10:21 | 49.44326 | 12.48084 | 91° | 124km/h | 8213m | 6.0m/s | -26.6°C | 29.1% | 363.0hPa | 2.9V | 04:57:00 | 00:00:00 | 00:00:00 | |
| DF2AP-13 | 2026-09-04 23:10:18 | 49.44325 | 12.47887 | 89° | 130km/h | 8191m | 5.0m/s | -26.3°C | 32.3% | 364.0hPa | 2.9V | 00:00:00 | 01:07:42 | 00:00:00 | |
| DO3MHA-11 | 2026-09-04 23:10:17 | 49.44323 | 12.47835 | 88° | 128km/h | 8186m | 4.8m/s | -26.3°C | 32.4% | 364.3hPa | 2.9V | 00:00:00 | 01:07:41 | 00:00:00 | |
| NBG1-10 | 2026-09-04 23:10:13 | 49.44319 | 12.47629 | 89° | 124km/h | 8165m | 5.3m/s | -26.2°C | 32.5% | 365.3hPa | 2.9V | 00:00:00 | 01:07:37 | 00:00:00 | |
| DO3MHA-11 | 2026-09-04 23:10:07 | 49.44316 | 12.47340 | 94° | 124km/h | 8129m | 7.4m/s | -25.9°C | 32.4% | 367.1hPa | 2.9V | 04:57:00 | 01:07:31 | 00:00:00 | |
| OE5WHR-10 | 2026-09-04 23:10:05 | 49.44320 | 12.47244 | 94° | 126km/h | 8117m | 6.9m/s | 0°C | 0% | 0hPa | 2.7V | 00:00:00 | 01:07:29 | 00:00:00 | |
| DL6DJ-15 | 2026-09-04 23:09:57 | 49.44311 | 12.46811 | 87° | 119km/h | 8067m | 4.3m/s | -25.4°C | 30.0% | 370.3hPa | 2.7V | 00:00:00 | 00:00:00 | 00:00:00 | |
| DO8TBO-1 | 2026-09-04 23:09:54 | 49.44309 | 12.46718 | 90° | 126km/h | 8054m | 6.0m/s | -25.2°C | 32.3% | 370.9hPa | 2.7V | 00:00:00 | 01:07:18 | 00:00:00 | |
| AM1SDL-15 | 2026-09-04 23:09:49 | 49.44308 | 12.46473 | 90° | 130km/h | 8023m | 6.3m/s | 0°C | 0% | 0hPa | 2.7V | 00:00:00 | 01:07:13 | 00:00:00 | |
| DO3MHA-11 | 2026-09-04 23:09:47 | 49.44309 | 12.46374 | 91° | 130km/h | 8009m | 6.8m/s | -25.1°C | 31.9% | 373.2hPa | 2.7V | 00:00:00 | 01:07:11 | 00:00:00 | |
| OE5DRO-10 | 2026-09-04 23:09:43 | 49.44310 | 12.46175 | 90° | 124km/h | 7985m | 5.7m/s | -25.0°C | 28.5% | 374.5hPa | 2.7V | 00:00:00 | 00:00:00 | 00:00:00 | |
| DO9HM | 2026-09-04 23:09:39 | 49.44312 | 12.45973 | 93° | 133km/h | 7962m | 5.9m/s | -24.9°C | 19.0% | 375.7hPa | 2.9V | 04:58:00 | 00:00:00 | 00:00:00 | |
| DO3MHA-11 | 2026-09-04 23:09:37 | 49.44313 | 12.45871 | 90° | 122km/h | 7952m | 4.3m/s | -24.7°C | 19.7% | 376.2hPa | 2.9V | 00:00:00 | 01:07:01 | 00:00:00 | |
| DF2AP-13 | 2026-09-04 23:09:33 | 49.44313 | 12.45679 | 90° | 122km/h | 7934m | 4.2m/s | -24.6°C | 17.0% | 377.2hPa | 2.7V | 00:00:00 | 01:06:57 | 00:00:00 | |
| OE5DXL-15 | 2026-09-04 23:09:29 | 49.44309 | 12.45491 | 89° | 124km/h | 7915m | 3.8m/s | -24.4°C | 17.0% | 378.1hPa | 2.9V | 00:00:00 | 00:00:00 | 00:00:00 | |
| DO3MHA-11 | 2026-09-04 23:09:27 | 49.44309 | 12.45397 | 92° | 122km/h | 7905m | 5.1m/s | -24.3°C | 17.0% | 378.7hPa | 2.9V | 00:00:00 | 01:06:51 | 00:00:00 | |
| DL6DJ-15 | 2026-09-04 23:09:26 | 49.44311 | 12.45305 | 91° | 117km/h | 7895m | 5.9m/s | -24.3°C | 15.4% | 379.3hPa | 2.9V | 00:00:00 | 00:00:00 | 00:00:00 | |
| DO8TBO-1 | 2026-09-04 23:09:24 | 49.44312 | 12.45259 | 92° | 126km/h | 7890m | 4.3m/s | -24.2°C | 17.4% | 379.4hPa | 2.9V | 00:00:00 | 01:06:48 | 00:00:00 | |
| AM1SDL-15 | 2026-09-04 23:09:23 | 49.44312 | 12.45213 | 92° | 122km/h | 7886m | 3.8m/s | 0°C | 0% | 0hPa | 2.9V | 00:00:00 | 01:06:47 | 00:00:00 | |
| OE5WHR-10 | 2026-09-04 23:09:21 | 49.44315 | 12.45117 | 92° | 128km/h | 7877m | 3.7m/s | 0°C | 0% | 0hPa | 2.9V | 00:00:00 | 00:00:00 | 00:00:00 | |
| DO3MHA-11 | 2026-09-04 23:09:17 | 49.44316 | 12.44923 | 88° | 122km/h | 7860m | 3.2m/s | -24.0°C | 20.8% | 381.0hPa | 2.9V | 04:58:00 | 01:06:41 | 00:00:00 | |
| DO3MHA-11 | 2026-09-04 23:09:07 | 49.44312 | 12.44445 | 88° | 128km/h | 7815m | 5.3m/s | -23.7°C | 22.6% | 383.4hPa | 2.9V | 00:00:00 | 01:06:31 | 00:00:00 | |
| DF2AP-13 | 2026-09-04 23:09:03 | 49.44308 | 12.44243 | 91° | 124km/h | 7794m | 5.1m/s | -23.5°C | 23.7% | 384.5hPa | 2.9V | 00:00:00 | 01:06:27 | 00:00:00 | |
| OE5DRO-10 | 2026-09-04 23:09:02 | 49.44308 | 12.44195 | 91° | 126km/h | 7788m | 6.9m/s | -23.4°C | 24.4% | 384.8hPa | 2.9V | 00:00:00 | 00:00:00 | 00:00:00 | |
| DL6DJ-15 | 2026-09-04 23:08:55 | 49.44298 | 12.43801 | 88° | 124km/h | 7731m | 5.8m/s | -23.1°C | 18.3% | 387.8hPa | 2.9V | 00:00:00 | 00:00:00 | 00:00:00 | |
| DO8TBO-1 | 2026-09-04 23:08:54 | 49.44298 | 12.43801 | 89° | 122km/h | 7731m | 5.8m/s | -23.0°C | 20.0% | 387.8hPa | 2.9V | 00:00:00 | 01:06:18 | 00:00:00 | |
| DO3MHA-11 | 2026-09-04 23:08:47 | 49.44294 | 12.43477 | 85° | 120km/h | 7698m | 3.5m/s | -22.9°C | 25.8% | 389.6hPa | 2.9V | 00:00:00 | 01:06:11 | 00:00:00 | |
| OE5DRO-10 | 2026-09-04 23:08:43 | 49.44284 | 12.43285 | 88° | 120km/h | 7679m | 6.0m/s | -22.7°C | 28.0% | 390.6hPa | 2.9V | 04:58:00 | 00:00:00 | 00:00:00 | |
| OE5WHR-10 | 2026-09-04 23:08:38 | 49.44284 | 12.43057 | 89° | 126km/h | 7655m | 5.1m/s | 0°C | 0% | 0hPa | 2.9V | 00:00:00 | 01:06:02 | 00:00:00 | |
| DO9HM | 2026-09-04 23:08:37 | 49.44283 | 12.43009 | 89° | 126km/h | 7650m | 5.4m/s | -22.6°C | 34.3% | 392.2hPa | 2.9V | 04:59:00 | 00:00:00 | 00:00:00 | |
| DF2AP-13 | 2026-09-04 23:08:32 | 49.44273 | 12.42760 | 87° | 126km/h | 7625m | 4.9m/s | -22.4°C | 38.4% | 393.4hPa | 2.9V | 04:58:00 | 01:05:56 | 00:00:00 | |
| OE5DXL-15 | 2026-09-04 23:08:29 | 49.44268 | 12.42620 | 89° | 124km/h | 7613m | 4.1m/s | -22.3°C | 38.8% | 394.2hPa | 2.9V | 00:00:00 | 00:00:00 | 00:00:00 | |
| DO3MHA-11 | 2026-09-04 23:08:27 | 49.44267 | 12.42525 | 90° | 126km/h | 7604m | 4.8m/s | -22.2°C | 38.7% | 394.6hPa | 2.9V | 04:58:00 | 01:05:51 | 00:00:00 | |
| DL6DJ-15 | 2026-09-04 23:08:24 | 49.44263 | 12.42329 | 85° | 124km/h | 7585m | 3.4m/s | -22.2°C | 36.9% | 395.6hPa | 2.9V | 00:00:00 | 00:00:00 | 00:00:00 | |
| DO3MHA-11 | 2026-09-04 23:08:17 | 49.44254 | 12.42037 | 91° | 124km/h | 7559m | 4.0m/s | -22.0°C | 41.5% | 397.1hPa | 2.9V | 00:00:00 | 01:05:41 | 00:00:00 | |
| DO9HM | 2026-09-04 23:08:16 | 49.44254 | 12.41990 | 90° | 120km/h | 7555m | 4.6m/s | -22.0°C | 39.1% | 397.3hPa | 2.9V | 04:59:00 | 00:00:00 | 00:00:00 | |
| DO3MHA-11 | 2026-09-04 23:08:07 | 49.44245 | 12.41559 | 88° | 126km/h | 7506m | 5.5m/s | -21.6°C | 46.0% | 399.9hPa | 2.9V | 00:00:00 | 01:05:31 | 00:00:00 | |
| OE5DRO-10 | 2026-09-04 23:08:04 | 49.44241 | 12.41418 | 88° | 126km/h | 7491m | 6.2m/s | -21.4°C | 44.9% | 400.8hPa | 2.9V | 00:00:00 | 00:00:00 | 00:00:00 | |
| DL6DJ-15 | 2026-09-04 23:07:53 | 49.44218 | 12.40826 | 83° | 124km/h | 7424m | 4.2m/s | -20.9°C | 37.9% | 404.4hPa | 2.9V | 00:00:00 | 00:00:00 | 00:00:00 | |
| DO3MHA-11 | 2026-09-04 23:07:47 | 49.44208 | 12.40583 | 89° | 124km/h | 7401m | 3.2m/s | -20.7°C | 39.1% | 405.7hPa | 2.9V | 00:00:00 | 01:05:11 | 00:00:00 | |
| OE5DRO-10 | 2026-09-04 23:07:45 | 49.44206 | 12.40484 | 88° | 126km/h | 7391m | 5.6m/s | -20.6°C | 37.9% | 406.2hPa | 2.9V | 00:00:00 | 00:00:00 | 00:00:00 | |
| DO3MHA-11 | 2026-09-04 23:07:37 | 49.44187 | 12.40100 | 87° | 128km/h | 7357m | 2.8m/s | -20.3°C | 33.3% | 408.1hPa | 2.9V | 04:59:00 | 01:05:01 | 00:00:00 | |
| DO9HM | 2026-09-04 23:07:34 | 49.44184 | 12.40002 | 89° | 128km/h | 7348m | 4.3m/s | -20.3°C | 30.4% | 408.6hPa | 2.9V | 05:00:00 | 00:00:00 | 00:00:00 | |
| OE5DXL-15 | 2026-09-04 23:07:29 | 49.44175 | 12.39703 | 87° | 126km/h | 7324m | 2.4m/s | -20.0°C | 31.3% | 409.9hPa | 2.9V | 00:00:00 | 00:00:00 | 00:00:00 | |
| DO8TBO-1 | 2026-09-04 23:07:23 | 49.44156 | 12.39409 | 82° | 126km/h | 7302m | 4.2m/s | -19.8°C | 29.2% | 411.1hPa | 2.9V | 00:00:00 | 01:04:47 | 00:00:00 | |
| DL6DJ-15 | 2026-09-04 23:07:21 | 49.44146 | 12.39314 | 79° | 124km/h | 7294m | 4.1m/s | -19.8°C | 27.2% | 411.5hPa | 2.9V | 00:00:00 | 00:00:00 | 00:00:00 | |
| DO3MHA-11 | 2026-09-04 23:07:17 | 49.44129 | 12.39120 | 85° | 126km/h | 7278m | 6.1m/s | -19.6°C | 27.9% | 412.4hPa | 2.9V | 00:00:00 | 01:04:41 | 00:00:00 | |
| DO9HM | 2026-09-04 23:07:14 | 49.44124 | 12.39027 | 87° | 117km/h | 7264m | 6.8m/s | -19.5°C | 25.0% | 413.1hPa | 2.9V | 05:00:00 | 00:00:00 | 00:00:00 | |
| DO3MHA-11 | 2026-09-04 23:07:07 | 49.44110 | 12.38631 | 88° | 126km/h | 7223m | 3.5m/s | -19.2°C | 23.8% | 415.4hPa | 2.9V | 00:00:00 | 01:04:31 | 00:00:00 | |
| OE5DRO-10 | 2026-09-04 23:07:03 | 49.44104 | 12.38436 | 86° | 126km/h | 7205m | 4.4m/s | 0°C | 0% | 0hPa | 2.9V | 00:00:00 | 00:00:00 | 00:00:00 | |
| DL6DJ-15 | 2026-09-04 23:06:50 | 49.44082 | 12.37799 | 87° | 120km/h | 7150m | 3.6m/s | -18.7°C | 19.7% | 419.5hPa | 2.9V | 00:00:00 | 00:00:00 | 00:00:00 | |
| DO3MHA-11 | 2026-09-04 23:06:47 | 49.44079 | 12.37656 | 90° | 124km/h | 7141m | 2.9m/s | -18.6°C | 20.9% | 420.0hPa | 2.9V | 00:00:00 | 01:04:11 | 00:00:00 | |
| OE5DRO-10 | 2026-09-04 23:06:44 | 49.44079 | 12.37510 | 90° | 122km/h | 7131m | 4.0m/s | 0°C | 0% | 0hPa | 2.9V | 00:00:00 | 00:00:00 | 00:00:00 | |
| DO3MHA-11 | 2026-09-04 23:06:37 | 49.44069 | 12.37174 | 87° | 122km/h | 7107m | 4.1m/s | -18.5°C | 19.1% | 422.0hPa | 2.9V | 05:00:00 | 01:04:01 | 00:00:00 | |
| NBG1-10 | 2026-09-04 23:06:34 | 49.44064 | 12.37035 | 89° | 131km/h | 7096m | 3.2m/s | -18.5°C | 19.4% | 422.6hPa | 2.7V | 00:00:00 | 01:03:58 | 00:00:00 | |
| DO9HM | 2026-09-04 23:06:32 | 49.44064 | 12.36987 | 89° | 122km/h | 7093m | 3.2m/s | -18.5°C | 18.1% | 422.8hPa | 2.7V | 05:01:00 | 00:00:00 | 00:00:00 | |
| OE5DXL-15 | 2026-09-04 23:06:29 | 49.44058 | 12.36797 | 88° | 130km/h | 7078m | 3.4m/s | -18.4°C | 19.6% | 423.6hPa | 2.7V | 00:00:00 | 00:00:00 | 00:00:00 | |
| DF2AP-13 | 2026-09-04 23:06:27 | 49.44056 | 12.36699 | 89° | 130km/h | 7071m | 2.6m/s | -18.4°C | 19.8% | 424.0hPa | 2.7V | 05:00:00 | 01:03:51 | 00:00:00 | |
| DO8TBO-1 | 2026-09-04 23:06:23 | 49.44051 | 12.36504 | 87° | 130km/h | 7057m | 2.8m/s | -18.3°C | 19.7% | 424.8hPa | 2.9V | 00:00:00 | 01:03:47 | 00:00:00 | |
| DL6DJ-15 | 2026-09-04 23:06:19 | 49.44045 | 12.36304 | 89° | 130km/h | 7044m | 2.5m/s | -18.2°C | 18.3% | 425.6hPa | 2.9V | 00:00:00 | 00:00:00 | 00:00:00 | |
| DO3MHA-11 | 2026-09-04 23:06:17 | 49.44044 | 12.36203 | 90° | 130km/h | 7038m | 3.6m/s | -18.1°C | 19.6% | 425.9hPa | 2.9V | 00:00:00 | 01:03:41 | 00:00:00 | |
| DO9HM | 2026-09-04 23:06:12 | 49.44044 | 12.36003 | 91° | 130km/h | 7024m | 2.8m/s | -18.1°C | 18.8% | 426.8hPa | 2.9V | 05:01:00 | 00:00:00 | 00:00:00 | |
| DO3MHA-11 | 2026-09-04 23:06:07 | 49.44040 | 12.35702 | 88° | 130km/h | 7004m | 1.7m/s | -17.9°C | 20.7% | 427.9hPa | 2.9V | 00:00:00 | 01:03:31 | 00:00:00 | |
| DL1JEZ-13 | 2026-09-04 23:06:04 | 49.44038 | 12.35599 | 89° | 131km/h | 6998m | 3.7m/s | 0°C | 0% | 0hPa | 2.7V | 00:00:00 | 00:00:00 | 00:00:00 | |
| DL6DJ-15 | 2026-09-04 23:05:48 | 49.44032 | 12.34742 | 89° | 128km/h | 6943m | 4.1m/s | -17.6°C | 20.4% | 431.4hPa | 2.7V | 00:00:00 | 00:00:00 | 00:00:00 | |
| DO3MHA-11 | 2026-09-04 23:05:47 | 49.44032 | 12.34692 | 90° | 133km/h | 6939m | 3.0m/s | -17.5°C | 21.8% | 431.6hPa | 2.7V | 00:00:00 | 01:03:11 | 00:00:00 | |
| DO3MHA-11 | 2026-09-04 23:05:37 | 49.44025 | 12.34177 | 89° | 133km/h | 6907m | 3.6m/s | -17.3°C | 23.5% | 433.4hPa | 2.7V | 05:01:00 | 01:03:01 | 00:00:00 | |
| OE5DRO-10 | 2026-09-04 23:05:36 | 49.44024 | 12.34126 | 90° | 133km/h | 6904m | 2.9m/s | 0°C | 0% | 0hPa | 2.9V | 00:00:00 | 00:00:00 | 00:00:00 | |
| DO9HM | 2026-09-04 23:05:32 | 49.44019 | 12.33926 | 86° | 131km/h | 6891m | 2.4m/s | -17.2°C | 21.9% | 434.4hPa | 2.9V | 05:01:00 | 00:00:00 | 00:00:00 | |
| OE5DXL-15 | 2026-09-04 23:05:29 | 49.44011 | 12.33770 | 87° | 133km/h | 6882m | 2.7m/s | -17.1°C | 23.6% | 434.8hPa | 2.9V | 00:00:00 | 00:00:00 | 00:00:00 | |
| DF2AP-13 | 2026-09-04 23:05:27 | 49.44006 | 12.33662 | 87° | 133km/h | 6877m | 3.5m/s | 0°C | 0% | 0hPa | 2.9V | 00:00:00 | 01:02:51 | 00:00:00 | |
| DO8TBO-1 | 2026-09-04 23:05:23 | 49.44001 | 12.33451 | 90° | 133km/h | 6864m | 2.5m/s | -16.9°C | 23.3% | 435.8hPa | 2.9V | 00:00:00 | 01:02:47 | 00:00:00 | |
| OE5DRO-10 | 2026-09-04 23:05:17 | 49.43991 | 12.33142 | 86° | 133km/h | 6846m | 2.6m/s | 0°C | 0% | 0hPa | 2.9V | 05:02:00 | 00:00:00 | 00:00:00 | |
| NBG1-10 | 2026-09-04 23:05:14 | 49.43983 | 12.32992 | 85° | 135km/h | 6836m | 3.8m/s | -16.6°C | 23.4% | 437.6hPa | 2.9V | 00:00:00 | 01:02:38 | 00:00:00 | |
| DO3MHA-11 | 2026-09-04 23:05:07 | 49.43974 | 12.32629 | 88° | 135km/h | 6812m | 3.6m/s | -16.4°C | 22.9% | 438.9hPa | 2.9V | 00:00:00 | 01:02:31 | 00:00:00 | |
| DL6DJ-15 | 2026-09-04 23:04:46 | 49.43958 | 12.31542 | 88° | 120km/h | 6740m | 7.0m/s | -16.2°C | 20.4% | 443.1hPa | 2.9V | 00:00:00 | 00:00:00 | 00:00:00 | |
| DO3MHA-11 | 2026-09-04 23:04:37 | 49.43930 | 12.31092 | 84° | 137km/h | 6688m | 5.4m/s | -15.8°C | 24.4% | 446.3hPa | 2.9V | 05:02:00 | 01:02:01 | 00:00:00 | |
| OE5DRO-10 | 2026-09-04 23:04:36 | 49.43925 | 12.31039 | 82° | 137km/h | 6682m | 6.1m/s | 0°C | 0% | 0hPa | 2.9V | 00:00:00 | 00:00:00 | 00:00:00 | |
| OE5DXL-15 | 2026-09-04 23:04:29 | 49.43899 | 12.30668 | 90° | 135km/h | 6651m | 4.9m/s | -15.6°C | 23.7% | 448.4hPa | 2.9V | 05:02:00 | 00:00:00 | 00:00:00 | |
| DO3MHA-11 | 2026-09-04 23:04:27 | 49.43898 | 12.30561 | 89° | 135km/h | 6642m | 4.8m/s | -15.5°C | 23.6% | 448.9hPa | 2.9V | 00:00:00 | 01:01:51 | 00:00:00 | |
| DO9HM | 2026-09-04 23:04:25 | 49.43894 | 12.30460 | 85° | 128km/h | 6634m | 3.8m/s | -15.5°C | 22.1% | 449.4hPa | 2.9V | 05:03:00 | 00:00:00 | 00:00:00 | |
| DO8TBO-1 | 2026-09-04 23:04:23 | 49.43884 | 12.30362 | 81° | 135km/h | 6627m | 3.7m/s | -15.4°C | 22.8% | 449.8hPa | 2.9V | 00:00:00 | 01:01:47 | 00:00:00 | |
| DO3MHA-11 | 2026-09-04 23:04:17 | 49.43851 | 12.30043 | 84° | 139km/h | 6602m | 5.6m/s | -15.2°C | 21.8% | 451.3hPa | 2.9V | 00:00:00 | 01:01:41 | 00:00:00 | |
| DL6DJ-15 | 2026-09-04 23:04:15 | 49.43844 | 12.29934 | 85° | 141km/h | 6590m | 6.5m/s | -15.2°C | 20.5% | 452.0hPa | 2.9V | 00:00:00 | 00:00:00 | 00:00:00 | |
| NBG1-10 | 2026-09-04 23:04:14 | 49.43841 | 12.29880 | 86° | 130km/h | 6584m | 6.4m/s | -15.1°C | 21.9% | 452.3hPa | 2.9V | 05:03:00 | 01:01:38 | 00:00:00 | |
| DO3MHA-11 | 2026-09-04 23:04:07 | 49.43833 | 12.29507 | 90° | 131km/h | 6548m | 3.4m/s | -14.8°C | 23.2% | 454.5hPa | 2.7V | 00:00:00 | 01:01:31 | 00:00:00 | |
| DO9HM | 2026-09-04 23:04:02 | 49.43819 | 12.29257 | 85° | 131km/h | 6525m | 5.6m/s | -14.7°C | 22.0% | 455.9hPa | 2.9V | 05:03:00 | 00:00:00 | 00:00:00 | |
| DL6DJ-15 | 2026-09-04 23:03:44 | 49.43776 | 12.28347 | 85° | 128km/h | 6443m | 5.1m/s | -14.7°C | 25.9% | 460.9hPa | 2.9V | 00:00:00 | 00:00:00 | 00:00:00 | |
| DO9HM | 2026-09-04 23:03:42 | 49.43771 | 12.28246 | 87° | 130km/h | 6436m | 4.5m/s | -14.7°C | 26.0% | 461.4hPa | 2.9V | 05:04:00 | 00:00:00 | 00:00:00 | |
| NBG1-10 | 2026-09-04 23:03:40 | 49.43766 | 12.28145 | 85° | 126km/h | 6427m | 4.9m/s | -14.6°C | 26.9% | 461.9hPa | 2.9V | 00:00:00 | 01:01:04 | 00:00:00 | |
| DO3MHA-11 | 2026-09-04 23:03:37 | 49.43755 | 12.27991 | 84° | 126km/h | 6414m | 4.5m/s | -14.6°C | 25.3% | 462.7hPa | 2.9V | 05:03:00 | 01:01:01 | 00:00:00 | |
| OE5DRO-10 | 2026-09-04 23:03:32 | 49.43737 | 12.27730 | 84° | 124km/h | 6396m | 3.1m/s | 0°C | 0% | 0hPa | 2.9V | 00:00:00 | 00:00:00 | 00:00:00 | |
| OE5DXL-15 | 2026-09-04 23:03:29 | 49.43727 | 12.27593 | 84° | 122km/h | 6385m | 3.1m/s | -14.6°C | 30.3% | 464.4hPa | 2.9V | 00:00:00 | 00:00:00 | 00:00:00 | |
| DO3MHA-11 | 2026-09-04 23:03:27 | 49.43719 | 12.27507 | 80° | 128km/h | 6378m | 3.5m/s | -14.6°C | 31.6% | 464.9hPa | 2.9V | 00:00:00 | 01:00:51 | 00:00:00 | |
| DF2AP-13 | 2026-09-04 23:03:22 | 49.43692 | 12.27271 | 81° | 124km/h | 6354m | 6.8m/s | 0°C | 0% | 0hPa | 2.9V | 00:00:00 | 01:00:46 | 00:00:00 | |
| DO9HM | 2026-09-04 23:03:21 | 49.43693 | 12.27271 | 81° | 133km/h | 6354m | 6.9m/s | -14.5°C | 28.7% | 466.3hPa | 2.9V | 05:04:00 | 00:00:00 | 00:00:00 | |
| DO3MHA-11 | 2026-09-04 23:03:17 | 49.43666 | 12.27016 | 84° | 122km/h | 6324m | 5.2m/s | -14.2°C | 27.8% | 468.2hPa | 2.9V | 00:00:00 | 01:00:41 | 00:00:00 | |
| DL6DJ-15 | 2026-09-04 23:03:13 | 49.43661 | 12.26821 | 89° | 122km/h | 6304m | 4.8m/s | -14.1°C | 19.2% | 469.5hPa | 2.9V | 00:00:00 | 00:00:00 | 00:00:00 | |
| SONCRA | 2026-09-04 23:03:08 | 49.43641 | 12.26544 | 80° | 117km/h | 6271m | 5.9m/s | 0°C | -1.0% | -1.0hPa | 2.9V | 00:00:00 | 00:00:00 | 00:00:00 | |
| DO3MHA-11 | 2026-09-04 23:03:07 | 49.43641 | 12.26544 | 81° | 122km/h | 6271m | 5.8m/s | -14.0°C | 21.4% | 471.5hPa | 2.9V | 00:00:00 | 01:00:31 | 00:00:00 | |
| OE5DRO-10 | 2026-09-04 23:03:03 | 49.43626 | 12.26361 | 85° | 120km/h | 6248m | 5.8m/s | 0°C | 0% | 0hPa | 2.7V | 00:00:00 | 00:00:00 | 00:00:00 | |
| DO9HM | 2026-09-04 23:03:00 | 49.43621 | 12.26264 | 87° | 128km/h | 6238m | 6.0m/s | -13.9°C | 18.6% | 473.5hPa | 2.7V | 05:04:00 | 00:00:00 | 00:00:00 | |
| DO3MHA-11 | 2026-09-04 23:02:57 | 49.43611 | 12.26069 | 84° | 126km/h | 6220m | 3.2m/s | -13.8°C | 20.6% | 474.6hPa | 2.7V | 00:00:00 | 01:00:21 | 00:00:00 | |
| DO8TBO-1 | 2026-09-04 23:02:53 | 49.43599 | 12.25873 | 85° | 124km/h | 6205m | 3.4m/s | -13.8°C | 23.3% | 475.6hPa | 2.7V | 00:00:00 | 01:00:17 | 00:00:00 | |
| DO3MHA-11 | 2026-09-04 23:02:47 | 49.43582 | 12.25583 | 86° | 122km/h | 6184m | 3.4m/s | -13.6°C | 22.3% | 476.9hPa | 2.7V | 00:00:00 | 01:00:11 | 00:00:00 | |
| DL6DJ-15 | 2026-09-04 23:02:42 | 49.43564 | 12.25305 | 84° | 122km/h | 6160m | 4.1m/s | -13.5°C | 20.6% | 478.4hPa | 2.7V | 00:00:00 | 00:00:00 | 00:00:00 | |
| DF2AP-13 | 2026-09-04 23:02:39 | 49.43558 | 12.25207 | 85° | 120km/h | 6154m | 2.5m/s | 0°C | 0% | 0hPa | 2.7V | 00:00:00 | 01:00:03 | 00:00:00 | |
| DO3MHA-11 | 2026-09-04 23:02:37 | 49.43553 | 12.25108 | 88° | 122km/h | 6148m | 3.4m/s | -13.3°C | 23.0% | 479.2hPa | 2.7V | 05:04:00 | 01:00:01 | 00:00:00 | |
| NBG1-10 | 2026-09-04 23:02:34 | 49.43548 | 12.24964 | 87° | 124km/h | 6137m | 3.3m/s | -13.2°C | 23.7% | 479.9hPa | 2.9V | 00:00:00 | 00:59:58 | 00:00:00 | |
| DO3MHA-11 | 2026-09-04 23:02:27 | 49.43532 | 12.24634 | 86° | 124km/h | 6112m | 3.3m/s | -13.0°C | 24.7% | 481.5hPa | 2.9V | 00:00:00 | 00:59:51 | 00:00:00 | |
| DO8TBO-1 | 2026-09-04 23:02:23 | 49.43523 | 12.24438 | 85° | 122km/h | 6096m | 3.8m/s | -12.9°C | 25.3% | 482.5hPa | 2.9V | 00:00:00 | 00:59:47 | 00:00:00 | |
| DO9HM | 2026-09-04 23:02:20 | 49.43518 | 12.24343 | 87° | 120km/h | 6090m | 3.3m/s | -12.9°C | 24.6% | 482.8hPa | 2.9V | 05:05:00 | 00:00:00 | 00:00:00 | |
| DO3MHA-11 | 2026-09-04 23:02:17 | 49.43509 | 12.24154 | 86° | 126km/h | 6075m | 4.2m/s | -12.9°C | 27.7% | 483.8hPa | 2.9V | 00:00:00 | 00:59:41 | 00:00:00 | |
| DL6DJ-15 | 2026-09-04 23:02:11 | 49.43481 | 12.23816 | 79° | 130km/h | 6048m | 3.3m/s | -12.9°C | 27.9% | 485.5hPa | 2.9V | 00:00:00 | 00:00:00 | 00:00:00 | |
| DO3MHA-11 | 2026-09-04 23:02:07 | 49.43464 | 12.23664 | 83° | 119km/h | 6038m | 3.5m/s | -12.8°C | 27.9% | 486.1hPa | 2.9V | 00:00:00 | 00:59:31 | 00:00:00 | |
| NBG1-10 | 2026-09-04 23:02:01 | 49.43456 | 12.23380 | 87° | 119km/h | 6005m | 3.3m/s | -12.6°C | 27.7% | 488.2hPa | 2.9V | 00:00:00 | 00:59:25 | 00:00:00 | |
| DO9HM | 2026-09-04 23:01:59 | 49.43455 | 12.23337 | 88° | 110km/h | 6001m | 5.4m/s | -12.6°C | 26.1% | 488.4hPa | 2.9V | 05:06:00 | 00:00:00 | 00:00:00 | |
| DO3MHA-11 | 2026-09-04 23:01:57 | 49.43449 | 12.23204 | 86° | 117km/h | 5986m | 4.8m/s | -12.4°C | 26.5% | 489.5hPa | 2.9V | 00:00:00 | 00:59:21 | 00:00:00 | |
| OE5DXL-15 | 2026-09-04 23:01:53 | 49.43437 | 12.23019 | 86° | 119km/h | 5963m | 5.6m/s | 0°C | 0% | 0hPa | 2.9V | 00:00:00 | 00:00:00 | 00:00:00 | |
| DO3MHA-11 | 2026-09-04 23:01:47 | 49.43425 | 12.22751 | 85° | 122km/h | 5938m | 3.7m/s | -12.0°C | 25.7% | 492.5hPa | 2.9V | 00:00:00 | 00:59:11 | 00:00:00 | |
| DF2AP-13 | 2026-09-04 23:01:43 | 49.43413 | 12.22563 | 86° | 126km/h | 5923m | 4.5m/s | 0°C | 0% | 0hPa | 2.9V | 00:00:00 | 00:59:07 | 00:00:00 | |
| DO9HM | 2026-09-04 23:01:39 | 49.43409 | 12.22419 | 89° | 122km/h | 5912m | 2.9m/s | -11.9°C | 23.5% | 494.3hPa | 2.9V | 05:06:00 | 00:00:00 | 00:00:00 | |
| DO3MHA-11 | 2026-09-04 23:01:37 | 49.43401 | 12.22275 | 81° | 119km/h | 5900m | 4.4m/s | -11.7°C | 24.5% | 494.9hPa | 2.9V | 05:05:00 | 00:59:01 | 00:00:00 | |
| NBG1-10 | 2026-09-04 23:01:28 | 49.43363 | 12.21863 | 91° | 117km/h | 5858m | 7.8m/s | -11.6°C | 28.4% | 497.6hPa | 2.9V | 00:00:00 | 00:58:52 | 00:00:00 | |
| DO8TBO-1 | 2026-09-04 23:01:23 | 49.43363 | 12.21648 | 88° | 119km/h | 5830m | 6.9m/s | -11.4°C | 22.0% | 499.5hPa | 2.9V | 00:00:00 | 00:58:47 | 00:00:00 | |
| DO9HM | 2026-09-04 23:01:18 | 49.43351 | 12.21462 | 85° | 120km/h | 5803m | 7.1m/s | -11.4°C | 30.8% | 501.3hPa | 2.9V | 05:06:00 | 00:00:00 | 00:00:00 | |
| DO3MHA-11 | 2026-09-04 23:01:17 | 49.43345 | 12.21371 | 86° | 119km/h | 5791m | 4.0m/s | -11.3°C | 34.9% | 502.1hPa | 2.9V | 00:00:00 | 00:58:41 | 00:00:00 | |
| DL6DJ-15 | 2026-09-04 23:01:08 | 49.43334 | 12.20956 | 85° | 110km/h | 5756m | 4.3m/s | -11.2°C | 42.1% | 504.4hPa | 2.9V | 00:00:00 | 00:00:00 | 00:00:00 | |
| DO3MHA-11 | 2026-09-04 23:01:07 | 49.43332 | 12.20914 | 87° | 117km/h | 5752m | 4.4m/s | -11.1°C | 44.0% | 504.5hPa | 2.9V | 00:00:00 | 00:58:31 | 00:00:00 | |
| DO9HM | 2026-09-04 23:00:58 | 49.43313 | 12.20553 | 83° | 120km/h | 5709m | 5.2m/s | -10.8°C | 41.2% | 507.5hPa | 2.9V | 05:06:00 | 00:00:00 | 00:00:00 | |
| DO3MHA-11 | 2026-09-04 23:00:57 | 49.43304 | 12.20460 | 82° | 120km/h | 5700m | 3.6m/s | -10.7°C | 40.3% | 508.1hPa | 2.9V | 00:00:00 | 00:58:21 | 00:00:00 | |
| NBG1-10 | 2026-09-04 23:00:55 | 49.43295 | 12.20365 | 83° | 124km/h | 5691m | 3.9m/s | -10.6°C | 41.9% | 508.7hPa | 2.9V | 05:06:00 | 00:58:19 | 00:00:00 | |
| OE5DXL-15 | 2026-09-04 23:00:53 | 49.43288 | 12.20271 | 83° | 119km/h | 5683m | 4.7m/s | 0°C | 0% | 0hPa | 2.9V | 00:00:00 | 00:00:00 | 00:00:00 | |
| DO3MHA-11 | 2026-09-04 23:00:47 | 49.43262 | 12.20001 | 82° | 131km/h | 5661m | 4.6m/s | -10.3°C | 34.2% | 510.7hPa | 2.9V | 00:00:00 | 00:58:11 | 00:00:00 | |
| DL6DJ-15 | 2026-09-04 23:00:38 | 49.43230 | 12.19494 | 87° | 130km/h | 5623m | 4.8m/s | -10.0°C | 20.6% | 513.1hPa | 2.9V | 00:00:00 | 00:00:00 | 00:00:00 | |
| DF2AP-13 | 2026-09-04 23:00:37 | 49.43230 | 12.19494 | 88° | 120km/h | 5623m | 4.8m/s | 0°C | 0% | 0hPa | 2.9V | 00:00:00 | 00:58:01 | 00:00:00 | |
| DO3MHA-11 | 2026-09-04 23:00:27 | 49.43209 | 12.19049 | 85° | 120km/h | 5564m | 5.9m/s | -10.0°C | 23.2% | 516.9hPa | 2.9V | 00:00:00 | 00:57:51 | 00:00:00 | |
| DO8TBO-1 | 2026-09-04 23:00:23 | 49.43195 | 12.18858 | 83° | 122km/h | 5544m | 6.0m/s | -10.1°C | 26.6% | 518.2hPa | 2.9V | 00:00:00 | 00:57:47 | 00:00:00 | |
| NBG1-10 | 2026-09-04 23:00:22 | 49.43192 | 12.18812 | 84° | 120km/h | 5539m | 4.2m/s | -10.1°C | 27.0% | 518.7hPa | 2.9V | 00:00:00 | 00:57:46 | 00:00:00 | |
| DO3MHA-11 | 2026-09-04 23:00:17 | 49.43172 | 12.18579 | 80° | 124km/h | 5516m | 3.4m/s | -10.1°C | 27.3% | 520.2hPa | 2.9V | 00:00:00 | 00:57:41 | 00:00:00 | |
| DO3MHA-11 | 2026-09-04 23:00:07 | 49.43116 | 12.18104 | 82° | 117km/h | 5463m | 7.6m/s | -9.7°C | 26.5% | 523.8hPa | 2.9V | 00:00:00 | 00:57:31 | 00:00:00 | |
| DL6DJ-15 | 2026-09-04 23:00:06 | 49.43111 | 12.18060 | 79° | 115km/h | 5456m | 5.7m/s | -9.7°C | 25.3% | 524.4hPa | 2.9V | 00:00:00 | 00:00:00 | 00:00:00 | |
| DO3MHA-11 | 2026-09-04 22:59:57 | 49.43056 | 12.17658 | 78° | 115km/h | 5416m | 4.8m/s | -9.3°C | 25.8% | 527.2hPa | 2.9V | 00:00:00 | 00:57:21 | 00:00:00 | |
| DO9HM | 2026-09-04 22:59:56 | 49.43056 | 12.17658 | 79° | 115km/h | 5416m | 4.8m/s | -9.4°C | 24.7% | 527.2hPa | 2.9V | 05:07:00 | 00:00:00 | 00:00:00 | |
| DO8TBO-1 | 2026-09-04 22:59:53 | 49.43030 | 12.17481 | 79° | 119km/h | 5399m | 4.7m/s | -9.3°C | 26.5% | 528.3hPa | 2.9V | 00:00:00 | 00:57:17 | 00:00:00 | |
| NBG1-10 | 2026-09-04 22:59:48 | 49.42999 | 12.17263 | 76° | 119km/h | 5377m | 4.4m/s | -9.4°C | 28.4% | 529.7hPa | 2.9V | 00:00:00 | 00:57:12 | 00:00:00 | |
| DO3MHA-11 | 2026-09-04 22:59:47 | 49.42992 | 12.17219 | 77° | 119km/h | 5373m | 3.4m/s | -9.3°C | 29.0% | 530.0hPa | 2.9V | 00:00:00 | 00:57:11 | 00:00:00 | |
| DO3MHA-11 | 2026-09-04 22:59:37 | 49.42929 | 12.16765 | 79° | 119km/h | 5333m | 4.0m/s | -9.2°C | 31.5% | 532.8hPa | 2.9V | 05:07:00 | 00:57:01 | 00:00:00 | |
| DL6DJ-15 | 2026-09-04 22:59:35 | 49.42916 | 12.16674 | 76° | 119km/h | 5326m | 3.5m/s | -9.3°C | 30.5% | 533.4hPa | 2.9V | 00:00:00 | 00:00:00 | 00:00:00 | |
| DO3MHA-11 | 2026-09-04 22:59:27 | 49.42861 | 12.16315 | 77° | 115km/h | 5293m | 4.3m/s | -9.0°C | 32.5% | 535.6hPa | 2.9V | 00:00:00 | 00:56:51 | 00:00:00 | |
| DO8TBO-1 | 2026-09-04 22:59:23 | 49.42834 | 12.16136 | 78° | 117km/h | 5277m | 2.8m/s | -8.9°C | 32.8% | 536.7hPa | 2.9V | 00:00:00 | 00:56:47 | 00:00:00 | |
| DO3MHA-11 | 2026-09-04 22:59:17 | 49.42795 | 12.15879 | 73° | 122km/h | 5253m | 3.9m/s | -8.7°C | 33.1% | 538.3hPa | 2.9V | 00:00:00 | 00:56:41 | 00:00:00 | |
| NBG1-10 | 2026-09-04 22:59:15 | 49.42774 | 12.15792 | 70° | 115km/h | 5246m | 3.8m/s | -8.7°C | 33.6% | 538.7hPa | 2.9V | 00:00:00 | 00:56:39 | 00:00:00 | |
| DO3MHA-11 | 2026-09-04 22:59:07 | 49.42698 | 12.15430 | 75° | 113km/h | 5211m | 6.0m/s | -8.4°C | 36.9% | 541.1hPa | 2.9V | 00:00:00 | 00:56:31 | 00:00:00 | |
| DL6DJ-15 | 2026-09-04 22:59:04 | 49.42672 | 12.15299 | 71° | 117km/h | 5191m | 6.3m/s | -8.4°C | 36.0% | 542.6hPa | 2.9V | 00:00:00 | 00:00:00 | 00:00:00 | |
| DO3MHA-11 | 2026-09-04 22:58:57 | 49.42615 | 12.15010 | 73° | 113km/h | 5160m | 4.3m/s | -8.1°C | 32.4% | 544.7hPa | 2.9V | 00:00:00 | 00:56:21 | 00:00:00 | |
| DO9HM | 2026-09-04 22:58:55 | 49.42607 | 12.14970 | 73° | 110km/h | 5156m | 2.9m/s | -8.1°C | 31.0% | 545.0hPa | 2.9V | 05:08:00 | 00:00:00 | 00:00:00 | |
| DO8TBO-1 | 2026-09-04 22:58:53 | 49.42582 | 12.14843 | 75° | 115km/h | 5145m | 4.2m/s | -8.0°C | 32.5% | 545.8hPa | 2.9V | 05:08:00 | 00:56:17 | 00:00:00 | |
| DO3MHA-11 | 2026-09-04 22:58:47 | 49.42541 | 12.14586 | 77° | 119km/h | 5120m | 5.0m/s | -7.9°C | 17.9% | 547.6hPa | 2.9V | 00:00:00 | 00:56:11 | 00:00:00 | |
| NBG1-10 | 2026-09-04 22:58:42 | 49.42504 | 12.14372 | 72° | 117km/h | 5100m | 4.6m/s | -8.0°C | 23.5% | 549.0hPa | 2.9V | 00:00:00 | 00:56:06 | 00:00:00 | |
| DO3MHA-11 | 2026-09-04 22:58:37 | 49.42452 | 12.14147 | 72° | 111km/h | 5080m | 3.4m/s | -8.0°C | 29.3% | 550.4hPa | 2.9V | 05:08:00 | 00:56:01 | 00:00:00 | |
| DO9HM | 2026-09-04 22:58:34 | 49.42434 | 12.14059 | 75° | 115km/h | 5071m | 4.4m/s | -8.0°C | 29.2% | 551.1hPa | 2.9V | 05:09:00 | 00:00:00 | 00:00:00 | |
| DL6DJ-15 | 2026-09-04 22:58:33 | 49.42422 | 12.13976 | 78° | 110km/h | 5060m | 5.8m/s | -7.9°C | 30.4% | 551.9hPa | 2.9V | 00:00:00 | 00:00:00 | 00:00:00 | |
| DO3MHA-11 | 2026-09-04 22:58:27 | 49.42395 | 12.13725 | 79° | 119km/h | 5030m | 5.0m/s | -7.8°C | 38.0% | 554.0hPa | 2.9V | 00:00:00 | 00:55:51 | 00:00:00 | |
| DB0NH | 2026-09-04 22:58:26 | 49.42388 | 12.13679 | 78° | 119km/h | 5025m | 5.4m/s | -7.7°C | 38.9% | 554.4hPa | 2.9V | 00:00:00 | 00:55:50 | 00:00:00 | |
| DO8TBO-1 | 2026-09-04 22:58:23 | 49.42361 | 12.13542 | 69° | 119km/h | 5009m | 4.8m/s | -7.7°C | 43.0% | 555.5hPa | 2.9V | 00:00:00 | 00:55:47 | 00:00:00 | |
| DO3MHA-11 | 2026-09-04 22:58:17 | 49.42308 | 12.13287 | 78° | 117km/h | 4969m | 7.3m/s | -7.5°C | 54.3% | 558.3hPa | 2.9V | 00:00:00 | 00:55:41 | 00:00:00 | |
| DO9HM | 2026-09-04 22:58:14 | 49.42288 | 12.13156 | 77° | 117km/h | 4950m | 7.0m/s | -7.5°C | 58.0% | 559.9hPa | 2.9V | 05:09:00 | 00:00:00 | 00:00:00 | |
| NBG1-10 | 2026-09-04 22:58:09 | 49.42251 | 12.12936 | 76° | 119km/h | 4922m | 4.7m/s | -7.4°C | 73.0% | 562.0hPa | 2.9V | 00:00:00 | 00:55:33 | 00:00:00 | |
| DO3MHA-11 | 2026-09-04 22:58:07 | 49.42236 | 12.12851 | 76° | 124km/h | 4911m | 6.0m/s | -7.3°C | 75.2% | 562.6hPa | 2.9V | 00:00:00 | 00:55:31 | 00:00:00 | |
| DL6DJ-15 | 2026-09-04 22:58:02 | 49.42193 | 12.12627 | 72° | 130km/h | 4887m | 4.3m/s | -7.2°C | 71.4% | 564.4hPa | 2.9V | 00:00:00 | 00:00:00 | 00:00:00 | |
| DO3MHA-11 | 2026-09-04 22:57:57 | 49.42151 | 12.12387 | 79° | 113km/h | 4865m | 5.2m/s | -6.9°C | 68.1% | 565.9hPa | 2.9V | 00:00:00 | 00:55:21 | 00:00:00 | |
| DB0NH | 2026-09-04 22:57:56 | 49.42145 | 12.12344 | 78° | 119km/h | 4859m | 6.5m/s | -6.9°C | 68.6% | 566.3hPa | 2.9V | 00:00:00 | 00:55:20 | 00:00:00 | |
| DO8TBO-1 | 2026-09-04 22:57:53 | 49.42120 | 12.12226 | 69° | 117km/h | 4839m | 7.2m/s | -6.8°C | 79.0% | 567.7hPa | 2.9V | 00:00:00 | 00:55:17 | 00:00:00 | |
| DO3MHA-11 | 2026-09-04 22:57:47 | 49.42048 | 12.11977 | 66° | 120km/h | 4805m | 5.1m/s | -6.5°C | 78.4% | 570.2hPa | 2.9V | 00:00:00 | 00:55:11 | 00:00:00 | |
| DO3MHA-11 | 2026-09-04 22:57:37 | 49.41955 | 12.11536 | 72° | 122km/h | 4732m | 7.8m/s | -5.9°C | 83.4% | 575.6hPa | 2.9V | 05:09:00 | 00:55:01 | 00:00:00 | |
| NBG1-10 | 2026-09-04 22:57:36 | 49.41945 | 12.11491 | 71° | 113km/h | 4725m | 5.9m/s | -5.8°C | 83.1% | 576.1hPa | 2.9V | 05:09:00 | 00:55:00 | 00:00:00 | |
| DL6DJ-15 | 2026-09-04 22:57:31 | 49.41890 | 12.11261 | 69° | 126km/h | 4698m | 4.1m/s | -5.6°C | 79.6% | 578.2hPa | 2.9V | 00:00:00 | 00:00:00 | 00:00:00 | |
| DO3MHA-11 | 2026-09-04 22:57:27 | 49.41849 | 12.11093 | 69° | 102km/h | 4675m | 7.1m/s | -5.3°C | 80.3% | 579.8hPa | 2.9V | 00:00:00 | 00:54:51 | 00:00:00 | |
| DB0NH | 2026-09-04 22:57:26 | 49.41840 | 12.11056 | 70° | 93km/h | 4669m | 5.8m/s | -5.3°C | 80.4% | 580.2hPa | 2.9V | 00:00:00 | 00:54:50 | 00:00:00 | |
| DO9HM | 2026-09-04 22:57:24 | 49.41822 | 12.10983 | 72° | 100km/h | 4658m | 4.7m/s | -5.2°C | 77.8% | 581.2hPa | 2.9V | 05:10:00 | 00:00:00 | 00:00:00 | |
| DO8TBO-1 | 2026-09-04 22:57:23 | 49.41814 | 12.10945 | 72° | 111km/h | 4653m | 5.0m/s | -5.1°C | 80.0% | 581.5hPa | 2.9V | 00:00:00 | 00:54:47 | 00:00:00 | |
| DO3MHA-11 | 2026-09-04 22:57:17 | 49.41777 | 12.10710 | 81° | 115km/h | 4617m | 4.1m/s | -4.8°C | 77.7% | 584.2hPa | 2.9V | 00:00:00 | 00:54:41 | 00:00:00 | |
| DO3MHA-11 | 2026-09-04 22:57:07 | 49.41694 | 12.10284 | 72° | 115km/h | 4562m | 6.5m/s | -4.3°C | 73.6% | 588.2hPa | 2.9V | 00:00:00 | 00:54:31 | 00:00:00 | |
| NBG1-10 | 2026-09-04 22:57:03 | 49.41668 | 12.10116 | 77° | 110km/h | 4536m | 6.9m/s | -4.0°C | 70.5% | 590.1hPa | 2.9V | 00:00:00 | 00:54:27 | 00:00:00 | |
| DL6DJ-15 | 2026-09-04 22:57:00 | 49.41642 | 12.09981 | 71° | 117km/h | 4514m | 7.3m/s | -3.9°C | 61.1% | 591.8hPa | 2.9V | 00:00:00 | 00:00:00 | 00:00:00 | |
| DO9HM | 2026-09-04 22:56:58 | 49.41632 | 12.09939 | 70° | 115km/h | 4508m | 5.9m/s | -3.8°C | 61.1% | 592.3hPa | 2.9V | 05:11:00 | 00:00:00 | 00:00:00 | |
| DO3MHA-11 | 2026-09-04 22:56:57 | 49.41611 | 12.09860 | 67° | 102km/h | 4498m | 4.5m/s | -3.7°C | 62.5% | 593.0hPa | 2.9V | 00:00:00 | 00:54:21 | 00:00:00 | |
| DO8TBO-1 | 2026-09-04 22:56:53 | 49.41571 | 12.09713 | 70° | 106km/h | 4481m | 5.5m/s | 0°C | 0% | 0hPa | 2.9V | 00:00:00 | 00:54:17 | 00:00:00 | |
| DO3MHA-11 | 2026-09-04 22:56:47 | 49.41534 | 12.09480 | 78° | 115km/h | 4445m | 5.5m/s | -3.4°C | 51.2% | 597.0hPa | 2.9V | 00:00:00 | 00:54:11 | 00:00:00 | |
| DO9HM | 2026-09-04 22:56:38 | 49.41467 | 12.09136 | 74° | 108km/h | 4399m | 7.4m/s | -3.5°C | 63.5% | 600.5hPa | 2.9V | 05:11:00 | 00:00:00 | 00:00:00 | |
| NBG1-10 | 2026-09-04 22:56:30 | 49.41398 | 12.08781 | 83° | 100km/h | 4335m | 6.6m/s | -3.2°C | 75.8% | 605.3hPa | 2.9V | 00:00:00 | 00:53:54 | 00:00:00 | |
| DL6DJ-15 | 2026-09-04 22:56:29 | 49.41395 | 12.08744 | 84° | 99km/h | 4328m | 6.6m/s | -3.2°C | 74.3% | 605.9hPa | 2.9V | 00:00:00 | 00:00:00 | 00:00:00 | |
| DO3MHA-11 | 2026-09-04 22:56:27 | 49.41390 | 12.08664 | 84° | 99km/h | 4315m | 5.3m/s | -3.0°C | 75.6% | 606.9hPa | 2.9V | 00:00:00 | 00:53:51 | 00:00:00 | |
| DO8TBO-1 | 2026-09-04 22:56:23 | 49.41370 | 12.08507 | 76° | 99km/h | 4294m | 5.6m/s | 0°C | 0% | 0hPa | 2.9V | 00:00:00 | 00:53:47 | 00:00:00 | |
| DO3MHA-11 | 2026-09-04 22:56:17 | 49.41351 | 12.08288 | 87° | 108km/h | 4256m | 6.2m/s | -2.4°C | 74.1% | 611.3hPa | 2.9V | 00:00:00 | 00:53:41 | 00:00:00 | |
| DO3MHA-11 | 2026-09-04 22:56:07 | 49.41316 | 12.07878 | 82° | 93km/h | 4193m | 6.7m/s | -1.8°C | 71.0% | 616.3hPa | 2.9V | 00:00:00 | 00:53:31 | 00:00:00 | |
| DL6DJ-15 | 2026-09-04 22:55:58 | 49.41283 | 12.07552 | 82° | 89km/h | 4129m | 7.0m/s | -1.5°C | 70.4% | 621.4hPa | 2.9V | 00:00:00 | 00:00:00 | 00:00:00 | |
| NBG1-10 | 2026-09-04 22:55:57 | 49.41281 | 12.07517 | 87° | 95km/h | 4122m | 6.4m/s | -1.4°C | 72.0% | 621.8hPa | 2.9V | 00:00:00 | 00:53:21 | 00:00:00 | |
| DO3MHA-11 | 2026-09-04 22:55:47 | 49.41269 | 12.07158 | 90° | 95km/h | 4060m | 5.8m/s | -0.9°C | 72.5% | 626.7hPa | 2.9V | 00:00:00 | 00:53:11 | 00:00:00 | |
| DO9HM | 2026-09-04 22:55:37 | 49.41239 | 12.06797 | 81° | 89km/h | 4003m | 4.5m/s | -0.5°C | 71.6% | 631.3hPa | 2.9V | 05:12:00 | 00:00:00 | 00:00:00 | |
| DO3MHA-11 | 2026-09-04 22:55:27 | 49.41223 | 12.06417 | 83° | 95km/h | 3954m | 4.8m/s | -0.0°C | 72.8% | 635.1hPa | 2.9V | 00:00:00 | 00:52:51 | 00:00:00 | |
| NBG1-10 | 2026-09-04 22:55:24 | 49.41209 | 12.06315 | 76° | 93km/h | 3937m | 5.1m/s | 0.0°C | 72.0% | 636.4hPa | 2.9V | 00:00:00 | 00:52:48 | 00:00:00 | |
| DO3MHA-11 | 2026-09-04 22:55:17 | 49.41190 | 12.06050 | 93° | 88km/h | 3902m | 4.7m/s | 0.3°C | 72.4% | 639.2hPa | 2.9V | 00:00:00 | 00:52:41 | 00:00:00 | |
| DO9HM | 2026-09-04 22:55:15 | 49.41191 | 12.06014 | 96° | 91km/h | 3897m | 4.8m/s | 0.4°C | 70.9% | 639.6hPa | 2.9V | 05:12:00 | 00:00:00 | 00:00:00 | |
| DO3MHA-11 | 2026-09-04 22:55:07 | 49.41177 | 12.05717 | 76° | 91km/h | 3852m | 5.2m/s | 0.6°C | 73.0% | 643.3hPa | 2.9V | 00:00:00 | 00:52:31 | 00:00:00 | |
| DO3MHA-11 | 2026-09-04 22:54:57 | 49.41170 | 12.05366 | 93° | 97km/h | 3797m | 6.6m/s | 0.9°C | 76.5% | 647.5hPa | 2.9V | 00:00:00 | 00:52:21 | 00:00:00 | |
| DO9HM | 2026-09-04 22:54:56 | 49.41171 | 12.05329 | 91° | 97km/h | 3790m | 6.6m/s | 1.1°C | 74.5% | 648.1hPa | 2.9V | 05:12:00 | 00:00:00 | 00:00:00 | |
| NBG1-10 | 2026-09-04 22:54:51 | 49.41156 | 12.05136 | 83° | 89km/h | 3762m | 5.8m/s | 1.3°C | 75.4% | 650.3hPa | 2.9V | 00:00:00 | 00:52:15 | 00:00:00 | |
| DO3MHA-11 | 2026-09-04 22:54:47 | 49.41152 | 12.04992 | 92° | 88km/h | 3743m | 5.0m/s | 1.4°C | 76.9% | 651.9hPa | 2.9V | 00:00:00 | 00:52:11 | 00:00:00 | |
| DO3MHA-11 | 2026-09-04 22:54:37 | 49.41152 | 12.04653 | 87° | 91km/h | 3683m | 4.5m/s | 1.9°C | 78.5% | 656.9hPa | 2.9V | 05:12:00 | 00:52:01 | 00:00:00 | |
| DO9HM | 2026-09-04 22:54:35 | 49.41147 | 12.04589 | 81° | 84km/h | 3673m | 6.1m/s | 2.0°C | 77.5% | 657.8hPa | 2.9V | 05:12:00 | 00:00:00 | 00:00:00 | |
| DO3MHA-11 | 2026-09-04 22:54:27 | 49.41130 | 12.04303 | 96° | 88km/h | 3626m | 5.6m/s | 2.0°C | 82.7% | 661.5hPa | 2.9V | 00:00:00 | 00:51:51 | 00:00:00 | |
| DL6DJ-15 | 2026-09-04 22:54:25 | 49.41131 | 12.04208 | 84° | 78km/h | 3612m | 3.1m/s | 2.1°C | 82.3% | 662.6hPa | 2.9V | 00:00:00 | 00:00:00 | 00:00:00 | |
| DB0NH | 2026-09-04 22:54:21 | 49.41120 | 12.04112 | 79° | 88km/h | 3600m | 4.9m/s | 2.2°C | 84.0% | 663.6hPa | 2.9V | 05:13:00 | 00:51:45 | 00:00:00 | |
| NBG1-10 | 2026-09-04 22:54:19 | 49.41108 | 12.04001 | 85° | 88km/h | 3585m | 4.1m/s | 2.2°C | 86.1% | 664.8hPa | 2.9V | 05:13:00 | 00:51:42 | 00:00:00 | |
| DO3MHA-11 | 2026-09-04 22:54:17 | 49.41106 | 12.03963 | 88° | 82km/h | 3580m | 5.1m/s | 2.2°C | 85.8% | 665.0hPa | 2.9V | 00:00:00 | 00:51:41 | 00:00:00 | |
| DO9HM | 2026-09-04 22:54:12 | 49.41107 | 12.03825 | 90° | 78km/h | 3557m | 4.9m/s | 2.4°C | 83.4% | 667.0hPa | 2.9V | 05:13:00 | 00:00:00 | 00:00:00 | |
| DO3MHA-11 | 2026-09-04 22:54:07 | 49.41092 | 12.03649 | 81° | 89km/h | 3533m | 3.3m/s | 2.5°C | 83.3% | 668.9hPa | 2.9V | 00:00:00 | 00:51:31 | 00:00:00 | |
| DL6DJ-15 | 2026-09-04 22:53:54 | 49.41057 | 12.03174 | 82° | 89km/h | 3457m | 6.7m/s | 2.5°C | 88.7% | 675.5hPa | 2.9V | 00:00:00 | 00:00:00 | 00:00:00 | |
| DO9HM | 2026-09-04 22:53:52 | 49.41057 | 12.03174 | 83° | 89km/h | 3457m | 6.7m/s | 2.5°C | 88.7% | 675.5hPa | 2.9V | 05:13:00 | 00:00:00 | 00:00:00 | |
| DB0NH | 2026-09-04 22:53:51 | 49.41055 | 12.03104 | 93° | 91km/h | 3444m | 5.6m/s | 2.5°C | 89.4% | 676.5hPa | 2.9V | 00:00:00 | 00:51:15 | 00:00:00 | |
| DO3MHA-11 | 2026-09-04 22:53:47 | 49.41059 | 12.02965 | 90° | 95km/h | 3423m | 3.0m/s | 2.6°C | 88.3% | 678.3hPa | 2.9V | 00:00:00 | 00:51:11 | 00:00:00 | |
| NBG1-10 | 2026-09-04 22:53:45 | 49.41056 | 12.02892 | 84° | 88km/h | 3415m | 5.6m/s | 2.6°C | 86.9% | 679.0hPa | 2.9V | 00:00:00 | 00:51:09 | 00:00:00 | |
| DO3MHA-11 | 2026-09-04 22:53:39 | 49.41023 | 12.02606 | 81° | 86km/h | 3382m | 3.6m/s | 2.4°C | 97.7% | 681.6hPa | 2.9V | 05:13:00 | 00:51:01 | 00:00:00 | |
| DO9HM | 2026-09-04 22:53:33 | 49.41015 | 12.02484 | 92° | 82km/h | 3365m | 4.1m/s | 2.5°C | 0% | 683.3hPa | 2.9V | 05:14:00 | 00:00:00 | 00:00:00 | |
| DO3MHA-11 | 2026-09-04 22:53:27 | 49.41009 | 12.02269 | 83° | 84km/h | 3335m | 5.2m/s | 2.6°C | 97.1% | 685.6hPa | 2.9V | 00:00:00 | 00:50:51 | 00:00:00 | |
| DL6DJ-15 | 2026-09-04 22:53:22 | 49.41004 | 12.02115 | 96° | 78km/h | 3310m | 4.9m/s | 2.9°C | 94.7% | 687.9hPa | 2.9V | 00:00:00 | 00:00:00 | 00:00:00 | |
| DB0NH | 2026-09-04 22:53:21 | 49.41006 | 12.02083 | 97° | 88km/h | 3305m | 4.9m/s | 2.9°C | 96.3% | 688.2hPa | 2.9V | 00:00:00 | 00:50:45 | 00:00:00 | |
| DO3MHA-11 | 2026-09-04 22:53:17 | 49.41008 | 12.01942 | 85° | 84km/h | 3286m | 6.3m/s | 3.0°C | 97.2% | 689.8hPa | 2.9V | 00:00:00 | 00:50:41 | 00:00:00 | |
| NBG1-10 | 2026-09-04 22:53:12 | 49.40995 | 12.01776 | 88° | 88km/h | 3256m | 4.6m/s | 3.1°C | 0% | 692.5hPa | 2.9V | 00:00:00 | 00:50:36 | 00:00:00 | |
| DO3MHA-11 | 2026-09-04 22:53:07 | 49.41000 | 12.01614 | 92° | 84km/h | 3232m | 5.4m/s | 3.2°C | 0% | 694.4hPa | 2.9V | 00:00:00 | 00:50:31 | 00:00:00 | |
| DO9HM | 2026-09-04 22:53:05 | 49.40999 | 12.01542 | 88° | 91km/h | 3221m | 4.9m/s | 3.3°C | 0% | 695.4hPa | 2.9V | 05:14:00 | 00:00:00 | 00:00:00 | |
| DO3MHA-11 | 2026-09-04 22:52:57 | 49.41010 | 12.01287 | 97° | 93km/h | 3179m | 4.8m/s | 3.4°C | 0% | 698.6hPa | 2.9V | 00:00:00 | 00:50:21 | 00:00:00 | |
| DB0NH | 2026-09-04 22:52:51 | 49.41005 | 12.01070 | 84° | 86km/h | 3149m | 4.1m/s | 3.6°C | 0% | 701.5hPa | 2.9V | 00:00:00 | 00:50:15 | 00:00:00 | |
| DO3MHA-11 | 2026-09-04 22:52:47 | 49.41000 | 12.00929 | 93° | 86km/h | 3125m | 5.1m/s | 3.7°C | 0% | 703.5hPa | 2.9V | 00:00:00 | 00:50:11 | 00:00:00 | |
| NBG1-10 | 2026-09-04 22:52:39 | 49.41002 | 12.00664 | 88° | 86km/h | 3074m | 6.3m/s | 4.0°C | 96.6% | 707.8hPa | 2.9V | 00:00:00 | 00:50:03 | 00:00:00 | |
| DO3MHA-11 | 2026-09-04 22:52:38 | 49.41001 | 12.00595 | 90° | 84km/h | 3063m | 6.3m/s | 4.1°C | 96.0% | 708.7hPa | 2.9V | 05:14:00 | 00:50:01 | 00:00:00 | |
| DO3MHA-11 | 2026-09-04 22:52:27 | 49.41011 | 12.00269 | 87° | 86km/h | 2996m | 5.7m/s | 4.7°C | 95.9% | 714.6hPa | 2.9V | 00:00:00 | 00:49:51 | 00:00:00 | |
| DB0NH | 2026-09-04 22:52:21 | 49.41012 | 12.00061 | 98° | 82km/h | 2961m | 7.5m/s | 5.1°C | 92.7% | 717.7hPa | 2.9V | 00:00:00 | 00:49:45 | 00:00:00 | |
| DL6DJ-15 | 2026-09-04 22:52:20 | 49.41015 | 12.00027 | 97° | 86km/h | 2954m | 7.1m/s | 5.2°C | -1.0% | 718.5hPa | 2.9V | 00:00:00 | 00:00:00 | 00:00:00 | |
| DO9HM | 2026-09-04 22:52:19 | 49.41015 | 12.00027 | 98° | 86km/h | 2954m | 7.1m/s | 0°C | 0% | 0hPa | 2.9V | 05:15:00 | 00:00:00 | 00:00:00 | |
| DO3MHA-11 | 2026-09-04 22:52:17 | 49.41019 | 11.99934 | 90° | 86km/h | 2936m | 5.3m/s | 5.3°C | 92.4% | 720.1hPa | 2.9V | 00:00:00 | 00:49:41 | 00:00:00 | |
| DO3MHA-11 | 2026-09-04 22:52:07 | 49.41022 | 11.99605 | 96° | 80km/h | 2876m | 5.9m/s | 5.5°C | 91.8% | 725.6hPa | 2.9V | 00:00:00 | 00:49:31 | 00:00:00 | |
| NBG1-10 | 2026-09-04 22:52:06 | 49.41024 | 11.99578 | 95° | 82km/h | 2871m | 4.7m/s | 5.5°C | 91.5% | 725.8hPa | 2.9V | 00:00:00 | 00:49:30 | 00:00:00 | |
| DL6DJ-15 | 2026-09-04 22:51:49 | 49.41056 | 11.99052 | 102° | 88km/h | 2771m | 6.1m/s | 6.4°C | -1.0% | 735.0hPa | 2.9V | 00:00:00 | 00:00:00 | 00:00:00 | |
| DO3MHA-11 | 2026-09-04 22:51:47 | 49.41065 | 11.98984 | 101° | 82km/h | 2760m | 5.1m/s | 6.3°C | 91.7% | 736.0hPa | 2.9V | 00:00:00 | 00:49:11 | 00:00:00 | |
| DO9HM | 2026-09-04 22:51:39 | 49.41078 | 11.98755 | 92° | 73km/h | 2710m | 6.9m/s | 0°C | 0% | 0hPa | 2.9V | 00:00:00 | 00:00:00 | 00:00:00 | |
| DO3MHA-11 | 2026-09-04 22:51:37 | 49.41083 | 11.98673 | 101° | 82km/h | 2692m | 5.5m/s | 6.7°C | 94.3% | 742.0hPa | 2.9V | 05:15:00 | 00:49:01 | 00:00:00 | |
| NBG1-10 | 2026-09-04 22:51:33 | 49.41094 | 11.98546 | 92° | 80km/h | 2669m | 7.5m/s | 6.9°C | 93.8% | 744.0hPa | 2.9V | 00:00:00 | 00:48:57 | 00:00:00 | |
| DO3MHA-11 | 2026-09-04 22:51:27 | 49.41086 | 11.98356 | 88° | 80km/h | 2635m | 5.9m/s | 7.2°C | 92.7% | 747.1hPa | 2.9V | 00:00:00 | 00:48:51 | 00:00:00 | |
| DB0NH | 2026-09-04 22:51:21 | 49.41095 | 11.98166 | 92° | 77km/h | 2594m | 7.5m/s | 7.6°C | 91.0% | 750.7hPa | 2.9V | 05:16:00 | 00:48:45 | 00:00:00 | |
| DL6DJ-15 | 2026-09-04 22:51:19 | 49.41095 | 11.98074 | 92° | 75km/h | 2576m | 5.9m/s | 7.8°C | -1.0% | -1.0hPa | 2.9V | 00:00:00 | 00:00:00 | 00:00:00 | |
| DO3MHA-11 | 2026-09-04 22:51:17 | 49.41097 | 11.98045 | 97° | 80km/h | 2570m | 5.5m/s | 7.8°C | 89.6% | 752.8hPa | 2.9V | 00:00:00 | 00:48:41 | 00:00:00 | |
| DO3MHA-11 | 2026-09-04 22:51:07 | 49.41127 | 11.97739 | 102° | 73km/h | 2511m | 7.2m/s | 8.2°C | 89.5% | 758.2hPa | 2.9V | 00:00:00 | 00:48:31 | 00:00:00 | |
| NBG1-10 | 2026-09-04 22:51:00 | 49.41139 | 11.97532 | 96° | 75km/h | 2473m | 5.2m/s | 8.4°C | 89.1% | 761.8hPa | 3.0V | 05:16:00 | 00:48:24 | 00:00:00 | |
| DO3MHA-11 | 2026-09-04 22:50:57 | 49.41149 | 11.97458 | 104° | 73km/h | 2454m | 5.3m/s | 8.6°C | 88.2% | 763.4hPa | 2.9V | 00:00:00 | 00:48:21 | 00:00:00 | |
| DB0NH | 2026-09-04 22:50:52 | 49.41161 | 11.97279 | 89° | 77km/h | 2424m | 4.8m/s | 8.8°C | 87.5% | 766.3hPa | 2.9V | 00:00:00 | 00:48:15 | 00:00:00 | |
| DO3MHA-11 | 2026-09-04 22:50:47 | 49.41166 | 11.97174 | 100° | 78km/h | 2404m | 5.5m/s | 8.9°C | 87.0% | 768.2hPa | 2.9V | 00:00:00 | 00:48:11 | 00:00:00 | |
| DO3MHA-11 | 2026-09-04 22:50:37 | 49.41205 | 11.96879 | 95° | 77km/h | 2348m | 5.0m/s | 8.9°C | 95.4% | 773.1hPa | 2.9V | 05:16:00 | 00:48:01 | 00:00:00 | |
| NBG1-10 | 2026-09-04 22:50:27 | 49.41234 | 11.96584 | 102° | 77km/h | 2291m | 6.1m/s | 9.1°C | 97.3% | 778.3hPa | 2.9V | 00:00:00 | 00:47:51 | 00:00:00 | |
| DB0NH | 2026-09-04 22:50:21 | 49.41240 | 11.96402 | 92° | 75km/h | 2254m | 5.9m/s | 9.5°C | 96.5% | 782.0hPa | 2.9V | 00:00:00 | 00:47:45 | 00:00:00 | |
| DO3MHA-11 | 2026-09-04 22:50:18 | 49.41246 | 11.96285 | 93° | 78km/h | 2228m | 6.6m/s | 9.7°C | 95.5% | 784.3hPa | 2.9V | 00:00:00 | 00:47:41 | 00:00:00 | |
| DL6DJ-15 | 2026-09-04 22:50:17 | 49.41246 | 11.96254 | 89° | 80km/h | 2222m | 5.8m/s | 0°C | -1.0% | -1.0hPa | 2.9V | 00:00:00 | 00:00:00 | 00:00:00 | |
| DO3MHA-11 | 2026-09-04 22:50:07 | 49.41252 | 11.95983 | 91° | 77km/h | 2169m | 6.5m/s | 10.3°C | 92.5% | 790.2hPa | 2.9V | 00:00:00 | 00:47:31 | 00:00:00 | |
| DO3MHA-11 | 2026-09-04 22:49:57 | 49.41265 | 11.95692 | 92° | 73km/h | 2112m | 6.2m/s | 10.8°C | 89.8% | 795.7hPa | 2.9V | 00:00:00 | 00:47:21 | 00:00:00 | |
| NBG1-10 | 2026-09-04 22:49:54 | 49.41268 | 11.95615 | 98° | 75km/h | 2093m | 7.5m/s | 10.7°C | 92.1% | 797.4hPa | 2.9V | 00:00:00 | 00:47:18 | 00:00:00 | |
| DB0NH | 2026-09-04 22:49:50 | 49.41279 | 11.95498 | 95° | 75km/h | 2068m | 5.4m/s | 11.1°C | 89.1% | 799.7hPa | 2.9V | 00:00:00 | 00:47:14 | 00:00:00 | |
| DO3MHA-11 | 2026-09-04 22:49:47 | 49.41282 | 11.95408 | 94° | 71km/h | 2050m | 5.4m/s | 11.1°C | 90.1% | 801.4hPa | 3.0V | 00:00:00 | 00:47:11 | 00:00:00 | |
| DO3MHA-11 | 2026-09-04 22:49:37 | 49.41309 | 11.95134 | 104° | 73km/h | 1990m | 6.3m/s | 11.6°C | 88.7% | 807.4hPa | 3.0V | 05:17:00 | 00:47:01 | 00:00:00 | |
| DO3MHA-11 | 2026-09-04 22:49:27 | 49.41344 | 11.94852 | 99° | 75km/h | 1932m | 5.5m/s | 12.0°C | 87.6% | 813.0hPa | 2.9V | 00:00:00 | 00:46:51 | 00:00:00 | |
| NBG1-10 | 2026-09-04 22:49:21 | 49.41360 | 11.94678 | 100° | 69km/h | 1898m | 4.8m/s | 12.4°C | 86.0% | 816.2hPa | 2.9V | 00:00:00 | 00:46:45 | 00:00:00 | |
| DB0NH | 2026-09-04 22:49:20 | 49.41363 | 11.94649 | 98° | 68km/h | 1894m | 5.3m/s | 12.4°C | 86.2% | 816.5hPa | 2.9V | 00:00:00 | 00:46:44 | 00:00:00 | |
| DO3MHA-11 | 2026-09-04 22:49:17 | 49.41367 | 11.94564 | 93° | 66km/h | 1879m | 4.8m/s | 12.1°C | 90.9% | 818.1hPa | 2.9V | 00:00:00 | 00:46:41 | 00:00:00 | |
| DL6DJ-15 | 2026-09-04 22:49:14 | 49.41393 | 11.94391 | 104° | 68km/h | 1836m | 6.1m/s | 0°C | -1.0% | -1.0hPa | 2.9V | 00:00:00 | 00:00:00 | 00:00:00 | |
| DO3MHA-11 | 2026-09-04 22:49:07 | 49.41407 | 11.94317 | 111° | 66km/h | 1815m | 8.1m/s | 12.4°C | 90.7% | 824.3hPa | 2.9V | 00:00:00 | 00:46:31 | 00:00:00 | |
| DO3MHA-11 | 2026-09-04 22:48:57 | 49.41467 | 11.94074 | 114° | 71km/h | 1750m | 5.7m/s | 13.0°C | 87.5% | 830.7hPa | 2.9V | 00:00:00 | 00:46:21 | 00:00:00 | |
| DB0NH | 2026-09-04 22:48:50 | 49.41510 | 11.93896 | 112° | 69km/h | 1702m | 8.4m/s | 0°C | 0% | 0hPa | 2.9V | 00:00:00 | 00:46:14 | 00:00:00 | |
| NBG1-10 | 2026-09-04 22:48:48 | 49.41522 | 11.93840 | 105° | 69km/h | 1686m | 6.5m/s | 13.5°C | 85.3% | 836.9hPa | 2.9V | 00:00:00 | 00:46:12 | 00:00:00 | |
| DO3MHA-11 | 2026-09-04 22:48:47 | 49.41527 | 11.93812 | 104° | 69km/h | 1679m | 7.4m/s | 13.6°C | 85.0% | 837.6hPa | 2.9V | 00:00:00 | 00:46:11 | 00:00:00 | |
| DL6DJ-15 | 2026-09-04 22:48:43 | 49.41545 | 11.93707 | 108° | 71km/h | 1650m | 7.1m/s | 0°C | -1.0% | -1.0hPa | 2.9V | 00:00:00 | 00:00:00 | 00:00:00 | |
| DO3MHA-11 | 2026-09-04 22:48:37 | 49.41575 | 11.93556 | 112° | 66km/h | 1611m | 7.1m/s | 14.2°C | 82.3% | 844.4hPa | 2.9V | 05:18:00 | 00:46:01 | 00:00:00 | |
| DB0NH | 2026-09-04 22:48:20 | 49.41700 | 11.93150 | 121° | 71km/h | 1487m | 6.7m/s | 0°C | 0% | 0hPa | 0V | 00:00:00 | 00:45:44 | 00:00:00 | |
| DO3MHA-11 | 2026-09-04 22:48:17 | 49.41727 | 11.93078 | 119° | 62km/h | 1467m | 4.9m/s | 0°C | 0% | 0hPa | 0V | 00:00:00 | 00:45:41 | 00:00:00 |